<?xml version='1.0' encoding='UTF-8'?><gpx version="1.1" creator="JPX - https://github.com/jenetics/jpx" xmlns="http://www.topografix.com/GPX/1/1"><trk><trkseg><trkpt lat="40.7907663" lon="17.1065011"><ele>372.1666666666667</ele><time>2026-04-25T05:57:28.657Z</time></trkpt><trkpt lat="40.7907397" lon="17.1065986"><ele>372.3333333333333</ele><time>2026-04-25T05:57:32.649Z</time></trkpt><trkpt lat="40.7907283" lon="17.1066937"><ele>372.5</ele><time>2026-04-25T05:57:34.644Z</time></trkpt><trkpt lat="40.7906774" lon="17.1067943"><ele>372.66666666666663</ele><time>2026-04-25T05:57:36.642Z</time></trkpt><trkpt lat="40.7906314" lon="17.1068827"><ele>372.8333333333333</ele><time>2026-04-25T05:57:38.649Z</time></trkpt><trkpt lat="40.7905879" lon="17.106961"><ele>373.0</ele><time>2026-04-25T05:57:40.648Z</time></trkpt><trkpt lat="40.7905337" lon="17.1070313"><ele>373.0</ele><time>2026-04-25T05:57:42.651Z</time></trkpt><trkpt lat="40.7904843" lon="17.1070998"><ele>373.0</ele><time>2026-04-25T05:57:44.663Z</time></trkpt><trkpt lat="40.7904448" lon="17.1071651"><ele>373.0</ele><time>2026-04-25T05:57:46.673Z</time></trkpt><trkpt lat="40.7904187" lon="17.1072698"><ele>373.0</ele><time>2026-04-25T05:58:01.657Z</time></trkpt><trkpt lat="40.790471" lon="17.1073906"><ele>373.0</ele><time>2026-04-25T05:58:04.65Z</time></trkpt><trkpt lat="40.7905336" lon="17.1074718"><ele>373.0</ele><time>2026-04-25T05:58:07.666Z</time></trkpt><trkpt lat="40.7905874" lon="17.1075427"><ele>372.2</ele><time>2026-04-25T05:58:10.652Z</time></trkpt><trkpt lat="40.790651" lon="17.1076516"><ele>371.4</ele><time>2026-04-25T05:58:13.655Z</time></trkpt><trkpt lat="40.7906883" lon="17.1077816"><ele>370.59999999999997</ele><time>2026-04-25T05:58:15.659Z</time></trkpt><trkpt lat="40.7907252" lon="17.1079011"><ele>369.79999999999995</ele><time>2026-04-25T05:58:17.652Z</time></trkpt><trkpt lat="40.7907691" lon="17.1080304"><ele>369.0</ele><time>2026-04-25T05:58:19.667Z</time></trkpt><trkpt lat="40.7908226" lon="17.1081671"><ele>368.0</ele><time>2026-04-25T05:58:21.663Z</time></trkpt><trkpt lat="40.7908786" lon="17.1083103"><ele>367.0</ele><time>2026-04-25T05:58:23.657Z</time></trkpt><trkpt lat="40.7909013" lon="17.1083886"><ele>366.0</ele><time>2026-04-25T05:58:24.661Z</time></trkpt><trkpt lat="40.7909468" lon="17.1085484"><ele>365.0</ele><time>2026-04-25T05:58:26.662Z</time></trkpt><trkpt lat="40.7909671" lon="17.1086331"><ele>364.0</ele><time>2026-04-25T05:58:27.665Z</time></trkpt><trkpt lat="40.7909947" lon="17.1087953"><ele>364.0</ele><time>2026-04-25T05:58:29.652Z</time></trkpt><trkpt lat="40.7910162" lon="17.1089419"><ele>364.0</ele><time>2026-04-25T05:58:31.653Z</time></trkpt><trkpt lat="40.7910391" lon="17.1090716"><ele>364.0</ele><time>2026-04-25T05:58:33.658Z</time></trkpt><trkpt lat="40.7910581" lon="17.1091708"><ele>364.0</ele><time>2026-04-25T05:58:35.668Z</time></trkpt><trkpt lat="40.7910784" lon="17.1092771"><ele>364.0</ele><time>2026-04-25T05:58:38.672Z</time></trkpt><trkpt lat="40.791105" lon="17.1093702"><ele>365.0</ele><time>2026-04-25T05:58:41.668Z</time></trkpt><trkpt lat="40.7911247" lon="17.1094525"><ele>366.0</ele><time>2026-04-25T05:58:43.678Z</time></trkpt><trkpt lat="40.7911499" lon="17.1095404"><ele>367.0</ele><time>2026-04-25T05:58:45.637Z</time></trkpt><trkpt lat="40.7911815" lon="17.1096318"><ele>368.0</ele><time>2026-04-25T05:58:47.645Z</time></trkpt><trkpt lat="40.7912143" lon="17.1097221"><ele>369.0</ele><time>2026-04-25T05:58:49.654Z</time></trkpt><trkpt lat="40.7912458" lon="17.1098069"><ele>370.0</ele><time>2026-04-25T05:58:51.651Z</time></trkpt><trkpt lat="40.7912811" lon="17.1098891"><ele>371.0</ele><time>2026-04-25T05:58:53.665Z</time></trkpt><trkpt lat="40.7913118" lon="17.1099648"><ele>371.5</ele><time>2026-04-25T05:58:55.66Z</time></trkpt><trkpt lat="40.7913701" lon="17.1100586"><ele>372.0</ele><time>2026-04-25T05:58:58.652Z</time></trkpt><trkpt lat="40.791426" lon="17.110155"><ele>372.5</ele><time>2026-04-25T05:59:01.65Z</time></trkpt><trkpt lat="40.7914857" lon="17.1102523"><ele>373.0</ele><time>2026-04-25T05:59:04.662Z</time></trkpt><trkpt lat="40.7915247" lon="17.1103208"><ele>373.5</ele><time>2026-04-25T05:59:06.651Z</time></trkpt><trkpt lat="40.7915599" lon="17.1103901"><ele>374.0</ele><time>2026-04-25T05:59:08.658Z</time></trkpt><trkpt lat="40.7915915" lon="17.1104655"><ele>374.0</ele><time>2026-04-25T05:59:10.656Z</time></trkpt><trkpt lat="40.7916333" lon="17.110557"><ele>374.0</ele><time>2026-04-25T05:59:13.657Z</time></trkpt><trkpt lat="40.791657" lon="17.1106356"><ele>374.0</ele><time>2026-04-25T05:59:16.646Z</time></trkpt><trkpt lat="40.7916936" lon="17.1107279"><ele>374.0</ele><time>2026-04-25T05:59:20.654Z</time></trkpt><trkpt lat="40.7917221" lon="17.1108418"><ele>374.0</ele><time>2026-04-25T05:59:23.651Z</time></trkpt><trkpt lat="40.7917471" lon="17.1109404"><ele>374.0</ele><time>2026-04-25T05:59:26.649Z</time></trkpt><trkpt lat="40.7917816" lon="17.1110341"><ele>374.0</ele><time>2026-04-25T05:59:29.654Z</time></trkpt><trkpt lat="40.7918156" lon="17.1111058"><ele>374.0</ele><time>2026-04-25T05:59:31.656Z</time></trkpt><trkpt lat="40.7918578" lon="17.1112135"><ele>374.0</ele><time>2026-04-25T05:59:34.661Z</time></trkpt><trkpt lat="40.7918961" lon="17.1113094"><ele>374.0</ele><time>2026-04-25T05:59:37.659Z</time></trkpt><trkpt lat="40.7919309" lon="17.1114211"><ele>374.0</ele><time>2026-04-25T05:59:40.657Z</time></trkpt><trkpt lat="40.7919742" lon="17.1115215"><ele>374.0</ele><time>2026-04-25T05:59:43.674Z</time></trkpt><trkpt lat="40.7920008" lon="17.1116024"><ele>373.79999999999995</ele><time>2026-04-25T05:59:45.653Z</time></trkpt><trkpt lat="40.7920306" lon="17.1116788"><ele>373.59999999999997</ele><time>2026-04-25T05:59:47.653Z</time></trkpt><trkpt lat="40.7920571" lon="17.1117748"><ele>373.4</ele><time>2026-04-25T05:59:49.658Z</time></trkpt><trkpt lat="40.7920917" lon="17.1118842"><ele>373.2</ele><time>2026-04-25T05:59:51.672Z</time></trkpt><trkpt lat="40.7921225" lon="17.1120128"><ele>373.0</ele><time>2026-04-25T05:59:53.678Z</time></trkpt><trkpt lat="40.7921554" lon="17.1121623"><ele>373.0</ele><time>2026-04-25T05:59:55.655Z</time></trkpt><trkpt lat="40.7921749" lon="17.1122458"><ele>373.0</ele><time>2026-04-25T05:59:56.66Z</time></trkpt><trkpt lat="40.7921937" lon="17.1123362"><ele>373.0</ele><time>2026-04-25T05:59:57.666Z</time></trkpt><trkpt lat="40.7922118" lon="17.1124233"><ele>373.0</ele><time>2026-04-25T05:59:58.658Z</time></trkpt><trkpt lat="40.7922312" lon="17.1125128"><ele>373.0</ele><time>2026-04-25T05:59:59.651Z</time></trkpt><trkpt lat="40.7922444" lon="17.1126078"><ele>373.0</ele><time>2026-04-25T06:00:00.65Z</time></trkpt><trkpt lat="40.7922585" lon="17.1127011"><ele>373.0</ele><time>2026-04-25T06:00:01.655Z</time></trkpt><trkpt lat="40.7922712" lon="17.1127933"><ele>372.66666666666663</ele><time>2026-04-25T06:00:02.701Z</time></trkpt><trkpt lat="40.7922778" lon="17.1128866"><ele>372.3333333333333</ele><time>2026-04-25T06:00:03.664Z</time></trkpt><trkpt lat="40.7922816" lon="17.1129782"><ele>372.0</ele><time>2026-04-25T06:00:04.657Z</time></trkpt><trkpt lat="40.7922872" lon="17.1130714"><ele>371.6666666666667</ele><time>2026-04-25T06:00:05.661Z</time></trkpt><trkpt lat="40.7922919" lon="17.1131609"><ele>371.33333333333337</ele><time>2026-04-25T06:00:06.659Z</time></trkpt><trkpt lat="40.7923002" lon="17.1132439"><ele>371.0</ele><time>2026-04-25T06:00:07.679Z</time></trkpt><trkpt lat="40.7923085" lon="17.1133993"><ele>370.5</ele><time>2026-04-25T06:00:09.661Z</time></trkpt><trkpt lat="40.7923096" lon="17.1135337"><ele>370.0</ele><time>2026-04-25T06:00:11.668Z</time></trkpt><trkpt lat="40.7923059" lon="17.1136521"><ele>369.5</ele><time>2026-04-25T06:00:13.663Z</time></trkpt><trkpt lat="40.7923041" lon="17.113764"><ele>369.0</ele><time>2026-04-25T06:00:15.66Z</time></trkpt><trkpt lat="40.7922876" lon="17.1138658"><ele>368.5</ele><time>2026-04-25T06:00:17.656Z</time></trkpt><trkpt lat="40.792267" lon="17.1139694"><ele>368.0</ele><time>2026-04-25T06:00:19.656Z</time></trkpt><trkpt lat="40.7922583" lon="17.114059"><ele>368.1666666666667</ele><time>2026-04-25T06:00:21.634Z</time></trkpt><trkpt lat="40.7922521" lon="17.1141467"><ele>368.33333333333337</ele><time>2026-04-25T06:00:23.645Z</time></trkpt><trkpt lat="40.792233" lon="17.1142623"><ele>368.5</ele><time>2026-04-25T06:00:26.643Z</time></trkpt><trkpt lat="40.7922056" lon="17.1143917"><ele>368.6666666666667</ele><time>2026-04-25T06:00:29.64Z</time></trkpt><trkpt lat="40.7921935" lon="17.1145005"><ele>368.8333333333333</ele><time>2026-04-25T06:00:31.657Z</time></trkpt><trkpt lat="40.7921711" lon="17.114598"><ele>369.0</ele><time>2026-04-25T06:00:33.676Z</time></trkpt><trkpt lat="40.7921646" lon="17.1146885"><ele>369.0</ele><time>2026-04-25T06:00:35.663Z</time></trkpt><trkpt lat="40.7921507" lon="17.1147971"><ele>369.0</ele><time>2026-04-25T06:00:37.663Z</time></trkpt><trkpt lat="40.7921425" lon="17.1148881"><ele>369.0</ele><time>2026-04-25T06:00:39.662Z</time></trkpt><trkpt lat="40.7921371" lon="17.1149794"><ele>369.0</ele><time>2026-04-25T06:00:41.669Z</time></trkpt><trkpt lat="40.7921298" lon="17.1150751"><ele>369.0</ele><time>2026-04-25T06:00:43.694Z</time></trkpt><trkpt lat="40.7921182" lon="17.1151658"><ele>369.0</ele><time>2026-04-25T06:00:45.657Z</time></trkpt><trkpt lat="40.7921018" lon="17.1152475"><ele>369.0</ele><time>2026-04-25T06:00:47.658Z</time></trkpt><trkpt lat="40.7920797" lon="17.1153719"><ele>369.5</ele><time>2026-04-25T06:00:50.649Z</time></trkpt><trkpt lat="40.7920653" lon="17.1154605"><ele>370.0</ele><time>2026-04-25T06:00:52.661Z</time></trkpt><trkpt lat="40.792046" lon="17.1155412"><ele>370.5</ele><time>2026-04-25T06:00:54.656Z</time></trkpt><trkpt lat="40.7920161" lon="17.1156559"><ele>371.0</ele><time>2026-04-25T06:00:57.664Z</time></trkpt><trkpt lat="40.791994" lon="17.1157471"><ele>371.5</ele><time>2026-04-25T06:00:59.65Z</time></trkpt><trkpt lat="40.7919705" lon="17.1158434"><ele>372.0</ele><time>2026-04-25T06:01:01.653Z</time></trkpt><trkpt lat="40.7919579" lon="17.1159446"><ele>372.1666666666667</ele><time>2026-04-25T06:01:03.664Z</time></trkpt><trkpt lat="40.7919746" lon="17.1160434"><ele>372.3333333333333</ele><time>2026-04-25T06:01:05.638Z</time></trkpt><trkpt lat="40.792005" lon="17.1161275"><ele>372.5</ele><time>2026-04-25T06:01:07.681Z</time></trkpt><trkpt lat="40.7920308" lon="17.116223"><ele>372.66666666666663</ele><time>2026-04-25T06:01:09.678Z</time></trkpt><trkpt lat="40.7920528" lon="17.1163315"><ele>372.8333333333333</ele><time>2026-04-25T06:01:11.691Z</time></trkpt><trkpt lat="40.792082" lon="17.1164336"><ele>373.0</ele><time>2026-04-25T06:01:13.68Z</time></trkpt><trkpt lat="40.7921076" lon="17.1165273"><ele>373.16666666666663</ele><time>2026-04-25T06:01:15.694Z</time></trkpt><trkpt lat="40.7921326" lon="17.1166202"><ele>373.3333333333333</ele><time>2026-04-25T06:01:17.673Z</time></trkpt><trkpt lat="40.7921575" lon="17.1167224"><ele>373.5</ele><time>2026-04-25T06:01:19.683Z</time></trkpt><trkpt lat="40.7921785" lon="17.1168259"><ele>373.6666666666667</ele><time>2026-04-25T06:01:21.675Z</time></trkpt><trkpt lat="40.7921915" lon="17.1169298"><ele>373.83333333333337</ele><time>2026-04-25T06:01:23.69Z</time></trkpt><trkpt lat="40.7922088" lon="17.1170332"><ele>374.0</ele><time>2026-04-25T06:01:25.68Z</time></trkpt><trkpt lat="40.7922266" lon="17.1171399"><ele>374.0</ele><time>2026-04-25T06:01:27.654Z</time></trkpt><trkpt lat="40.7922411" lon="17.1172544"><ele>374.0</ele><time>2026-04-25T06:01:29.667Z</time></trkpt><trkpt lat="40.7922639" lon="17.1173545"><ele>374.0</ele><time>2026-04-25T06:01:31.664Z</time></trkpt><trkpt lat="40.7922834" lon="17.1174587"><ele>374.0</ele><time>2026-04-25T06:01:33.718Z</time></trkpt><trkpt lat="40.7923081" lon="17.1175621"><ele>374.0</ele><time>2026-04-25T06:01:35.674Z</time></trkpt><trkpt lat="40.7923353" lon="17.1176536"><ele>374.0</ele><time>2026-04-25T06:01:37.64Z</time></trkpt><trkpt lat="40.7923647" lon="17.1177405"><ele>374.1666666666667</ele><time>2026-04-25T06:01:39.676Z</time></trkpt><trkpt lat="40.7923994" lon="17.117833"><ele>374.33333333333337</ele><time>2026-04-25T06:01:41.686Z</time></trkpt><trkpt lat="40.7924295" lon="17.1179161"><ele>374.5</ele><time>2026-04-25T06:01:43.668Z</time></trkpt><trkpt lat="40.7924729" lon="17.1180313"><ele>374.6666666666667</ele><time>2026-04-25T06:01:46.688Z</time></trkpt><trkpt lat="40.7925184" lon="17.1181359"><ele>374.8333333333333</ele><time>2026-04-25T06:01:49.666Z</time></trkpt><trkpt lat="40.7925522" lon="17.118215"><ele>375.0</ele><time>2026-04-25T06:01:51.662Z</time></trkpt><trkpt lat="40.7925855" lon="17.1182937"><ele>375.1666666666667</ele><time>2026-04-25T06:01:53.707Z</time></trkpt><trkpt lat="40.7926265" lon="17.1183849"><ele>375.3333333333333</ele><time>2026-04-25T06:01:56.664Z</time></trkpt><trkpt lat="40.79267" lon="17.1184879"><ele>375.5</ele><time>2026-04-25T06:01:59.665Z</time></trkpt><trkpt lat="40.792707" lon="17.1185818"><ele>375.66666666666663</ele><time>2026-04-25T06:02:02.658Z</time></trkpt><trkpt lat="40.7927443" lon="17.1186844"><ele>375.8333333333333</ele><time>2026-04-25T06:02:05.679Z</time></trkpt><trkpt lat="40.7927793" lon="17.1187794"><ele>376.0</ele><time>2026-04-25T06:02:08.661Z</time></trkpt><trkpt lat="40.7928104" lon="17.1188545"><ele>376.5</ele><time>2026-04-25T06:02:10.648Z</time></trkpt><trkpt lat="40.7928415" lon="17.1189539"><ele>377.0</ele><time>2026-04-25T06:02:13.662Z</time></trkpt><trkpt lat="40.7928519" lon="17.1190661"><ele>377.5</ele><time>2026-04-25T06:02:16.656Z</time></trkpt><trkpt lat="40.7928244" lon="17.1191663"><ele>378.0</ele><time>2026-04-25T06:02:21.654Z</time></trkpt><trkpt lat="40.7928212" lon="17.1192779"><ele>378.5</ele><time>2026-04-25T06:02:24.678Z</time></trkpt><trkpt lat="40.7928597" lon="17.1193785"><ele>379.0</ele><time>2026-04-25T06:02:27.657Z</time></trkpt><trkpt lat="40.7929136" lon="17.1194243"><ele>379.7142857142857</ele><time>2026-04-25T06:02:32.664Z</time></trkpt><trkpt lat="40.7929542" lon="17.1194902"><ele>380.42857142857144</ele><time>2026-04-25T06:02:38.662Z</time></trkpt><trkpt lat="40.7929551" lon="17.1195818"><ele>381.1428571428571</ele><time>2026-04-25T06:02:46.661Z</time></trkpt><trkpt lat="40.7929534" lon="17.1196738"><ele>381.8571428571429</ele><time>2026-04-25T06:02:54.664Z</time></trkpt><trkpt lat="40.792976" lon="17.1197576"><ele>382.57142857142856</ele><time>2026-04-25T06:03:03.661Z</time></trkpt><trkpt lat="40.7929806" lon="17.1198548"><ele>383.2857142857143</ele><time>2026-04-25T06:03:11.658Z</time></trkpt><trkpt lat="40.7930033" lon="17.1199338"><ele>384.0</ele><time>2026-04-25T06:03:18.653Z</time></trkpt><trkpt lat="40.7930324" lon="17.1200173"><ele>385.1428571428571</ele><time>2026-04-25T06:03:30.667Z</time></trkpt><trkpt lat="40.7930622" lon="17.1201057"><ele>386.2857142857143</ele><time>2026-04-25T06:03:37.671Z</time></trkpt><trkpt lat="40.7930967" lon="17.1201773"><ele>387.42857142857144</ele><time>2026-04-25T06:03:44.664Z</time></trkpt><trkpt lat="40.7931334" lon="17.1202564"><ele>388.57142857142856</ele><time>2026-04-25T06:03:57.659Z</time></trkpt><trkpt lat="40.7931789" lon="17.1203231"><ele>389.7142857142857</ele><time>2026-04-25T06:04:04.666Z</time></trkpt><trkpt lat="40.793217" lon="17.1203906"><ele>390.85714285714283</ele><time>2026-04-25T06:04:11.662Z</time></trkpt><trkpt lat="40.7932673" lon="17.1204562"><ele>392.0</ele><time>2026-04-25T06:04:18.677Z</time></trkpt><trkpt lat="40.7933179" lon="17.1205226"><ele>392.0</ele><time>2026-04-25T06:04:25.656Z</time></trkpt><trkpt lat="40.7933729" lon="17.120566"><ele>392.0</ele><time>2026-04-25T06:04:31.657Z</time></trkpt><trkpt lat="40.7934259" lon="17.1206116"><ele>392.0</ele><time>2026-04-25T06:04:39.656Z</time></trkpt><trkpt lat="40.7934853" lon="17.1206407"><ele>392.0</ele><time>2026-04-25T06:04:46.669Z</time></trkpt><trkpt lat="40.7935532" lon="17.1206612"><ele>392.0</ele><time>2026-04-25T06:04:55.647Z</time></trkpt><trkpt lat="40.7936202" lon="17.1206903"><ele>392.0</ele><time>2026-04-25T06:05:03.659Z</time></trkpt><trkpt lat="40.79368" lon="17.1207349"><ele>392.0</ele><time>2026-04-25T06:05:10.658Z</time></trkpt><trkpt lat="40.793746" lon="17.1207628"><ele>394.0</ele><time>2026-04-25T06:05:17.654Z</time></trkpt><trkpt lat="40.7938077" lon="17.1208131"><ele>396.0</ele><time>2026-04-25T06:05:25.653Z</time></trkpt><trkpt lat="40.7938563" lon="17.1208686"><ele>398.0</ele><time>2026-04-25T06:05:31.664Z</time></trkpt><trkpt lat="40.7939076" lon="17.120935"><ele>400.0</ele><time>2026-04-25T06:05:38.663Z</time></trkpt><trkpt lat="40.7939516" lon="17.1209957"><ele>402.0</ele><time>2026-04-25T06:05:46.656Z</time></trkpt><trkpt lat="40.7939969" lon="17.1210664"><ele>404.0</ele><time>2026-04-25T06:05:58.67Z</time></trkpt><trkpt lat="40.7940316" lon="17.1211414"><ele>406.0</ele><time>2026-04-25T06:06:05.645Z</time></trkpt><trkpt lat="40.7940728" lon="17.1212089"><ele>406.0</ele><time>2026-04-25T06:06:13.637Z</time></trkpt><trkpt lat="40.794122" lon="17.1212762"><ele>406.0</ele><time>2026-04-25T06:06:24.668Z</time></trkpt><trkpt lat="40.7941609" lon="17.1213469"><ele>406.0</ele><time>2026-04-25T06:06:31.635Z</time></trkpt><trkpt lat="40.7942062" lon="17.1214128"><ele>406.0</ele><time>2026-04-25T06:06:37.682Z</time></trkpt><trkpt lat="40.7942634" lon="17.1214662"><ele>406.0</ele><time>2026-04-25T06:06:44.643Z</time></trkpt><trkpt lat="40.7942891" lon="17.1215527"><ele>406.0</ele><time>2026-04-25T06:06:53.663Z</time></trkpt><trkpt lat="40.7942856" lon="17.1216425"><ele>406.0</ele><time>2026-04-25T06:07:01.693Z</time></trkpt><trkpt lat="40.7942421" lon="17.1217029"><ele>407.14285714285717</ele><time>2026-04-25T06:07:09.675Z</time></trkpt><trkpt lat="40.7942067" lon="17.1217797"><ele>408.2857142857143</ele><time>2026-04-25T06:07:19.655Z</time></trkpt><trkpt lat="40.7942671" lon="17.1217333"><ele>409.42857142857144</ele><time>2026-04-25T06:07:34.649Z</time></trkpt><trkpt lat="40.79433" lon="17.1216677"><ele>410.57142857142856</ele><time>2026-04-25T06:07:37.662Z</time></trkpt><trkpt lat="40.7943864" lon="17.1217402"><ele>411.7142857142857</ele><time>2026-04-25T06:07:40.646Z</time></trkpt><trkpt lat="40.7944218" lon="17.1218154"><ele>412.8571428571429</ele><time>2026-04-25T06:07:42.652Z</time></trkpt><trkpt lat="40.7944605" lon="17.1218895"><ele>414.0</ele><time>2026-04-25T06:07:44.662Z</time></trkpt><trkpt lat="40.7944892" lon="17.1219695"><ele>414.3333333333333</ele><time>2026-04-25T06:07:46.647Z</time></trkpt><trkpt lat="40.7945334" lon="17.122048"><ele>414.66666666666663</ele><time>2026-04-25T06:07:48.662Z</time></trkpt><trkpt lat="40.7945833" lon="17.1221466"><ele>415.0</ele><time>2026-04-25T06:07:51.649Z</time></trkpt><trkpt lat="40.7946507" lon="17.1222047"><ele>415.3333333333333</ele><time>2026-04-25T06:07:54.645Z</time></trkpt><trkpt lat="40.7947307" lon="17.1221919"><ele>415.66666666666663</ele><time>2026-04-25T06:07:56.652Z</time></trkpt><trkpt lat="40.7948011" lon="17.1221444"><ele>416.0</ele><time>2026-04-25T06:07:59.659Z</time></trkpt><trkpt lat="40.7948584" lon="17.1220922"><ele>416.0</ele><time>2026-04-25T06:08:03.655Z</time></trkpt><trkpt lat="40.7949123" lon="17.1220452"><ele>416.0</ele><time>2026-04-25T06:08:07.649Z</time></trkpt><trkpt lat="40.7949664" lon="17.1219896"><ele>416.0</ele><time>2026-04-25T06:08:11.643Z</time></trkpt><trkpt lat="40.7950245" lon="17.1220382"><ele>416.0</ele><time>2026-04-25T06:08:14.643Z</time></trkpt><trkpt lat="40.7950653" lon="17.1221035"><ele>416.0</ele><time>2026-04-25T06:08:16.648Z</time></trkpt><trkpt lat="40.795127" lon="17.1221879"><ele>416.0</ele><time>2026-04-25T06:08:19.65Z</time></trkpt><trkpt lat="40.795175" lon="17.1222849"><ele>416.0</ele><time>2026-04-25T06:08:22.663Z</time></trkpt><trkpt lat="40.7952246" lon="17.1223479"><ele>417.16666666666663</ele><time>2026-04-25T06:08:26.648Z</time></trkpt><trkpt lat="40.7952739" lon="17.1224368"><ele>418.3333333333333</ele><time>2026-04-25T06:08:30.66Z</time></trkpt><trkpt lat="40.795287" lon="17.1225402"><ele>419.5</ele><time>2026-04-25T06:08:34.664Z</time></trkpt><trkpt lat="40.7953161" lon="17.1226215"><ele>420.66666666666663</ele><time>2026-04-25T06:08:37.665Z</time></trkpt><trkpt lat="40.7953608" lon="17.1227071"><ele>421.8333333333333</ele><time>2026-04-25T06:08:40.66Z</time></trkpt><trkpt lat="40.7954134" lon="17.1227805"><ele>423.0</ele><time>2026-04-25T06:08:43.66Z</time></trkpt><trkpt lat="40.7954812" lon="17.1228309"><ele>423.0</ele><time>2026-04-25T06:08:47.655Z</time></trkpt><trkpt lat="40.7955592" lon="17.1228197"><ele>423.0</ele><time>2026-04-25T06:08:51.663Z</time></trkpt><trkpt lat="40.7956312" lon="17.1227827"><ele>423.0</ele><time>2026-04-25T06:08:54.65Z</time></trkpt><trkpt lat="40.7957081" lon="17.1227313"><ele>423.0</ele><time>2026-04-25T06:08:57.665Z</time></trkpt><trkpt lat="40.795788" lon="17.1226729"><ele>423.0</ele><time>2026-04-25T06:09:00.655Z</time></trkpt><trkpt lat="40.7958547" lon="17.1226049"><ele>423.0</ele><time>2026-04-25T06:09:03.647Z</time></trkpt><trkpt lat="40.7959149" lon="17.1225517"><ele>423.0</ele><time>2026-04-25T06:09:05.658Z</time></trkpt><trkpt lat="40.7959754" lon="17.1224966"><ele>423.0</ele><time>2026-04-25T06:09:07.665Z</time></trkpt><trkpt lat="40.7960584" lon="17.1224468"><ele>423.0</ele><time>2026-04-25T06:09:09.646Z</time></trkpt><trkpt lat="40.7961091" lon="17.1223889"><ele>423.0</ele><time>2026-04-25T06:09:11.656Z</time></trkpt><trkpt lat="40.7961616" lon="17.1223084"><ele>423.0</ele><time>2026-04-25T06:09:14.657Z</time></trkpt><trkpt lat="40.7961801" lon="17.1222042"><ele>423.0</ele><time>2026-04-25T06:09:17.691Z</time></trkpt><trkpt lat="40.7961974" lon="17.1221055"><ele>422.1666666666667</ele><time>2026-04-25T06:09:20.656Z</time></trkpt><trkpt lat="40.7962642" lon="17.1220468"><ele>421.33333333333337</ele><time>2026-04-25T06:09:23.654Z</time></trkpt><trkpt lat="40.7963226" lon="17.1220146"><ele>420.5</ele><time>2026-04-25T06:09:25.656Z</time></trkpt><trkpt lat="40.7964089" lon="17.1219666"><ele>419.6666666666667</ele><time>2026-04-25T06:09:28.646Z</time></trkpt><trkpt lat="40.7965028" lon="17.1219486"><ele>418.83333333333337</ele><time>2026-04-25T06:09:31.667Z</time></trkpt><trkpt lat="40.796584" lon="17.1219019"><ele>418.0</ele><time>2026-04-25T06:09:33.67Z</time></trkpt><trkpt lat="40.7966579" lon="17.1218496"><ele>418.00000000000006</ele><time>2026-04-25T06:09:35.648Z</time></trkpt><trkpt lat="40.7967303" lon="17.1218066"><ele>418.0</ele><time>2026-04-25T06:09:37.66Z</time></trkpt><trkpt lat="40.7967985" lon="17.1217298"><ele>418.0</ele><time>2026-04-25T06:09:39.657Z</time></trkpt><trkpt lat="40.7968721" lon="17.1216519"><ele>418.0</ele><time>2026-04-25T06:09:41.667Z</time></trkpt><trkpt lat="40.7969234" lon="17.1215818"><ele>418.00000000000006</ele><time>2026-04-25T06:09:43.66Z</time></trkpt><trkpt lat="40.7969682" lon="17.121518"><ele>418.0</ele><time>2026-04-25T06:09:45.66Z</time></trkpt><trkpt lat="40.7970124" lon="17.1214559"><ele>417.85714285714283</ele><time>2026-04-25T06:09:47.677Z</time></trkpt><trkpt lat="40.7970568" lon="17.1213879"><ele>417.71428571428567</ele><time>2026-04-25T06:09:49.654Z</time></trkpt><trkpt lat="40.7971102" lon="17.1212989"><ele>417.57142857142856</ele><time>2026-04-25T06:09:52.663Z</time></trkpt><trkpt lat="40.7971555" lon="17.1212184"><ele>417.42857142857144</ele><time>2026-04-25T06:09:55.673Z</time></trkpt><trkpt lat="40.7971936" lon="17.1211493"><ele>417.2857142857143</ele><time>2026-04-25T06:09:57.667Z</time></trkpt><trkpt lat="40.7972345" lon="17.1210686"><ele>417.14285714285717</ele><time>2026-04-25T06:10:00.66Z</time></trkpt><trkpt lat="40.7972748" lon="17.1209841"><ele>417.0</ele><time>2026-04-25T06:10:03.66Z</time></trkpt><trkpt lat="40.7973182" lon="17.1208898"><ele>417.0</ele><time>2026-04-25T06:10:06.661Z</time></trkpt><trkpt lat="40.7973671" lon="17.1208025"><ele>417.0</ele><time>2026-04-25T06:10:09.659Z</time></trkpt><trkpt lat="40.7974117" lon="17.1207095"><ele>417.0</ele><time>2026-04-25T06:10:12.654Z</time></trkpt><trkpt lat="40.7974445" lon="17.12061"><ele>417.0</ele><time>2026-04-25T06:10:16.659Z</time></trkpt><trkpt lat="40.7974986" lon="17.1205223"><ele>417.0</ele><time>2026-04-25T06:10:20.658Z</time></trkpt><trkpt lat="40.7975324" lon="17.1204516"><ele>417.0</ele><time>2026-04-25T06:10:23.659Z</time></trkpt><trkpt lat="40.7975726" lon="17.1203749"><ele>416.6</ele><time>2026-04-25T06:10:26.656Z</time></trkpt><trkpt lat="40.7976155" lon="17.1202979"><ele>416.20000000000005</ele><time>2026-04-25T06:10:30.662Z</time></trkpt><trkpt lat="40.7977511" lon="17.1203165"><ele>415.8</ele><time>2026-04-25T06:15:03.658Z</time></trkpt><trkpt lat="40.7978325" lon="17.1203734"><ele>415.4</ele><time>2026-04-25T06:15:06.658Z</time></trkpt><trkpt lat="40.7978971" lon="17.1204591"><ele>415.0</ele><time>2026-04-25T06:15:08.655Z</time></trkpt><trkpt lat="40.7979694" lon="17.1204871"><ele>414.6</ele><time>2026-04-25T06:15:10.664Z</time></trkpt><trkpt lat="40.79802" lon="17.1205381"><ele>414.2</ele><time>2026-04-25T06:15:12.655Z</time></trkpt><trkpt lat="40.7980636" lon="17.1206081"><ele>413.79999999999995</ele><time>2026-04-25T06:15:14.654Z</time></trkpt><trkpt lat="40.7981317" lon="17.1206955"><ele>413.4</ele><time>2026-04-25T06:15:16.647Z</time></trkpt><trkpt lat="40.7982025" lon="17.1207884"><ele>413.0</ele><time>2026-04-25T06:15:18.658Z</time></trkpt><trkpt lat="40.7983155" lon="17.1208682"><ele>413.0</ele><time>2026-04-25T06:15:20.65Z</time></trkpt><trkpt lat="40.7983769" lon="17.1209035"><ele>413.0</ele><time>2026-04-25T06:15:21.657Z</time></trkpt><trkpt lat="40.7984791" lon="17.1210034"><ele>413.0</ele><time>2026-04-25T06:15:23.668Z</time></trkpt><trkpt lat="40.7985655" lon="17.1210952"><ele>413.0</ele><time>2026-04-25T06:15:25.669Z</time></trkpt><trkpt lat="40.7986562" lon="17.1211926"><ele>413.0</ele><time>2026-04-25T06:15:27.655Z</time></trkpt><trkpt lat="40.798723" lon="17.1212938"><ele>412.59999999999997</ele><time>2026-04-25T06:15:29.646Z</time></trkpt><trkpt lat="40.7986922" lon="17.1213975"><ele>412.2</ele><time>2026-04-25T06:15:31.659Z</time></trkpt><trkpt lat="40.7986243" lon="17.121497"><ele>411.8</ele><time>2026-04-25T06:15:33.672Z</time></trkpt><trkpt lat="40.7985596" lon="17.121604"><ele>411.4</ele><time>2026-04-25T06:15:35.665Z</time></trkpt><trkpt lat="40.7984902" lon="17.1217003"><ele>411.0</ele><time>2026-04-25T06:15:37.666Z</time></trkpt><trkpt lat="40.7984393" lon="17.1218109"><ele>411.0</ele><time>2026-04-25T06:15:39.66Z</time></trkpt><trkpt lat="40.798407" lon="17.1219273"><ele>411.0</ele><time>2026-04-25T06:15:41.66Z</time></trkpt><trkpt lat="40.7983905" lon="17.1220226"><ele>411.0</ele><time>2026-04-25T06:15:43.652Z</time></trkpt><trkpt lat="40.7983952" lon="17.1221287"><ele>411.0</ele><time>2026-04-25T06:15:45.656Z</time></trkpt><trkpt lat="40.7983726" lon="17.1222423"><ele>411.0</ele><time>2026-04-25T06:15:47.651Z</time></trkpt><trkpt lat="40.7983424" lon="17.1223428"><ele>411.0</ele><time>2026-04-25T06:15:49.663Z</time></trkpt><trkpt lat="40.7982829" lon="17.1224481"><ele>410.4</ele><time>2026-04-25T06:15:51.647Z</time></trkpt><trkpt lat="40.7982545" lon="17.1225717"><ele>409.8</ele><time>2026-04-25T06:15:53.656Z</time></trkpt><trkpt lat="40.7982185" lon="17.1226836"><ele>409.2</ele><time>2026-04-25T06:15:55.653Z</time></trkpt><trkpt lat="40.7981671" lon="17.1228002"><ele>408.59999999999997</ele><time>2026-04-25T06:15:57.654Z</time></trkpt><trkpt lat="40.798102" lon="17.1229095"><ele>408.0</ele><time>2026-04-25T06:15:59.67Z</time></trkpt><trkpt lat="40.7980267" lon="17.1230386"><ele>408.0</ele><time>2026-04-25T06:16:01.657Z</time></trkpt><trkpt lat="40.7979679" lon="17.1231623"><ele>408.0</ele><time>2026-04-25T06:16:03.656Z</time></trkpt><trkpt lat="40.7979152" lon="17.1232624"><ele>408.0</ele><time>2026-04-25T06:16:05.653Z</time></trkpt><trkpt lat="40.7978652" lon="17.1233441"><ele>408.0</ele><time>2026-04-25T06:16:08.656Z</time></trkpt><trkpt lat="40.7978388" lon="17.1234267"><ele>408.0</ele><time>2026-04-25T06:16:46.669Z</time></trkpt><trkpt lat="40.7978026" lon="17.1235549"><ele>407.79999999999995</ele><time>2026-04-25T06:16:49.663Z</time></trkpt><trkpt lat="40.7977466" lon="17.1236603"><ele>407.6</ele><time>2026-04-25T06:16:51.659Z</time></trkpt><trkpt lat="40.7976859" lon="17.1237958"><ele>407.4</ele><time>2026-04-25T06:16:53.652Z</time></trkpt><trkpt lat="40.7976209" lon="17.1239077"><ele>407.20000000000005</ele><time>2026-04-25T06:16:55.663Z</time></trkpt><trkpt lat="40.7975549" lon="17.1239973"><ele>407.0</ele><time>2026-04-25T06:16:57.665Z</time></trkpt><trkpt lat="40.7974866" lon="17.1240799"><ele>407.0</ele><time>2026-04-25T06:16:59.645Z</time></trkpt><trkpt lat="40.7973967" lon="17.1241548"><ele>407.0</ele><time>2026-04-25T06:17:01.653Z</time></trkpt><trkpt lat="40.797323" lon="17.1242402"><ele>407.0</ele><time>2026-04-25T06:17:03.658Z</time></trkpt><trkpt lat="40.7972866" lon="17.1243129"><ele>407.0</ele><time>2026-04-25T06:17:05.656Z</time></trkpt><trkpt lat="40.7972924" lon="17.1244443"><ele>407.0</ele><time>2026-04-25T06:17:07.651Z</time></trkpt><trkpt lat="40.7973485" lon="17.1246032"><ele>407.00000000000006</ele><time>2026-04-25T06:17:09.648Z</time></trkpt><trkpt lat="40.7973785" lon="17.1246858"><ele>407.0</ele><time>2026-04-25T06:17:10.647Z</time></trkpt><trkpt lat="40.7974099" lon="17.1247712"><ele>407.0</ele><time>2026-04-25T06:17:11.657Z</time></trkpt><trkpt lat="40.7974455" lon="17.12485"><ele>407.0</ele><time>2026-04-25T06:17:12.656Z</time></trkpt><trkpt lat="40.7974844" lon="17.1249247"><ele>407.0</ele><time>2026-04-25T06:17:13.654Z</time></trkpt><trkpt lat="40.7975164" lon="17.1250122"><ele>407.00000000000006</ele><time>2026-04-25T06:17:14.661Z</time></trkpt><trkpt lat="40.7975328" lon="17.1251062"><ele>407.0</ele><time>2026-04-25T06:17:15.655Z</time></trkpt><trkpt lat="40.7975503" lon="17.125194"><ele>405.8333333333333</ele><time>2026-04-25T06:17:16.662Z</time></trkpt><trkpt lat="40.7975724" lon="17.1252953"><ele>404.66666666666663</ele><time>2026-04-25T06:17:17.655Z</time></trkpt><trkpt lat="40.7975911" lon="17.1253942"><ele>403.5</ele><time>2026-04-25T06:17:18.658Z</time></trkpt><trkpt lat="40.7976155" lon="17.1254831"><ele>402.33333333333337</ele><time>2026-04-25T06:17:19.657Z</time></trkpt><trkpt lat="40.7976363" lon="17.125586"><ele>401.1666666666667</ele><time>2026-04-25T06:17:20.665Z</time></trkpt><trkpt lat="40.7976586" lon="17.1256894"><ele>400.0</ele><time>2026-04-25T06:17:21.648Z</time></trkpt><trkpt lat="40.797679" lon="17.1257839"><ele>398.33333333333337</ele><time>2026-04-25T06:17:22.672Z</time></trkpt><trkpt lat="40.7977199" lon="17.1259155"><ele>396.6666666666667</ele><time>2026-04-25T06:17:24.646Z</time></trkpt><trkpt lat="40.7977683" lon="17.1260087"><ele>395.0</ele><time>2026-04-25T06:17:26.664Z</time></trkpt><trkpt lat="40.7978605" lon="17.1260818"><ele>393.33333333333337</ele><time>2026-04-25T06:17:28.666Z</time></trkpt><trkpt lat="40.7979242" lon="17.126102"><ele>391.6666666666667</ele><time>2026-04-25T06:17:29.667Z</time></trkpt><trkpt lat="40.7979906" lon="17.1261075"><ele>390.0</ele><time>2026-04-25T06:17:30.663Z</time></trkpt><trkpt lat="40.798055" lon="17.1261043"><ele>390.0</ele><time>2026-04-25T06:17:31.663Z</time></trkpt><trkpt lat="40.7981255" lon="17.1260847"><ele>390.0</ele><time>2026-04-25T06:17:32.657Z</time></trkpt><trkpt lat="40.7981878" lon="17.1260419"><ele>390.0</ele><time>2026-04-25T06:17:33.664Z</time></trkpt><trkpt lat="40.7982449" lon="17.1259785"><ele>390.0</ele><time>2026-04-25T06:17:34.657Z</time></trkpt><trkpt lat="40.7983029" lon="17.12591"><ele>390.0</ele><time>2026-04-25T06:17:35.669Z</time></trkpt><trkpt lat="40.7983546" lon="17.1258396"><ele>390.0</ele><time>2026-04-25T06:17:36.676Z</time></trkpt><trkpt lat="40.7984041" lon="17.1257746"><ele>390.0</ele><time>2026-04-25T06:17:37.665Z</time></trkpt><trkpt lat="40.7984525" lon="17.1257172"><ele>390.6</ele><time>2026-04-25T06:17:38.656Z</time></trkpt><trkpt lat="40.7985376" lon="17.1256042"><ele>391.2</ele><time>2026-04-25T06:17:40.669Z</time></trkpt><trkpt lat="40.7986081" lon="17.125499"><ele>391.79999999999995</ele><time>2026-04-25T06:17:42.664Z</time></trkpt><trkpt lat="40.7986725" lon="17.1254011"><ele>392.4</ele><time>2026-04-25T06:17:44.662Z</time></trkpt><trkpt lat="40.7987344" lon="17.1253198"><ele>393.0</ele><time>2026-04-25T06:17:46.667Z</time></trkpt><trkpt lat="40.7987819" lon="17.1252618"><ele>393.00000000000006</ele><time>2026-04-25T06:17:56.656Z</time></trkpt><trkpt lat="40.7988371" lon="17.125197"><ele>393.0</ele><time>2026-04-25T06:18:00.665Z</time></trkpt><trkpt lat="40.7988729" lon="17.125125"><ele>393.0</ele><time>2026-04-25T06:18:07.659Z</time></trkpt><trkpt lat="40.7989037" lon="17.1250491"><ele>393.0</ele><time>2026-04-25T06:18:12.659Z</time></trkpt><trkpt lat="40.798928" lon="17.1249494"><ele>393.0</ele><time>2026-04-25T06:18:21.652Z</time></trkpt><trkpt lat="40.7989855" lon="17.124872"><ele>393.00000000000006</ele><time>2026-04-25T06:18:25.661Z</time></trkpt><trkpt lat="40.7990438" lon="17.1248221"><ele>393.0</ele><time>2026-04-25T06:18:28.664Z</time></trkpt><trkpt lat="40.7991077" lon="17.1247738"><ele>393.0</ele><time>2026-04-25T06:18:31.652Z</time></trkpt><trkpt lat="40.7991913" lon="17.1247593"><ele>393.0</ele><time>2026-04-25T06:18:34.66Z</time></trkpt><trkpt lat="40.7992767" lon="17.124772"><ele>393.0</ele><time>2026-04-25T06:18:37.655Z</time></trkpt><trkpt lat="40.7993653" lon="17.124787"><ele>393.0</ele><time>2026-04-25T06:18:40.669Z</time></trkpt><trkpt lat="40.7994471" lon="17.124802"><ele>393.0</ele><time>2026-04-25T06:18:43.664Z</time></trkpt><trkpt lat="40.7995132" lon="17.1248129"><ele>393.0</ele><time>2026-04-25T06:18:46.658Z</time></trkpt><trkpt lat="40.7995895" lon="17.1248364"><ele>392.5714285714286</ele><time>2026-04-25T06:18:50.658Z</time></trkpt><trkpt lat="40.7996621" lon="17.1248468"><ele>392.14285714285717</ele><time>2026-04-25T06:18:54.673Z</time></trkpt><trkpt lat="40.7997362" lon="17.1248515"><ele>391.7142857142857</ele><time>2026-04-25T06:19:00.677Z</time></trkpt><trkpt lat="40.7998005" lon="17.1248405"><ele>391.28571428571433</ele><time>2026-04-25T06:19:05.662Z</time></trkpt><trkpt lat="40.7998671" lon="17.1248513"><ele>390.85714285714283</ele><time>2026-04-25T06:19:10.655Z</time></trkpt><trkpt lat="40.7999302" lon="17.12485"><ele>390.42857142857144</ele><time>2026-04-25T06:19:14.66Z</time></trkpt><trkpt lat="40.7999979" lon="17.1248475"><ele>390.0</ele><time>2026-04-25T06:19:19.666Z</time></trkpt><trkpt lat="40.800068" lon="17.1248551"><ele>390.0</ele><time>2026-04-25T06:19:24.668Z</time></trkpt><trkpt lat="40.8001355" lon="17.1248617"><ele>390.0</ele><time>2026-04-25T06:19:29.656Z</time></trkpt><trkpt lat="40.8002781" lon="17.1248895"><ele>390.0</ele><time>2026-04-25T06:20:45.666Z</time></trkpt><trkpt lat="40.8003414" lon="17.1248756"><ele>390.0</ele><time>2026-04-25T06:20:50.664Z</time></trkpt><trkpt lat="40.8004055" lon="17.1248637"><ele>390.0</ele><time>2026-04-25T06:20:52.669Z</time></trkpt><trkpt lat="40.8005005" lon="17.124863"><ele>390.0</ele><time>2026-04-25T06:20:54.662Z</time></trkpt><trkpt lat="40.8006295" lon="17.1248469"><ele>389.7142857142857</ele><time>2026-04-25T06:20:56.652Z</time></trkpt><trkpt lat="40.8007004" lon="17.1248397"><ele>389.42857142857144</ele><time>2026-04-25T06:20:57.65Z</time></trkpt><trkpt lat="40.8007686" lon="17.1248273"><ele>389.1428571428571</ele><time>2026-04-25T06:20:58.646Z</time></trkpt><trkpt lat="40.8008421" lon="17.1248195"><ele>388.8571428571429</ele><time>2026-04-25T06:20:59.656Z</time></trkpt><trkpt lat="40.8009146" lon="17.1248158"><ele>388.5714285714286</ele><time>2026-04-25T06:21:00.652Z</time></trkpt><trkpt lat="40.8009831" lon="17.1248184"><ele>388.2857142857143</ele><time>2026-04-25T06:21:01.66Z</time></trkpt><trkpt lat="40.8010513" lon="17.1248202"><ele>388.0</ele><time>2026-04-25T06:21:02.657Z</time></trkpt><trkpt lat="40.8011219" lon="17.1248152"><ele>387.1428571428571</ele><time>2026-04-25T06:21:03.653Z</time></trkpt><trkpt lat="40.8011922" lon="17.1247998"><ele>386.28571428571433</ele><time>2026-04-25T06:21:04.655Z</time></trkpt><trkpt lat="40.8012635" lon="17.124775"><ele>385.42857142857144</ele><time>2026-04-25T06:21:05.653Z</time></trkpt><trkpt lat="40.8013332" lon="17.1247476"><ele>384.57142857142856</ele><time>2026-04-25T06:21:06.661Z</time></trkpt><trkpt lat="40.8014032" lon="17.1247212"><ele>383.71428571428567</ele><time>2026-04-25T06:21:07.654Z</time></trkpt><trkpt lat="40.8014776" lon="17.1246999"><ele>382.8571428571429</ele><time>2026-04-25T06:21:08.657Z</time></trkpt><trkpt lat="40.8015569" lon="17.1246796"><ele>382.0</ele><time>2026-04-25T06:21:09.658Z</time></trkpt><trkpt lat="40.8016383" lon="17.1246586"><ele>382.0</ele><time>2026-04-25T06:21:10.655Z</time></trkpt><trkpt lat="40.8017153" lon="17.1246325"><ele>382.0</ele><time>2026-04-25T06:21:11.674Z</time></trkpt><trkpt lat="40.8017898" lon="17.1246029"><ele>382.0</ele><time>2026-04-25T06:21:12.653Z</time></trkpt><trkpt lat="40.8018588" lon="17.1245648"><ele>382.0</ele><time>2026-04-25T06:21:13.658Z</time></trkpt><trkpt lat="40.8019241" lon="17.1245093"><ele>382.0</ele><time>2026-04-25T06:21:14.665Z</time></trkpt><trkpt lat="40.8019883" lon="17.1244543"><ele>382.0</ele><time>2026-04-25T06:21:15.654Z</time></trkpt><trkpt lat="40.8020542" lon="17.1243972"><ele>381.66666666666663</ele><time>2026-04-25T06:21:16.665Z</time></trkpt><trkpt lat="40.8021219" lon="17.124343"><ele>381.3333333333333</ele><time>2026-04-25T06:21:17.653Z</time></trkpt><trkpt lat="40.8021863" lon="17.1242883"><ele>381.0</ele><time>2026-04-25T06:21:18.663Z</time></trkpt><trkpt lat="40.8022475" lon="17.1242277"><ele>380.6666666666667</ele><time>2026-04-25T06:21:19.657Z</time></trkpt><trkpt lat="40.802312" lon="17.1241696"><ele>380.33333333333337</ele><time>2026-04-25T06:21:20.658Z</time></trkpt><trkpt lat="40.802378" lon="17.1241153"><ele>380.0</ele><time>2026-04-25T06:21:21.659Z</time></trkpt><trkpt lat="40.8024397" lon="17.1240605"><ele>380.0</ele><time>2026-04-25T06:21:22.652Z</time></trkpt><trkpt lat="40.8025006" lon="17.1240038"><ele>380.0</ele><time>2026-04-25T06:21:23.653Z</time></trkpt><trkpt lat="40.8025601" lon="17.1239465"><ele>380.0</ele><time>2026-04-25T06:21:24.664Z</time></trkpt><trkpt lat="40.8026148" lon="17.1238945"><ele>380.0</ele><time>2026-04-25T06:21:25.666Z</time></trkpt><trkpt lat="40.8027237" lon="17.1238363"><ele>380.0</ele><time>2026-04-25T06:21:27.652Z</time></trkpt><trkpt lat="40.8028391" lon="17.1238465"><ele>380.0</ele><time>2026-04-25T06:21:29.647Z</time></trkpt><trkpt lat="40.8029604" lon="17.123889"><ele>379.33333333333337</ele><time>2026-04-25T06:21:31.672Z</time></trkpt><trkpt lat="40.8030855" lon="17.1239266"><ele>378.6666666666667</ele><time>2026-04-25T06:21:33.667Z</time></trkpt><trkpt lat="40.80315" lon="17.1239422"><ele>378.0</ele><time>2026-04-25T06:21:34.66Z</time></trkpt><trkpt lat="40.8032174" lon="17.1239432"><ele>377.3333333333333</ele><time>2026-04-25T06:21:35.663Z</time></trkpt><trkpt lat="40.8032881" lon="17.1239353"><ele>376.66666666666663</ele><time>2026-04-25T06:21:36.672Z</time></trkpt><trkpt lat="40.8033619" lon="17.1239284"><ele>376.0</ele><time>2026-04-25T06:21:37.662Z</time></trkpt><trkpt lat="40.8034354" lon="17.1239165"><ele>375.42857142857144</ele><time>2026-04-25T06:21:38.667Z</time></trkpt><trkpt lat="40.8035041" lon="17.1239091"><ele>374.85714285714283</ele><time>2026-04-25T06:21:39.663Z</time></trkpt><trkpt lat="40.8035747" lon="17.1239025"><ele>374.28571428571433</ele><time>2026-04-25T06:21:40.657Z</time></trkpt><trkpt lat="40.8036454" lon="17.1238997"><ele>373.7142857142857</ele><time>2026-04-25T06:21:41.657Z</time></trkpt><trkpt lat="40.8037188" lon="17.123898"><ele>373.14285714285717</ele><time>2026-04-25T06:21:42.653Z</time></trkpt><trkpt lat="40.8037909" lon="17.1239068"><ele>372.5714285714286</ele><time>2026-04-25T06:21:43.652Z</time></trkpt><trkpt lat="40.803862" lon="17.1239141"><ele>372.0</ele><time>2026-04-25T06:21:44.664Z</time></trkpt><trkpt lat="40.8039347" lon="17.12393"><ele>372.00000000000006</ele><time>2026-04-25T06:21:45.653Z</time></trkpt><trkpt lat="40.8040083" lon="17.1239482"><ele>372.0</ele><time>2026-04-25T06:21:46.655Z</time></trkpt><trkpt lat="40.8040821" lon="17.123972"><ele>372.0</ele><time>2026-04-25T06:21:47.658Z</time></trkpt><trkpt lat="40.8041546" lon="17.1239892"><ele>372.0</ele><time>2026-04-25T06:21:48.661Z</time></trkpt><trkpt lat="40.8042296" lon="17.124004"><ele>372.0</ele><time>2026-04-25T06:21:49.653Z</time></trkpt><trkpt lat="40.8042996" lon="17.1240197"><ele>372.00000000000006</ele><time>2026-04-25T06:21:50.661Z</time></trkpt><trkpt lat="40.8043713" lon="17.1240303"><ele>372.0</ele><time>2026-04-25T06:21:51.654Z</time></trkpt><trkpt lat="40.8044372" lon="17.1240406"><ele>371.8571428571429</ele><time>2026-04-25T06:21:52.656Z</time></trkpt><trkpt lat="40.8045048" lon="17.124057"><ele>371.7142857142857</ele><time>2026-04-25T06:21:53.663Z</time></trkpt><trkpt lat="40.8045742" lon="17.1240812"><ele>371.57142857142856</ele><time>2026-04-25T06:21:54.654Z</time></trkpt><trkpt lat="40.8046438" lon="17.1241092"><ele>371.42857142857144</ele><time>2026-04-25T06:21:55.659Z</time></trkpt><trkpt lat="40.8047133" lon="17.1241412"><ele>371.2857142857143</ele><time>2026-04-25T06:21:56.664Z</time></trkpt><trkpt lat="40.8047836" lon="17.1241698"><ele>371.14285714285717</ele><time>2026-04-25T06:21:57.662Z</time></trkpt><trkpt lat="40.8048588" lon="17.1241928"><ele>371.0</ele><time>2026-04-25T06:21:58.661Z</time></trkpt><trkpt lat="40.8049348" lon="17.1242246"><ele>371.0</ele><time>2026-04-25T06:21:59.657Z</time></trkpt><trkpt lat="40.8050074" lon="17.124263"><ele>371.0</ele><time>2026-04-25T06:22:00.654Z</time></trkpt><trkpt lat="40.8050838" lon="17.1243027"><ele>371.0</ele><time>2026-04-25T06:22:01.665Z</time></trkpt><trkpt lat="40.805164" lon="17.124347"><ele>371.0</ele><time>2026-04-25T06:22:02.664Z</time></trkpt><trkpt lat="40.8052406" lon="17.1243854"><ele>371.0</ele><time>2026-04-25T06:22:03.671Z</time></trkpt><trkpt lat="40.8053183" lon="17.1244134"><ele>371.0</ele><time>2026-04-25T06:22:04.657Z</time></trkpt><trkpt lat="40.8053905" lon="17.1244334"><ele>371.0</ele><time>2026-04-25T06:22:05.657Z</time></trkpt><trkpt lat="40.8054645" lon="17.1244535"><ele>371.0</ele><time>2026-04-25T06:22:06.651Z</time></trkpt><trkpt lat="40.8055392" lon="17.1244759"><ele>371.0</ele><time>2026-04-25T06:22:07.649Z</time></trkpt><trkpt lat="40.8056082" lon="17.124508"><ele>371.0</ele><time>2026-04-25T06:22:08.662Z</time></trkpt><trkpt lat="40.8056789" lon="17.1245483"><ele>371.0</ele><time>2026-04-25T06:22:09.664Z</time></trkpt><trkpt lat="40.8057472" lon="17.124594"><ele>371.0</ele><time>2026-04-25T06:22:10.666Z</time></trkpt><trkpt lat="40.8058174" lon="17.1246457"><ele>371.0</ele><time>2026-04-25T06:22:11.659Z</time></trkpt><trkpt lat="40.8058866" lon="17.1246999"><ele>371.0</ele><time>2026-04-25T06:22:12.661Z</time></trkpt><trkpt lat="40.8059594" lon="17.12475"><ele>371.0</ele><time>2026-04-25T06:22:13.652Z</time></trkpt><trkpt lat="40.8060354" lon="17.1248021"><ele>371.0</ele><time>2026-04-25T06:22:14.66Z</time></trkpt><trkpt lat="40.8061041" lon="17.1248484"><ele>371.0</ele><time>2026-04-25T06:22:15.66Z</time></trkpt><trkpt lat="40.8061696" lon="17.124896"><ele>371.0</ele><time>2026-04-25T06:22:16.661Z</time></trkpt><trkpt lat="40.8062337" lon="17.1249486"><ele>370.0</ele><time>2026-04-25T06:22:17.654Z</time></trkpt><trkpt lat="40.8062917" lon="17.1250069"><ele>369.0</ele><time>2026-04-25T06:22:18.662Z</time></trkpt><trkpt lat="40.8063499" lon="17.1250634"><ele>368.0</ele><time>2026-04-25T06:22:19.648Z</time></trkpt><trkpt lat="40.8064098" lon="17.1251036"><ele>367.0</ele><time>2026-04-25T06:22:20.657Z</time></trkpt><trkpt lat="40.806469" lon="17.1251396"><ele>366.0</ele><time>2026-04-25T06:22:21.656Z</time></trkpt><trkpt lat="40.8065706" lon="17.1251784"><ele>365.0</ele><time>2026-04-25T06:22:23.66Z</time></trkpt><trkpt lat="40.8066869" lon="17.1251688"><ele>365.00000000000006</ele><time>2026-04-25T06:22:25.653Z</time></trkpt><trkpt lat="40.8067495" lon="17.1251471"><ele>365.0</ele><time>2026-04-25T06:22:26.657Z</time></trkpt><trkpt lat="40.8068168" lon="17.125121"><ele>365.0</ele><time>2026-04-25T06:22:27.651Z</time></trkpt><trkpt lat="40.8068864" lon="17.1251074"><ele>365.0</ele><time>2026-04-25T06:22:28.673Z</time></trkpt><trkpt lat="40.8069594" lon="17.1251038"><ele>365.0</ele><time>2026-04-25T06:22:29.653Z</time></trkpt><trkpt lat="40.8070319" lon="17.1250994"><ele>365.00000000000006</ele><time>2026-04-25T06:22:30.666Z</time></trkpt><trkpt lat="40.8070976" lon="17.1250973"><ele>365.0</ele><time>2026-04-25T06:22:31.657Z</time></trkpt><trkpt lat="40.8072243" lon="17.1250906"><ele>364.8</ele><time>2026-04-25T06:22:33.66Z</time></trkpt><trkpt lat="40.8073376" lon="17.1250871"><ele>364.6</ele><time>2026-04-25T06:22:35.653Z</time></trkpt><trkpt lat="40.8074406" lon="17.1250908"><ele>364.4</ele><time>2026-04-25T06:22:37.653Z</time></trkpt><trkpt lat="40.8075403" lon="17.1251019"><ele>364.2</ele><time>2026-04-25T06:22:39.658Z</time></trkpt><trkpt lat="40.8076329" lon="17.1251171"><ele>364.0</ele><time>2026-04-25T06:22:41.666Z</time></trkpt><trkpt lat="40.8077327" lon="17.1251354"><ele>364.0</ele><time>2026-04-25T06:22:43.654Z</time></trkpt><trkpt lat="40.8078403" lon="17.1251606"><ele>364.0</ele><time>2026-04-25T06:22:45.653Z</time></trkpt><trkpt lat="40.8079475" lon="17.1251649"><ele>364.0</ele><time>2026-04-25T06:22:47.654Z</time></trkpt><trkpt lat="40.8080583" lon="17.1251664"><ele>364.0</ele><time>2026-04-25T06:22:49.663Z</time></trkpt><trkpt lat="40.8081741" lon="17.1251545"><ele>364.0</ele><time>2026-04-25T06:22:51.657Z</time></trkpt><trkpt lat="40.8082971" lon="17.1251204"><ele>364.0</ele><time>2026-04-25T06:22:53.661Z</time></trkpt><trkpt lat="40.8084156" lon="17.1250643"><ele>364.0</ele><time>2026-04-25T06:22:55.654Z</time></trkpt><trkpt lat="40.808482" lon="17.125043"><ele>364.0</ele><time>2026-04-25T06:22:56.655Z</time></trkpt><trkpt lat="40.8085465" lon="17.1250169"><ele>364.0</ele><time>2026-04-25T06:22:57.667Z</time></trkpt><trkpt lat="40.8086107" lon="17.1249874"><ele>364.0</ele><time>2026-04-25T06:22:58.652Z</time></trkpt><trkpt lat="40.8086742" lon="17.1249567"><ele>364.0</ele><time>2026-04-25T06:22:59.65Z</time></trkpt><trkpt lat="40.8087383" lon="17.1249276"><ele>364.0</ele><time>2026-04-25T06:23:00.662Z</time></trkpt><trkpt lat="40.808808" lon="17.1249049"><ele>364.0</ele><time>2026-04-25T06:23:01.667Z</time></trkpt><trkpt lat="40.8088775" lon="17.1248872"><ele>364.0</ele><time>2026-04-25T06:23:02.646Z</time></trkpt><trkpt lat="40.8089428" lon="17.1248709"><ele>364.0</ele><time>2026-04-25T06:23:03.66Z</time></trkpt><trkpt lat="40.8090062" lon="17.1248552"><ele>364.0</ele><time>2026-04-25T06:23:04.651Z</time></trkpt><trkpt lat="40.80907" lon="17.124842"><ele>364.0</ele><time>2026-04-25T06:23:05.653Z</time></trkpt><trkpt lat="40.8091353" lon="17.1248337"><ele>364.0</ele><time>2026-04-25T06:23:06.652Z</time></trkpt><trkpt lat="40.8092" lon="17.1248212"><ele>363.6</ele><time>2026-04-25T06:23:07.667Z</time></trkpt><trkpt lat="40.8092635" lon="17.1248129"><ele>363.2</ele><time>2026-04-25T06:23:08.649Z</time></trkpt><trkpt lat="40.8093265" lon="17.1248013"><ele>362.8</ele><time>2026-04-25T06:23:09.653Z</time></trkpt><trkpt lat="40.8094453" lon="17.1247876"><ele>362.40000000000003</ele><time>2026-04-25T06:23:11.652Z</time></trkpt><trkpt lat="40.8095585" lon="17.1247847"><ele>362.0</ele><time>2026-04-25T06:23:13.654Z</time></trkpt><trkpt lat="40.8096683" lon="17.1247829"><ele>361.8</ele><time>2026-04-25T06:23:15.673Z</time></trkpt><trkpt lat="40.8097729" lon="17.1247799"><ele>361.6</ele><time>2026-04-25T06:23:17.656Z</time></trkpt><trkpt lat="40.8098825" lon="17.1247816"><ele>361.40000000000003</ele><time>2026-04-25T06:23:19.656Z</time></trkpt><trkpt lat="40.8099915" lon="17.1247644"><ele>361.20000000000005</ele><time>2026-04-25T06:23:21.653Z</time></trkpt><trkpt lat="40.8100984" lon="17.1247433"><ele>361.0</ele><time>2026-04-25T06:23:23.656Z</time></trkpt><trkpt lat="40.8102021" lon="17.1247079"><ele>360.5</ele><time>2026-04-25T06:23:25.654Z</time></trkpt><trkpt lat="40.8103216" lon="17.1246569"><ele>360.0</ele><time>2026-04-25T06:23:27.657Z</time></trkpt><trkpt lat="40.8103905" lon="17.1246198"><ele>359.5</ele><time>2026-04-25T06:23:28.664Z</time></trkpt><trkpt lat="40.8104658" lon="17.1245899"><ele>359.0</ele><time>2026-04-25T06:23:29.659Z</time></trkpt><trkpt lat="40.8105424" lon="17.1245583"><ele>358.5</ele><time>2026-04-25T06:23:30.679Z</time></trkpt><trkpt lat="40.8106225" lon="17.1245296"><ele>358.0</ele><time>2026-04-25T06:23:31.665Z</time></trkpt><trkpt lat="40.8106994" lon="17.1244975"><ele>358.0</ele><time>2026-04-25T06:23:32.655Z</time></trkpt><trkpt lat="40.8107804" lon="17.1244616"><ele>358.0</ele><time>2026-04-25T06:23:33.656Z</time></trkpt><trkpt lat="40.8108597" lon="17.1244277"><ele>358.0</ele><time>2026-04-25T06:23:34.658Z</time></trkpt><trkpt lat="40.8109422" lon="17.1243972"><ele>358.0</ele><time>2026-04-25T06:23:35.658Z</time></trkpt><trkpt lat="40.8110262" lon="17.124361"><ele>358.0</ele><time>2026-04-25T06:23:36.676Z</time></trkpt><trkpt lat="40.8111113" lon="17.1243278"><ele>358.0</ele><time>2026-04-25T06:23:37.657Z</time></trkpt><trkpt lat="40.8111998" lon="17.1242968"><ele>356.4</ele><time>2026-04-25T06:23:38.647Z</time></trkpt><trkpt lat="40.8112902" lon="17.1242627"><ele>354.79999999999995</ele><time>2026-04-25T06:23:39.65Z</time></trkpt><trkpt lat="40.8113853" lon="17.1242228"><ele>353.2</ele><time>2026-04-25T06:23:40.668Z</time></trkpt><trkpt lat="40.8114792" lon="17.1241752"><ele>351.6</ele><time>2026-04-25T06:23:41.65Z</time></trkpt><trkpt lat="40.8115766" lon="17.1241402"><ele>350.0</ele><time>2026-04-25T06:23:42.66Z</time></trkpt><trkpt lat="40.8116758" lon="17.1241039"><ele>350.0</ele><time>2026-04-25T06:23:43.653Z</time></trkpt><trkpt lat="40.8117661" lon="17.1240747"><ele>350.0</ele><time>2026-04-25T06:23:44.652Z</time></trkpt><trkpt lat="40.8118538" lon="17.1240387"><ele>350.0</ele><time>2026-04-25T06:23:45.665Z</time></trkpt><trkpt lat="40.8119416" lon="17.1239971"><ele>350.0</ele><time>2026-04-25T06:23:46.659Z</time></trkpt><trkpt lat="40.8120256" lon="17.1239599"><ele>350.0</ele><time>2026-04-25T06:23:47.664Z</time></trkpt><trkpt lat="40.812113" lon="17.1239216"><ele>349.5</ele><time>2026-04-25T06:23:48.662Z</time></trkpt><trkpt lat="40.8121951" lon="17.1238885"><ele>349.0</ele><time>2026-04-25T06:23:49.663Z</time></trkpt><trkpt lat="40.8122728" lon="17.1238517"><ele>348.5</ele><time>2026-04-25T06:23:50.667Z</time></trkpt><trkpt lat="40.8123539" lon="17.1238233"><ele>348.0</ele><time>2026-04-25T06:23:51.652Z</time></trkpt><trkpt lat="40.8124355" lon="17.1238113"><ele>347.5</ele><time>2026-04-25T06:23:52.66Z</time></trkpt><trkpt lat="40.8125147" lon="17.1238036"><ele>347.0</ele><time>2026-04-25T06:23:53.663Z</time></trkpt><trkpt lat="40.8125844" lon="17.1238179"><ele>347.0</ele><time>2026-04-25T06:23:54.668Z</time></trkpt><trkpt lat="40.8126561" lon="17.123841"><ele>347.0</ele><time>2026-04-25T06:23:55.642Z</time></trkpt><trkpt lat="40.8127251" lon="17.1238654"><ele>347.0</ele><time>2026-04-25T06:23:56.67Z</time></trkpt><trkpt lat="40.8127865" lon="17.1238874"><ele>347.0</ele><time>2026-04-25T06:23:57.658Z</time></trkpt><trkpt lat="40.8128502" lon="17.1239096"><ele>347.0</ele><time>2026-04-25T06:23:58.654Z</time></trkpt><trkpt lat="40.8129717" lon="17.1239414"><ele>347.0</ele><time>2026-04-25T06:24:00.659Z</time></trkpt><trkpt lat="40.8130946" lon="17.1239581"><ele>347.0</ele><time>2026-04-25T06:24:02.654Z</time></trkpt><trkpt lat="40.8131581" lon="17.1239545"><ele>347.0</ele><time>2026-04-25T06:24:03.658Z</time></trkpt><trkpt lat="40.8132253" lon="17.1239331"><ele>347.0</ele><time>2026-04-25T06:24:04.659Z</time></trkpt><trkpt lat="40.8132917" lon="17.1239108"><ele>347.0</ele><time>2026-04-25T06:24:05.664Z</time></trkpt><trkpt lat="40.8133532" lon="17.1238758"><ele>347.0</ele><time>2026-04-25T06:24:06.66Z</time></trkpt><trkpt lat="40.8134124" lon="17.1238416"><ele>347.0</ele><time>2026-04-25T06:24:07.655Z</time></trkpt><trkpt lat="40.813477" lon="17.1238116"><ele>347.0</ele><time>2026-04-25T06:24:08.66Z</time></trkpt><trkpt lat="40.8135448" lon="17.1237791"><ele>347.0</ele><time>2026-04-25T06:24:09.656Z</time></trkpt><trkpt lat="40.8136196" lon="17.1237523"><ele>347.0</ele><time>2026-04-25T06:24:10.651Z</time></trkpt><trkpt lat="40.8137005" lon="17.1237233"><ele>347.0</ele><time>2026-04-25T06:24:11.653Z</time></trkpt><trkpt lat="40.813781" lon="17.1236991"><ele>347.0</ele><time>2026-04-25T06:24:12.656Z</time></trkpt><trkpt lat="40.8138683" lon="17.1236938"><ele>347.0</ele><time>2026-04-25T06:24:13.651Z</time></trkpt><trkpt lat="40.8139526" lon="17.1237071"><ele>347.0</ele><time>2026-04-25T06:24:14.656Z</time></trkpt><trkpt lat="40.8140336" lon="17.1237264"><ele>347.0</ele><time>2026-04-25T06:24:15.658Z</time></trkpt><trkpt lat="40.8141135" lon="17.123744"><ele>347.0</ele><time>2026-04-25T06:24:16.659Z</time></trkpt><trkpt lat="40.8141897" lon="17.1237627"><ele>347.0</ele><time>2026-04-25T06:24:17.663Z</time></trkpt><trkpt lat="40.8142646" lon="17.1237865"><ele>347.0</ele><time>2026-04-25T06:24:18.657Z</time></trkpt><trkpt lat="40.81434" lon="17.1238104"><ele>347.0</ele><time>2026-04-25T06:24:19.65Z</time></trkpt><trkpt lat="40.8144149" lon="17.123836"><ele>347.0</ele><time>2026-04-25T06:24:20.681Z</time></trkpt><trkpt lat="40.8144798" lon="17.1238574"><ele>347.14285714285717</ele><time>2026-04-25T06:24:21.669Z</time></trkpt><trkpt lat="40.8145447" lon="17.1238753"><ele>347.2857142857143</ele><time>2026-04-25T06:24:22.66Z</time></trkpt><trkpt lat="40.81461" lon="17.1238916"><ele>347.42857142857144</ele><time>2026-04-25T06:24:23.654Z</time></trkpt><trkpt lat="40.8146811" lon="17.1239015"><ele>347.57142857142856</ele><time>2026-04-25T06:24:24.649Z</time></trkpt><trkpt lat="40.8147502" lon="17.123909"><ele>347.7142857142857</ele><time>2026-04-25T06:24:25.654Z</time></trkpt><trkpt lat="40.8148145" lon="17.1239058"><ele>347.85714285714283</ele><time>2026-04-25T06:24:26.655Z</time></trkpt><trkpt lat="40.8148785" lon="17.123896"><ele>348.0</ele><time>2026-04-25T06:24:27.659Z</time></trkpt><trkpt lat="40.8149431" lon="17.1238861"><ele>348.0</ele><time>2026-04-25T06:24:28.648Z</time></trkpt><trkpt lat="40.8150512" lon="17.1238762"><ele>348.0</ele><time>2026-04-25T06:24:30.655Z</time></trkpt><trkpt lat="40.8151466" lon="17.1238586"><ele>348.0</ele><time>2026-04-25T06:24:32.659Z</time></trkpt><trkpt lat="40.815239" lon="17.1238527"><ele>348.0</ele><time>2026-04-25T06:24:34.653Z</time></trkpt><trkpt lat="40.8153347" lon="17.1238338"><ele>348.0</ele><time>2026-04-25T06:24:36.649Z</time></trkpt><trkpt lat="40.8154263" lon="17.1237932"><ele>347.59999999999997</ele><time>2026-04-25T06:24:38.655Z</time></trkpt><trkpt lat="40.8155167" lon="17.1237484"><ele>347.2</ele><time>2026-04-25T06:24:40.647Z</time></trkpt><trkpt lat="40.8156094" lon="17.1237048"><ele>346.8</ele><time>2026-04-25T06:24:42.651Z</time></trkpt><trkpt lat="40.8156935" lon="17.1236696"><ele>346.4</ele><time>2026-04-25T06:24:44.642Z</time></trkpt><trkpt lat="40.8157831" lon="17.123619"><ele>346.0</ele><time>2026-04-25T06:24:46.658Z</time></trkpt><trkpt lat="40.8158697" lon="17.1235808"><ele>346.0</ele><time>2026-04-25T06:24:48.646Z</time></trkpt><trkpt lat="40.8159699" lon="17.1235907"><ele>346.0</ele><time>2026-04-25T06:24:50.653Z</time></trkpt><trkpt lat="40.8160685" lon="17.1236429"><ele>346.0</ele><time>2026-04-25T06:24:52.658Z</time></trkpt><trkpt lat="40.8161664" lon="17.1237077"><ele>346.0</ele><time>2026-04-25T06:24:54.659Z</time></trkpt><trkpt lat="40.8162537" lon="17.1237752"><ele>346.0</ele><time>2026-04-25T06:24:56.649Z</time></trkpt><trkpt lat="40.8163278" lon="17.1238557"><ele>345.66666666666663</ele><time>2026-04-25T06:24:58.657Z</time></trkpt><trkpt lat="40.8164052" lon="17.1239253"><ele>345.3333333333333</ele><time>2026-04-25T06:25:00.654Z</time></trkpt><trkpt lat="40.8164685" lon="17.1239866"><ele>345.0</ele><time>2026-04-25T06:25:02.653Z</time></trkpt><trkpt lat="40.8165281" lon="17.1240451"><ele>344.6666666666667</ele><time>2026-04-25T06:25:04.657Z</time></trkpt><trkpt lat="40.8165869" lon="17.1240876"><ele>344.33333333333337</ele><time>2026-04-25T06:25:06.656Z</time></trkpt><trkpt lat="40.8166474" lon="17.1241237"><ele>344.0</ele><time>2026-04-25T06:25:08.659Z</time></trkpt><trkpt lat="40.8167177" lon="17.1241509"><ele>344.00000000000006</ele><time>2026-04-25T06:25:10.66Z</time></trkpt><trkpt lat="40.8167831" lon="17.1241833"><ele>344.0</ele><time>2026-04-25T06:25:12.648Z</time></trkpt><trkpt lat="40.8168467" lon="17.1242237"><ele>344.0</ele><time>2026-04-25T06:25:14.655Z</time></trkpt><trkpt lat="40.816907" lon="17.1242753"><ele>344.0</ele><time>2026-04-25T06:25:16.651Z</time></trkpt><trkpt lat="40.8169842" lon="17.1243283"><ele>344.0</ele><time>2026-04-25T06:25:19.644Z</time></trkpt><trkpt lat="40.8170407" lon="17.1243795"><ele>344.00000000000006</ele><time>2026-04-25T06:25:22.649Z</time></trkpt><trkpt lat="40.8171076" lon="17.1244345"><ele>344.0</ele><time>2026-04-25T06:25:25.655Z</time></trkpt><trkpt lat="40.8171657" lon="17.1244873"><ele>343.1666666666667</ele><time>2026-04-25T06:25:28.658Z</time></trkpt><trkpt lat="40.8172369" lon="17.1245174"><ele>342.33333333333337</ele><time>2026-04-25T06:25:32.66Z</time></trkpt><trkpt lat="40.8172398" lon="17.1243902"><ele>341.5</ele><time>2026-04-25T06:25:35.657Z</time></trkpt><trkpt lat="40.8172108" lon="17.1243091"><ele>340.6666666666667</ele><time>2026-04-25T06:25:37.65Z</time></trkpt><trkpt lat="40.8171868" lon="17.1242198"><ele>339.8333333333333</ele><time>2026-04-25T06:25:41.654Z</time></trkpt><trkpt lat="40.8172408" lon="17.1241348"><ele>339.0</ele><time>2026-04-25T06:25:45.661Z</time></trkpt><trkpt lat="40.8173508" lon="17.1241378"><ele>339.0</ele><time>2026-04-25T06:25:47.662Z</time></trkpt><trkpt lat="40.8174703" lon="17.1240924"><ele>339.0</ele><time>2026-04-25T06:25:49.661Z</time></trkpt><trkpt lat="40.81754" lon="17.1240477"><ele>339.0</ele><time>2026-04-25T06:25:50.661Z</time></trkpt><trkpt lat="40.8176182" lon="17.1240133"><ele>339.0</ele><time>2026-04-25T06:25:51.662Z</time></trkpt><trkpt lat="40.8177003" lon="17.12399"><ele>339.0</ele><time>2026-04-25T06:25:52.655Z</time></trkpt><trkpt lat="40.8177792" lon="17.1239794"><ele>339.0</ele><time>2026-04-25T06:25:53.656Z</time></trkpt><trkpt lat="40.8178501" lon="17.1239731"><ele>339.0</ele><time>2026-04-25T06:25:54.667Z</time></trkpt><trkpt lat="40.8179168" lon="17.1239693"><ele>339.0</ele><time>2026-04-25T06:25:55.665Z</time></trkpt><trkpt lat="40.8179813" lon="17.1239695"><ele>339.0</ele><time>2026-04-25T06:25:56.671Z</time></trkpt><trkpt lat="40.8180996" lon="17.1239631"><ele>339.0</ele><time>2026-04-25T06:25:58.654Z</time></trkpt><trkpt lat="40.8181911" lon="17.1239538"><ele>339.0</ele><time>2026-04-25T06:26:00.646Z</time></trkpt><trkpt lat="40.8182574" lon="17.1239492"><ele>339.0</ele><time>2026-04-25T06:26:02.669Z</time></trkpt><trkpt lat="40.8183357" lon="17.1239458"><ele>339.0</ele><time>2026-04-25T06:26:05.661Z</time></trkpt><trkpt lat="40.8184116" lon="17.1239396"><ele>339.0</ele><time>2026-04-25T06:26:08.668Z</time></trkpt><trkpt lat="40.8184833" lon="17.1239367"><ele>339.0</ele><time>2026-04-25T06:26:11.663Z</time></trkpt><trkpt lat="40.8185693" lon="17.1239283"><ele>339.0</ele><time>2026-04-25T06:26:15.663Z</time></trkpt><trkpt lat="40.8186537" lon="17.1239188"><ele>339.0</ele><time>2026-04-25T06:26:19.658Z</time></trkpt><trkpt lat="40.8187218" lon="17.1239163"><ele>339.0</ele><time>2026-04-25T06:26:23.651Z</time></trkpt><trkpt lat="40.818791" lon="17.1239201"><ele>340.1666666666667</ele><time>2026-04-25T06:26:35.659Z</time></trkpt><trkpt lat="40.8188611" lon="17.1239221"><ele>341.3333333333333</ele><time>2026-04-25T06:26:44.653Z</time></trkpt><trkpt lat="40.8190007" lon="17.1239048"><ele>342.5</ele><time>2026-04-25T06:30:07.663Z</time></trkpt><trkpt lat="40.8190696" lon="17.1238963"><ele>343.66666666666663</ele><time>2026-04-25T06:30:16.654Z</time></trkpt><trkpt lat="40.8191518" lon="17.1238823"><ele>344.8333333333333</ele><time>2026-04-25T06:30:20.669Z</time></trkpt><trkpt lat="40.8192342" lon="17.1238805"><ele>346.0</ele><time>2026-04-25T06:30:24.663Z</time></trkpt><trkpt lat="40.8193086" lon="17.1238837"><ele>346.66666666666663</ele><time>2026-04-25T06:30:27.658Z</time></trkpt><trkpt lat="40.8193847" lon="17.1238787"><ele>347.3333333333333</ele><time>2026-04-25T06:30:30.665Z</time></trkpt><trkpt lat="40.8194625" lon="17.1238817"><ele>348.0</ele><time>2026-04-25T06:30:33.657Z</time></trkpt><trkpt lat="40.8195409" lon="17.1238668"><ele>348.6666666666667</ele><time>2026-04-25T06:30:36.662Z</time></trkpt><trkpt lat="40.8196192" lon="17.123859"><ele>349.33333333333337</ele><time>2026-04-25T06:30:39.664Z</time></trkpt><trkpt lat="40.8196847" lon="17.1238405"><ele>350.0</ele><time>2026-04-25T06:30:42.658Z</time></trkpt><trkpt lat="40.8197656" lon="17.1238308"><ele>350.0</ele><time>2026-04-25T06:30:46.662Z</time></trkpt><trkpt lat="40.8198398" lon="17.1238302"><ele>350.0</ele><time>2026-04-25T06:30:49.666Z</time></trkpt><trkpt lat="40.8199254" lon="17.1238388"><ele>350.0</ele><time>2026-04-25T06:30:52.666Z</time></trkpt><trkpt lat="40.8200042" lon="17.1238391"><ele>350.0</ele><time>2026-04-25T06:30:55.659Z</time></trkpt><trkpt lat="40.8200819" lon="17.1238329"><ele>350.0</ele><time>2026-04-25T06:30:58.658Z</time></trkpt><trkpt lat="40.8201577" lon="17.1238249"><ele>350.0</ele><time>2026-04-25T06:31:01.669Z</time></trkpt><trkpt lat="40.8202362" lon="17.1238228"><ele>351.0</ele><time>2026-04-25T06:31:04.658Z</time></trkpt><trkpt lat="40.8203212" lon="17.1238233"><ele>352.0</ele><time>2026-04-25T06:31:08.647Z</time></trkpt><trkpt lat="40.8203897" lon="17.123828"><ele>353.0</ele><time>2026-04-25T06:31:11.66Z</time></trkpt><trkpt lat="40.8204581" lon="17.1238329"><ele>354.0</ele><time>2026-04-25T06:31:14.661Z</time></trkpt><trkpt lat="40.8205221" lon="17.1238253"><ele>355.0</ele><time>2026-04-25T06:31:17.655Z</time></trkpt><trkpt lat="40.8205882" lon="17.123819"><ele>356.0</ele><time>2026-04-25T06:31:20.664Z</time></trkpt><trkpt lat="40.8206721" lon="17.1238125"><ele>357.0</ele><time>2026-04-25T06:31:24.665Z</time></trkpt><trkpt lat="40.8207414" lon="17.1238155"><ele>357.0</ele><time>2026-04-25T06:31:27.65Z</time></trkpt><trkpt lat="40.8208055" lon="17.1238092"><ele>357.0</ele><time>2026-04-25T06:31:30.666Z</time></trkpt><trkpt lat="40.8208727" lon="17.1238185"><ele>357.0</ele><time>2026-04-25T06:31:34.658Z</time></trkpt><trkpt lat="40.8209406" lon="17.1238321"><ele>357.0</ele><time>2026-04-25T06:31:44.66Z</time></trkpt><trkpt lat="40.8210059" lon="17.1238264"><ele>357.0</ele><time>2026-04-25T06:31:52.658Z</time></trkpt><trkpt lat="40.8210745" lon="17.1238243"><ele>357.0</ele><time>2026-04-25T06:31:59.664Z</time></trkpt><trkpt lat="40.8211381" lon="17.1238225"><ele>357.0</ele><time>2026-04-25T06:32:05.654Z</time></trkpt><trkpt lat="40.8212019" lon="17.1238285"><ele>357.7142857142857</ele><time>2026-04-25T06:32:14.644Z</time></trkpt><trkpt lat="40.8212697" lon="17.1238295"><ele>358.42857142857144</ele><time>2026-04-25T06:32:21.66Z</time></trkpt><trkpt lat="40.8213385" lon="17.1238458"><ele>359.1428571428571</ele><time>2026-04-25T06:32:27.656Z</time></trkpt><trkpt lat="40.8214077" lon="17.1238545"><ele>359.8571428571429</ele><time>2026-04-25T06:32:33.651Z</time></trkpt><trkpt lat="40.8214769" lon="17.1238625"><ele>360.57142857142856</ele><time>2026-04-25T06:32:39.66Z</time></trkpt><trkpt lat="40.82154" lon="17.1238699"><ele>361.2857142857143</ele><time>2026-04-25T06:32:44.661Z</time></trkpt><trkpt lat="40.8216071" lon="17.1238835"><ele>362.0</ele><time>2026-04-25T06:32:50.664Z</time></trkpt><trkpt lat="40.8216799" lon="17.1238914"><ele>362.0</ele><time>2026-04-25T06:32:56.649Z</time></trkpt><trkpt lat="40.8217467" lon="17.1239034"><ele>362.0</ele><time>2026-04-25T06:33:02.667Z</time></trkpt><trkpt lat="40.8218148" lon="17.1239239"><ele>362.0</ele><time>2026-04-25T06:33:09.655Z</time></trkpt><trkpt lat="40.8218807" lon="17.1239214"><ele>362.0</ele><time>2026-04-25T06:33:16.658Z</time></trkpt><trkpt lat="40.8219477" lon="17.1239219"><ele>362.0</ele><time>2026-04-25T06:33:24.665Z</time></trkpt><trkpt lat="40.8220139" lon="17.1239441"><ele>362.0</ele><time>2026-04-25T06:33:33.661Z</time></trkpt><trkpt lat="40.8220754" lon="17.1239675"><ele>362.0</ele><time>2026-04-25T06:33:40.661Z</time></trkpt><trkpt lat="40.8221419" lon="17.1239615"><ele>362.85714285714283</ele><time>2026-04-25T06:33:49.648Z</time></trkpt><trkpt lat="40.8222338" lon="17.1239487"><ele>363.71428571428567</ele><time>2026-04-25T06:35:07.656Z</time></trkpt><trkpt lat="40.8223012" lon="17.1239507"><ele>364.57142857142856</ele><time>2026-04-25T06:35:13.651Z</time></trkpt><trkpt lat="40.8223739" lon="17.123954"><ele>365.42857142857144</ele><time>2026-04-25T06:35:19.66Z</time></trkpt><trkpt lat="40.8224466" lon="17.1239403"><ele>366.2857142857143</ele><time>2026-04-25T06:35:25.668Z</time></trkpt><trkpt lat="40.8225194" lon="17.1239447"><ele>367.14285714285717</ele><time>2026-04-25T06:35:31.643Z</time></trkpt><trkpt lat="40.8225886" lon="17.1239325"><ele>368.0</ele><time>2026-04-25T06:35:37.645Z</time></trkpt><trkpt lat="40.8226605" lon="17.1239226"><ele>369.2857142857143</ele><time>2026-04-25T06:35:44.647Z</time></trkpt><trkpt lat="40.822725" lon="17.1239143"><ele>370.57142857142856</ele><time>2026-04-25T06:35:51.647Z</time></trkpt><trkpt lat="40.8227877" lon="17.1239057"><ele>371.85714285714283</ele><time>2026-04-25T06:35:58.654Z</time></trkpt><trkpt lat="40.8228527" lon="17.1238993"><ele>373.1428571428571</ele><time>2026-04-25T06:36:05.657Z</time></trkpt><trkpt lat="40.822924" lon="17.1238865"><ele>374.42857142857144</ele><time>2026-04-25T06:36:12.653Z</time></trkpt><trkpt lat="40.8229918" lon="17.1238861"><ele>375.71428571428567</ele><time>2026-04-25T06:36:19.643Z</time></trkpt><trkpt lat="40.8230596" lon="17.1238755"><ele>377.0</ele><time>2026-04-25T06:36:26.657Z</time></trkpt><trkpt lat="40.8231241" lon="17.1238732"><ele>376.99999999999994</ele><time>2026-04-25T06:36:32.66Z</time></trkpt><trkpt lat="40.8231956" lon="17.123869"><ele>377.0</ele><time>2026-04-25T06:36:40.648Z</time></trkpt><trkpt lat="40.8232596" lon="17.1238528"><ele>377.0</ele><time>2026-04-25T06:36:47.648Z</time></trkpt><trkpt lat="40.8233265" lon="17.1238402"><ele>377.0</ele><time>2026-04-25T06:36:54.658Z</time></trkpt><trkpt lat="40.8233943" lon="17.1238238"><ele>377.0</ele><time>2026-04-25T06:37:01.653Z</time></trkpt><trkpt lat="40.8234598" lon="17.1238252"><ele>376.99999999999994</ele><time>2026-04-25T06:37:08.66Z</time></trkpt><trkpt lat="40.8235237" lon="17.1238242"><ele>377.0</ele><time>2026-04-25T06:37:16.666Z</time></trkpt><trkpt lat="40.823588" lon="17.1238133"><ele>378.40000000000003</ele><time>2026-04-25T06:37:24.652Z</time></trkpt><trkpt lat="40.8236557" lon="17.1238134"><ele>379.8</ele><time>2026-04-25T06:37:32.653Z</time></trkpt><trkpt lat="40.8238364" lon="17.1238564"><ele>381.2</ele><time>2026-04-25T06:43:15.63Z</time></trkpt><trkpt lat="40.8238693" lon="17.1239363"><ele>382.6</ele><time>2026-04-25T06:43:23.656Z</time></trkpt><trkpt lat="40.8239141" lon="17.1240092"><ele>384.0</ele><time>2026-04-25T06:43:30.668Z</time></trkpt><trkpt lat="40.8239521" lon="17.1240867"><ele>384.4285714285714</ele><time>2026-04-25T06:43:54.652Z</time></trkpt><trkpt lat="40.8239765" lon="17.1241661"><ele>384.85714285714283</ele><time>2026-04-25T06:43:57.653Z</time></trkpt><trkpt lat="40.824006" lon="17.1242405"><ele>385.2857142857143</ele><time>2026-04-25T06:44:00.653Z</time></trkpt><trkpt lat="40.8240669" lon="17.1243133"><ele>385.71428571428567</ele><time>2026-04-25T06:44:04.682Z</time></trkpt><trkpt lat="40.824126" lon="17.1243503"><ele>386.14285714285717</ele><time>2026-04-25T06:44:06.659Z</time></trkpt><trkpt lat="40.8241891" lon="17.1243763"><ele>386.57142857142856</ele><time>2026-04-25T06:44:08.652Z</time></trkpt><trkpt lat="40.8242498" lon="17.1244066"><ele>387.0</ele><time>2026-04-25T06:44:10.656Z</time></trkpt><trkpt lat="40.8243435" lon="17.1244333"><ele>387.0</ele><time>2026-04-25T06:44:13.653Z</time></trkpt><trkpt lat="40.8244111" lon="17.1244573"><ele>387.0</ele><time>2026-04-25T06:44:15.653Z</time></trkpt><trkpt lat="40.8244766" lon="17.124479"><ele>387.0</ele><time>2026-04-25T06:44:17.659Z</time></trkpt><trkpt lat="40.8245529" lon="17.1245114"><ele>387.0</ele><time>2026-04-25T06:44:19.642Z</time></trkpt><trkpt lat="40.8246352" lon="17.1245302"><ele>387.0</ele><time>2026-04-25T06:44:21.655Z</time></trkpt><trkpt lat="40.8247093" lon="17.1245546"><ele>387.0</ele><time>2026-04-25T06:44:23.667Z</time></trkpt><trkpt lat="40.8247765" lon="17.1245797"><ele>387.0</ele><time>2026-04-25T06:44:25.66Z</time></trkpt><trkpt lat="40.8248552" lon="17.1246002"><ele>387.0</ele><time>2026-04-25T06:44:27.645Z</time></trkpt><trkpt lat="40.8249298" lon="17.1246251"><ele>387.0</ele><time>2026-04-25T06:44:29.662Z</time></trkpt><trkpt lat="40.8250035" lon="17.1246515"><ele>387.0</ele><time>2026-04-25T06:44:31.655Z</time></trkpt><trkpt lat="40.8250795" lon="17.1246728"><ele>387.0</ele><time>2026-04-25T06:44:33.652Z</time></trkpt><trkpt lat="40.8251564" lon="17.1246935"><ele>387.0</ele><time>2026-04-25T06:44:35.652Z</time></trkpt><trkpt lat="40.8252363" lon="17.1247222"><ele>387.0</ele><time>2026-04-25T06:44:37.658Z</time></trkpt><trkpt lat="40.8253093" lon="17.1247458"><ele>386.8333333333333</ele><time>2026-04-25T06:44:39.67Z</time></trkpt><trkpt lat="40.8253831" lon="17.124774"><ele>386.66666666666663</ele><time>2026-04-25T06:44:41.652Z</time></trkpt><trkpt lat="40.8254523" lon="17.1248007"><ele>386.5</ele><time>2026-04-25T06:44:43.648Z</time></trkpt><trkpt lat="40.8255234" lon="17.1248225"><ele>386.3333333333333</ele><time>2026-04-25T06:44:45.648Z</time></trkpt><trkpt lat="40.8256018" lon="17.1248288"><ele>386.16666666666663</ele><time>2026-04-25T06:44:47.672Z</time></trkpt><trkpt lat="40.8256811" lon="17.1248282"><ele>386.0</ele><time>2026-04-25T06:44:49.651Z</time></trkpt><trkpt lat="40.8257626" lon="17.1248184"><ele>385.99999999999994</ele><time>2026-04-25T06:44:51.666Z</time></trkpt><trkpt lat="40.8258455" lon="17.1248055"><ele>386.0</ele><time>2026-04-25T06:44:53.661Z</time></trkpt><trkpt lat="40.8259325" lon="17.1247995"><ele>386.0</ele><time>2026-04-25T06:44:55.66Z</time></trkpt><trkpt lat="40.8260184" lon="17.1247864"><ele>386.0</ele><time>2026-04-25T06:44:57.662Z</time></trkpt><trkpt lat="40.8261056" lon="17.1247751"><ele>385.99999999999994</ele><time>2026-04-25T06:44:59.645Z</time></trkpt><trkpt lat="40.8261868" lon="17.1247701"><ele>386.0</ele><time>2026-04-25T06:45:01.662Z</time></trkpt><trkpt lat="40.8262692" lon="17.12476"><ele>385.8333333333333</ele><time>2026-04-25T06:45:03.656Z</time></trkpt><trkpt lat="40.8263489" lon="17.1247489"><ele>385.66666666666663</ele><time>2026-04-25T06:45:05.65Z</time></trkpt><trkpt lat="40.8264368" lon="17.1247369"><ele>385.5</ele><time>2026-04-25T06:45:07.662Z</time></trkpt><trkpt lat="40.8265243" lon="17.1247252"><ele>385.33333333333337</ele><time>2026-04-25T06:45:09.654Z</time></trkpt><trkpt lat="40.8266164" lon="17.1247194"><ele>385.1666666666667</ele><time>2026-04-25T06:45:11.651Z</time></trkpt><trkpt lat="40.8267128" lon="17.1247064"><ele>385.0</ele><time>2026-04-25T06:45:13.658Z</time></trkpt><trkpt lat="40.8268091" lon="17.1246901"><ele>384.4</ele><time>2026-04-25T06:45:15.652Z</time></trkpt><trkpt lat="40.8269074" lon="17.1246733"><ele>383.8</ele><time>2026-04-25T06:45:17.668Z</time></trkpt><trkpt lat="40.8269925" lon="17.124664"><ele>383.20000000000005</ele><time>2026-04-25T06:45:19.653Z</time></trkpt><trkpt lat="40.8270787" lon="17.1246549"><ele>382.6</ele><time>2026-04-25T06:45:21.654Z</time></trkpt><trkpt lat="40.8271704" lon="17.1246439"><ele>382.0</ele><time>2026-04-25T06:45:23.667Z</time></trkpt><trkpt lat="40.8272576" lon="17.1246259"><ele>382.0</ele><time>2026-04-25T06:45:25.662Z</time></trkpt><trkpt lat="40.8273513" lon="17.124617"><ele>382.0</ele><time>2026-04-25T06:45:27.658Z</time></trkpt><trkpt lat="40.8274466" lon="17.1246122"><ele>382.0</ele><time>2026-04-25T06:45:29.691Z</time></trkpt><trkpt lat="40.8275315" lon="17.1246047"><ele>382.0</ele><time>2026-04-25T06:45:31.653Z</time></trkpt><trkpt lat="40.827617" lon="17.1246019"><ele>382.0</ele><time>2026-04-25T06:45:33.659Z</time></trkpt><trkpt lat="40.8277031" lon="17.1245911"><ele>382.0</ele><time>2026-04-25T06:45:35.663Z</time></trkpt><trkpt lat="40.827799" lon="17.1245798"><ele>381.66666666666663</ele><time>2026-04-25T06:45:37.653Z</time></trkpt><trkpt lat="40.8279056" lon="17.1245627"><ele>381.3333333333333</ele><time>2026-04-25T06:45:39.655Z</time></trkpt><trkpt lat="40.8280218" lon="17.1245305"><ele>381.0</ele><time>2026-04-25T06:45:41.659Z</time></trkpt><trkpt lat="40.8280857" lon="17.1245108"><ele>380.6666666666667</ele><time>2026-04-25T06:45:42.655Z</time></trkpt><trkpt lat="40.8281517" lon="17.1244972"><ele>380.33333333333337</ele><time>2026-04-25T06:45:43.646Z</time></trkpt><trkpt lat="40.8282235" lon="17.1244818"><ele>380.0</ele><time>2026-04-25T06:45:44.67Z</time></trkpt><trkpt lat="40.8282949" lon="17.1244647"><ele>380.0</ele><time>2026-04-25T06:45:45.664Z</time></trkpt><trkpt lat="40.8283741" lon="17.1244492"><ele>380.0</ele><time>2026-04-25T06:45:46.645Z</time></trkpt><trkpt lat="40.8284543" lon="17.1244281"><ele>380.0</ele><time>2026-04-25T06:45:47.683Z</time></trkpt><trkpt lat="40.8285367" lon="17.1244059"><ele>380.0</ele><time>2026-04-25T06:45:48.658Z</time></trkpt><trkpt lat="40.82862" lon="17.1243852"><ele>380.0</ele><time>2026-04-25T06:45:49.65Z</time></trkpt><trkpt lat="40.8287001" lon="17.1243676"><ele>380.0</ele><time>2026-04-25T06:45:50.644Z</time></trkpt><trkpt lat="40.828786" lon="17.1243496"><ele>379.2</ele><time>2026-04-25T06:45:51.647Z</time></trkpt><trkpt lat="40.8288745" lon="17.1243405"><ele>378.4</ele><time>2026-04-25T06:45:52.653Z</time></trkpt><trkpt lat="40.8289646" lon="17.1243341"><ele>377.6</ele><time>2026-04-25T06:45:53.648Z</time></trkpt><trkpt lat="40.8290581" lon="17.1243297"><ele>376.8</ele><time>2026-04-25T06:45:54.661Z</time></trkpt><trkpt lat="40.8291562" lon="17.124332"><ele>376.0</ele><time>2026-04-25T06:45:55.659Z</time></trkpt><trkpt lat="40.8292527" lon="17.1243409"><ele>374.6</ele><time>2026-04-25T06:45:56.665Z</time></trkpt><trkpt lat="40.8293487" lon="17.1243467"><ele>373.20000000000005</ele><time>2026-04-25T06:45:57.652Z</time></trkpt><trkpt lat="40.8294425" lon="17.1243542"><ele>371.79999999999995</ele><time>2026-04-25T06:45:58.668Z</time></trkpt><trkpt lat="40.8295373" lon="17.1243553"><ele>370.4</ele><time>2026-04-25T06:45:59.652Z</time></trkpt><trkpt lat="40.8296347" lon="17.1243626"><ele>369.0</ele><time>2026-04-25T06:46:00.649Z</time></trkpt><trkpt lat="40.8297313" lon="17.1243672"><ele>369.0</ele><time>2026-04-25T06:46:01.66Z</time></trkpt><trkpt lat="40.8298302" lon="17.1243721"><ele>369.0</ele><time>2026-04-25T06:46:02.651Z</time></trkpt><trkpt lat="40.8299326" lon="17.1243816"><ele>369.0</ele><time>2026-04-25T06:46:03.673Z</time></trkpt><trkpt lat="40.8300386" lon="17.1243831"><ele>369.0</ele><time>2026-04-25T06:46:04.659Z</time></trkpt><trkpt lat="40.8301465" lon="17.1243842"><ele>369.0</ele><time>2026-04-25T06:46:05.653Z</time></trkpt><trkpt lat="40.8302603" lon="17.1243878"><ele>367.0</ele><time>2026-04-25T06:46:06.656Z</time></trkpt><trkpt lat="40.8303755" lon="17.1243917"><ele>365.0</ele><time>2026-04-25T06:46:07.65Z</time></trkpt><trkpt lat="40.8304912" lon="17.1243971"><ele>363.0</ele><time>2026-04-25T06:46:08.659Z</time></trkpt><trkpt lat="40.8306026" lon="17.124402"><ele>361.0</ele><time>2026-04-25T06:46:09.653Z</time></trkpt><trkpt lat="40.8306972" lon="17.1244048"><ele>359.0</ele><time>2026-04-25T06:46:10.653Z</time></trkpt><trkpt lat="40.8307767" lon="17.124412"><ele>359.0</ele><time>2026-04-25T06:46:11.654Z</time></trkpt><trkpt lat="40.8308456" lon="17.1244152"><ele>359.0</ele><time>2026-04-25T06:46:12.685Z</time></trkpt><trkpt lat="40.8309162" lon="17.1244135"><ele>359.0</ele><time>2026-04-25T06:46:13.657Z</time></trkpt><trkpt lat="40.8309832" lon="17.1244094"><ele>359.0</ele><time>2026-04-25T06:46:14.652Z</time></trkpt><trkpt lat="40.8310481" lon="17.1244062"><ele>359.0</ele><time>2026-04-25T06:46:15.652Z</time></trkpt><trkpt lat="40.8311155" lon="17.1243943"><ele>359.0</ele><time>2026-04-25T06:46:16.657Z</time></trkpt><trkpt lat="40.8311826" lon="17.1243829"><ele>359.0</ele><time>2026-04-25T06:46:17.661Z</time></trkpt><trkpt lat="40.8312504" lon="17.1243659"><ele>357.6666666666667</ele><time>2026-04-25T06:46:18.648Z</time></trkpt><trkpt lat="40.8313121" lon="17.1243365"><ele>356.33333333333337</ele><time>2026-04-25T06:46:19.644Z</time></trkpt><trkpt lat="40.8313818" lon="17.1242962"><ele>355.0</ele><time>2026-04-25T06:46:20.645Z</time></trkpt><trkpt lat="40.8314465" lon="17.124226"><ele>353.6666666666667</ele><time>2026-04-25T06:46:21.648Z</time></trkpt><trkpt lat="40.8315011" lon="17.1241363"><ele>352.3333333333333</ele><time>2026-04-25T06:46:22.666Z</time></trkpt><trkpt lat="40.8315639" lon="17.1240519"><ele>351.0</ele><time>2026-04-25T06:46:23.661Z</time></trkpt><trkpt lat="40.8316256" lon="17.1239702"><ele>350.8</ele><time>2026-04-25T06:46:24.662Z</time></trkpt><trkpt lat="40.8316956" lon="17.1238878"><ele>350.6</ele><time>2026-04-25T06:46:25.648Z</time></trkpt><trkpt lat="40.8317676" lon="17.1238134"><ele>350.4</ele><time>2026-04-25T06:46:26.648Z</time></trkpt><trkpt lat="40.8318478" lon="17.1237409"><ele>350.2</ele><time>2026-04-25T06:46:27.66Z</time></trkpt><trkpt lat="40.8319286" lon="17.1236657"><ele>350.0</ele><time>2026-04-25T06:46:28.645Z</time></trkpt><trkpt lat="40.8320126" lon="17.1235824"><ele>348.6</ele><time>2026-04-25T06:46:29.667Z</time></trkpt><trkpt lat="40.8320997" lon="17.1235052"><ele>347.2</ele><time>2026-04-25T06:46:30.652Z</time></trkpt><trkpt lat="40.832189" lon="17.1234228"><ele>345.79999999999995</ele><time>2026-04-25T06:46:31.647Z</time></trkpt><trkpt lat="40.8322812" lon="17.1233453"><ele>344.4</ele><time>2026-04-25T06:46:32.653Z</time></trkpt><trkpt lat="40.8323781" lon="17.1232728"><ele>343.0</ele><time>2026-04-25T06:46:33.652Z</time></trkpt><trkpt lat="40.8324782" lon="17.1232011"><ele>342.75</ele><time>2026-04-25T06:46:34.652Z</time></trkpt><trkpt lat="40.8325865" lon="17.1231405"><ele>342.5</ele><time>2026-04-25T06:46:35.656Z</time></trkpt><trkpt lat="40.8326973" lon="17.1230835"><ele>342.25</ele><time>2026-04-25T06:46:36.659Z</time></trkpt><trkpt lat="40.8328055" lon="17.1230377"><ele>342.0</ele><time>2026-04-25T06:46:37.652Z</time></trkpt><trkpt lat="40.832913" lon="17.1230043"><ele>341.20000000000005</ele><time>2026-04-25T06:46:38.658Z</time></trkpt><trkpt lat="40.8330161" lon="17.122973"><ele>340.4</ele><time>2026-04-25T06:46:39.659Z</time></trkpt><trkpt lat="40.8331209" lon="17.1229444"><ele>339.6</ele><time>2026-04-25T06:46:40.654Z</time></trkpt><trkpt lat="40.8332184" lon="17.1229078"><ele>338.79999999999995</ele><time>2026-04-25T06:46:41.658Z</time></trkpt><trkpt lat="40.8333177" lon="17.122866"><ele>338.0</ele><time>2026-04-25T06:46:42.649Z</time></trkpt><trkpt lat="40.8334141" lon="17.1228331"><ele>337.2</ele><time>2026-04-25T06:46:43.66Z</time></trkpt><trkpt lat="40.8335139" lon="17.1228024"><ele>336.4</ele><time>2026-04-25T06:46:44.664Z</time></trkpt><trkpt lat="40.8336122" lon="17.1227688"><ele>335.59999999999997</ele><time>2026-04-25T06:46:45.656Z</time></trkpt><trkpt lat="40.833706" lon="17.1227399"><ele>334.79999999999995</ele><time>2026-04-25T06:46:46.668Z</time></trkpt><trkpt lat="40.8338009" lon="17.1227095"><ele>334.0</ele><time>2026-04-25T06:46:47.657Z</time></trkpt><trkpt lat="40.8338906" lon="17.1226817"><ele>334.0</ele><time>2026-04-25T06:46:48.661Z</time></trkpt><trkpt lat="40.8339816" lon="17.1226597"><ele>334.0</ele><time>2026-04-25T06:46:49.661Z</time></trkpt><trkpt lat="40.8340722" lon="17.1226394"><ele>334.0</ele><time>2026-04-25T06:46:50.646Z</time></trkpt><trkpt lat="40.8341657" lon="17.1226308"><ele>334.0</ele><time>2026-04-25T06:46:51.673Z</time></trkpt><trkpt lat="40.8342577" lon="17.1226316"><ele>334.0</ele><time>2026-04-25T06:46:52.648Z</time></trkpt><trkpt lat="40.834346" lon="17.1226377"><ele>333.0</ele><time>2026-04-25T06:46:53.655Z</time></trkpt><trkpt lat="40.8344375" lon="17.1226472"><ele>332.0</ele><time>2026-04-25T06:46:54.65Z</time></trkpt><trkpt lat="40.8345331" lon="17.1226593"><ele>331.0</ele><time>2026-04-25T06:46:55.662Z</time></trkpt><trkpt lat="40.8346299" lon="17.1226738"><ele>330.0</ele><time>2026-04-25T06:46:56.654Z</time></trkpt><trkpt lat="40.8347204" lon="17.1226965"><ele>329.0</ele><time>2026-04-25T06:46:57.662Z</time></trkpt><trkpt lat="40.8348065" lon="17.1227449"><ele>329.0</ele><time>2026-04-25T06:46:58.662Z</time></trkpt><trkpt lat="40.8348908" lon="17.1228071"><ele>329.0</ele><time>2026-04-25T06:46:59.662Z</time></trkpt><trkpt lat="40.8349757" lon="17.1228807"><ele>329.0</ele><time>2026-04-25T06:47:00.656Z</time></trkpt><trkpt lat="40.8350568" lon="17.1229512"><ele>329.0</ele><time>2026-04-25T06:47:01.656Z</time></trkpt><trkpt lat="40.8351356" lon="17.1230136"><ele>329.0</ele><time>2026-04-25T06:47:02.664Z</time></trkpt><trkpt lat="40.8352001" lon="17.1230661"><ele>328.33333333333337</ele><time>2026-04-25T06:47:03.66Z</time></trkpt><trkpt lat="40.8352595" lon="17.1231194"><ele>327.6666666666667</ele><time>2026-04-25T06:47:04.663Z</time></trkpt><trkpt lat="40.8353183" lon="17.1231685"><ele>327.0</ele><time>2026-04-25T06:47:05.654Z</time></trkpt><trkpt lat="40.8354281" lon="17.123251"><ele>326.3333333333333</ele><time>2026-04-25T06:47:07.664Z</time></trkpt><trkpt lat="40.8354916" lon="17.1232889"><ele>325.66666666666663</ele><time>2026-04-25T06:47:08.653Z</time></trkpt><trkpt lat="40.8355629" lon="17.12332"><ele>325.0</ele><time>2026-04-25T06:47:09.655Z</time></trkpt><trkpt lat="40.8356383" lon="17.1233371"><ele>325.0</ele><time>2026-04-25T06:47:10.647Z</time></trkpt><trkpt lat="40.8357188" lon="17.1233509"><ele>325.0</ele><time>2026-04-25T06:47:11.653Z</time></trkpt><trkpt lat="40.8358033" lon="17.1233555"><ele>325.0</ele><time>2026-04-25T06:47:12.657Z</time></trkpt><trkpt lat="40.8358893" lon="17.1233533"><ele>325.0</ele><time>2026-04-25T06:47:13.647Z</time></trkpt><trkpt lat="40.8359691" lon="17.1233177"><ele>325.0</ele><time>2026-04-25T06:47:14.66Z</time></trkpt><trkpt lat="40.8360542" lon="17.1232601"><ele>325.0</ele><time>2026-04-25T06:47:15.654Z</time></trkpt><trkpt lat="40.8361317" lon="17.123179"><ele>324.3333333333333</ele><time>2026-04-25T06:47:16.656Z</time></trkpt><trkpt lat="40.8361928" lon="17.1230965"><ele>323.66666666666663</ele><time>2026-04-25T06:47:17.654Z</time></trkpt><trkpt lat="40.8362516" lon="17.1230214"><ele>323.0</ele><time>2026-04-25T06:47:18.647Z</time></trkpt><trkpt lat="40.8363111" lon="17.1229488"><ele>322.3333333333333</ele><time>2026-04-25T06:47:19.668Z</time></trkpt><trkpt lat="40.8363802" lon="17.1228849"><ele>321.6666666666667</ele><time>2026-04-25T06:47:20.655Z</time></trkpt><trkpt lat="40.836453" lon="17.1228282"><ele>321.0</ele><time>2026-04-25T06:47:21.649Z</time></trkpt><trkpt lat="40.8365315" lon="17.1227879"><ele>321.0</ele><time>2026-04-25T06:47:22.643Z</time></trkpt><trkpt lat="40.8366125" lon="17.1227551"><ele>321.0</ele><time>2026-04-25T06:47:23.653Z</time></trkpt><trkpt lat="40.8366934" lon="17.1227302"><ele>321.0</ele><time>2026-04-25T06:47:24.648Z</time></trkpt><trkpt lat="40.8367762" lon="17.1227145"><ele>321.0</ele><time>2026-04-25T06:47:25.647Z</time></trkpt><trkpt lat="40.83685" lon="17.1226908"><ele>321.0</ele><time>2026-04-25T06:47:26.652Z</time></trkpt><trkpt lat="40.8369208" lon="17.1226604"><ele>321.0</ele><time>2026-04-25T06:47:27.651Z</time></trkpt><trkpt lat="40.8369786" lon="17.1226174"><ele>320.8</ele><time>2026-04-25T06:47:28.659Z</time></trkpt><trkpt lat="40.8370687" lon="17.1225215"><ele>320.6</ele><time>2026-04-25T06:47:30.658Z</time></trkpt><trkpt lat="40.8371415" lon="17.1224267"><ele>320.4</ele><time>2026-04-25T06:47:32.656Z</time></trkpt><trkpt lat="40.8372197" lon="17.1223272"><ele>320.2</ele><time>2026-04-25T06:47:34.642Z</time></trkpt><trkpt lat="40.837302" lon="17.1222317"><ele>320.0</ele><time>2026-04-25T06:47:36.654Z</time></trkpt><trkpt lat="40.8373754" lon="17.1221289"><ele>320.0</ele><time>2026-04-25T06:47:38.647Z</time></trkpt><trkpt lat="40.8374581" lon="17.1220402"><ele>320.0</ele><time>2026-04-25T06:47:40.651Z</time></trkpt><trkpt lat="40.8375401" lon="17.1219398"><ele>320.0</ele><time>2026-04-25T06:47:42.663Z</time></trkpt><trkpt lat="40.8376209" lon="17.1218488"><ele>320.0</ele><time>2026-04-25T06:47:44.655Z</time></trkpt><trkpt lat="40.8376932" lon="17.1217623"><ele>320.0</ele><time>2026-04-25T06:47:46.657Z</time></trkpt><trkpt lat="40.8377498" lon="17.1216851"><ele>319.83333333333337</ele><time>2026-04-25T06:47:48.672Z</time></trkpt><trkpt lat="40.8378117" lon="17.1216241"><ele>319.6666666666667</ele><time>2026-04-25T06:47:50.661Z</time></trkpt><trkpt lat="40.8378823" lon="17.1215652"><ele>319.5</ele><time>2026-04-25T06:47:52.653Z</time></trkpt><trkpt lat="40.8379484" lon="17.1215122"><ele>319.3333333333333</ele><time>2026-04-25T06:47:54.646Z</time></trkpt><trkpt lat="40.8380195" lon="17.1214525"><ele>319.16666666666663</ele><time>2026-04-25T06:47:56.663Z</time></trkpt><trkpt lat="40.8380933" lon="17.1213852"><ele>319.0</ele><time>2026-04-25T06:47:58.654Z</time></trkpt><trkpt lat="40.8381681" lon="17.1213273"><ele>319.0</ele><time>2026-04-25T06:48:00.654Z</time></trkpt><trkpt lat="40.83825" lon="17.1212697"><ele>319.0</ele><time>2026-04-25T06:48:02.663Z</time></trkpt><trkpt lat="40.8383286" lon="17.1212039"><ele>319.0</ele><time>2026-04-25T06:48:04.647Z</time></trkpt><trkpt lat="40.8384005" lon="17.1211405"><ele>319.0</ele><time>2026-04-25T06:48:06.657Z</time></trkpt><trkpt lat="40.8384807" lon="17.1210875"><ele>319.0</ele><time>2026-04-25T06:48:08.658Z</time></trkpt><trkpt lat="40.8385556" lon="17.1210393"><ele>319.0</ele><time>2026-04-25T06:48:10.658Z</time></trkpt><trkpt lat="40.8386349" lon="17.1210115"><ele>319.3333333333333</ele><time>2026-04-25T06:48:12.656Z</time></trkpt><trkpt lat="40.8387154" lon="17.120985"><ele>319.66666666666663</ele><time>2026-04-25T06:48:14.661Z</time></trkpt><trkpt lat="40.8387953" lon="17.120968"><ele>320.0</ele><time>2026-04-25T06:48:16.663Z</time></trkpt><trkpt lat="40.8388751" lon="17.1209417"><ele>320.3333333333333</ele><time>2026-04-25T06:48:18.645Z</time></trkpt><trkpt lat="40.8389478" lon="17.1209083"><ele>320.6666666666667</ele><time>2026-04-25T06:48:20.647Z</time></trkpt><trkpt lat="40.8390176" lon="17.120883"><ele>321.0</ele><time>2026-04-25T06:48:22.653Z</time></trkpt><trkpt lat="40.8390805" lon="17.1208711"><ele>321.0</ele><time>2026-04-25T06:48:24.654Z</time></trkpt><trkpt lat="40.8391679" lon="17.1208465"><ele>321.0</ele><time>2026-04-25T06:48:27.656Z</time></trkpt><trkpt lat="40.8392485" lon="17.1208332"><ele>321.0</ele><time>2026-04-25T06:48:30.66Z</time></trkpt><trkpt lat="40.8393405" lon="17.1208101"><ele>321.0</ele><time>2026-04-25T06:48:33.658Z</time></trkpt><trkpt lat="40.8394492" lon="17.1207983"><ele>321.0</ele><time>2026-04-25T06:48:35.651Z</time></trkpt><trkpt lat="40.8395149" lon="17.1207866"><ele>321.0</ele><time>2026-04-25T06:48:36.687Z</time></trkpt><trkpt lat="40.8395783" lon="17.1207808"><ele>321.0</ele><time>2026-04-25T06:48:37.653Z</time></trkpt><trkpt lat="40.839652" lon="17.1207781"><ele>321.0</ele><time>2026-04-25T06:48:38.66Z</time></trkpt><trkpt lat="40.8397285" lon="17.1207825"><ele>321.0</ele><time>2026-04-25T06:48:39.651Z</time></trkpt><trkpt lat="40.8398061" lon="17.1207871"><ele>321.0</ele><time>2026-04-25T06:48:40.653Z</time></trkpt><trkpt lat="40.8398885" lon="17.12078"><ele>321.0</ele><time>2026-04-25T06:48:41.654Z</time></trkpt><trkpt lat="40.8399741" lon="17.1207737"><ele>321.0</ele><time>2026-04-25T06:48:42.655Z</time></trkpt><trkpt lat="40.8400613" lon="17.1207617"><ele>319.2</ele><time>2026-04-25T06:48:43.649Z</time></trkpt><trkpt lat="40.8401484" lon="17.1207531"><ele>317.40000000000003</ele><time>2026-04-25T06:48:44.657Z</time></trkpt><trkpt lat="40.8402389" lon="17.1207422"><ele>315.6</ele><time>2026-04-25T06:48:45.644Z</time></trkpt><trkpt lat="40.8403329" lon="17.1207245"><ele>313.8</ele><time>2026-04-25T06:48:46.665Z</time></trkpt><trkpt lat="40.8404256" lon="17.1206963"><ele>312.0</ele><time>2026-04-25T06:48:47.653Z</time></trkpt><trkpt lat="40.8405231" lon="17.1206642"><ele>311.6</ele><time>2026-04-25T06:48:48.648Z</time></trkpt><trkpt lat="40.8406202" lon="17.1206255"><ele>311.2</ele><time>2026-04-25T06:48:49.643Z</time></trkpt><trkpt lat="40.8407212" lon="17.1205903"><ele>310.8</ele><time>2026-04-25T06:48:50.65Z</time></trkpt><trkpt lat="40.8408257" lon="17.1205544"><ele>310.4</ele><time>2026-04-25T06:48:51.654Z</time></trkpt><trkpt lat="40.8409271" lon="17.1205268"><ele>310.0</ele><time>2026-04-25T06:48:52.65Z</time></trkpt><trkpt lat="40.8410315" lon="17.1205154"><ele>309.4</ele><time>2026-04-25T06:48:53.649Z</time></trkpt><trkpt lat="40.8411356" lon="17.1205186"><ele>308.8</ele><time>2026-04-25T06:48:54.677Z</time></trkpt><trkpt lat="40.8412342" lon="17.1205217"><ele>308.2</ele><time>2026-04-25T06:48:55.642Z</time></trkpt><trkpt lat="40.8413284" lon="17.1205348"><ele>307.6</ele><time>2026-04-25T06:48:56.651Z</time></trkpt><trkpt lat="40.8414216" lon="17.1205453"><ele>307.0</ele><time>2026-04-25T06:48:57.65Z</time></trkpt><trkpt lat="40.8415108" lon="17.1205585"><ele>307.0</ele><time>2026-04-25T06:48:58.649Z</time></trkpt><trkpt lat="40.8415974" lon="17.1205716"><ele>307.0</ele><time>2026-04-25T06:48:59.645Z</time></trkpt><trkpt lat="40.8416787" lon="17.1205823"><ele>307.0</ele><time>2026-04-25T06:49:00.651Z</time></trkpt><trkpt lat="40.8417561" lon="17.1205911"><ele>307.0</ele><time>2026-04-25T06:49:01.649Z</time></trkpt><trkpt lat="40.8418256" lon="17.1205986"><ele>307.0</ele><time>2026-04-25T06:49:02.656Z</time></trkpt><trkpt lat="40.8418892" lon="17.1206036"><ele>307.0</ele><time>2026-04-25T06:49:03.645Z</time></trkpt><trkpt lat="40.8420004" lon="17.1205961"><ele>307.71428571428567</ele><time>2026-04-25T06:49:05.643Z</time></trkpt><trkpt lat="40.842093" lon="17.1205676"><ele>308.42857142857144</ele><time>2026-04-25T06:49:07.658Z</time></trkpt><trkpt lat="40.8421602" lon="17.120548"><ele>309.1428571428571</ele><time>2026-04-25T06:49:09.651Z</time></trkpt><trkpt lat="40.8422246" lon="17.1205309"><ele>309.85714285714283</ele><time>2026-04-25T06:49:11.658Z</time></trkpt><trkpt lat="40.8422898" lon="17.1204945"><ele>310.57142857142856</ele><time>2026-04-25T06:49:13.667Z</time></trkpt><trkpt lat="40.84235" lon="17.1204351"><ele>311.2857142857143</ele><time>2026-04-25T06:49:15.66Z</time></trkpt><trkpt lat="40.8424106" lon="17.1203916"><ele>312.0</ele><time>2026-04-25T06:49:17.652Z</time></trkpt><trkpt lat="40.84247" lon="17.1203435"><ele>312.0</ele><time>2026-04-25T06:49:19.656Z</time></trkpt><trkpt lat="40.8425284" lon="17.1203075"><ele>312.0</ele><time>2026-04-25T06:49:21.663Z</time></trkpt><trkpt lat="40.8426194" lon="17.120287"><ele>312.0</ele><time>2026-04-25T06:49:24.647Z</time></trkpt><trkpt lat="40.8426967" lon="17.1203086"><ele>312.0</ele><time>2026-04-25T06:49:27.646Z</time></trkpt><trkpt lat="40.8427634" lon="17.1203531"><ele>312.0</ele><time>2026-04-25T06:49:47.652Z</time></trkpt><trkpt lat="40.8428358" lon="17.1203974"><ele>312.0</ele><time>2026-04-25T06:49:50.67Z</time></trkpt><trkpt lat="40.842904" lon="17.1204412"><ele>312.42857142857144</ele><time>2026-04-25T06:49:53.65Z</time></trkpt><trkpt lat="40.8429751" lon="17.1204862"><ele>312.85714285714283</ele><time>2026-04-25T06:49:56.649Z</time></trkpt><trkpt lat="40.8430424" lon="17.1205282"><ele>313.2857142857143</ele><time>2026-04-25T06:49:59.648Z</time></trkpt><trkpt lat="40.8431061" lon="17.1205669"><ele>313.7142857142857</ele><time>2026-04-25T06:50:02.653Z</time></trkpt><trkpt lat="40.84317" lon="17.1206072"><ele>314.1428571428571</ele><time>2026-04-25T06:50:05.647Z</time></trkpt><trkpt lat="40.8432341" lon="17.1206494"><ele>314.57142857142856</ele><time>2026-04-25T06:50:08.651Z</time></trkpt><trkpt lat="40.8432978" lon="17.1206861"><ele>315.0</ele><time>2026-04-25T06:50:11.659Z</time></trkpt><trkpt lat="40.8433561" lon="17.12072"><ele>315.42857142857144</ele><time>2026-04-25T06:50:14.652Z</time></trkpt><trkpt lat="40.8434132" lon="17.1207558"><ele>315.8571428571429</ele><time>2026-04-25T06:50:22.651Z</time></trkpt><trkpt lat="40.843473" lon="17.1208045"><ele>316.2857142857143</ele><time>2026-04-25T06:50:28.653Z</time></trkpt><trkpt lat="40.8435368" lon="17.1208466"><ele>316.7142857142857</ele><time>2026-04-25T06:50:35.65Z</time></trkpt><trkpt lat="40.8435935" lon="17.1208865"><ele>317.14285714285717</ele><time>2026-04-25T06:50:41.642Z</time></trkpt><trkpt lat="40.8436565" lon="17.1209208"><ele>317.57142857142856</ele><time>2026-04-25T06:50:48.655Z</time></trkpt><trkpt lat="40.8437205" lon="17.1209555"><ele>318.0</ele><time>2026-04-25T06:50:54.644Z</time></trkpt><trkpt lat="40.843788" lon="17.1209889"><ele>319.1428571428571</ele><time>2026-04-25T06:51:02.65Z</time></trkpt><trkpt lat="40.8438743" lon="17.1210432"><ele>320.28571428571433</ele><time>2026-04-25T06:51:59.654Z</time></trkpt><trkpt lat="40.8439394" lon="17.1210611"><ele>321.42857142857144</ele><time>2026-04-25T06:52:05.641Z</time></trkpt><trkpt lat="40.8439937" lon="17.121113"><ele>322.57142857142856</ele><time>2026-04-25T06:52:10.654Z</time></trkpt><trkpt lat="40.8440446" lon="17.1211725"><ele>323.71428571428567</ele><time>2026-04-25T06:52:15.658Z</time></trkpt><trkpt lat="40.8441108" lon="17.121209"><ele>324.8571428571429</ele><time>2026-04-25T06:52:20.662Z</time></trkpt><trkpt lat="40.8441835" lon="17.1212529"><ele>326.0</ele><time>2026-04-25T06:52:28.651Z</time></trkpt><trkpt lat="40.8442452" lon="17.1213016"><ele>327.14285714285717</ele><time>2026-04-25T06:52:32.648Z</time></trkpt><trkpt lat="40.8443061" lon="17.1213457"><ele>328.2857142857143</ele><time>2026-04-25T06:52:37.653Z</time></trkpt><trkpt lat="40.8443737" lon="17.1213861"><ele>329.42857142857144</ele><time>2026-04-25T06:52:42.646Z</time></trkpt><trkpt lat="40.8444331" lon="17.1214273"><ele>330.57142857142856</ele><time>2026-04-25T06:52:47.645Z</time></trkpt><trkpt lat="40.8444915" lon="17.1214663"><ele>331.7142857142857</ele><time>2026-04-25T06:52:52.647Z</time></trkpt><trkpt lat="40.8445482" lon="17.1215051"><ele>332.85714285714283</ele><time>2026-04-25T06:52:57.651Z</time></trkpt><trkpt lat="40.8446039" lon="17.1215511"><ele>334.0</ele><time>2026-04-25T06:53:03.649Z</time></trkpt><trkpt lat="40.8446659" lon="17.1215844"><ele>335.0</ele><time>2026-04-25T06:53:10.642Z</time></trkpt><trkpt lat="40.844727" lon="17.1216113"><ele>336.0</ele><time>2026-04-25T06:53:16.637Z</time></trkpt><trkpt lat="40.8447919" lon="17.1216548"><ele>337.0</ele><time>2026-04-25T06:53:23.647Z</time></trkpt><trkpt lat="40.8448344" lon="17.1217205"><ele>338.0</ele><time>2026-04-25T06:53:31.642Z</time></trkpt><trkpt lat="40.844984" lon="17.1217267"><ele>339.0</ele><time>2026-04-25T06:55:57.615Z</time></trkpt><trkpt lat="40.8450436" lon="17.1217797"><ele>340.0</ele><time>2026-04-25T06:56:01.625Z</time></trkpt><trkpt lat="40.8451146" lon="17.1218251"><ele>340.8571428571429</ele><time>2026-04-25T06:56:04.629Z</time></trkpt><trkpt lat="40.8451678" lon="17.121873"><ele>341.71428571428567</ele><time>2026-04-25T06:56:07.631Z</time></trkpt><trkpt lat="40.8452043" lon="17.1219563"><ele>342.57142857142856</ele><time>2026-04-25T06:56:14.635Z</time></trkpt><trkpt lat="40.8451966" lon="17.122043"><ele>343.42857142857144</ele><time>2026-04-25T06:56:55.63Z</time></trkpt><trkpt lat="40.8451862" lon="17.122149"><ele>344.28571428571433</ele><time>2026-04-25T06:56:59.645Z</time></trkpt><trkpt lat="40.8451847" lon="17.1222391"><ele>345.1428571428571</ele><time>2026-04-25T06:57:02.628Z</time></trkpt><trkpt lat="40.8451679" lon="17.1223259"><ele>346.0</ele><time>2026-04-25T06:57:05.644Z</time></trkpt><trkpt lat="40.8451628" lon="17.1224242"><ele>345.66666666666663</ele><time>2026-04-25T06:57:08.638Z</time></trkpt><trkpt lat="40.8451489" lon="17.1225272"><ele>345.3333333333333</ele><time>2026-04-25T06:57:11.633Z</time></trkpt><trkpt lat="40.8451318" lon="17.1226235"><ele>345.0</ele><time>2026-04-25T06:57:14.633Z</time></trkpt><trkpt lat="40.8451233" lon="17.1227334"><ele>344.6666666666667</ele><time>2026-04-25T06:57:17.636Z</time></trkpt><trkpt lat="40.8450898" lon="17.1228334"><ele>344.33333333333337</ele><time>2026-04-25T06:57:20.636Z</time></trkpt><trkpt lat="40.8450766" lon="17.1229411"><ele>344.0</ele><time>2026-04-25T06:57:23.635Z</time></trkpt><trkpt lat="40.8450764" lon="17.1230465"><ele>344.0</ele><time>2026-04-25T06:57:26.639Z</time></trkpt><trkpt lat="40.8450706" lon="17.1231499"><ele>344.0</ele><time>2026-04-25T06:57:29.633Z</time></trkpt><trkpt lat="40.8450644" lon="17.1232576"><ele>344.0</ele><time>2026-04-25T06:57:32.634Z</time></trkpt><trkpt lat="40.8450562" lon="17.1233691"><ele>344.0</ele><time>2026-04-25T06:57:35.626Z</time></trkpt><trkpt lat="40.8450385" lon="17.123472"><ele>344.0</ele><time>2026-04-25T06:57:38.64Z</time></trkpt><trkpt lat="40.8450261" lon="17.1235713"><ele>344.0</ele><time>2026-04-25T06:57:41.629Z</time></trkpt><trkpt lat="40.8450147" lon="17.1236824"><ele>344.0</ele><time>2026-04-25T06:57:44.637Z</time></trkpt><trkpt lat="40.8450101" lon="17.1237973"><ele>344.0</ele><time>2026-04-25T06:57:47.633Z</time></trkpt><trkpt lat="40.8450018" lon="17.1238823"><ele>344.0</ele><time>2026-04-25T06:57:49.636Z</time></trkpt><trkpt lat="40.8449925" lon="17.1239808"><ele>344.0</ele><time>2026-04-25T06:57:52.635Z</time></trkpt><trkpt lat="40.8449847" lon="17.1240742"><ele>344.0</ele><time>2026-04-25T06:57:55.642Z</time></trkpt><trkpt lat="40.8449946" lon="17.124175"><ele>344.0</ele><time>2026-04-25T06:57:58.629Z</time></trkpt><trkpt lat="40.8449858" lon="17.1242782"><ele>344.7142857142857</ele><time>2026-04-25T06:58:01.633Z</time></trkpt><trkpt lat="40.8449864" lon="17.1243736"><ele>345.42857142857144</ele><time>2026-04-25T06:58:04.637Z</time></trkpt><trkpt lat="40.8449902" lon="17.1244628"><ele>346.1428571428571</ele><time>2026-04-25T06:58:07.636Z</time></trkpt><trkpt lat="40.8449984" lon="17.1245491"><ele>346.8571428571429</ele><time>2026-04-25T06:58:10.631Z</time></trkpt><trkpt lat="40.8449952" lon="17.1246365"><ele>347.57142857142856</ele><time>2026-04-25T06:58:13.643Z</time></trkpt><trkpt lat="40.8449813" lon="17.1247194"><ele>348.2857142857143</ele><time>2026-04-25T06:58:17.629Z</time></trkpt><trkpt lat="40.8449834" lon="17.1248259"><ele>349.0</ele><time>2026-04-25T06:58:33.634Z</time></trkpt><trkpt lat="40.8449568" lon="17.1249196"><ele>349.4285714285714</ele><time>2026-04-25T06:58:36.639Z</time></trkpt><trkpt lat="40.8449485" lon="17.1250032"><ele>349.85714285714283</ele><time>2026-04-25T06:58:39.643Z</time></trkpt><trkpt lat="40.8449587" lon="17.1251109"><ele>350.2857142857143</ele><time>2026-04-25T06:58:43.645Z</time></trkpt><trkpt lat="40.8449759" lon="17.1251938"><ele>350.71428571428567</ele><time>2026-04-25T06:58:46.643Z</time></trkpt><trkpt lat="40.8449789" lon="17.1252893"><ele>351.1428571428571</ele><time>2026-04-25T06:58:49.633Z</time></trkpt><trkpt lat="40.8449794" lon="17.1253731"><ele>351.57142857142856</ele><time>2026-04-25T06:58:52.637Z</time></trkpt><trkpt lat="40.8449797" lon="17.1254646"><ele>352.0</ele><time>2026-04-25T06:58:55.636Z</time></trkpt><trkpt lat="40.844985" lon="17.1255518"><ele>352.0</ele><time>2026-04-25T06:58:58.628Z</time></trkpt><trkpt lat="40.8449883" lon="17.1256397"><ele>352.0</ele><time>2026-04-25T06:59:01.636Z</time></trkpt><trkpt lat="40.8449884" lon="17.1257333"><ele>352.0</ele><time>2026-04-25T06:59:04.627Z</time></trkpt><trkpt lat="40.8449911" lon="17.1258272"><ele>352.0</ele><time>2026-04-25T06:59:07.633Z</time></trkpt><trkpt lat="40.8449875" lon="17.1259187"><ele>352.0</ele><time>2026-04-25T06:59:10.638Z</time></trkpt><trkpt lat="40.8449924" lon="17.1260077"><ele>352.0</ele><time>2026-04-25T06:59:13.631Z</time></trkpt><trkpt lat="40.8449929" lon="17.1260993"><ele>352.0</ele><time>2026-04-25T06:59:16.645Z</time></trkpt><trkpt lat="40.8450029" lon="17.1261816"><ele>352.2857142857143</ele><time>2026-04-25T06:59:19.63Z</time></trkpt><trkpt lat="40.8450221" lon="17.1262658"><ele>352.57142857142856</ele><time>2026-04-25T06:59:26.629Z</time></trkpt><trkpt lat="40.8450352" lon="17.1263548"><ele>352.8571428571429</ele><time>2026-04-25T06:59:32.639Z</time></trkpt><trkpt lat="40.8450537" lon="17.1264479"><ele>353.1428571428571</ele><time>2026-04-25T06:59:38.632Z</time></trkpt><trkpt lat="40.8450726" lon="17.1265416"><ele>353.4285714285714</ele><time>2026-04-25T06:59:44.639Z</time></trkpt><trkpt lat="40.8451027" lon="17.1266268"><ele>353.7142857142857</ele><time>2026-04-25T06:59:50.632Z</time></trkpt><trkpt lat="40.8451354" lon="17.1267094"><ele>354.0</ele><time>2026-04-25T06:59:56.632Z</time></trkpt><trkpt lat="40.8451561" lon="17.1267911"><ele>355.0</ele><time>2026-04-25T07:00:01.634Z</time></trkpt><trkpt lat="40.8451778" lon="17.126875"><ele>356.0</ele><time>2026-04-25T07:00:06.64Z</time></trkpt><trkpt lat="40.8452122" lon="17.1269474"><ele>357.0</ele><time>2026-04-25T07:00:11.629Z</time></trkpt><trkpt lat="40.845249" lon="17.1270179"><ele>358.0</ele><time>2026-04-25T07:00:16.632Z</time></trkpt><trkpt lat="40.8452827" lon="17.127094"><ele>359.0</ele><time>2026-04-25T07:00:21.635Z</time></trkpt><trkpt lat="40.8453293" lon="17.1271546"><ele>360.0</ele><time>2026-04-25T07:00:26.631Z</time></trkpt><trkpt lat="40.845375" lon="17.1272188"><ele>361.0</ele><time>2026-04-25T07:00:31.632Z</time></trkpt><trkpt lat="40.8454182" lon="17.1272794"><ele>361.0</ele><time>2026-04-25T07:00:36.635Z</time></trkpt><trkpt lat="40.845469" lon="17.1273472"><ele>361.0</ele><time>2026-04-25T07:00:42.635Z</time></trkpt><trkpt lat="40.8455179" lon="17.1274231"><ele>361.0</ele><time>2026-04-25T07:00:48.63Z</time></trkpt><trkpt lat="40.845553" lon="17.1274997"><ele>361.0</ele><time>2026-04-25T07:00:54.636Z</time></trkpt><trkpt lat="40.8455964" lon="17.1275617"><ele>361.0</ele><time>2026-04-25T07:01:01.638Z</time></trkpt><trkpt lat="40.8457213" lon="17.1276998"><ele>361.0</ele><time>2026-04-25T07:03:27.633Z</time></trkpt><trkpt lat="40.8458215" lon="17.1278299"><ele>361.3333333333333</ele><time>2026-04-25T07:03:33.644Z</time></trkpt><trkpt lat="40.8458748" lon="17.127907"><ele>361.66666666666663</ele><time>2026-04-25T07:03:36.636Z</time></trkpt><trkpt lat="40.8459343" lon="17.1279855"><ele>362.0</ele><time>2026-04-25T07:03:39.643Z</time></trkpt><trkpt lat="40.8459887" lon="17.1280464"><ele>362.3333333333333</ele><time>2026-04-25T07:03:42.652Z</time></trkpt><trkpt lat="40.8460456" lon="17.1281101"><ele>362.6666666666667</ele><time>2026-04-25T07:03:45.632Z</time></trkpt><trkpt lat="40.8461177" lon="17.1281673"><ele>363.0</ele><time>2026-04-25T07:03:48.633Z</time></trkpt><trkpt lat="40.8461737" lon="17.1282091"><ele>362.3333333333333</ele><time>2026-04-25T07:03:50.637Z</time></trkpt><trkpt lat="40.8462283" lon="17.1282537"><ele>361.6666666666667</ele><time>2026-04-25T07:03:52.634Z</time></trkpt><trkpt lat="40.8462932" lon="17.1282946"><ele>361.0</ele><time>2026-04-25T07:03:54.643Z</time></trkpt><trkpt lat="40.8463729" lon="17.1283282"><ele>360.33333333333337</ele><time>2026-04-25T07:03:56.626Z</time></trkpt><trkpt lat="40.8464497" lon="17.128357"><ele>359.6666666666667</ele><time>2026-04-25T07:03:58.63Z</time></trkpt><trkpt lat="40.8465263" lon="17.1284225"><ele>359.0</ele><time>2026-04-25T07:04:00.634Z</time></trkpt><trkpt lat="40.8465352" lon="17.1285605"><ele>359.0</ele><time>2026-04-25T07:04:02.638Z</time></trkpt><trkpt lat="40.8465009" lon="17.1286997"><ele>359.0</ele><time>2026-04-25T07:04:04.629Z</time></trkpt><trkpt lat="40.8464722" lon="17.1288499"><ele>359.0</ele><time>2026-04-25T07:04:06.631Z</time></trkpt><trkpt lat="40.8464584" lon="17.1289319"><ele>359.0</ele><time>2026-04-25T07:04:07.632Z</time></trkpt><trkpt lat="40.8464438" lon="17.1290158"><ele>359.0</ele><time>2026-04-25T07:04:08.638Z</time></trkpt><trkpt lat="40.846425" lon="17.1291016"><ele>359.0</ele><time>2026-04-25T07:04:09.637Z</time></trkpt><trkpt lat="40.8464106" lon="17.1291865"><ele>358.42857142857144</ele><time>2026-04-25T07:04:10.629Z</time></trkpt><trkpt lat="40.8463978" lon="17.1292776"><ele>357.8571428571429</ele><time>2026-04-25T07:04:11.634Z</time></trkpt><trkpt lat="40.8463824" lon="17.1293638"><ele>357.2857142857143</ele><time>2026-04-25T07:04:12.632Z</time></trkpt><trkpt lat="40.8463652" lon="17.1294591"><ele>356.7142857142857</ele><time>2026-04-25T07:04:13.64Z</time></trkpt><trkpt lat="40.8463474" lon="17.1295541"><ele>356.14285714285717</ele><time>2026-04-25T07:04:14.638Z</time></trkpt><trkpt lat="40.8463235" lon="17.1296538"><ele>355.57142857142856</ele><time>2026-04-25T07:04:15.651Z</time></trkpt><trkpt lat="40.8462992" lon="17.1297534"><ele>355.0</ele><time>2026-04-25T07:04:16.631Z</time></trkpt><trkpt lat="40.846278" lon="17.1298594"><ele>354.66666666666663</ele><time>2026-04-25T07:04:17.628Z</time></trkpt><trkpt lat="40.8462574" lon="17.1299668"><ele>354.3333333333333</ele><time>2026-04-25T07:04:18.638Z</time></trkpt><trkpt lat="40.8462367" lon="17.1300766"><ele>354.0</ele><time>2026-04-25T07:04:19.635Z</time></trkpt><trkpt lat="40.846213" lon="17.1301851"><ele>353.6666666666667</ele><time>2026-04-25T07:04:20.639Z</time></trkpt><trkpt lat="40.8461912" lon="17.1302975"><ele>353.33333333333337</ele><time>2026-04-25T07:04:21.63Z</time></trkpt><trkpt lat="40.8461686" lon="17.13041"><ele>353.0</ele><time>2026-04-25T07:04:22.663Z</time></trkpt><trkpt lat="40.8461458" lon="17.1305282"><ele>353.0</ele><time>2026-04-25T07:04:23.637Z</time></trkpt><trkpt lat="40.8461194" lon="17.1306412"><ele>353.0</ele><time>2026-04-25T07:04:24.636Z</time></trkpt><trkpt lat="40.8460967" lon="17.1307538"><ele>353.0</ele><time>2026-04-25T07:04:25.639Z</time></trkpt><trkpt lat="40.8460772" lon="17.1308692"><ele>353.0</ele><time>2026-04-25T07:04:26.632Z</time></trkpt><trkpt lat="40.8460613" lon="17.1309764"><ele>353.0</ele><time>2026-04-25T07:04:27.63Z</time></trkpt><trkpt lat="40.8460513" lon="17.1310663"><ele>353.0</ele><time>2026-04-25T07:04:28.634Z</time></trkpt><trkpt lat="40.8460395" lon="17.1311812"><ele>353.2</ele><time>2026-04-25T07:04:30.635Z</time></trkpt><trkpt lat="40.8460357" lon="17.1312939"><ele>353.4</ele><time>2026-04-25T07:04:32.641Z</time></trkpt><trkpt lat="40.8460102" lon="17.1314064"><ele>353.59999999999997</ele><time>2026-04-25T07:04:34.641Z</time></trkpt><trkpt lat="40.8459504" lon="17.131503"><ele>353.79999999999995</ele><time>2026-04-25T07:04:36.63Z</time></trkpt><trkpt lat="40.8458759" lon="17.1316086"><ele>354.0</ele><time>2026-04-25T07:04:38.637Z</time></trkpt><trkpt lat="40.8458341" lon="17.1317447"><ele>352.6666666666667</ele><time>2026-04-25T07:04:40.626Z</time></trkpt><trkpt lat="40.845801" lon="17.1318813"><ele>351.3333333333333</ele><time>2026-04-25T07:04:42.635Z</time></trkpt><trkpt lat="40.8457832" lon="17.1319617"><ele>350.0</ele><time>2026-04-25T07:04:43.64Z</time></trkpt><trkpt lat="40.845761" lon="17.1320436"><ele>348.66666666666663</ele><time>2026-04-25T07:04:44.645Z</time></trkpt><trkpt lat="40.845731" lon="17.1321275"><ele>347.3333333333333</ele><time>2026-04-25T07:04:45.641Z</time></trkpt><trkpt lat="40.8456972" lon="17.1322145"><ele>346.0</ele><time>2026-04-25T07:04:46.664Z</time></trkpt><trkpt lat="40.8456601" lon="17.132297"><ele>346.0</ele><time>2026-04-25T07:04:47.636Z</time></trkpt><trkpt lat="40.8456179" lon="17.1323878"><ele>346.0</ele><time>2026-04-25T07:04:48.642Z</time></trkpt><trkpt lat="40.8455697" lon="17.1324747"><ele>346.0</ele><time>2026-04-25T07:04:49.627Z</time></trkpt><trkpt lat="40.845519" lon="17.1325596"><ele>346.0</ele><time>2026-04-25T07:04:50.639Z</time></trkpt><trkpt lat="40.8454674" lon="17.1326379"><ele>346.0</ele><time>2026-04-25T07:04:51.63Z</time></trkpt><trkpt lat="40.8454159" lon="17.132712"><ele>346.0</ele><time>2026-04-25T07:04:52.64Z</time></trkpt><trkpt lat="40.845363" lon="17.1327868"><ele>345.3333333333333</ele><time>2026-04-25T07:04:53.643Z</time></trkpt><trkpt lat="40.845312" lon="17.1328601"><ele>344.66666666666663</ele><time>2026-04-25T07:04:54.63Z</time></trkpt><trkpt lat="40.8452565" lon="17.1329335"><ele>344.0</ele><time>2026-04-25T07:04:55.629Z</time></trkpt><trkpt lat="40.8452009" lon="17.1330046"><ele>343.3333333333333</ele><time>2026-04-25T07:04:56.633Z</time></trkpt><trkpt lat="40.8451461" lon="17.1330776"><ele>342.6666666666667</ele><time>2026-04-25T07:04:57.638Z</time></trkpt><trkpt lat="40.8450941" lon="17.1331599"><ele>342.0</ele><time>2026-04-25T07:04:58.653Z</time></trkpt><trkpt lat="40.8450385" lon="17.1332453"><ele>341.3333333333333</ele><time>2026-04-25T07:04:59.622Z</time></trkpt><trkpt lat="40.844984" lon="17.1333294"><ele>340.6666666666667</ele><time>2026-04-25T07:05:00.63Z</time></trkpt><trkpt lat="40.8449299" lon="17.1334127"><ele>340.0</ele><time>2026-04-25T07:05:01.634Z</time></trkpt><trkpt lat="40.8448749" lon="17.1334871"><ele>339.33333333333337</ele><time>2026-04-25T07:05:02.628Z</time></trkpt><trkpt lat="40.8448146" lon="17.1335694"><ele>338.6666666666667</ele><time>2026-04-25T07:05:03.636Z</time></trkpt><trkpt lat="40.8447546" lon="17.1336506"><ele>338.0</ele><time>2026-04-25T07:05:04.633Z</time></trkpt><trkpt lat="40.8446946" lon="17.1337338"><ele>338.0</ele><time>2026-04-25T07:05:05.627Z</time></trkpt><trkpt lat="40.844637" lon="17.1338196"><ele>338.0</ele><time>2026-04-25T07:05:06.631Z</time></trkpt><trkpt lat="40.8445844" lon="17.1339059"><ele>338.0</ele><time>2026-04-25T07:05:07.631Z</time></trkpt><trkpt lat="40.8445291" lon="17.1339891"><ele>338.0</ele><time>2026-04-25T07:05:08.632Z</time></trkpt><trkpt lat="40.8444804" lon="17.1340698"><ele>338.0</ele><time>2026-04-25T07:05:09.632Z</time></trkpt><trkpt lat="40.8444363" lon="17.1341523"><ele>338.0</ele><time>2026-04-25T07:05:10.649Z</time></trkpt><trkpt lat="40.844399" lon="17.1342368"><ele>337.83333333333337</ele><time>2026-04-25T07:05:11.642Z</time></trkpt><trkpt lat="40.8443661" lon="17.1343096"><ele>337.6666666666667</ele><time>2026-04-25T07:05:12.64Z</time></trkpt><trkpt lat="40.8442854" lon="17.134421"><ele>337.5</ele><time>2026-04-25T07:05:14.625Z</time></trkpt><trkpt lat="40.8441896" lon="17.1345178"><ele>337.3333333333333</ele><time>2026-04-25T07:05:16.686Z</time></trkpt><trkpt lat="40.8441357" lon="17.1345685"><ele>337.16666666666663</ele><time>2026-04-25T07:05:17.627Z</time></trkpt><trkpt lat="40.8440796" lon="17.1346186"><ele>337.0</ele><time>2026-04-25T07:05:18.629Z</time></trkpt><trkpt lat="40.8440195" lon="17.1346664"><ele>336.8571428571429</ele><time>2026-04-25T07:05:19.631Z</time></trkpt><trkpt lat="40.8439587" lon="17.1347171"><ele>336.7142857142857</ele><time>2026-04-25T07:05:20.641Z</time></trkpt><trkpt lat="40.8438991" lon="17.1347603"><ele>336.57142857142856</ele><time>2026-04-25T07:05:21.639Z</time></trkpt><trkpt lat="40.8438402" lon="17.1348089"><ele>336.42857142857144</ele><time>2026-04-25T07:05:22.636Z</time></trkpt><trkpt lat="40.8437782" lon="17.1348569"><ele>336.2857142857143</ele><time>2026-04-25T07:05:23.637Z</time></trkpt><trkpt lat="40.8437138" lon="17.1349044"><ele>336.14285714285717</ele><time>2026-04-25T07:05:24.64Z</time></trkpt><trkpt lat="40.8436487" lon="17.1349504"><ele>336.0</ele><time>2026-04-25T07:05:25.661Z</time></trkpt><trkpt lat="40.8435854" lon="17.1349926"><ele>335.6666666666667</ele><time>2026-04-25T07:05:26.645Z</time></trkpt><trkpt lat="40.8435199" lon="17.135035"><ele>335.3333333333333</ele><time>2026-04-25T07:05:27.635Z</time></trkpt><trkpt lat="40.8434555" lon="17.1350763"><ele>335.0</ele><time>2026-04-25T07:05:28.636Z</time></trkpt><trkpt lat="40.8433869" lon="17.1351096"><ele>334.66666666666663</ele><time>2026-04-25T07:05:29.64Z</time></trkpt><trkpt lat="40.8433145" lon="17.1351344"><ele>334.3333333333333</ele><time>2026-04-25T07:05:30.631Z</time></trkpt><trkpt lat="40.8432396" lon="17.1351539"><ele>334.0</ele><time>2026-04-25T07:05:31.648Z</time></trkpt><trkpt lat="40.8431569" lon="17.1351738"><ele>333.6</ele><time>2026-04-25T07:05:32.644Z</time></trkpt><trkpt lat="40.8430666" lon="17.1351946"><ele>333.2</ele><time>2026-04-25T07:05:33.651Z</time></trkpt><trkpt lat="40.8429712" lon="17.135222"><ele>332.8</ele><time>2026-04-25T07:05:34.636Z</time></trkpt><trkpt lat="40.8428787" lon="17.1352566"><ele>332.40000000000003</ele><time>2026-04-25T07:05:35.631Z</time></trkpt><trkpt lat="40.8427882" lon="17.1352939"><ele>332.0</ele><time>2026-04-25T07:05:36.633Z</time></trkpt><trkpt lat="40.8427034" lon="17.1353337"><ele>331.6666666666667</ele><time>2026-04-25T07:05:37.635Z</time></trkpt><trkpt lat="40.8426193" lon="17.1353815"><ele>331.33333333333337</ele><time>2026-04-25T07:05:38.658Z</time></trkpt><trkpt lat="40.8425399" lon="17.1354285"><ele>331.0</ele><time>2026-04-25T07:05:39.64Z</time></trkpt><trkpt lat="40.8424606" lon="17.1354755"><ele>330.6666666666667</ele><time>2026-04-25T07:05:40.642Z</time></trkpt><trkpt lat="40.8423802" lon="17.1355092"><ele>330.3333333333333</ele><time>2026-04-25T07:05:41.642Z</time></trkpt><trkpt lat="40.842297" lon="17.1355354"><ele>330.0</ele><time>2026-04-25T07:05:42.638Z</time></trkpt><trkpt lat="40.8422141" lon="17.1355575"><ele>330.0</ele><time>2026-04-25T07:05:43.643Z</time></trkpt><trkpt lat="40.842128" lon="17.1355731"><ele>330.0</ele><time>2026-04-25T07:05:44.634Z</time></trkpt><trkpt lat="40.8420414" lon="17.1355971"><ele>330.0</ele><time>2026-04-25T07:05:45.64Z</time></trkpt><trkpt lat="40.8419568" lon="17.1356271"><ele>330.0</ele><time>2026-04-25T07:05:46.649Z</time></trkpt><trkpt lat="40.8418777" lon="17.1356603"><ele>330.0</ele><time>2026-04-25T07:05:47.641Z</time></trkpt><trkpt lat="40.8417913" lon="17.1356922"><ele>330.0</ele><time>2026-04-25T07:05:48.63Z</time></trkpt><trkpt lat="40.8417044" lon="17.1357264"><ele>329.8333333333333</ele><time>2026-04-25T07:05:49.641Z</time></trkpt><trkpt lat="40.8416189" lon="17.1357664"><ele>329.6666666666667</ele><time>2026-04-25T07:05:50.633Z</time></trkpt><trkpt lat="40.8415354" lon="17.1358134"><ele>329.5</ele><time>2026-04-25T07:05:51.64Z</time></trkpt><trkpt lat="40.8414524" lon="17.1358611"><ele>329.33333333333337</ele><time>2026-04-25T07:05:52.638Z</time></trkpt><trkpt lat="40.8413747" lon="17.1359055"><ele>329.1666666666667</ele><time>2026-04-25T07:05:53.641Z</time></trkpt><trkpt lat="40.8413017" lon="17.135954"><ele>329.0</ele><time>2026-04-25T07:05:54.637Z</time></trkpt><trkpt lat="40.8412312" lon="17.1360038"><ele>329.0</ele><time>2026-04-25T07:05:55.657Z</time></trkpt><trkpt lat="40.8411627" lon="17.136059"><ele>329.0</ele><time>2026-04-25T07:05:56.631Z</time></trkpt><trkpt lat="40.8411025" lon="17.1361099"><ele>329.0</ele><time>2026-04-25T07:05:57.642Z</time></trkpt><trkpt lat="40.8410433" lon="17.1361569"><ele>329.0</ele><time>2026-04-25T07:05:58.64Z</time></trkpt><trkpt lat="40.8409868" lon="17.1362045"><ele>329.0</ele><time>2026-04-25T07:05:59.646Z</time></trkpt><trkpt lat="40.8409301" lon="17.136253"><ele>329.0</ele><time>2026-04-25T07:06:00.644Z</time></trkpt><trkpt lat="40.8408692" lon="17.1362961"><ele>329.0</ele><time>2026-04-25T07:06:01.636Z</time></trkpt><trkpt lat="40.8408121" lon="17.1363314"><ele>328.79999999999995</ele><time>2026-04-25T07:06:02.641Z</time></trkpt><trkpt lat="40.8406995" lon="17.1363801"><ele>328.59999999999997</ele><time>2026-04-25T07:06:04.635Z</time></trkpt><trkpt lat="40.8405878" lon="17.1363865"><ele>328.4</ele><time>2026-04-25T07:06:06.639Z</time></trkpt><trkpt lat="40.8404755" lon="17.1363854"><ele>328.2</ele><time>2026-04-25T07:06:08.635Z</time></trkpt><trkpt lat="40.8403785" lon="17.1363863"><ele>328.0</ele><time>2026-04-25T07:06:10.633Z</time></trkpt><trkpt lat="40.8402903" lon="17.1363705"><ele>328.0</ele><time>2026-04-25T07:06:12.631Z</time></trkpt><trkpt lat="40.8402144" lon="17.1363569"><ele>328.0</ele><time>2026-04-25T07:06:14.632Z</time></trkpt><trkpt lat="40.8401374" lon="17.1363587"><ele>328.0</ele><time>2026-04-25T07:06:16.609Z</time></trkpt><trkpt lat="40.8400663" lon="17.1363888"><ele>328.0</ele><time>2026-04-25T07:06:18.646Z</time></trkpt><trkpt lat="40.839991" lon="17.1364249"><ele>328.0</ele><time>2026-04-25T07:06:20.642Z</time></trkpt><trkpt lat="40.8399137" lon="17.1364752"><ele>328.0</ele><time>2026-04-25T07:06:22.63Z</time></trkpt><trkpt lat="40.8398273" lon="17.1365376"><ele>328.0</ele><time>2026-04-25T07:06:24.618Z</time></trkpt><trkpt lat="40.8397337" lon="17.1366061"><ele>328.0</ele><time>2026-04-25T07:06:26.633Z</time></trkpt><trkpt lat="40.8396353" lon="17.1366943"><ele>328.0</ele><time>2026-04-25T07:06:28.636Z</time></trkpt><trkpt lat="40.8395829" lon="17.1367426"><ele>328.0</ele><time>2026-04-25T07:06:29.628Z</time></trkpt><trkpt lat="40.8394811" lon="17.1368477"><ele>328.0</ele><time>2026-04-25T07:06:31.638Z</time></trkpt><trkpt lat="40.8394272" lon="17.1369032"><ele>328.0</ele><time>2026-04-25T07:06:32.633Z</time></trkpt><trkpt lat="40.839371" lon="17.1369626"><ele>328.0</ele><time>2026-04-25T07:06:33.646Z</time></trkpt><trkpt lat="40.8393114" lon="17.1370243"><ele>328.0</ele><time>2026-04-25T07:06:34.647Z</time></trkpt><trkpt lat="40.8392526" lon="17.1370829"><ele>328.0</ele><time>2026-04-25T07:06:35.638Z</time></trkpt><trkpt lat="40.8391933" lon="17.1371529"><ele>328.0</ele><time>2026-04-25T07:06:36.622Z</time></trkpt><trkpt lat="40.8391297" lon="17.1372226"><ele>328.0</ele><time>2026-04-25T07:06:37.634Z</time></trkpt><trkpt lat="40.8390669" lon="17.1373007"><ele>327.3333333333333</ele><time>2026-04-25T07:06:38.625Z</time></trkpt><trkpt lat="40.8390063" lon="17.1373805"><ele>326.66666666666663</ele><time>2026-04-25T07:06:39.66Z</time></trkpt><trkpt lat="40.8389392" lon="17.1374654"><ele>326.0</ele><time>2026-04-25T07:06:40.638Z</time></trkpt><trkpt lat="40.8388824" lon="17.1375495"><ele>325.3333333333333</ele><time>2026-04-25T07:06:41.642Z</time></trkpt><trkpt lat="40.838836" lon="17.137636"><ele>324.6666666666667</ele><time>2026-04-25T07:06:42.641Z</time></trkpt><trkpt lat="40.8387926" lon="17.1377182"><ele>324.0</ele><time>2026-04-25T07:06:43.637Z</time></trkpt><trkpt lat="40.838751" lon="17.137795"><ele>324.0</ele><time>2026-04-25T07:06:44.631Z</time></trkpt><trkpt lat="40.8387123" lon="17.1378628"><ele>324.0</ele><time>2026-04-25T07:06:45.632Z</time></trkpt><trkpt lat="40.8386701" lon="17.1379314"><ele>324.0</ele><time>2026-04-25T07:06:46.632Z</time></trkpt><trkpt lat="40.8386349" lon="17.1380057"><ele>324.0</ele><time>2026-04-25T07:06:47.631Z</time></trkpt><trkpt lat="40.8386056" lon="17.1380876"><ele>324.0</ele><time>2026-04-25T07:06:48.635Z</time></trkpt><trkpt lat="40.8385565" lon="17.1382361"><ele>324.0</ele><time>2026-04-25T07:06:50.662Z</time></trkpt><trkpt lat="40.8385138" lon="17.1383813"><ele>323.5</ele><time>2026-04-25T07:06:52.641Z</time></trkpt><trkpt lat="40.8384826" lon="17.1385294"><ele>323.0</ele><time>2026-04-25T07:06:54.642Z</time></trkpt><trkpt lat="40.838443" lon="17.1386758"><ele>322.5</ele><time>2026-04-25T07:06:56.632Z</time></trkpt><trkpt lat="40.8383895" lon="17.1388112"><ele>322.0</ele><time>2026-04-25T07:06:58.638Z</time></trkpt><trkpt lat="40.838334" lon="17.1389352"><ele>322.0</ele><time>2026-04-25T07:07:00.632Z</time></trkpt><trkpt lat="40.8382822" lon="17.1390499"><ele>322.0</ele><time>2026-04-25T07:07:02.636Z</time></trkpt><trkpt lat="40.838235" lon="17.1391677"><ele>322.0</ele><time>2026-04-25T07:07:04.642Z</time></trkpt><trkpt lat="40.8381863" lon="17.1392912"><ele>322.0</ele><time>2026-04-25T07:07:06.635Z</time></trkpt><trkpt lat="40.8381384" lon="17.1394162"><ele>322.0</ele><time>2026-04-25T07:07:08.636Z</time></trkpt><trkpt lat="40.8380925" lon="17.1395409"><ele>322.6</ele><time>2026-04-25T07:07:10.636Z</time></trkpt><trkpt lat="40.8380506" lon="17.1396686"><ele>323.20000000000005</ele><time>2026-04-25T07:07:12.629Z</time></trkpt><trkpt lat="40.8380076" lon="17.139797"><ele>323.8</ele><time>2026-04-25T07:07:14.632Z</time></trkpt><trkpt lat="40.8379677" lon="17.1399353"><ele>324.4</ele><time>2026-04-25T07:07:16.633Z</time></trkpt><trkpt lat="40.8379205" lon="17.1400826"><ele>325.0</ele><time>2026-04-25T07:07:18.64Z</time></trkpt><trkpt lat="40.8378682" lon="17.140227"><ele>324.8</ele><time>2026-04-25T07:07:20.635Z</time></trkpt><trkpt lat="40.8378175" lon="17.140365"><ele>324.6</ele><time>2026-04-25T07:07:22.632Z</time></trkpt><trkpt lat="40.8377602" lon="17.1404918"><ele>324.4</ele><time>2026-04-25T07:07:24.63Z</time></trkpt><trkpt lat="40.8376975" lon="17.1406108"><ele>324.2</ele><time>2026-04-25T07:07:26.632Z</time></trkpt><trkpt lat="40.83764" lon="17.1407218"><ele>324.0</ele><time>2026-04-25T07:07:28.651Z</time></trkpt><trkpt lat="40.8375683" lon="17.1408197"><ele>324.0</ele><time>2026-04-25T07:07:30.635Z</time></trkpt><trkpt lat="40.8374831" lon="17.1409163"><ele>324.0</ele><time>2026-04-25T07:07:32.635Z</time></trkpt><trkpt lat="40.8374068" lon="17.1410031"><ele>324.0</ele><time>2026-04-25T07:07:34.632Z</time></trkpt><trkpt lat="40.837325" lon="17.1410859"><ele>324.0</ele><time>2026-04-25T07:07:36.635Z</time></trkpt><trkpt lat="40.8372457" lon="17.1411709"><ele>324.0</ele><time>2026-04-25T07:07:38.632Z</time></trkpt><trkpt lat="40.8371755" lon="17.1412491"><ele>324.0</ele><time>2026-04-25T07:07:40.629Z</time></trkpt><trkpt lat="40.8371054" lon="17.1413274"><ele>324.0</ele><time>2026-04-25T07:07:42.634Z</time></trkpt><trkpt lat="40.8370359" lon="17.1413998"><ele>324.0</ele><time>2026-04-25T07:07:44.64Z</time></trkpt><trkpt lat="40.8369576" lon="17.1414143"><ele>324.0</ele><time>2026-04-25T07:07:46.64Z</time></trkpt><trkpt lat="40.8368791" lon="17.1413846"><ele>324.0</ele><time>2026-04-25T07:07:48.648Z</time></trkpt><trkpt lat="40.8368048" lon="17.1413693"><ele>324.0</ele><time>2026-04-25T07:07:50.634Z</time></trkpt><trkpt lat="40.8367379" lon="17.14135"><ele>323.7142857142857</ele><time>2026-04-25T07:07:52.637Z</time></trkpt><trkpt lat="40.8366688" lon="17.1413399"><ele>323.42857142857144</ele><time>2026-04-25T07:07:54.636Z</time></trkpt><trkpt lat="40.8366026" lon="17.1413341"><ele>323.1428571428571</ele><time>2026-04-25T07:07:56.629Z</time></trkpt><trkpt lat="40.8365318" lon="17.1413334"><ele>322.8571428571429</ele><time>2026-04-25T07:07:58.629Z</time></trkpt><trkpt lat="40.8364647" lon="17.1413386"><ele>322.57142857142856</ele><time>2026-04-25T07:08:00.634Z</time></trkpt><trkpt lat="40.8363683" lon="17.1413543"><ele>322.2857142857143</ele><time>2026-04-25T07:08:03.646Z</time></trkpt><trkpt lat="40.8362986" lon="17.1413571"><ele>322.0</ele><time>2026-04-25T07:08:05.649Z</time></trkpt><trkpt lat="40.8362186" lon="17.14136"><ele>322.0</ele><time>2026-04-25T07:08:07.647Z</time></trkpt><trkpt lat="40.8361521" lon="17.1413675"><ele>322.0</ele><time>2026-04-25T07:08:09.632Z</time></trkpt><trkpt lat="40.8360877" lon="17.1413758"><ele>322.0</ele><time>2026-04-25T07:08:15.646Z</time></trkpt><trkpt lat="40.8360022" lon="17.1413859"><ele>322.0</ele><time>2026-04-25T07:08:21.638Z</time></trkpt><trkpt lat="40.8359146" lon="17.1414008"><ele>322.0</ele><time>2026-04-25T07:08:24.635Z</time></trkpt><trkpt lat="40.835848" lon="17.1414123"><ele>322.0</ele><time>2026-04-25T07:08:26.634Z</time></trkpt><trkpt lat="40.8357803" lon="17.1414248"><ele>322.0</ele><time>2026-04-25T07:08:28.647Z</time></trkpt><trkpt lat="40.8357173" lon="17.141446"><ele>323.14285714285717</ele><time>2026-04-25T07:08:30.636Z</time></trkpt><trkpt lat="40.8356519" lon="17.1414679"><ele>324.2857142857143</ele><time>2026-04-25T07:08:32.612Z</time></trkpt><trkpt lat="40.8355854" lon="17.1414861"><ele>325.42857142857144</ele><time>2026-04-25T07:08:34.631Z</time></trkpt><trkpt lat="40.8355222" lon="17.1415021"><ele>326.57142857142856</ele><time>2026-04-25T07:08:36.625Z</time></trkpt><trkpt lat="40.8354569" lon="17.1415292"><ele>327.7142857142857</ele><time>2026-04-25T07:08:38.626Z</time></trkpt><trkpt lat="40.8353947" lon="17.1415536"><ele>328.8571428571429</ele><time>2026-04-25T07:08:40.652Z</time></trkpt><trkpt lat="40.8353007" lon="17.1415765"><ele>330.0</ele><time>2026-04-25T07:08:43.629Z</time></trkpt><trkpt lat="40.8352363" lon="17.141592"><ele>330.0</ele><time>2026-04-25T07:08:45.636Z</time></trkpt><trkpt lat="40.8351702" lon="17.1416084"><ele>330.0</ele><time>2026-04-25T07:08:47.64Z</time></trkpt><trkpt lat="40.8351011" lon="17.141623"><ele>330.0</ele><time>2026-04-25T07:08:49.625Z</time></trkpt><trkpt lat="40.8350347" lon="17.1416283"><ele>330.0</ele><time>2026-04-25T07:08:51.629Z</time></trkpt><trkpt lat="40.8349498" lon="17.1416518"><ele>330.0</ele><time>2026-04-25T07:08:54.637Z</time></trkpt><trkpt lat="40.8348629" lon="17.1416809"><ele>330.0</ele><time>2026-04-25T07:08:57.641Z</time></trkpt><trkpt lat="40.8347661" lon="17.1416816"><ele>329.8571428571429</ele><time>2026-04-25T07:09:00.631Z</time></trkpt><trkpt lat="40.8346965" lon="17.1416716"><ele>329.7142857142857</ele><time>2026-04-25T07:09:02.633Z</time></trkpt><trkpt lat="40.8346305" lon="17.1416503"><ele>329.57142857142856</ele><time>2026-04-25T07:09:04.637Z</time></trkpt><trkpt lat="40.8345685" lon="17.1416257"><ele>329.42857142857144</ele><time>2026-04-25T07:09:06.627Z</time></trkpt><trkpt lat="40.8345023" lon="17.1416039"><ele>329.2857142857143</ele><time>2026-04-25T07:09:08.637Z</time></trkpt><trkpt lat="40.8344381" lon="17.1415723"><ele>329.14285714285717</ele><time>2026-04-25T07:09:10.646Z</time></trkpt><trkpt lat="40.8343709" lon="17.1415454"><ele>329.0</ele><time>2026-04-25T07:09:12.626Z</time></trkpt><trkpt lat="40.8343064" lon="17.1415171"><ele>331.0</ele><time>2026-04-25T07:09:14.629Z</time></trkpt><trkpt lat="40.8342452" lon="17.1414787"><ele>333.0</ele><time>2026-04-25T07:09:16.637Z</time></trkpt><trkpt lat="40.8341875" lon="17.1414356"><ele>335.0</ele><time>2026-04-25T07:09:18.651Z</time></trkpt><trkpt lat="40.8341299" lon="17.1413921"><ele>337.0</ele><time>2026-04-25T07:09:20.636Z</time></trkpt><trkpt lat="40.8340575" lon="17.1413393"><ele>339.0</ele><time>2026-04-25T07:09:23.644Z</time></trkpt><trkpt lat="40.8339764" lon="17.1413123"><ele>341.0</ele><time>2026-04-25T07:09:26.63Z</time></trkpt><trkpt lat="40.8339158" lon="17.1412698"><ele>343.0</ele><time>2026-04-25T07:09:29.631Z</time></trkpt><trkpt lat="40.8338488" lon="17.1412535"><ele>343.0</ele><time>2026-04-25T07:09:32.636Z</time></trkpt><trkpt lat="40.8337813" lon="17.1412412"><ele>343.0</ele><time>2026-04-25T07:09:37.636Z</time></trkpt><trkpt lat="40.833726" lon="17.1412003"><ele>343.0</ele><time>2026-04-25T07:09:44.631Z</time></trkpt><trkpt lat="40.8336636" lon="17.1411637"><ele>343.0</ele><time>2026-04-25T07:09:50.639Z</time></trkpt><trkpt lat="40.8335983" lon="17.1411362"><ele>343.0</ele><time>2026-04-25T07:09:57.637Z</time></trkpt><trkpt lat="40.8335317" lon="17.1411591"><ele>343.0</ele><time>2026-04-25T07:10:25.638Z</time></trkpt><trkpt lat="40.8334651" lon="17.1411805"><ele>343.0</ele><time>2026-04-25T07:10:32.635Z</time></trkpt><trkpt lat="40.8333966" lon="17.1411888"><ele>342.7142857142857</ele><time>2026-04-25T07:10:38.629Z</time></trkpt><trkpt lat="40.8333356" lon="17.1412341"><ele>342.42857142857144</ele><time>2026-04-25T07:10:44.635Z</time></trkpt><trkpt lat="40.8332838" lon="17.141289"><ele>342.1428571428571</ele><time>2026-04-25T07:10:49.624Z</time></trkpt><trkpt lat="40.8332239" lon="17.1413439"><ele>341.8571428571429</ele><time>2026-04-25T07:10:55.632Z</time></trkpt><trkpt lat="40.8331677" lon="17.1413859"><ele>341.57142857142856</ele><time>2026-04-25T07:11:00.629Z</time></trkpt><trkpt lat="40.833108" lon="17.1414473"><ele>341.2857142857143</ele><time>2026-04-25T07:11:06.628Z</time></trkpt><trkpt lat="40.8330495" lon="17.1415029"><ele>341.0</ele><time>2026-04-25T07:11:12.642Z</time></trkpt><trkpt lat="40.8329839" lon="17.1415465"><ele>340.20000000000005</ele><time>2026-04-25T07:11:18.639Z</time></trkpt><trkpt lat="40.8329254" lon="17.1415959"><ele>339.40000000000003</ele><time>2026-04-25T07:11:23.635Z</time></trkpt><trkpt lat="40.8328758" lon="17.141666"><ele>338.6</ele><time>2026-04-25T07:11:29.643Z</time></trkpt><trkpt lat="40.8328377" lon="17.1417409"><ele>337.8</ele><time>2026-04-25T07:11:37.636Z</time></trkpt><trkpt lat="40.8326659" lon="17.1417495"><ele>337.0</ele><time>2026-04-25T07:16:27.625Z</time></trkpt><trkpt lat="40.8325944" lon="17.1417955"><ele>337.0</ele><time>2026-04-25T07:16:30.631Z</time></trkpt><trkpt lat="40.8325127" lon="17.1418439"><ele>337.0</ele><time>2026-04-25T07:16:33.62Z</time></trkpt><trkpt lat="40.8324312" lon="17.1418965"><ele>337.0</ele><time>2026-04-25T07:16:36.634Z</time></trkpt><trkpt lat="40.8323754" lon="17.141937"><ele>337.0</ele><time>2026-04-25T07:16:38.627Z</time></trkpt><trkpt lat="40.8322979" lon="17.1419885"><ele>337.0</ele><time>2026-04-25T07:16:41.627Z</time></trkpt><trkpt lat="40.8322245" lon="17.1420522"><ele>337.0</ele><time>2026-04-25T07:16:44.628Z</time></trkpt><trkpt lat="40.8321522" lon="17.1421111"><ele>337.0</ele><time>2026-04-25T07:16:47.617Z</time></trkpt><trkpt lat="40.8320854" lon="17.1421766"><ele>337.0</ele><time>2026-04-25T07:16:50.626Z</time></trkpt><trkpt lat="40.8320206" lon="17.1422431"><ele>337.0</ele><time>2026-04-25T07:16:53.637Z</time></trkpt><trkpt lat="40.8319551" lon="17.1423093"><ele>337.0</ele><time>2026-04-25T07:16:56.632Z</time></trkpt><trkpt lat="40.8318844" lon="17.1423709"><ele>337.0</ele><time>2026-04-25T07:16:59.627Z</time></trkpt><trkpt lat="40.8318275" lon="17.1424275"><ele>337.0</ele><time>2026-04-25T07:17:02.639Z</time></trkpt><trkpt lat="40.8317646" lon="17.1424803"><ele>337.5714285714286</ele><time>2026-04-25T07:17:05.627Z</time></trkpt><trkpt lat="40.8317053" lon="17.1425307"><ele>338.14285714285717</ele><time>2026-04-25T07:17:08.628Z</time></trkpt><trkpt lat="40.831642" lon="17.1425897"><ele>338.7142857142857</ele><time>2026-04-25T07:17:11.621Z</time></trkpt><trkpt lat="40.8315771" lon="17.1426462"><ele>339.28571428571433</ele><time>2026-04-25T07:17:14.625Z</time></trkpt><trkpt lat="40.8315213" lon="17.1426855"><ele>339.8571428571429</ele><time>2026-04-25T07:17:35.623Z</time></trkpt><trkpt lat="40.8314452" lon="17.1427304"><ele>340.42857142857144</ele><time>2026-04-25T07:17:39.63Z</time></trkpt><trkpt lat="40.8313728" lon="17.142765"><ele>341.0</ele><time>2026-04-25T07:17:42.639Z</time></trkpt><trkpt lat="40.8313017" lon="17.142783"><ele>341.0</ele><time>2026-04-25T07:17:45.636Z</time></trkpt><trkpt lat="40.8311233" lon="17.1427951"><ele>341.0</ele><time>2026-04-25T07:17:52.622Z</time></trkpt><trkpt lat="40.8308988" lon="17.1427228"><ele>341.0</ele><time>2026-04-25T07:18:01.635Z</time></trkpt><trkpt lat="40.83082" lon="17.1427198"><ele>342.33333333333337</ele><time>2026-04-25T07:18:04.638Z</time></trkpt><trkpt lat="40.8307438" lon="17.14272"><ele>343.6666666666667</ele><time>2026-04-25T07:18:07.621Z</time></trkpt><trkpt lat="40.8306662" lon="17.1427192"><ele>345.0</ele><time>2026-04-25T07:18:10.642Z</time></trkpt><trkpt lat="40.8305817" lon="17.1427197"><ele>346.3333333333333</ele><time>2026-04-25T07:18:13.623Z</time></trkpt><trkpt lat="40.8305066" lon="17.1427463"><ele>347.66666666666663</ele><time>2026-04-25T07:18:16.637Z</time></trkpt><trkpt lat="40.8304378" lon="17.1427767"><ele>349.0</ele><time>2026-04-25T07:18:19.637Z</time></trkpt><trkpt lat="40.8303656" lon="17.1428058"><ele>348.99999999999994</ele><time>2026-04-25T07:18:22.635Z</time></trkpt><trkpt lat="40.8302931" lon="17.1428389"><ele>349.0</ele><time>2026-04-25T07:18:25.619Z</time></trkpt><trkpt lat="40.8302242" lon="17.1428865"><ele>349.0</ele><time>2026-04-25T07:18:28.634Z</time></trkpt><trkpt lat="40.8301556" lon="17.1429317"><ele>349.0</ele><time>2026-04-25T07:18:31.634Z</time></trkpt><trkpt lat="40.8300973" lon="17.1429835"><ele>349.0</ele><time>2026-04-25T07:18:34.651Z</time></trkpt><trkpt lat="40.8300473" lon="17.1430445"><ele>348.99999999999994</ele><time>2026-04-25T07:18:41.636Z</time></trkpt><trkpt lat="40.829999" lon="17.1431169"><ele>349.0</ele><time>2026-04-25T07:18:56.623Z</time></trkpt><trkpt lat="40.8299498" lon="17.1431926"><ele>349.16666666666663</ele><time>2026-04-25T07:18:59.637Z</time></trkpt><trkpt lat="40.8298992" lon="17.1432541"><ele>349.3333333333333</ele><time>2026-04-25T07:19:02.636Z</time></trkpt><trkpt lat="40.8298423" lon="17.1433335"><ele>349.5</ele><time>2026-04-25T07:19:05.627Z</time></trkpt><trkpt lat="40.8297798" lon="17.1434113"><ele>349.6666666666667</ele><time>2026-04-25T07:19:08.652Z</time></trkpt><trkpt lat="40.8297129" lon="17.1434677"><ele>349.83333333333337</ele><time>2026-04-25T07:19:11.617Z</time></trkpt><trkpt lat="40.8296398" lon="17.1435087"><ele>350.0</ele><time>2026-04-25T07:19:14.638Z</time></trkpt><trkpt lat="40.8295544" lon="17.1435456"><ele>350.0</ele><time>2026-04-25T07:19:17.63Z</time></trkpt><trkpt lat="40.8294678" lon="17.1435912"><ele>350.0</ele><time>2026-04-25T07:19:20.634Z</time></trkpt><trkpt lat="40.8293835" lon="17.1436384"><ele>350.0</ele><time>2026-04-25T07:19:23.643Z</time></trkpt><trkpt lat="40.8293067" lon="17.1436796"><ele>350.0</ele><time>2026-04-25T07:19:26.649Z</time></trkpt><trkpt lat="40.8292234" lon="17.1437258"><ele>350.0</ele><time>2026-04-25T07:19:29.639Z</time></trkpt><trkpt lat="40.82914" lon="17.1437676"><ele>350.0</ele><time>2026-04-25T07:19:32.63Z</time></trkpt><trkpt lat="40.8290601" lon="17.1438224"><ele>350.1666666666667</ele><time>2026-04-25T07:19:35.633Z</time></trkpt><trkpt lat="40.8289918" lon="17.1438879"><ele>350.33333333333337</ele><time>2026-04-25T07:19:38.64Z</time></trkpt><trkpt lat="40.8289277" lon="17.1439605"><ele>350.5</ele><time>2026-04-25T07:19:41.63Z</time></trkpt><trkpt lat="40.8288611" lon="17.1440296"><ele>350.6666666666667</ele><time>2026-04-25T07:19:44.653Z</time></trkpt><trkpt lat="40.8287956" lon="17.1440986"><ele>350.8333333333333</ele><time>2026-04-25T07:19:47.639Z</time></trkpt><trkpt lat="40.8287282" lon="17.1441663"><ele>351.0</ele><time>2026-04-25T07:19:50.64Z</time></trkpt><trkpt lat="40.8286645" lon="17.144229"><ele>351.1666666666667</ele><time>2026-04-25T07:19:53.638Z</time></trkpt><trkpt lat="40.8286011" lon="17.1443024"><ele>351.3333333333333</ele><time>2026-04-25T07:19:56.63Z</time></trkpt><trkpt lat="40.8285389" lon="17.1443748"><ele>351.5</ele><time>2026-04-25T07:19:59.638Z</time></trkpt><trkpt lat="40.8284938" lon="17.1444587"><ele>351.66666666666663</ele><time>2026-04-25T07:20:02.643Z</time></trkpt><trkpt lat="40.8284583" lon="17.1445391"><ele>351.8333333333333</ele><time>2026-04-25T07:20:06.641Z</time></trkpt><trkpt lat="40.828453" lon="17.1446312"><ele>352.0</ele><time>2026-04-25T07:20:15.624Z</time></trkpt><trkpt lat="40.8284427" lon="17.1447245"><ele>352.3333333333333</ele><time>2026-04-25T07:20:21.626Z</time></trkpt><trkpt lat="40.8284272" lon="17.1448215"><ele>352.66666666666663</ele><time>2026-04-25T07:20:27.626Z</time></trkpt><trkpt lat="40.8284135" lon="17.1449166"><ele>353.0</ele><time>2026-04-25T07:20:33.636Z</time></trkpt><trkpt lat="40.8283868" lon="17.1450093"><ele>353.3333333333333</ele><time>2026-04-25T07:20:41.627Z</time></trkpt><trkpt lat="40.8283586" lon="17.145099"><ele>353.6666666666667</ele><time>2026-04-25T07:20:44.629Z</time></trkpt><trkpt lat="40.828317" lon="17.1451948"><ele>354.0</ele><time>2026-04-25T07:20:47.627Z</time></trkpt><trkpt lat="40.8282727" lon="17.1452905"><ele>354.0</ele><time>2026-04-25T07:20:50.634Z</time></trkpt><trkpt lat="40.8282312" lon="17.1453881"><ele>354.0</ele><time>2026-04-25T07:20:53.635Z</time></trkpt><trkpt lat="40.8281833" lon="17.1454831"><ele>354.0</ele><time>2026-04-25T07:20:56.63Z</time></trkpt><trkpt lat="40.8281389" lon="17.1455828"><ele>354.0</ele><time>2026-04-25T07:20:59.626Z</time></trkpt><trkpt lat="40.8280831" lon="17.1456755"><ele>354.0</ele><time>2026-04-25T07:21:02.641Z</time></trkpt><trkpt lat="40.8280303" lon="17.1457709"><ele>354.0</ele><time>2026-04-25T07:21:05.62Z</time></trkpt><trkpt lat="40.8279713" lon="17.1458668"><ele>354.3333333333333</ele><time>2026-04-25T07:21:08.631Z</time></trkpt><trkpt lat="40.8279105" lon="17.145961"><ele>354.6666666666667</ele><time>2026-04-25T07:21:11.622Z</time></trkpt><trkpt lat="40.8278678" lon="17.1460438"><ele>355.0</ele><time>2026-04-25T07:21:14.634Z</time></trkpt><trkpt lat="40.8278152" lon="17.1461358"><ele>355.33333333333337</ele><time>2026-04-25T07:21:17.634Z</time></trkpt><trkpt lat="40.8277751" lon="17.1462024"><ele>355.6666666666667</ele><time>2026-04-25T07:21:19.63Z</time></trkpt><trkpt lat="40.8277203" lon="17.1463033"><ele>356.0</ele><time>2026-04-25T07:21:22.646Z</time></trkpt><trkpt lat="40.8276631" lon="17.1464029"><ele>356.1666666666667</ele><time>2026-04-25T07:21:25.627Z</time></trkpt><trkpt lat="40.827628" lon="17.1464783"><ele>356.33333333333337</ele><time>2026-04-25T07:21:27.631Z</time></trkpt><trkpt lat="40.8275786" lon="17.1465796"><ele>356.5</ele><time>2026-04-25T07:21:30.645Z</time></trkpt><trkpt lat="40.8275342" lon="17.146688"><ele>356.6666666666667</ele><time>2026-04-25T07:21:33.63Z</time></trkpt><trkpt lat="40.827491" lon="17.1467963"><ele>356.8333333333333</ele><time>2026-04-25T07:21:36.634Z</time></trkpt><trkpt lat="40.8274451" lon="17.1468928"><ele>357.0</ele><time>2026-04-25T07:21:39.637Z</time></trkpt><trkpt lat="40.8273936" lon="17.1469905"><ele>357.1666666666667</ele><time>2026-04-25T07:21:42.632Z</time></trkpt><trkpt lat="40.8273317" lon="17.1470854"><ele>357.3333333333333</ele><time>2026-04-25T07:21:45.631Z</time></trkpt><trkpt lat="40.8272878" lon="17.1471482"><ele>357.5</ele><time>2026-04-25T07:21:47.631Z</time></trkpt><trkpt lat="40.82722" lon="17.1472352"><ele>357.66666666666663</ele><time>2026-04-25T07:21:50.622Z</time></trkpt><trkpt lat="40.8271727" lon="17.147292"><ele>357.8333333333333</ele><time>2026-04-25T07:21:52.632Z</time></trkpt><trkpt lat="40.8271244" lon="17.1473581"><ele>358.0</ele><time>2026-04-25T07:21:54.64Z</time></trkpt><trkpt lat="40.8270657" lon="17.1474341"><ele>358.0</ele><time>2026-04-25T07:21:57.636Z</time></trkpt><trkpt lat="40.8270022" lon="17.1475169"><ele>358.0</ele><time>2026-04-25T07:22:00.635Z</time></trkpt><trkpt lat="40.8269353" lon="17.147589"><ele>358.0</ele><time>2026-04-25T07:22:03.611Z</time></trkpt><trkpt lat="40.8268848" lon="17.1476427"><ele>358.0</ele><time>2026-04-25T07:22:05.632Z</time></trkpt><trkpt lat="40.8268175" lon="17.1477146"><ele>358.0</ele><time>2026-04-25T07:22:08.645Z</time></trkpt><trkpt lat="40.826765" lon="17.1477703"><ele>358.0</ele><time>2026-04-25T07:22:10.645Z</time></trkpt><trkpt lat="40.826694" lon="17.14784"><ele>358.3333333333333</ele><time>2026-04-25T07:22:13.637Z</time></trkpt><trkpt lat="40.8266249" lon="17.1479066"><ele>358.66666666666663</ele><time>2026-04-25T07:22:16.647Z</time></trkpt><trkpt lat="40.8265513" lon="17.1479538"><ele>359.0</ele><time>2026-04-25T07:22:19.624Z</time></trkpt><trkpt lat="40.8264777" lon="17.1480217"><ele>359.3333333333333</ele><time>2026-04-25T07:22:22.629Z</time></trkpt><trkpt lat="40.8264129" lon="17.148077"><ele>359.6666666666667</ele><time>2026-04-25T07:22:25.647Z</time></trkpt><trkpt lat="40.8263471" lon="17.1481369"><ele>360.0</ele><time>2026-04-25T07:22:29.645Z</time></trkpt><trkpt lat="40.8261811" lon="17.1482515"><ele>360.0</ele><time>2026-04-25T07:24:46.625Z</time></trkpt><trkpt lat="40.8260341" lon="17.1483824"><ele>360.0</ele><time>2026-04-25T07:24:52.64Z</time></trkpt><trkpt lat="40.8259724" lon="17.1484204"><ele>360.0</ele><time>2026-04-25T07:24:54.639Z</time></trkpt><trkpt lat="40.8259066" lon="17.1484587"><ele>360.0</ele><time>2026-04-25T07:24:56.641Z</time></trkpt><trkpt lat="40.8258206" lon="17.1484515"><ele>360.0</ele><time>2026-04-25T07:24:58.612Z</time></trkpt><trkpt lat="40.8257353" lon="17.148411"><ele>360.3333333333333</ele><time>2026-04-25T07:25:00.625Z</time></trkpt><trkpt lat="40.8256587" lon="17.1483461"><ele>360.6666666666667</ele><time>2026-04-25T07:25:02.618Z</time></trkpt><trkpt lat="40.8255862" lon="17.1482897"><ele>361.0</ele><time>2026-04-25T07:25:04.629Z</time></trkpt><trkpt lat="40.8255169" lon="17.1482283"><ele>361.33333333333337</ele><time>2026-04-25T07:25:06.631Z</time></trkpt><trkpt lat="40.8254575" lon="17.1481772"><ele>361.6666666666667</ele><time>2026-04-25T07:25:08.631Z</time></trkpt><trkpt lat="40.825392" lon="17.1481278"><ele>362.0</ele><time>2026-04-25T07:25:10.639Z</time></trkpt><trkpt lat="40.8253163" lon="17.1480972"><ele>362.0</ele><time>2026-04-25T07:25:12.629Z</time></trkpt><trkpt lat="40.8252465" lon="17.14812"><ele>362.0</ele><time>2026-04-25T07:25:14.639Z</time></trkpt><trkpt lat="40.8251874" lon="17.1481632"><ele>362.0</ele><time>2026-04-25T07:25:16.626Z</time></trkpt><trkpt lat="40.8251377" lon="17.1482315"><ele>362.0</ele><time>2026-04-25T07:25:18.638Z</time></trkpt><trkpt lat="40.8250815" lon="17.1482991"><ele>362.0</ele><time>2026-04-25T07:25:20.637Z</time></trkpt><trkpt lat="40.8250307" lon="17.1483676"><ele>362.0</ele><time>2026-04-25T07:25:22.637Z</time></trkpt><trkpt lat="40.8249771" lon="17.1484307"><ele>362.0</ele><time>2026-04-25T07:25:24.631Z</time></trkpt><trkpt lat="40.8249238" lon="17.1484951"><ele>362.0</ele><time>2026-04-25T07:25:26.629Z</time></trkpt><trkpt lat="40.8248772" lon="17.1485658"><ele>362.0</ele><time>2026-04-25T07:25:28.631Z</time></trkpt><trkpt lat="40.8248247" lon="17.1486365"><ele>362.0</ele><time>2026-04-25T07:25:30.639Z</time></trkpt><trkpt lat="40.8247753" lon="17.1487141"><ele>362.0</ele><time>2026-04-25T07:25:32.638Z</time></trkpt><trkpt lat="40.8247284" lon="17.1487827"><ele>362.0</ele><time>2026-04-25T07:25:34.622Z</time></trkpt><trkpt lat="40.8246706" lon="17.1488613"><ele>362.0</ele><time>2026-04-25T07:25:36.634Z</time></trkpt><trkpt lat="40.824615" lon="17.148941"><ele>362.0</ele><time>2026-04-25T07:25:38.626Z</time></trkpt><trkpt lat="40.8245626" lon="17.1490216"><ele>362.0</ele><time>2026-04-25T07:25:40.631Z</time></trkpt><trkpt lat="40.8245095" lon="17.1491051"><ele>362.0</ele><time>2026-04-25T07:25:42.627Z</time></trkpt><trkpt lat="40.8244612" lon="17.1491824"><ele>362.0</ele><time>2026-04-25T07:25:44.641Z</time></trkpt><trkpt lat="40.8244152" lon="17.1492655"><ele>362.0</ele><time>2026-04-25T07:25:46.634Z</time></trkpt><trkpt lat="40.8243664" lon="17.1493559"><ele>362.0</ele><time>2026-04-25T07:25:48.634Z</time></trkpt><trkpt lat="40.8243116" lon="17.1494456"><ele>362.1666666666667</ele><time>2026-04-25T07:25:50.631Z</time></trkpt><trkpt lat="40.8242712" lon="17.1495324"><ele>362.33333333333337</ele><time>2026-04-25T07:25:52.629Z</time></trkpt><trkpt lat="40.8242486" lon="17.149626"><ele>362.5</ele><time>2026-04-25T07:25:54.633Z</time></trkpt><trkpt lat="40.8242358" lon="17.1497353"><ele>362.6666666666667</ele><time>2026-04-25T07:25:56.629Z</time></trkpt><trkpt lat="40.8242478" lon="17.149848"><ele>362.8333333333333</ele><time>2026-04-25T07:25:58.63Z</time></trkpt><trkpt lat="40.8242684" lon="17.1499724"><ele>363.0</ele><time>2026-04-25T07:26:00.633Z</time></trkpt><trkpt lat="40.8242828" lon="17.1501177"><ele>362.3333333333333</ele><time>2026-04-25T07:26:02.627Z</time></trkpt><trkpt lat="40.8243067" lon="17.1502759"><ele>361.6666666666667</ele><time>2026-04-25T07:26:04.63Z</time></trkpt><trkpt lat="40.824315" lon="17.1503687"><ele>361.0</ele><time>2026-04-25T07:26:05.628Z</time></trkpt><trkpt lat="40.8243159" lon="17.1504637"><ele>360.33333333333337</ele><time>2026-04-25T07:26:06.634Z</time></trkpt><trkpt lat="40.8243238" lon="17.1505566"><ele>359.6666666666667</ele><time>2026-04-25T07:26:07.628Z</time></trkpt><trkpt lat="40.8243339" lon="17.1506504"><ele>359.0</ele><time>2026-04-25T07:26:08.622Z</time></trkpt><trkpt lat="40.8243464" lon="17.1507497"><ele>358.1666666666667</ele><time>2026-04-25T07:26:09.63Z</time></trkpt><trkpt lat="40.8243507" lon="17.1508478"><ele>357.33333333333337</ele><time>2026-04-25T07:26:10.636Z</time></trkpt><trkpt lat="40.8243558" lon="17.1509437"><ele>356.5</ele><time>2026-04-25T07:26:11.637Z</time></trkpt><trkpt lat="40.8243724" lon="17.1510426"><ele>355.6666666666667</ele><time>2026-04-25T07:26:12.636Z</time></trkpt><trkpt lat="40.8243867" lon="17.1511329"><ele>354.8333333333333</ele><time>2026-04-25T07:26:13.632Z</time></trkpt><trkpt lat="40.8243982" lon="17.1513011"><ele>354.0</ele><time>2026-04-25T07:26:15.625Z</time></trkpt><trkpt lat="40.8244086" lon="17.1513837"><ele>354.0</ele><time>2026-04-25T07:26:16.637Z</time></trkpt><trkpt lat="40.8244244" lon="17.1515367"><ele>354.0</ele><time>2026-04-25T07:26:18.626Z</time></trkpt><trkpt lat="40.8244286" lon="17.1516768"><ele>354.0</ele><time>2026-04-25T07:26:20.635Z</time></trkpt><trkpt lat="40.8244119" lon="17.1518022"><ele>354.0</ele><time>2026-04-25T07:26:22.642Z</time></trkpt><trkpt lat="40.824368" lon="17.1519143"><ele>354.0</ele><time>2026-04-25T07:26:24.629Z</time></trkpt><trkpt lat="40.8243116" lon="17.1520132"><ele>354.3333333333333</ele><time>2026-04-25T07:26:26.618Z</time></trkpt><trkpt lat="40.8242603" lon="17.152098"><ele>354.6666666666667</ele><time>2026-04-25T07:26:28.632Z</time></trkpt><trkpt lat="40.8242059" lon="17.1521747"><ele>355.0</ele><time>2026-04-25T07:26:30.631Z</time></trkpt><trkpt lat="40.8241493" lon="17.1522413"><ele>355.33333333333337</ele><time>2026-04-25T07:26:32.629Z</time></trkpt><trkpt lat="40.8240952" lon="17.1523119"><ele>355.6666666666667</ele><time>2026-04-25T07:26:34.661Z</time></trkpt><trkpt lat="40.8240371" lon="17.1523831"><ele>356.0</ele><time>2026-04-25T07:26:36.634Z</time></trkpt><trkpt lat="40.8239806" lon="17.1524498"><ele>356.0</ele><time>2026-04-25T07:26:38.625Z</time></trkpt><trkpt lat="40.8239142" lon="17.1525116"><ele>356.0</ele><time>2026-04-25T07:26:40.628Z</time></trkpt><trkpt lat="40.8238567" lon="17.152569"><ele>356.0</ele><time>2026-04-25T07:26:42.629Z</time></trkpt><trkpt lat="40.8237989" lon="17.1526235"><ele>356.0</ele><time>2026-04-25T07:26:44.634Z</time></trkpt><trkpt lat="40.8237342" lon="17.1526811"><ele>356.0</ele><time>2026-04-25T07:26:46.623Z</time></trkpt><trkpt lat="40.8236708" lon="17.1527251"><ele>356.0</ele><time>2026-04-25T07:26:48.645Z</time></trkpt><trkpt lat="40.8236023" lon="17.1527845"><ele>356.0</ele><time>2026-04-25T07:26:50.635Z</time></trkpt><trkpt lat="40.8235296" lon="17.1528338"><ele>356.0</ele><time>2026-04-25T07:26:52.641Z</time></trkpt><trkpt lat="40.8234597" lon="17.1528761"><ele>356.0</ele><time>2026-04-25T07:26:54.63Z</time></trkpt><trkpt lat="40.8233884" lon="17.1529173"><ele>356.0</ele><time>2026-04-25T07:26:56.646Z</time></trkpt><trkpt lat="40.8233213" lon="17.152963"><ele>356.0</ele><time>2026-04-25T07:26:58.636Z</time></trkpt><trkpt lat="40.8232593" lon="17.1530048"><ele>356.0</ele><time>2026-04-25T07:27:00.63Z</time></trkpt><trkpt lat="40.8231944" lon="17.1530452"><ele>356.1666666666667</ele><time>2026-04-25T07:27:02.626Z</time></trkpt><trkpt lat="40.8231316" lon="17.1530888"><ele>356.33333333333337</ele><time>2026-04-25T07:27:04.619Z</time></trkpt><trkpt lat="40.8230651" lon="17.1531385"><ele>356.5</ele><time>2026-04-25T07:27:06.618Z</time></trkpt><trkpt lat="40.8230015" lon="17.1531859"><ele>356.6666666666667</ele><time>2026-04-25T07:27:08.626Z</time></trkpt><trkpt lat="40.8229417" lon="17.153227"><ele>356.8333333333333</ele><time>2026-04-25T07:27:10.624Z</time></trkpt><trkpt lat="40.8228607" lon="17.1532899"><ele>357.0</ele><time>2026-04-25T07:27:13.632Z</time></trkpt><trkpt lat="40.8227941" lon="17.1533721"><ele>357.1666666666667</ele><time>2026-04-25T07:27:16.637Z</time></trkpt><trkpt lat="40.8227513" lon="17.1534373"><ele>357.3333333333333</ele><time>2026-04-25T07:27:18.625Z</time></trkpt><trkpt lat="40.8227131" lon="17.1535083"><ele>357.5</ele><time>2026-04-25T07:27:20.636Z</time></trkpt><trkpt lat="40.8226716" lon="17.1536221"><ele>357.66666666666663</ele><time>2026-04-25T07:27:23.629Z</time></trkpt><trkpt lat="40.8226464" lon="17.1537295"><ele>357.8333333333333</ele><time>2026-04-25T07:27:26.642Z</time></trkpt><trkpt lat="40.8226174" lon="17.1538475"><ele>358.0</ele><time>2026-04-25T07:27:29.634Z</time></trkpt><trkpt lat="40.8225988" lon="17.1539293"><ele>358.42857142857144</ele><time>2026-04-25T07:27:31.619Z</time></trkpt><trkpt lat="40.8225704" lon="17.154012"><ele>358.8571428571429</ele><time>2026-04-25T07:27:33.625Z</time></trkpt><trkpt lat="40.8225331" lon="17.1540863"><ele>359.28571428571433</ele><time>2026-04-25T07:27:35.637Z</time></trkpt><trkpt lat="40.8224913" lon="17.1541526"><ele>359.7142857142857</ele><time>2026-04-25T07:27:37.625Z</time></trkpt><trkpt lat="40.8224461" lon="17.1542124"><ele>360.1428571428571</ele><time>2026-04-25T07:27:39.636Z</time></trkpt><trkpt lat="40.8223826" lon="17.1542781"><ele>360.5714285714286</ele><time>2026-04-25T07:27:42.634Z</time></trkpt><trkpt lat="40.8223238" lon="17.1543341"><ele>361.0</ele><time>2026-04-25T07:27:46.639Z</time></trkpt><trkpt lat="40.8222545" lon="17.154399"><ele>361.0</ele><time>2026-04-25T07:27:50.627Z</time></trkpt><trkpt lat="40.8221969" lon="17.1544604"><ele>361.0</ele><time>2026-04-25T07:27:53.634Z</time></trkpt><trkpt lat="40.8221354" lon="17.1545214"><ele>361.0</ele><time>2026-04-25T07:27:56.637Z</time></trkpt><trkpt lat="40.8220616" lon="17.1545804"><ele>361.0</ele><time>2026-04-25T07:27:59.631Z</time></trkpt><trkpt lat="40.8219952" lon="17.1546464"><ele>361.0</ele><time>2026-04-25T07:28:02.645Z</time></trkpt><trkpt lat="40.8219285" lon="17.1547052"><ele>361.0</ele><time>2026-04-25T07:28:05.629Z</time></trkpt><trkpt lat="40.8218607" lon="17.1547734"><ele>361.5</ele><time>2026-04-25T07:28:08.624Z</time></trkpt><trkpt lat="40.8217956" lon="17.1548306"><ele>362.0</ele><time>2026-04-25T07:28:11.632Z</time></trkpt><trkpt lat="40.821731" lon="17.1548961"><ele>362.5</ele><time>2026-04-25T07:28:14.634Z</time></trkpt><trkpt lat="40.8216737" lon="17.1549585"><ele>363.0</ele><time>2026-04-25T07:28:17.632Z</time></trkpt><trkpt lat="40.8216149" lon="17.1550145"><ele>363.5</ele><time>2026-04-25T07:28:20.631Z</time></trkpt><trkpt lat="40.8215571" lon="17.155081"><ele>364.0</ele><time>2026-04-25T07:28:23.632Z</time></trkpt><trkpt lat="40.8214943" lon="17.1551482"><ele>364.3333333333333</ele><time>2026-04-25T07:28:26.646Z</time></trkpt><trkpt lat="40.821433" lon="17.1551927"><ele>364.66666666666663</ele><time>2026-04-25T07:28:31.623Z</time></trkpt><trkpt lat="40.8213738" lon="17.1552395"><ele>365.0</ele><time>2026-04-25T07:29:31.621Z</time></trkpt><trkpt lat="40.8213284" lon="17.1552999"><ele>365.3333333333333</ele><time>2026-04-25T07:29:34.637Z</time></trkpt><trkpt lat="40.8212281" lon="17.1554138"><ele>365.6666666666667</ele><time>2026-04-25T07:29:39.648Z</time></trkpt><trkpt lat="40.8211646" lon="17.155475"><ele>366.0</ele><time>2026-04-25T07:29:42.641Z</time></trkpt><trkpt lat="40.8211008" lon="17.1555448"><ele>366.0</ele><time>2026-04-25T07:29:45.633Z</time></trkpt><trkpt lat="40.8210447" lon="17.1556136"><ele>366.0</ele><time>2026-04-25T07:29:48.653Z</time></trkpt><trkpt lat="40.8209919" lon="17.1556773"><ele>366.0</ele><time>2026-04-25T07:29:51.62Z</time></trkpt><trkpt lat="40.8209524" lon="17.1557429"><ele>366.0</ele><time>2026-04-25T07:29:54.637Z</time></trkpt><trkpt lat="40.8208879" lon="17.1558245"><ele>366.0</ele><time>2026-04-25T07:31:25.618Z</time></trkpt><trkpt lat="40.8207578" lon="17.1559818"><ele>366.6666666666667</ele><time>2026-04-25T07:31:32.627Z</time></trkpt><trkpt lat="40.8207132" lon="17.1560477"><ele>367.3333333333333</ele><time>2026-04-25T07:31:35.618Z</time></trkpt><trkpt lat="40.8206538" lon="17.156126"><ele>368.0</ele><time>2026-04-25T07:31:38.619Z</time></trkpt><trkpt lat="40.8205981" lon="17.1562051"><ele>368.66666666666663</ele><time>2026-04-25T07:31:41.64Z</time></trkpt><trkpt lat="40.8205308" lon="17.1562719"><ele>369.3333333333333</ele><time>2026-04-25T07:31:44.632Z</time></trkpt><trkpt lat="40.820446" lon="17.1563049"><ele>370.0</ele><time>2026-04-25T07:31:47.627Z</time></trkpt><trkpt lat="40.8203645" lon="17.1562996"><ele>370.0</ele><time>2026-04-25T07:31:50.628Z</time></trkpt><trkpt lat="40.8202827" lon="17.1562655"><ele>370.0</ele><time>2026-04-25T07:31:53.619Z</time></trkpt><trkpt lat="40.8202075" lon="17.1562206"><ele>370.0</ele><time>2026-04-25T07:31:56.638Z</time></trkpt><trkpt lat="40.8201356" lon="17.1561748"><ele>370.0</ele><time>2026-04-25T07:31:59.642Z</time></trkpt><trkpt lat="40.8200551" lon="17.1561272"><ele>370.0</ele><time>2026-04-25T07:32:02.626Z</time></trkpt><trkpt lat="40.8199823" lon="17.1560761"><ele>370.0</ele><time>2026-04-25T07:32:05.63Z</time></trkpt><trkpt lat="40.8199078" lon="17.1560212"><ele>370.3333333333333</ele><time>2026-04-25T07:32:08.631Z</time></trkpt><trkpt lat="40.8198339" lon="17.1559743"><ele>370.66666666666663</ele><time>2026-04-25T07:32:11.622Z</time></trkpt><trkpt lat="40.8197648" lon="17.1559246"><ele>371.0</ele><time>2026-04-25T07:32:14.632Z</time></trkpt><trkpt lat="40.8196894" lon="17.1558846"><ele>371.3333333333333</ele><time>2026-04-25T07:32:17.638Z</time></trkpt><trkpt lat="40.8196203" lon="17.155835"><ele>371.6666666666667</ele><time>2026-04-25T07:32:20.629Z</time></trkpt><trkpt lat="40.819552" lon="17.1557916"><ele>372.0</ele><time>2026-04-25T07:32:23.617Z</time></trkpt><trkpt lat="40.8194865" lon="17.1557437"><ele>372.00000000000006</ele><time>2026-04-25T07:32:26.633Z</time></trkpt><trkpt lat="40.8194209" lon="17.1557043"><ele>372.0</ele><time>2026-04-25T07:32:29.644Z</time></trkpt><trkpt lat="40.8193537" lon="17.1556677"><ele>372.0</ele><time>2026-04-25T07:32:32.629Z</time></trkpt><trkpt lat="40.8192901" lon="17.1556374"><ele>372.0</ele><time>2026-04-25T07:32:35.625Z</time></trkpt><trkpt lat="40.8192342" lon="17.1555884"><ele>372.0</ele><time>2026-04-25T07:32:38.629Z</time></trkpt><trkpt lat="40.8191758" lon="17.1555455"><ele>372.00000000000006</ele><time>2026-04-25T07:32:45.619Z</time></trkpt><trkpt lat="40.8191172" lon="17.1555084"><ele>372.0</ele><time>2026-04-25T07:32:53.62Z</time></trkpt><trkpt lat="40.8190514" lon="17.155464"><ele>373.14285714285717</ele><time>2026-04-25T07:33:01.619Z</time></trkpt><trkpt lat="40.818998" lon="17.1554196"><ele>374.2857142857143</ele><time>2026-04-25T07:33:06.634Z</time></trkpt><trkpt lat="40.8189358" lon="17.1553793"><ele>375.42857142857144</ele><time>2026-04-25T07:33:14.628Z</time></trkpt><trkpt lat="40.8188709" lon="17.1553412"><ele>376.57142857142856</ele><time>2026-04-25T07:33:21.628Z</time></trkpt><trkpt lat="40.8188141" lon="17.1552985"><ele>377.7142857142857</ele><time>2026-04-25T07:33:33.628Z</time></trkpt><trkpt lat="40.8187508" lon="17.1552668"><ele>378.8571428571429</ele><time>2026-04-25T07:34:14.632Z</time></trkpt><trkpt lat="40.8186856" lon="17.1552328"><ele>380.0</ele><time>2026-04-25T07:34:23.629Z</time></trkpt><trkpt lat="40.8186296" lon="17.1551932"><ele>380.0</ele><time>2026-04-25T07:34:30.625Z</time></trkpt><trkpt lat="40.8185749" lon="17.1551481"><ele>380.0</ele><time>2026-04-25T07:34:36.627Z</time></trkpt><trkpt lat="40.8185208" lon="17.1551015"><ele>380.0</ele><time>2026-04-25T07:34:42.623Z</time></trkpt><trkpt lat="40.818452" lon="17.1550764"><ele>380.0</ele><time>2026-04-25T07:34:49.631Z</time></trkpt><trkpt lat="40.818379" lon="17.1550468"><ele>380.0</ele><time>2026-04-25T07:34:56.628Z</time></trkpt><trkpt lat="40.818304" lon="17.155056"><ele>380.0</ele><time>2026-04-25T07:35:03.627Z</time></trkpt><trkpt lat="40.8182344" lon="17.1550948"><ele>380.0</ele><time>2026-04-25T07:35:09.628Z</time></trkpt><trkpt lat="40.8181651" lon="17.1551246"><ele>381.6666666666667</ele><time>2026-04-25T07:35:15.62Z</time></trkpt><trkpt lat="40.8181056" lon="17.15517"><ele>383.33333333333337</ele><time>2026-04-25T07:35:21.635Z</time></trkpt><trkpt lat="40.8180407" lon="17.1552475"><ele>385.0</ele><time>2026-04-25T07:35:30.615Z</time></trkpt><trkpt lat="40.817978" lon="17.1553092"><ele>386.6666666666667</ele><time>2026-04-25T07:35:33.625Z</time></trkpt><trkpt lat="40.8179088" lon="17.1553912"><ele>388.3333333333333</ele><time>2026-04-25T07:35:36.621Z</time></trkpt><trkpt lat="40.8178385" lon="17.1554722"><ele>390.0</ele><time>2026-04-25T07:35:39.621Z</time></trkpt><trkpt lat="40.8177874" lon="17.1555256"><ele>390.0</ele><time>2026-04-25T07:35:41.616Z</time></trkpt><trkpt lat="40.8177352" lon="17.1555767"><ele>390.0</ele><time>2026-04-25T07:35:43.626Z</time></trkpt><trkpt lat="40.8176646" lon="17.155661"><ele>390.0</ele><time>2026-04-25T07:35:46.628Z</time></trkpt><trkpt lat="40.8175915" lon="17.1557304"><ele>390.0</ele><time>2026-04-25T07:35:49.62Z</time></trkpt><trkpt lat="40.8175296" lon="17.155816"><ele>390.0</ele><time>2026-04-25T07:35:52.629Z</time></trkpt><trkpt lat="40.8174585" lon="17.1558907"><ele>390.0</ele><time>2026-04-25T07:35:55.624Z</time></trkpt><trkpt lat="40.8173929" lon="17.15593"><ele>389.5</ele><time>2026-04-25T07:35:58.627Z</time></trkpt><trkpt lat="40.817338" lon="17.1559818"><ele>389.0</ele><time>2026-04-25T07:36:01.624Z</time></trkpt><trkpt lat="40.8172536" lon="17.1560424"><ele>388.5</ele><time>2026-04-25T07:36:04.631Z</time></trkpt><trkpt lat="40.8171876" lon="17.1560799"><ele>388.0</ele><time>2026-04-25T07:36:06.622Z</time></trkpt><trkpt lat="40.8171134" lon="17.1561183"><ele>387.5</ele><time>2026-04-25T07:36:08.635Z</time></trkpt><trkpt lat="40.8170462" lon="17.1561782"><ele>387.0</ele><time>2026-04-25T07:36:10.63Z</time></trkpt><trkpt lat="40.8169774" lon="17.1562304"><ele>387.0</ele><time>2026-04-25T07:36:12.622Z</time></trkpt><trkpt lat="40.8168962" lon="17.1562767"><ele>387.0</ele><time>2026-04-25T07:36:14.62Z</time></trkpt><trkpt lat="40.8168199" lon="17.156327"><ele>387.0</ele><time>2026-04-25T07:36:16.631Z</time></trkpt><trkpt lat="40.8167398" lon="17.1563794"><ele>387.0</ele><time>2026-04-25T07:36:18.626Z</time></trkpt><trkpt lat="40.8166592" lon="17.1564236"><ele>387.0</ele><time>2026-04-25T07:36:20.629Z</time></trkpt><trkpt lat="40.8165804" lon="17.1564783"><ele>387.0</ele><time>2026-04-25T07:36:22.624Z</time></trkpt><trkpt lat="40.8165027" lon="17.1565235"><ele>386.5</ele><time>2026-04-25T07:36:24.619Z</time></trkpt><trkpt lat="40.816426" lon="17.1565715"><ele>386.0</ele><time>2026-04-25T07:36:26.617Z</time></trkpt><trkpt lat="40.8163561" lon="17.1566185"><ele>385.5</ele><time>2026-04-25T07:36:28.627Z</time></trkpt><trkpt lat="40.8162944" lon="17.1566733"><ele>385.0</ele><time>2026-04-25T07:36:30.624Z</time></trkpt><trkpt lat="40.8162933" lon="17.1567727"><ele>384.5</ele><time>2026-04-25T07:36:32.633Z</time></trkpt><trkpt lat="40.8163526" lon="17.1568756"><ele>384.0</ele><time>2026-04-25T07:36:34.621Z</time></trkpt><trkpt lat="40.8164295" lon="17.1569637"><ele>384.0</ele><time>2026-04-25T07:36:36.614Z</time></trkpt><trkpt lat="40.8165129" lon="17.1570473"><ele>384.0</ele><time>2026-04-25T07:36:38.631Z</time></trkpt><trkpt lat="40.816614" lon="17.1571219"><ele>384.0</ele><time>2026-04-25T07:36:40.619Z</time></trkpt><trkpt lat="40.8167217" lon="17.1572084"><ele>384.0</ele><time>2026-04-25T07:36:42.627Z</time></trkpt><trkpt lat="40.8167797" lon="17.1572559"><ele>384.0</ele><time>2026-04-25T07:36:43.629Z</time></trkpt><trkpt lat="40.8168388" lon="17.1573076"><ele>383.3333333333333</ele><time>2026-04-25T07:36:44.621Z</time></trkpt><trkpt lat="40.8168944" lon="17.1573744"><ele>382.6666666666667</ele><time>2026-04-25T07:36:45.627Z</time></trkpt><trkpt lat="40.8169419" lon="17.157449"><ele>382.0</ele><time>2026-04-25T07:36:46.63Z</time></trkpt><trkpt lat="40.8169836" lon="17.1575343"><ele>381.33333333333337</ele><time>2026-04-25T07:36:47.625Z</time></trkpt><trkpt lat="40.8170226" lon="17.1576157"><ele>380.6666666666667</ele><time>2026-04-25T07:36:48.648Z</time></trkpt><trkpt lat="40.8170523" lon="17.1576918"><ele>380.0</ele><time>2026-04-25T07:36:49.625Z</time></trkpt><trkpt lat="40.8171037" lon="17.1578148"><ele>380.0</ele><time>2026-04-25T07:36:51.625Z</time></trkpt><trkpt lat="40.817119" lon="17.1579025"><ele>380.0</ele><time>2026-04-25T07:36:53.628Z</time></trkpt><trkpt lat="40.817127" lon="17.1579884"><ele>380.0</ele><time>2026-04-25T07:36:55.626Z</time></trkpt><trkpt lat="40.8171257" lon="17.1580955"><ele>380.0</ele><time>2026-04-25T07:36:58.62Z</time></trkpt><trkpt lat="40.8171052" lon="17.1581786"><ele>380.0</ele><time>2026-04-25T07:37:13.617Z</time></trkpt><trkpt lat="40.8170695" lon="17.1582557"><ele>380.0</ele><time>2026-04-25T07:37:19.641Z</time></trkpt><trkpt lat="40.8170402" lon="17.1583336"><ele>380.0</ele><time>2026-04-25T07:37:42.628Z</time></trkpt><trkpt lat="40.8170106" lon="17.1584202"><ele>380.57142857142856</ele><time>2026-04-25T07:37:50.624Z</time></trkpt><trkpt lat="40.81698" lon="17.1584981"><ele>381.14285714285717</ele><time>2026-04-25T07:37:57.635Z</time></trkpt><trkpt lat="40.816951" lon="17.1585863"><ele>381.71428571428567</ele><time>2026-04-25T07:38:04.622Z</time></trkpt><trkpt lat="40.8169159" lon="17.1586648"><ele>382.2857142857143</ele><time>2026-04-25T07:38:10.641Z</time></trkpt><trkpt lat="40.816877" lon="17.1587494"><ele>382.85714285714283</ele><time>2026-04-25T07:38:16.629Z</time></trkpt><trkpt lat="40.8168466" lon="17.1588233"><ele>383.4285714285714</ele><time>2026-04-25T07:38:22.617Z</time></trkpt><trkpt lat="40.8168134" lon="17.1589092"><ele>384.0</ele><time>2026-04-25T07:38:28.64Z</time></trkpt><trkpt lat="40.8167829" lon="17.1589822"><ele>386.0</ele><time>2026-04-25T07:38:34.623Z</time></trkpt><trkpt lat="40.8167555" lon="17.1590611"><ele>388.0</ele><time>2026-04-25T07:38:40.613Z</time></trkpt><trkpt lat="40.8167163" lon="17.1591491"><ele>390.0</ele><time>2026-04-25T07:38:48.63Z</time></trkpt><trkpt lat="40.8164771" lon="17.1596416"><ele>390.0</ele><time>2026-04-25T07:44:57.622Z</time></trkpt><trkpt lat="40.8164163" lon="17.1597359"><ele>390.0</ele><time>2026-04-25T07:45:04.608Z</time></trkpt><trkpt lat="40.816368" lon="17.1597971"><ele>390.0</ele><time>2026-04-25T07:45:10.611Z</time></trkpt><trkpt lat="40.8163185" lon="17.1598566"><ele>390.0</ele><time>2026-04-25T07:45:15.618Z</time></trkpt><trkpt lat="40.8162751" lon="17.1599211"><ele>390.0</ele><time>2026-04-25T07:45:20.612Z</time></trkpt><trkpt lat="40.8162285" lon="17.1599858"><ele>390.0</ele><time>2026-04-25T07:45:25.617Z</time></trkpt><trkpt lat="40.8161772" lon="17.1600542"><ele>390.0</ele><time>2026-04-25T07:45:31.628Z</time></trkpt><trkpt lat="40.8161251" lon="17.1601235"><ele>390.85714285714283</ele><time>2026-04-25T07:45:36.621Z</time></trkpt><trkpt lat="40.8160785" lon="17.1601829"><ele>391.71428571428567</ele><time>2026-04-25T07:45:41.617Z</time></trkpt><trkpt lat="40.8160327" lon="17.1602444"><ele>392.57142857142856</ele><time>2026-04-25T07:45:46.608Z</time></trkpt><trkpt lat="40.8159889" lon="17.1603082"><ele>393.42857142857144</ele><time>2026-04-25T07:45:51.599Z</time></trkpt><trkpt lat="40.8159403" lon="17.1603727"><ele>394.2857142857143</ele><time>2026-04-25T07:45:56.614Z</time></trkpt><trkpt lat="40.8158974" lon="17.1604341"><ele>395.14285714285717</ele><time>2026-04-25T07:46:01.62Z</time></trkpt><trkpt lat="40.8158466" lon="17.1605055"><ele>396.0</ele><time>2026-04-25T07:46:07.605Z</time></trkpt><trkpt lat="40.8158037" lon="17.1605697"><ele>396.0</ele><time>2026-04-25T07:46:12.615Z</time></trkpt><trkpt lat="40.8157578" lon="17.1606466"><ele>396.0</ele><time>2026-04-25T07:46:18.607Z</time></trkpt><trkpt lat="40.8157079" lon="17.1607244"><ele>396.0</ele><time>2026-04-25T07:46:24.613Z</time></trkpt><trkpt lat="40.8156704" lon="17.1607926"><ele>396.0</ele><time>2026-04-25T07:46:28.612Z</time></trkpt><trkpt lat="40.8156316" lon="17.1608647"><ele>396.0</ele><time>2026-04-25T07:46:33.612Z</time></trkpt><trkpt lat="40.8156006" lon="17.1609407"><ele>396.0</ele><time>2026-04-25T07:46:38.619Z</time></trkpt><trkpt lat="40.8155855" lon="17.1610282"><ele>396.0</ele><time>2026-04-25T07:46:44.61Z</time></trkpt><trkpt lat="40.8156097" lon="17.1611231"><ele>396.7142857142857</ele><time>2026-04-25T07:46:50.613Z</time></trkpt><trkpt lat="40.8156489" lon="17.1611953"><ele>397.4285714285714</ele><time>2026-04-25T07:46:55.609Z</time></trkpt><trkpt lat="40.8156707" lon="17.1612759"><ele>398.1428571428571</ele><time>2026-04-25T07:47:00.617Z</time></trkpt><trkpt lat="40.815687" lon="17.1613707"><ele>398.8571428571429</ele><time>2026-04-25T07:47:06.609Z</time></trkpt><trkpt lat="40.8157188" lon="17.1614558"><ele>399.57142857142856</ele><time>2026-04-25T07:47:11.62Z</time></trkpt><trkpt lat="40.815761" lon="17.1615383"><ele>400.2857142857143</ele><time>2026-04-25T07:47:16.625Z</time></trkpt><trkpt lat="40.8157883" lon="17.1616292"><ele>401.0</ele><time>2026-04-25T07:47:21.614Z</time></trkpt><trkpt lat="40.8158165" lon="17.1617223"><ele>401.0</ele><time>2026-04-25T07:47:26.61Z</time></trkpt><trkpt lat="40.8158467" lon="17.1618106"><ele>401.0</ele><time>2026-04-25T07:47:31.615Z</time></trkpt><trkpt lat="40.8158765" lon="17.1618956"><ele>401.0</ele><time>2026-04-25T07:47:36.617Z</time></trkpt><trkpt lat="40.815909" lon="17.161979"><ele>401.0</ele><time>2026-04-25T07:47:41.611Z</time></trkpt><trkpt lat="40.8159358" lon="17.1620561"><ele>401.0</ele><time>2026-04-25T07:47:46.627Z</time></trkpt><trkpt lat="40.8159584" lon="17.1621436"><ele>401.0</ele><time>2026-04-25T07:47:51.605Z</time></trkpt><trkpt lat="40.81598" lon="17.1622394"><ele>401.0</ele><time>2026-04-25T07:47:57.608Z</time></trkpt><trkpt lat="40.8160011" lon="17.1623451"><ele>401.3333333333333</ele><time>2026-04-25T07:48:04.611Z</time></trkpt><trkpt lat="40.8160288" lon="17.1624507"><ele>401.66666666666663</ele><time>2026-04-25T07:48:07.625Z</time></trkpt><trkpt lat="40.8160655" lon="17.1625631"><ele>402.0</ele><time>2026-04-25T07:48:10.617Z</time></trkpt><trkpt lat="40.8161048" lon="17.1626795"><ele>402.33333333333337</ele><time>2026-04-25T07:48:13.607Z</time></trkpt><trkpt lat="40.8161257" lon="17.1627854"><ele>402.6666666666667</ele><time>2026-04-25T07:48:16.6Z</time></trkpt><trkpt lat="40.8160924" lon="17.1628745"><ele>403.0</ele><time>2026-04-25T07:48:19.615Z</time></trkpt><trkpt lat="40.816047" lon="17.1629366"><ele>403.0</ele><time>2026-04-25T07:48:22.594Z</time></trkpt><trkpt lat="40.8159982" lon="17.1629958"><ele>403.0</ele><time>2026-04-25T07:48:26.614Z</time></trkpt><trkpt lat="40.8159453" lon="17.163041"><ele>403.0</ele><time>2026-04-25T07:48:50.603Z</time></trkpt><trkpt lat="40.8158705" lon="17.163109"><ele>403.0</ele><time>2026-04-25T07:48:53.611Z</time></trkpt><trkpt lat="40.8158161" lon="17.1631592"><ele>403.0</ele><time>2026-04-25T07:48:55.604Z</time></trkpt><trkpt lat="40.8157552" lon="17.1632218"><ele>403.0</ele><time>2026-04-25T07:48:57.615Z</time></trkpt><trkpt lat="40.8157007" lon="17.163279"><ele>403.0</ele><time>2026-04-25T07:48:59.619Z</time></trkpt><trkpt lat="40.8156413" lon="17.163336"><ele>403.14285714285717</ele><time>2026-04-25T07:49:01.605Z</time></trkpt><trkpt lat="40.8155806" lon="17.163395"><ele>403.2857142857143</ele><time>2026-04-25T07:49:03.608Z</time></trkpt><trkpt lat="40.8155245" lon="17.1634479"><ele>403.42857142857144</ele><time>2026-04-25T07:49:05.615Z</time></trkpt><trkpt lat="40.815466" lon="17.1635023"><ele>403.57142857142856</ele><time>2026-04-25T07:49:07.618Z</time></trkpt><trkpt lat="40.8154111" lon="17.1635594"><ele>403.71428571428567</ele><time>2026-04-25T07:49:09.6Z</time></trkpt><trkpt lat="40.8153561" lon="17.1636142"><ele>403.85714285714283</ele><time>2026-04-25T07:49:11.602Z</time></trkpt><trkpt lat="40.8152962" lon="17.1636677"><ele>404.0</ele><time>2026-04-25T07:49:13.618Z</time></trkpt><trkpt lat="40.8152362" lon="17.1637313"><ele>404.0</ele><time>2026-04-25T07:49:15.615Z</time></trkpt><trkpt lat="40.8151771" lon="17.1637863"><ele>404.0</ele><time>2026-04-25T07:49:17.612Z</time></trkpt><trkpt lat="40.8151201" lon="17.1638455"><ele>404.0</ele><time>2026-04-25T07:49:19.62Z</time></trkpt><trkpt lat="40.8150659" lon="17.1639098"><ele>404.0</ele><time>2026-04-25T07:49:21.61Z</time></trkpt><trkpt lat="40.8150126" lon="17.1639657"><ele>404.0</ele><time>2026-04-25T07:49:23.603Z</time></trkpt><trkpt lat="40.8149604" lon="17.1640222"><ele>404.0</ele><time>2026-04-25T07:49:25.6Z</time></trkpt><trkpt lat="40.8149046" lon="17.1640691"><ele>404.0</ele><time>2026-04-25T07:49:27.604Z</time></trkpt><trkpt lat="40.8148448" lon="17.1641164"><ele>404.66666666666663</ele><time>2026-04-25T07:49:29.603Z</time></trkpt><trkpt lat="40.8147883" lon="17.1641578"><ele>405.3333333333333</ele><time>2026-04-25T07:49:31.618Z</time></trkpt><trkpt lat="40.8147127" lon="17.164214"><ele>406.0</ele><time>2026-04-25T07:49:34.62Z</time></trkpt><trkpt lat="40.8146485" lon="17.1642394"><ele>406.66666666666663</ele><time>2026-04-25T07:49:36.613Z</time></trkpt><trkpt lat="40.8145757" lon="17.1642603"><ele>407.3333333333333</ele><time>2026-04-25T07:49:38.602Z</time></trkpt><trkpt lat="40.8144945" lon="17.1642763"><ele>408.0</ele><time>2026-04-25T07:49:40.609Z</time></trkpt><trkpt lat="40.8144166" lon="17.1642959"><ele>408.0</ele><time>2026-04-25T07:49:42.616Z</time></trkpt><trkpt lat="40.8143456" lon="17.1643187"><ele>408.0</ele><time>2026-04-25T07:49:44.603Z</time></trkpt><trkpt lat="40.814272" lon="17.1643368"><ele>408.0</ele><time>2026-04-25T07:49:46.619Z</time></trkpt><trkpt lat="40.8141967" lon="17.1643577"><ele>408.0</ele><time>2026-04-25T07:49:48.621Z</time></trkpt><trkpt lat="40.8141236" lon="17.1643697"><ele>408.0</ele><time>2026-04-25T07:49:50.593Z</time></trkpt><trkpt lat="40.8140548" lon="17.1643904"><ele>408.0</ele><time>2026-04-25T07:49:52.608Z</time></trkpt><trkpt lat="40.8139755" lon="17.164399"><ele>408.0</ele><time>2026-04-25T07:49:54.608Z</time></trkpt><trkpt lat="40.8138918" lon="17.1643938"><ele>408.1666666666667</ele><time>2026-04-25T07:49:56.599Z</time></trkpt><trkpt lat="40.8138108" lon="17.1644161"><ele>408.33333333333337</ele><time>2026-04-25T07:49:58.612Z</time></trkpt><trkpt lat="40.813737" lon="17.1644317"><ele>408.5</ele><time>2026-04-25T07:50:00.608Z</time></trkpt><trkpt lat="40.8136606" lon="17.1644431"><ele>408.6666666666667</ele><time>2026-04-25T07:50:02.605Z</time></trkpt><trkpt lat="40.8135853" lon="17.1644592"><ele>408.83333333333337</ele><time>2026-04-25T07:50:04.605Z</time></trkpt><trkpt lat="40.8135114" lon="17.1644733"><ele>409.0</ele><time>2026-04-25T07:50:06.605Z</time></trkpt><trkpt lat="40.8134385" lon="17.1644925"><ele>409.0</ele><time>2026-04-25T07:50:08.607Z</time></trkpt><trkpt lat="40.813363" lon="17.1645023"><ele>409.0</ele><time>2026-04-25T07:50:10.624Z</time></trkpt><trkpt lat="40.8132943" lon="17.1645129"><ele>409.0</ele><time>2026-04-25T07:50:12.618Z</time></trkpt><trkpt lat="40.813211" lon="17.1645573"><ele>409.0</ele><time>2026-04-25T07:50:15.603Z</time></trkpt><trkpt lat="40.8131554" lon="17.1646108"><ele>409.0</ele><time>2026-04-25T07:50:17.61Z</time></trkpt><trkpt lat="40.8130966" lon="17.1646564"><ele>409.0</ele><time>2026-04-25T07:50:20.612Z</time></trkpt><trkpt lat="40.8130336" lon="17.1647071"><ele>409.0</ele><time>2026-04-25T07:50:23.612Z</time></trkpt><trkpt lat="40.8129654" lon="17.1647642"><ele>409.0</ele><time>2026-04-25T07:50:26.604Z</time></trkpt><trkpt lat="40.8128907" lon="17.1648228"><ele>409.0</ele><time>2026-04-25T07:50:29.612Z</time></trkpt><trkpt lat="40.8128082" lon="17.1648679"><ele>409.0</ele><time>2026-04-25T07:50:32.603Z</time></trkpt><trkpt lat="40.8127257" lon="17.16493"><ele>409.0</ele><time>2026-04-25T07:50:35.619Z</time></trkpt><trkpt lat="40.8126449" lon="17.1649833"><ele>409.0</ele><time>2026-04-25T07:50:38.6Z</time></trkpt><trkpt lat="40.8125619" lon="17.1650242"><ele>409.6666666666667</ele><time>2026-04-25T07:50:41.607Z</time></trkpt><trkpt lat="40.8124867" lon="17.1650568"><ele>410.33333333333337</ele><time>2026-04-25T07:50:44.61Z</time></trkpt><trkpt lat="40.8123935" lon="17.1650738"><ele>411.0</ele><time>2026-04-25T07:50:47.612Z</time></trkpt><trkpt lat="40.8123247" lon="17.1650846"><ele>411.66666666666663</ele><time>2026-04-25T07:50:49.604Z</time></trkpt><trkpt lat="40.8122561" lon="17.1650912"><ele>412.3333333333333</ele><time>2026-04-25T07:50:51.602Z</time></trkpt><trkpt lat="40.8121862" lon="17.1651068"><ele>413.0</ele><time>2026-04-25T07:50:53.609Z</time></trkpt><trkpt lat="40.8121078" lon="17.16511"><ele>412.99999999999994</ele><time>2026-04-25T07:50:55.613Z</time></trkpt><trkpt lat="40.812033" lon="17.1651186"><ele>413.0</ele><time>2026-04-25T07:50:57.605Z</time></trkpt><trkpt lat="40.8119583" lon="17.1651274"><ele>413.0</ele><time>2026-04-25T07:50:59.605Z</time></trkpt><trkpt lat="40.8118813" lon="17.1651367"><ele>413.0</ele><time>2026-04-25T07:51:01.613Z</time></trkpt><trkpt lat="40.8118004" lon="17.1651458"><ele>412.99999999999994</ele><time>2026-04-25T07:51:03.608Z</time></trkpt><trkpt lat="40.8117175" lon="17.1651382"><ele>413.0</ele><time>2026-04-25T07:51:05.599Z</time></trkpt><trkpt lat="40.8116414" lon="17.1651192"><ele>413.16666666666663</ele><time>2026-04-25T07:51:07.605Z</time></trkpt><trkpt lat="40.8115753" lon="17.1650776"><ele>413.3333333333333</ele><time>2026-04-25T07:51:09.607Z</time></trkpt><trkpt lat="40.8115172" lon="17.1650216"><ele>413.5</ele><time>2026-04-25T07:51:11.605Z</time></trkpt><trkpt lat="40.8114592" lon="17.1649676"><ele>413.66666666666663</ele><time>2026-04-25T07:51:13.608Z</time></trkpt><trkpt lat="40.8113824" lon="17.164887"><ele>413.8333333333333</ele><time>2026-04-25T07:51:16.614Z</time></trkpt><trkpt lat="40.8113215" lon="17.1648251"><ele>414.0</ele><time>2026-04-25T07:51:18.609Z</time></trkpt><trkpt lat="40.8112619" lon="17.164739"><ele>413.2</ele><time>2026-04-25T07:51:20.605Z</time></trkpt><trkpt lat="40.8111916" lon="17.1646472"><ele>412.4</ele><time>2026-04-25T07:51:22.61Z</time></trkpt><trkpt lat="40.811108" lon="17.1645808"><ele>411.6</ele><time>2026-04-25T07:51:24.606Z</time></trkpt><trkpt lat="40.8110216" lon="17.1646139"><ele>410.8</ele><time>2026-04-25T07:51:26.603Z</time></trkpt><trkpt lat="40.8109423" lon="17.1646656"><ele>410.0</ele><time>2026-04-25T07:51:28.606Z</time></trkpt><trkpt lat="40.8108708" lon="17.1647288"><ele>409.4</ele><time>2026-04-25T07:51:30.607Z</time></trkpt><trkpt lat="40.8107938" lon="17.1647735"><ele>408.8</ele><time>2026-04-25T07:51:32.601Z</time></trkpt><trkpt lat="40.8107048" lon="17.1647996"><ele>408.20000000000005</ele><time>2026-04-25T07:51:34.607Z</time></trkpt><trkpt lat="40.8106041" lon="17.1647572"><ele>407.6</ele><time>2026-04-25T07:51:36.601Z</time></trkpt><trkpt lat="40.8105123" lon="17.1647124"><ele>407.0</ele><time>2026-04-25T07:51:38.61Z</time></trkpt><trkpt lat="40.8104298" lon="17.1646916"><ele>407.00000000000006</ele><time>2026-04-25T07:51:40.6Z</time></trkpt><trkpt lat="40.8103527" lon="17.1646702"><ele>407.0</ele><time>2026-04-25T07:51:42.606Z</time></trkpt><trkpt lat="40.810288" lon="17.1646814"><ele>407.0</ele><time>2026-04-25T07:51:44.612Z</time></trkpt><trkpt lat="40.8102266" lon="17.1647206"><ele>407.0</ele><time>2026-04-25T07:51:46.59Z</time></trkpt><trkpt lat="40.8101695" lon="17.1647583"><ele>407.0</ele><time>2026-04-25T07:51:48.611Z</time></trkpt><trkpt lat="40.8101032" lon="17.1647949"><ele>407.00000000000006</ele><time>2026-04-25T07:51:50.609Z</time></trkpt><trkpt lat="40.8100315" lon="17.1648346"><ele>407.0</ele><time>2026-04-25T07:51:52.601Z</time></trkpt><trkpt lat="40.8099567" lon="17.1648807"><ele>407.8333333333333</ele><time>2026-04-25T07:51:54.607Z</time></trkpt><trkpt lat="40.8098789" lon="17.1649245"><ele>408.66666666666663</ele><time>2026-04-25T07:51:56.606Z</time></trkpt><trkpt lat="40.8098013" lon="17.1649615"><ele>409.5</ele><time>2026-04-25T07:51:58.61Z</time></trkpt><trkpt lat="40.8097235" lon="17.1650033"><ele>410.33333333333337</ele><time>2026-04-25T07:52:00.609Z</time></trkpt><trkpt lat="40.8096477" lon="17.1650367"><ele>411.1666666666667</ele><time>2026-04-25T07:52:02.609Z</time></trkpt><trkpt lat="40.8095786" lon="17.1650717"><ele>412.0</ele><time>2026-04-25T07:52:04.617Z</time></trkpt><trkpt lat="40.8095103" lon="17.1651141"><ele>412.00000000000006</ele><time>2026-04-25T07:52:06.613Z</time></trkpt><trkpt lat="40.8094356" lon="17.1651634"><ele>412.0</ele><time>2026-04-25T07:52:08.609Z</time></trkpt><trkpt lat="40.8093691" lon="17.1652156"><ele>412.0</ele><time>2026-04-25T07:52:10.599Z</time></trkpt><trkpt lat="40.8092971" lon="17.165259"><ele>412.0</ele><time>2026-04-25T07:52:12.605Z</time></trkpt><trkpt lat="40.809231" lon="17.165307"><ele>412.00000000000006</ele><time>2026-04-25T07:52:14.607Z</time></trkpt><trkpt lat="40.8091596" lon="17.1653589"><ele>412.0</ele><time>2026-04-25T07:52:16.583Z</time></trkpt><trkpt lat="40.8090907" lon="17.1654046"><ele>411.8</ele><time>2026-04-25T07:52:18.61Z</time></trkpt><trkpt lat="40.8090261" lon="17.16546"><ele>411.6</ele><time>2026-04-25T07:52:20.609Z</time></trkpt><trkpt lat="40.8089659" lon="17.1655092"><ele>411.40000000000003</ele><time>2026-04-25T07:52:22.615Z</time></trkpt><trkpt lat="40.8089066" lon="17.1655801"><ele>411.20000000000005</ele><time>2026-04-25T07:52:25.602Z</time></trkpt><trkpt lat="40.8088633" lon="17.1656438"><ele>411.0</ele><time>2026-04-25T07:52:28.612Z</time></trkpt><trkpt lat="40.8082589" lon="17.1659431"><ele>411.57142857142856</ele><time>2026-04-25T07:58:38.599Z</time></trkpt><trkpt lat="40.8081785" lon="17.1659844"><ele>412.1428571428571</ele><time>2026-04-25T07:58:45.596Z</time></trkpt><trkpt lat="40.8081201" lon="17.1660208"><ele>412.7142857142857</ele><time>2026-04-25T07:58:50.604Z</time></trkpt><trkpt lat="40.8080581" lon="17.1660563"><ele>413.2857142857143</ele><time>2026-04-25T07:58:55.616Z</time></trkpt><trkpt lat="40.8079985" lon="17.1660976"><ele>413.8571428571429</ele><time>2026-04-25T07:59:02.602Z</time></trkpt><trkpt lat="40.8079294" lon="17.1661327"><ele>414.42857142857144</ele><time>2026-04-25T07:59:22.594Z</time></trkpt><trkpt lat="40.807867" lon="17.1661816"><ele>415.0</ele><time>2026-04-25T07:59:28.611Z</time></trkpt><trkpt lat="40.807785" lon="17.1662266"><ele>415.0</ele><time>2026-04-25T07:59:31.596Z</time></trkpt><trkpt lat="40.8077266" lon="17.1662662"><ele>415.0</ele><time>2026-04-25T07:59:33.605Z</time></trkpt><trkpt lat="40.8076504" lon="17.1663192"><ele>415.0</ele><time>2026-04-25T07:59:36.617Z</time></trkpt><trkpt lat="40.8075684" lon="17.1663602"><ele>415.0</ele><time>2026-04-25T07:59:39.601Z</time></trkpt><trkpt lat="40.8074984" lon="17.1663856"><ele>415.0</ele><time>2026-04-25T07:59:42.601Z</time></trkpt><trkpt lat="40.807429" lon="17.1663767"><ele>415.0</ele><time>2026-04-25T07:59:45.607Z</time></trkpt><trkpt lat="40.8073685" lon="17.1663463"><ele>415.0</ele><time>2026-04-25T08:00:02.593Z</time></trkpt><trkpt lat="40.8073094" lon="17.1662916"><ele>414.83333333333337</ele><time>2026-04-25T08:01:43.597Z</time></trkpt><trkpt lat="40.8072343" lon="17.1662315"><ele>414.6666666666667</ele><time>2026-04-25T08:01:47.599Z</time></trkpt><trkpt lat="40.8071777" lon="17.1661772"><ele>414.5</ele><time>2026-04-25T08:01:50.614Z</time></trkpt><trkpt lat="40.807108" lon="17.1661198"><ele>414.33333333333337</ele><time>2026-04-25T08:01:53.607Z</time></trkpt><trkpt lat="40.8070414" lon="17.1660819"><ele>414.1666666666667</ele><time>2026-04-25T08:01:55.598Z</time></trkpt><trkpt lat="40.8069684" lon="17.1660338"><ele>414.0</ele><time>2026-04-25T08:01:57.595Z</time></trkpt><trkpt lat="40.8068888" lon="17.165996"><ele>414.0</ele><time>2026-04-25T08:01:59.614Z</time></trkpt><trkpt lat="40.8068093" lon="17.1659597"><ele>414.0</ele><time>2026-04-25T08:02:01.606Z</time></trkpt><trkpt lat="40.8067313" lon="17.1659536"><ele>414.0</ele><time>2026-04-25T08:02:03.603Z</time></trkpt><trkpt lat="40.8066565" lon="17.1659598"><ele>414.0</ele><time>2026-04-25T08:02:06.614Z</time></trkpt><trkpt lat="40.8065769" lon="17.1659619"><ele>414.0</ele><time>2026-04-25T08:02:16.594Z</time></trkpt><trkpt lat="40.8065106" lon="17.1659689"><ele>414.0</ele><time>2026-04-25T08:02:18.603Z</time></trkpt><trkpt lat="40.8064406" lon="17.1659831"><ele>414.0</ele><time>2026-04-25T08:02:20.617Z</time></trkpt><trkpt lat="40.8063591" lon="17.1660015"><ele>414.0</ele><time>2026-04-25T08:02:22.6Z</time></trkpt><trkpt lat="40.8062645" lon="17.166034"><ele>414.0</ele><time>2026-04-25T08:02:24.61Z</time></trkpt><trkpt lat="40.806152" lon="17.1660806"><ele>414.0</ele><time>2026-04-25T08:02:26.614Z</time></trkpt><trkpt lat="40.8060904" lon="17.1661099"><ele>414.0</ele><time>2026-04-25T08:02:27.593Z</time></trkpt><trkpt lat="40.805982" lon="17.1661752"><ele>413.4</ele><time>2026-04-25T08:02:29.596Z</time></trkpt><trkpt lat="40.805877" lon="17.1662348"><ele>412.79999999999995</ele><time>2026-04-25T08:02:31.603Z</time></trkpt><trkpt lat="40.805782" lon="17.1662806"><ele>412.20000000000005</ele><time>2026-04-25T08:02:33.598Z</time></trkpt><trkpt lat="40.8056885" lon="17.1663385"><ele>411.6</ele><time>2026-04-25T08:02:35.612Z</time></trkpt><trkpt lat="40.8055998" lon="17.1663985"><ele>411.0</ele><time>2026-04-25T08:02:37.603Z</time></trkpt><trkpt lat="40.8055173" lon="17.1664511"><ele>411.0</ele><time>2026-04-25T08:02:39.597Z</time></trkpt><trkpt lat="40.8054511" lon="17.1664901"><ele>411.0</ele><time>2026-04-25T08:02:41.602Z</time></trkpt><trkpt lat="40.8053828" lon="17.16652"><ele>411.0</ele><time>2026-04-25T08:02:43.592Z</time></trkpt><trkpt lat="40.8052729" lon="17.166538"><ele>411.0</ele><time>2026-04-25T08:02:45.599Z</time></trkpt><trkpt lat="40.8051697" lon="17.1665205"><ele>411.0</ele><time>2026-04-25T08:02:47.604Z</time></trkpt><trkpt lat="40.80508" lon="17.1664929"><ele>410.3333333333333</ele><time>2026-04-25T08:02:49.607Z</time></trkpt><trkpt lat="40.8050056" lon="17.166486"><ele>409.66666666666663</ele><time>2026-04-25T08:02:51.616Z</time></trkpt><trkpt lat="40.8049409" lon="17.1664642"><ele>409.0</ele><time>2026-04-25T08:02:53.601Z</time></trkpt><trkpt lat="40.8048672" lon="17.1664502"><ele>408.3333333333333</ele><time>2026-04-25T08:02:56.606Z</time></trkpt><trkpt lat="40.8047861" lon="17.1664471"><ele>407.66666666666663</ele><time>2026-04-25T08:03:31.598Z</time></trkpt><trkpt lat="40.8046953" lon="17.1664344"><ele>407.0</ele><time>2026-04-25T08:03:33.601Z</time></trkpt><trkpt lat="40.8045861" lon="17.1664315"><ele>407.0</ele><time>2026-04-25T08:03:35.604Z</time></trkpt><trkpt lat="40.8044692" lon="17.1664622"><ele>407.0</ele><time>2026-04-25T08:03:37.593Z</time></trkpt><trkpt lat="40.8044094" lon="17.1664969"><ele>407.0</ele><time>2026-04-25T08:03:38.596Z</time></trkpt><trkpt lat="40.8043162" lon="17.1665824"><ele>407.0</ele><time>2026-04-25T08:03:40.603Z</time></trkpt><trkpt lat="40.8042397" lon="17.1666459"><ele>407.0</ele><time>2026-04-25T08:03:42.599Z</time></trkpt><trkpt lat="40.8041687" lon="17.1667163"><ele>407.00000000000006</ele><time>2026-04-25T08:03:44.601Z</time></trkpt><trkpt lat="40.804116" lon="17.1667748"><ele>407.0</ele><time>2026-04-25T08:03:46.596Z</time></trkpt><trkpt lat="40.8040639" lon="17.1668382"><ele>407.0</ele><time>2026-04-25T08:03:48.607Z</time></trkpt><trkpt lat="40.8039958" lon="17.1669001"><ele>407.0</ele><time>2026-04-25T08:03:50.599Z</time></trkpt><trkpt lat="40.8039437" lon="17.1669733"><ele>407.0</ele><time>2026-04-25T08:03:52.603Z</time></trkpt><trkpt lat="40.8038913" lon="17.1670431"><ele>407.00000000000006</ele><time>2026-04-25T08:03:54.601Z</time></trkpt><trkpt lat="40.8038558" lon="17.1671119"><ele>407.0</ele><time>2026-04-25T08:03:56.601Z</time></trkpt><trkpt lat="40.8038088" lon="17.1672048"><ele>407.00000000000006</ele><time>2026-04-25T08:03:59.596Z</time></trkpt><trkpt lat="40.8037938" lon="17.1672859"><ele>407.0</ele><time>2026-04-25T08:04:01.588Z</time></trkpt><trkpt lat="40.8037741" lon="17.1673955"><ele>407.0</ele><time>2026-04-25T08:04:04.607Z</time></trkpt><trkpt lat="40.8037557" lon="17.1675008"><ele>407.0</ele><time>2026-04-25T08:04:07.597Z</time></trkpt><trkpt lat="40.8037166" lon="17.1675968"><ele>407.0</ele><time>2026-04-25T08:04:10.604Z</time></trkpt><trkpt lat="40.8036722" lon="17.1676593"><ele>407.00000000000006</ele><time>2026-04-25T08:04:13.602Z</time></trkpt><trkpt lat="40.803609" lon="17.1676254"><ele>407.0</ele><time>2026-04-25T08:04:36.611Z</time></trkpt><trkpt lat="40.803561" lon="17.1675099"><ele>407.40000000000003</ele><time>2026-04-25T08:04:39.589Z</time></trkpt><trkpt lat="40.8035245" lon="17.1674054"><ele>407.8</ele><time>2026-04-25T08:04:41.598Z</time></trkpt><trkpt lat="40.8034853" lon="17.1672955"><ele>408.2</ele><time>2026-04-25T08:04:43.614Z</time></trkpt><trkpt lat="40.8034319" lon="17.1671777"><ele>408.6</ele><time>2026-04-25T08:04:45.606Z</time></trkpt><trkpt lat="40.8033825" lon="17.1670496"><ele>409.0</ele><time>2026-04-25T08:04:47.597Z</time></trkpt><trkpt lat="40.8033299" lon="17.1669196"><ele>409.00000000000006</ele><time>2026-04-25T08:04:49.602Z</time></trkpt><trkpt lat="40.8032746" lon="17.1667939"><ele>409.0</ele><time>2026-04-25T08:04:51.602Z</time></trkpt><trkpt lat="40.8032258" lon="17.1666872"><ele>409.0</ele><time>2026-04-25T08:04:53.593Z</time></trkpt><trkpt lat="40.8031576" lon="17.1666513"><ele>409.0</ele><time>2026-04-25T08:04:56.605Z</time></trkpt><trkpt lat="40.8031189" lon="17.1667169"><ele>409.00000000000006</ele><time>2026-04-25T08:05:02.606Z</time></trkpt><trkpt lat="40.803114" lon="17.1668041"><ele>409.0</ele><time>2026-04-25T08:05:04.607Z</time></trkpt><trkpt lat="40.803125" lon="17.1669295"><ele>409.00000000000006</ele><time>2026-04-25T08:05:07.604Z</time></trkpt><trkpt lat="40.8031257" lon="17.1670294"><ele>409.0</ele><time>2026-04-25T08:05:09.6Z</time></trkpt><trkpt lat="40.8031375" lon="17.1671289"><ele>409.0</ele><time>2026-04-25T08:05:11.593Z</time></trkpt><trkpt lat="40.8030979" lon="17.1672123"><ele>409.0</ele><time>2026-04-25T08:05:15.613Z</time></trkpt><trkpt lat="40.8030232" lon="17.1672677"><ele>409.00000000000006</ele><time>2026-04-25T08:05:20.596Z</time></trkpt><trkpt lat="40.8029682" lon="17.1673092"><ele>409.0</ele><time>2026-04-25T08:05:23.601Z</time></trkpt><trkpt lat="40.8028988" lon="17.1673655"><ele>409.0</ele><time>2026-04-25T08:05:27.589Z</time></trkpt><trkpt lat="40.8028252" lon="17.1674063"><ele>409.0</ele><time>2026-04-25T08:05:31.597Z</time></trkpt><trkpt lat="40.8027515" lon="17.1674572"><ele>409.0</ele><time>2026-04-25T08:05:34.599Z</time></trkpt><trkpt lat="40.8026537" lon="17.1675225"><ele>409.0</ele><time>2026-04-25T08:05:37.612Z</time></trkpt><trkpt lat="40.8025685" lon="17.1675831"><ele>409.0</ele><time>2026-04-25T08:05:39.596Z</time></trkpt><trkpt lat="40.8024905" lon="17.1676277"><ele>408.83333333333337</ele><time>2026-04-25T08:05:41.602Z</time></trkpt><trkpt lat="40.8024151" lon="17.167678"><ele>408.6666666666667</ele><time>2026-04-25T08:05:43.594Z</time></trkpt><trkpt lat="40.8023566" lon="17.1677291"><ele>408.5</ele><time>2026-04-25T08:05:45.596Z</time></trkpt><trkpt lat="40.8022797" lon="17.1677815"><ele>408.33333333333337</ele><time>2026-04-25T08:05:48.607Z</time></trkpt><trkpt lat="40.8022163" lon="17.1678381"><ele>408.1666666666667</ele><time>2026-04-25T08:05:56.607Z</time></trkpt><trkpt lat="40.8021495" lon="17.1678841"><ele>408.0</ele><time>2026-04-25T08:06:01.6Z</time></trkpt><trkpt lat="40.8020344" lon="17.1679403"><ele>408.0</ele><time>2026-04-25T08:06:38.617Z</time></trkpt><trkpt lat="40.8019018" lon="17.1680233"><ele>408.0</ele><time>2026-04-25T08:06:43.599Z</time></trkpt><trkpt lat="40.801786" lon="17.1681083"><ele>408.0</ele><time>2026-04-25T08:06:48.62Z</time></trkpt><trkpt lat="40.801631" lon="17.1682193"><ele>408.75</ele><time>2026-04-25T08:06:54.606Z</time></trkpt><trkpt lat="40.8015096" lon="17.1683048"><ele>409.5</ele><time>2026-04-25T08:06:59.596Z</time></trkpt><trkpt lat="40.8013931" lon="17.1683861"><ele>410.25</ele><time>2026-04-25T08:07:03.591Z</time></trkpt><trkpt lat="40.8012672" lon="17.1684824"><ele>411.0</ele><time>2026-04-25T08:07:08.593Z</time></trkpt><trkpt lat="40.8011841" lon="17.168528"><ele>411.0</ele><time>2026-04-25T08:07:12.598Z</time></trkpt><trkpt lat="40.8010361" lon="17.168629"><ele>411.0</ele><time>2026-04-25T08:07:20.6Z</time></trkpt><trkpt lat="40.8009725" lon="17.1686768"><ele>411.0</ele><time>2026-04-25T08:07:23.602Z</time></trkpt><trkpt lat="40.8008719" lon="17.1687549"><ele>411.0</ele><time>2026-04-25T08:07:28.594Z</time></trkpt><trkpt lat="40.8007942" lon="17.1687671"><ele>411.0</ele><time>2026-04-25T08:07:54.585Z</time></trkpt><trkpt lat="40.8007015" lon="17.168769"><ele>411.3333333333333</ele><time>2026-04-25T08:07:57.601Z</time></trkpt><trkpt lat="40.8006159" lon="17.1687611"><ele>411.66666666666663</ele><time>2026-04-25T08:08:00.602Z</time></trkpt><trkpt lat="40.8005529" lon="17.1687522"><ele>412.0</ele><time>2026-04-25T08:08:02.6Z</time></trkpt><trkpt lat="40.800476" lon="17.1687446"><ele>412.3333333333333</ele><time>2026-04-25T08:08:05.595Z</time></trkpt><trkpt lat="40.8003907" lon="17.1687451"><ele>412.66666666666663</ele><time>2026-04-25T08:08:08.61Z</time></trkpt><trkpt lat="40.8002993" lon="17.1687343"><ele>413.0</ele><time>2026-04-25T08:08:11.591Z</time></trkpt><trkpt lat="40.8002085" lon="17.1687284"><ele>413.49999999999994</ele><time>2026-04-25T08:08:14.6Z</time></trkpt><trkpt lat="40.8001287" lon="17.1687244"><ele>414.0</ele><time>2026-04-25T08:08:17.599Z</time></trkpt><trkpt lat="40.8000491" lon="17.1687232"><ele>414.5</ele><time>2026-04-25T08:08:20.597Z</time></trkpt><trkpt lat="40.7999639" lon="17.168729"><ele>415.0</ele><time>2026-04-25T08:08:23.605Z</time></trkpt><trkpt lat="40.7998973" lon="17.1687458"><ele>415.49999999999994</ele><time>2026-04-25T08:08:26.587Z</time></trkpt><trkpt lat="40.799831" lon="17.1687883"><ele>416.0</ele><time>2026-04-25T08:08:30.608Z</time></trkpt><trkpt lat="40.7997715" lon="17.1688279"><ele>415.99999999999994</ele><time>2026-04-25T08:08:33.601Z</time></trkpt><trkpt lat="40.7996917" lon="17.1688778"><ele>416.0</ele><time>2026-04-25T08:08:37.587Z</time></trkpt><trkpt lat="40.7996152" lon="17.1689325"><ele>416.0</ele><time>2026-04-25T08:08:40.588Z</time></trkpt><trkpt lat="40.799544" lon="17.1689719"><ele>416.0</ele><time>2026-04-25T08:08:43.598Z</time></trkpt><trkpt lat="40.7994772" lon="17.1690147"><ele>415.99999999999994</ele><time>2026-04-25T08:08:46.605Z</time></trkpt><trkpt lat="40.799406" lon="17.1690646"><ele>416.0</ele><time>2026-04-25T08:08:49.604Z</time></trkpt><trkpt lat="40.799337" lon="17.1691107"><ele>416.16666666666663</ele><time>2026-04-25T08:08:52.593Z</time></trkpt><trkpt lat="40.7992625" lon="17.1691659"><ele>416.3333333333333</ele><time>2026-04-25T08:08:55.59Z</time></trkpt><trkpt lat="40.7991917" lon="17.1692115"><ele>416.5</ele><time>2026-04-25T08:08:58.595Z</time></trkpt><trkpt lat="40.7991274" lon="17.1692611"><ele>416.66666666666663</ele><time>2026-04-25T08:09:01.571Z</time></trkpt><trkpt lat="40.7990597" lon="17.1693087"><ele>416.8333333333333</ele><time>2026-04-25T08:09:04.612Z</time></trkpt><trkpt lat="40.7989942" lon="17.1693501"><ele>417.0</ele><time>2026-04-25T08:09:07.603Z</time></trkpt><trkpt lat="40.7989309" lon="17.1694043"><ele>417.0</ele><time>2026-04-25T08:09:10.602Z</time></trkpt><trkpt lat="40.7988608" lon="17.1694444"><ele>417.0</ele><time>2026-04-25T08:09:13.596Z</time></trkpt><trkpt lat="40.7987905" lon="17.1695007"><ele>417.0</ele><time>2026-04-25T08:09:16.606Z</time></trkpt><trkpt lat="40.7987181" lon="17.1695445"><ele>417.0</ele><time>2026-04-25T08:09:19.604Z</time></trkpt><trkpt lat="40.7986509" lon="17.1695875"><ele>417.0</ele><time>2026-04-25T08:09:22.612Z</time></trkpt><trkpt lat="40.7985864" lon="17.1696314"><ele>417.0</ele><time>2026-04-25T08:09:25.598Z</time></trkpt><trkpt lat="40.7985304" lon="17.1696736"><ele>417.5</ele><time>2026-04-25T08:09:28.611Z</time></trkpt><trkpt lat="40.79847" lon="17.169722"><ele>418.0</ele><time>2026-04-25T08:10:39.595Z</time></trkpt><trkpt lat="40.7982591" lon="17.169875"><ele>418.5</ele><time>2026-04-25T08:10:47.607Z</time></trkpt><trkpt lat="40.7981639" lon="17.1699373"><ele>419.0</ele><time>2026-04-25T08:10:52.597Z</time></trkpt><trkpt lat="40.7980619" lon="17.1700069"><ele>418.99999999999994</ele><time>2026-04-25T08:10:57.596Z</time></trkpt><trkpt lat="40.7980036" lon="17.1700517"><ele>419.0</ele><time>2026-04-25T08:10:59.6Z</time></trkpt><trkpt lat="40.7979441" lon="17.1700959"><ele>419.0</ele><time>2026-04-25T08:11:01.612Z</time></trkpt><trkpt lat="40.7978867" lon="17.1701364"><ele>419.0</ele><time>2026-04-25T08:11:03.594Z</time></trkpt><trkpt lat="40.7978292" lon="17.1701706"><ele>419.0</ele><time>2026-04-25T08:11:05.581Z</time></trkpt><trkpt lat="40.7977655" lon="17.1702125"><ele>418.99999999999994</ele><time>2026-04-25T08:11:07.583Z</time></trkpt><trkpt lat="40.7976912" lon="17.1702753"><ele>419.0</ele><time>2026-04-25T08:11:10.6Z</time></trkpt><trkpt lat="40.7976794" lon="17.1703807"><ele>418.99999999999994</ele><time>2026-04-25T08:11:13.609Z</time></trkpt><trkpt lat="40.7977049" lon="17.1704585"><ele>419.0</ele><time>2026-04-25T08:11:15.591Z</time></trkpt><trkpt lat="40.7977418" lon="17.1705378"><ele>419.0</ele><time>2026-04-25T08:11:17.596Z</time></trkpt><trkpt lat="40.7977668" lon="17.1706366"><ele>419.0</ele><time>2026-04-25T08:11:19.573Z</time></trkpt><trkpt lat="40.7978116" lon="17.1707327"><ele>418.99999999999994</ele><time>2026-04-25T08:11:21.583Z</time></trkpt><trkpt lat="40.7978763" lon="17.1708078"><ele>419.0</ele><time>2026-04-25T08:11:23.598Z</time></trkpt><trkpt lat="40.7979421" lon="17.170893"><ele>418.8333333333333</ele><time>2026-04-25T08:11:25.595Z</time></trkpt><trkpt lat="40.7980019" lon="17.17098"><ele>418.66666666666663</ele><time>2026-04-25T08:11:27.612Z</time></trkpt><trkpt lat="40.7980569" lon="17.171069"><ele>418.5</ele><time>2026-04-25T08:11:29.601Z</time></trkpt><trkpt lat="40.7981057" lon="17.1711575"><ele>418.33333333333337</ele><time>2026-04-25T08:11:31.611Z</time></trkpt><trkpt lat="40.7981621" lon="17.1712481"><ele>418.1666666666667</ele><time>2026-04-25T08:11:33.596Z</time></trkpt><trkpt lat="40.7982125" lon="17.1713355"><ele>418.0</ele><time>2026-04-25T08:11:35.6Z</time></trkpt><trkpt lat="40.7982597" lon="17.1714147"><ele>418.00000000000006</ele><time>2026-04-25T08:11:37.622Z</time></trkpt><trkpt lat="40.7983032" lon="17.1714993"><ele>418.0</ele><time>2026-04-25T08:11:39.61Z</time></trkpt><trkpt lat="40.7983504" lon="17.1715813"><ele>418.0</ele><time>2026-04-25T08:11:41.61Z</time></trkpt><trkpt lat="40.798395" lon="17.1716696"><ele>418.0</ele><time>2026-04-25T08:11:43.62Z</time></trkpt><trkpt lat="40.7984321" lon="17.171759"><ele>418.00000000000006</ele><time>2026-04-25T08:11:45.615Z</time></trkpt><trkpt lat="40.7984722" lon="17.1718382"><ele>418.0</ele><time>2026-04-25T08:11:47.599Z</time></trkpt><trkpt lat="40.7985185" lon="17.1719109"><ele>418.1666666666667</ele><time>2026-04-25T08:11:49.594Z</time></trkpt><trkpt lat="40.7985575" lon="17.1719821"><ele>418.33333333333337</ele><time>2026-04-25T08:11:51.594Z</time></trkpt><trkpt lat="40.7985975" lon="17.1720531"><ele>418.5</ele><time>2026-04-25T08:11:53.613Z</time></trkpt><trkpt lat="40.7986315" lon="17.172131"><ele>418.66666666666663</ele><time>2026-04-25T08:11:55.602Z</time></trkpt><trkpt lat="40.7986624" lon="17.1722097"><ele>418.8333333333333</ele><time>2026-04-25T08:11:57.609Z</time></trkpt><trkpt lat="40.7986919" lon="17.1723281"><ele>419.0</ele><time>2026-04-25T08:12:00.608Z</time></trkpt><trkpt lat="40.7987249" lon="17.1724499"><ele>419.2</ele><time>2026-04-25T08:12:03.606Z</time></trkpt><trkpt lat="40.7987416" lon="17.1725371"><ele>419.4</ele><time>2026-04-25T08:12:05.6Z</time></trkpt><trkpt lat="40.7987494" lon="17.1726217"><ele>419.6</ele><time>2026-04-25T08:12:07.607Z</time></trkpt><trkpt lat="40.7987828" lon="17.1727171"><ele>419.8</ele><time>2026-04-25T08:12:10.587Z</time></trkpt><trkpt lat="40.7987768" lon="17.1729894"><ele>420.0</ele><time>2026-04-25T08:12:20.586Z</time></trkpt><trkpt lat="40.7987936" lon="17.1730765"><ele>420.0</ele><time>2026-04-25T08:12:24.596Z</time></trkpt><trkpt lat="40.7987976" lon="17.173178"><ele>420.0</ele><time>2026-04-25T08:12:27.602Z</time></trkpt><trkpt lat="40.7988042" lon="17.1732645"><ele>420.0</ele><time>2026-04-25T08:12:29.605Z</time></trkpt><trkpt lat="40.7988213" lon="17.1733657"><ele>420.0</ele><time>2026-04-25T08:12:32.612Z</time></trkpt><trkpt lat="40.7988258" lon="17.1734851"><ele>420.0</ele><time>2026-04-25T08:12:35.604Z</time></trkpt><trkpt lat="40.7988325" lon="17.1735825"><ele>420.0</ele><time>2026-04-25T08:12:37.612Z</time></trkpt><trkpt lat="40.7988116" lon="17.1736921"><ele>420.0</ele><time>2026-04-25T08:12:39.599Z</time></trkpt><trkpt lat="40.7987787" lon="17.1738041"><ele>420.0</ele><time>2026-04-25T08:12:41.601Z</time></trkpt><trkpt lat="40.798757" lon="17.1739317"><ele>420.0</ele><time>2026-04-25T08:12:43.601Z</time></trkpt><trkpt lat="40.7987341" lon="17.1740591"><ele>420.0</ele><time>2026-04-25T08:12:45.605Z</time></trkpt><trkpt lat="40.7987166" lon="17.1742076"><ele>420.0</ele><time>2026-04-25T08:12:47.6Z</time></trkpt><trkpt lat="40.7987062" lon="17.1743687"><ele>420.0</ele><time>2026-04-25T08:12:49.603Z</time></trkpt><trkpt lat="40.7986994" lon="17.1745244"><ele>420.0</ele><time>2026-04-25T08:12:51.613Z</time></trkpt><trkpt lat="40.7987002" lon="17.1746791"><ele>420.0</ele><time>2026-04-25T08:12:53.608Z</time></trkpt><trkpt lat="40.7986986" lon="17.1748192"><ele>420.0</ele><time>2026-04-25T08:12:55.594Z</time></trkpt><trkpt lat="40.7986987" lon="17.1749384"><ele>420.0</ele><time>2026-04-25T08:12:57.606Z</time></trkpt><trkpt lat="40.7986987" lon="17.1750577"><ele>420.0</ele><time>2026-04-25T08:12:59.611Z</time></trkpt><trkpt lat="40.7987023" lon="17.1751662"><ele>420.0</ele><time>2026-04-25T08:13:01.609Z</time></trkpt><trkpt lat="40.7987034" lon="17.1752694"><ele>420.0</ele><time>2026-04-25T08:13:03.613Z</time></trkpt><trkpt lat="40.7987049" lon="17.175365"><ele>420.0</ele><time>2026-04-25T08:13:05.602Z</time></trkpt><trkpt lat="40.7987072" lon="17.1754556"><ele>420.0</ele><time>2026-04-25T08:13:07.613Z</time></trkpt><trkpt lat="40.7987121" lon="17.1755487"><ele>420.0</ele><time>2026-04-25T08:13:09.601Z</time></trkpt><trkpt lat="40.7987187" lon="17.1756376"><ele>420.0</ele><time>2026-04-25T08:13:11.585Z</time></trkpt><trkpt lat="40.7987509" lon="17.1757337"><ele>420.0</ele><time>2026-04-25T08:13:14.613Z</time></trkpt><trkpt lat="40.7987741" lon="17.1758183"><ele>420.0</ele><time>2026-04-25T08:13:16.599Z</time></trkpt><trkpt lat="40.7987997" lon="17.1759102"><ele>420.0</ele><time>2026-04-25T08:13:19.593Z</time></trkpt><trkpt lat="40.7988083" lon="17.1759969"><ele>420.0</ele><time>2026-04-25T08:13:22.595Z</time></trkpt><trkpt lat="40.7988315" lon="17.1760901"><ele>420.0</ele><time>2026-04-25T08:13:26.594Z</time></trkpt><trkpt lat="40.798845" lon="17.1761832"><ele>420.0</ele><time>2026-04-25T08:14:33.594Z</time></trkpt><trkpt lat="40.798881" lon="17.1762729"><ele>420.0</ele><time>2026-04-25T08:14:36.611Z</time></trkpt><trkpt lat="40.798903" lon="17.1763644"><ele>420.0</ele><time>2026-04-25T08:14:38.592Z</time></trkpt><trkpt lat="40.798923" lon="17.1764619"><ele>420.0</ele><time>2026-04-25T08:14:40.607Z</time></trkpt><trkpt lat="40.7989486" lon="17.1765665"><ele>420.0</ele><time>2026-04-25T08:14:42.589Z</time></trkpt><trkpt lat="40.798971" lon="17.1766625"><ele>420.0</ele><time>2026-04-25T08:14:44.601Z</time></trkpt><trkpt lat="40.7989926" lon="17.1767501"><ele>420.0</ele><time>2026-04-25T08:14:46.591Z</time></trkpt><trkpt lat="40.7990218" lon="17.1768384"><ele>420.0</ele><time>2026-04-25T08:14:48.597Z</time></trkpt><trkpt lat="40.7990439" lon="17.1769231"><ele>420.0</ele><time>2026-04-25T08:14:50.608Z</time></trkpt><trkpt lat="40.7990736" lon="17.1770317"><ele>420.14285714285717</ele><time>2026-04-25T08:14:53.601Z</time></trkpt><trkpt lat="40.7990953" lon="17.1771463"><ele>420.2857142857143</ele><time>2026-04-25T08:14:56.598Z</time></trkpt><trkpt lat="40.7991198" lon="17.1772337"><ele>420.42857142857144</ele><time>2026-04-25T08:15:00.604Z</time></trkpt><trkpt lat="40.7991453" lon="17.1773145"><ele>420.57142857142856</ele><time>2026-04-25T08:15:09.601Z</time></trkpt><trkpt lat="40.7991659" lon="17.1773984"><ele>420.7142857142857</ele><time>2026-04-25T08:15:15.591Z</time></trkpt><trkpt lat="40.799195" lon="17.1774853"><ele>420.8571428571429</ele><time>2026-04-25T08:15:21.587Z</time></trkpt><trkpt lat="40.7992172" lon="17.1775695"><ele>421.0</ele><time>2026-04-25T08:15:27.587Z</time></trkpt><trkpt lat="40.7992385" lon="17.1776572"><ele>421.42857142857144</ele><time>2026-04-25T08:15:33.584Z</time></trkpt><trkpt lat="40.7992665" lon="17.1777488"><ele>421.8571428571429</ele><time>2026-04-25T08:15:39.589Z</time></trkpt><trkpt lat="40.7992939" lon="17.1778397"><ele>422.28571428571433</ele><time>2026-04-25T08:15:46.591Z</time></trkpt><trkpt lat="40.799318" lon="17.1779266"><ele>422.7142857142857</ele><time>2026-04-25T08:15:57.595Z</time></trkpt><trkpt lat="40.7993349" lon="17.1780116"><ele>423.1428571428571</ele><time>2026-04-25T08:16:04.6Z</time></trkpt><trkpt lat="40.7993673" lon="17.1780962"><ele>423.5714285714286</ele><time>2026-04-25T08:16:28.595Z</time></trkpt><trkpt lat="40.7993979" lon="17.1781689"><ele>424.0</ele><time>2026-04-25T08:16:33.593Z</time></trkpt><trkpt lat="40.7994189" lon="17.1782645"><ele>425.2857142857143</ele><time>2026-04-25T08:16:39.597Z</time></trkpt><trkpt lat="40.7994336" lon="17.1783582"><ele>426.57142857142856</ele><time>2026-04-25T08:16:45.586Z</time></trkpt><trkpt lat="40.7994633" lon="17.1784461"><ele>427.85714285714283</ele><time>2026-04-25T08:16:51.584Z</time></trkpt><trkpt lat="40.799489" lon="17.1785274"><ele>429.1428571428571</ele><time>2026-04-25T08:16:57.588Z</time></trkpt><trkpt lat="40.7995184" lon="17.1786194"><ele>430.42857142857144</ele><time>2026-04-25T08:17:04.607Z</time></trkpt><trkpt lat="40.7995324" lon="17.1787114"><ele>431.71428571428567</ele><time>2026-04-25T08:17:10.59Z</time></trkpt><trkpt lat="40.7995536" lon="17.1787899"><ele>433.0</ele><time>2026-04-25T08:17:16.597Z</time></trkpt><trkpt lat="40.7995782" lon="17.1788685"><ele>432.99999999999994</ele><time>2026-04-25T08:17:22.61Z</time></trkpt><trkpt lat="40.7996173" lon="17.1789416"><ele>433.0</ele><time>2026-04-25T08:17:30.603Z</time></trkpt><trkpt lat="40.7996429" lon="17.1790222"><ele>433.0</ele><time>2026-04-25T08:17:38.595Z</time></trkpt><trkpt lat="40.7996694" lon="17.1791011"><ele>433.0</ele><time>2026-04-25T08:18:31.592Z</time></trkpt><trkpt lat="40.7996966" lon="17.1791786"><ele>433.0</ele><time>2026-04-25T08:18:38.596Z</time></trkpt><trkpt lat="40.7997305" lon="17.1792508"><ele>432.99999999999994</ele><time>2026-04-25T08:18:44.592Z</time></trkpt><trkpt lat="40.7997645" lon="17.1793342"><ele>433.0</ele><time>2026-04-25T08:18:51.589Z</time></trkpt><trkpt lat="40.7997802" lon="17.1794203"><ele>434.1428571428571</ele><time>2026-04-25T08:18:58.592Z</time></trkpt><trkpt lat="40.7998128" lon="17.179497"><ele>435.2857142857143</ele><time>2026-04-25T08:19:05.599Z</time></trkpt><trkpt lat="40.7998456" lon="17.1795751"><ele>436.42857142857144</ele><time>2026-04-25T08:19:11.6Z</time></trkpt><trkpt lat="40.7998822" lon="17.1796529"><ele>437.57142857142856</ele><time>2026-04-25T08:19:18.601Z</time></trkpt><trkpt lat="40.7999003" lon="17.1797339"><ele>438.7142857142857</ele><time>2026-04-25T08:20:02.593Z</time></trkpt><trkpt lat="40.7999536" lon="17.1797996"><ele>439.85714285714283</ele><time>2026-04-25T08:20:07.6Z</time></trkpt><trkpt lat="40.7999832" lon="17.1798991"><ele>441.0</ele><time>2026-04-25T08:20:11.583Z</time></trkpt><trkpt lat="40.8000237" lon="17.179973"><ele>441.7142857142857</ele><time>2026-04-25T08:20:14.585Z</time></trkpt><trkpt lat="40.8000652" lon="17.1800551"><ele>442.42857142857144</ele><time>2026-04-25T08:20:16.6Z</time></trkpt><trkpt lat="40.800089" lon="17.1801423"><ele>443.1428571428571</ele><time>2026-04-25T08:20:18.597Z</time></trkpt><trkpt lat="40.8001272" lon="17.1802267"><ele>443.8571428571429</ele><time>2026-04-25T08:20:22.614Z</time></trkpt><trkpt lat="40.800168" lon="17.180301"><ele>444.57142857142856</ele><time>2026-04-25T08:20:26.597Z</time></trkpt><trkpt lat="40.8001094" lon="17.1802509"><ele>445.2857142857143</ele><time>2026-04-25T08:20:52.598Z</time></trkpt><trkpt lat="40.8000656" lon="17.1801772"><ele>446.0</ele><time>2026-04-25T08:20:57.588Z</time></trkpt><trkpt lat="40.8001351" lon="17.1802638"><ele>446.1428571428571</ele><time>2026-04-25T08:23:43.584Z</time></trkpt><trkpt lat="40.8001809" lon="17.1803336"><ele>446.2857142857143</ele><time>2026-04-25T08:23:48.615Z</time></trkpt><trkpt lat="40.8002226" lon="17.1804029"><ele>446.42857142857144</ele><time>2026-04-25T08:23:53.601Z</time></trkpt><trkpt lat="40.8002612" lon="17.1804724"><ele>446.57142857142856</ele><time>2026-04-25T08:23:58.603Z</time></trkpt><trkpt lat="40.8003037" lon="17.1805535"><ele>446.7142857142857</ele><time>2026-04-25T08:24:04.59Z</time></trkpt><trkpt lat="40.8003506" lon="17.1806203"><ele>446.85714285714283</ele><time>2026-04-25T08:24:09.597Z</time></trkpt><trkpt lat="40.8003963" lon="17.1807009"><ele>447.0</ele><time>2026-04-25T08:24:15.606Z</time></trkpt><trkpt lat="40.8004409" lon="17.1807696"><ele>447.3333333333333</ele><time>2026-04-25T08:24:21.606Z</time></trkpt><trkpt lat="40.8004838" lon="17.1808416"><ele>447.66666666666663</ele><time>2026-04-25T08:24:27.594Z</time></trkpt><trkpt lat="40.8005224" lon="17.1809141"><ele>448.0</ele><time>2026-04-25T08:24:32.595Z</time></trkpt><trkpt lat="40.8005824" lon="17.1810217"><ele>448.3333333333333</ele><time>2026-04-25T08:24:42.605Z</time></trkpt><trkpt lat="40.8006265" lon="17.1810963"><ele>448.66666666666663</ele><time>2026-04-25T08:24:47.59Z</time></trkpt><trkpt lat="40.8006812" lon="17.1811543"><ele>449.0</ele><time>2026-04-25T08:24:53.597Z</time></trkpt><trkpt lat="40.8007388" lon="17.181212"><ele>449.0</ele><time>2026-04-25T08:25:00.599Z</time></trkpt><trkpt lat="40.8007888" lon="17.1812765"><ele>448.99999999999994</ele><time>2026-04-25T08:25:06.601Z</time></trkpt><trkpt lat="40.8008419" lon="17.1813426"><ele>449.0</ele><time>2026-04-25T08:25:13.591Z</time></trkpt><trkpt lat="40.8008798" lon="17.1814126"><ele>449.0</ele><time>2026-04-25T08:25:20.597Z</time></trkpt><trkpt lat="40.8009159" lon="17.1814819"><ele>448.99999999999994</ele><time>2026-04-25T08:26:36.594Z</time></trkpt><trkpt lat="40.8009459" lon="17.1815692"><ele>449.0</ele><time>2026-04-25T08:26:39.59Z</time></trkpt><trkpt lat="40.8009716" lon="17.1816583"><ele>449.0</ele><time>2026-04-25T08:26:42.6Z</time></trkpt><trkpt lat="40.800994" lon="17.1817632"><ele>449.49999999999994</ele><time>2026-04-25T08:26:45.613Z</time></trkpt><trkpt lat="40.8010239" lon="17.1818651"><ele>450.0</ele><time>2026-04-25T08:26:48.607Z</time></trkpt><trkpt lat="40.8010624" lon="17.1819657"><ele>450.5</ele><time>2026-04-25T08:26:51.594Z</time></trkpt><trkpt lat="40.8010904" lon="17.1820746"><ele>451.0</ele><time>2026-04-25T08:26:54.597Z</time></trkpt><trkpt lat="40.801119" lon="17.1821728"><ele>451.49999999999994</ele><time>2026-04-25T08:26:57.594Z</time></trkpt><trkpt lat="40.8011418" lon="17.1822809"><ele>452.0</ele><time>2026-04-25T08:27:00.589Z</time></trkpt><trkpt lat="40.8011559" lon="17.1823849"><ele>452.16666666666663</ele><time>2026-04-25T08:27:03.598Z</time></trkpt><trkpt lat="40.8011863" lon="17.1824956"><ele>452.3333333333333</ele><time>2026-04-25T08:27:06.601Z</time></trkpt><trkpt lat="40.8012085" lon="17.1826009"><ele>452.5</ele><time>2026-04-25T08:27:09.601Z</time></trkpt><trkpt lat="40.8012371" lon="17.1827112"><ele>452.66666666666663</ele><time>2026-04-25T08:27:12.595Z</time></trkpt><trkpt lat="40.8012608" lon="17.1828253"><ele>452.8333333333333</ele><time>2026-04-25T08:27:15.601Z</time></trkpt><trkpt lat="40.8012834" lon="17.1829402"><ele>453.0</ele><time>2026-04-25T08:27:18.59Z</time></trkpt><trkpt lat="40.8013049" lon="17.1830421"><ele>453.0</ele><time>2026-04-25T08:27:21.598Z</time></trkpt><trkpt lat="40.8013289" lon="17.1831332"><ele>453.0</ele><time>2026-04-25T08:27:24.603Z</time></trkpt><trkpt lat="40.8013493" lon="17.1832301"><ele>453.0</ele><time>2026-04-25T08:27:27.594Z</time></trkpt><trkpt lat="40.8013685" lon="17.1833383"><ele>453.0</ele><time>2026-04-25T08:27:30.605Z</time></trkpt><trkpt lat="40.8013894" lon="17.1834481"><ele>453.0</ele><time>2026-04-25T08:27:33.61Z</time></trkpt><trkpt lat="40.801412" lon="17.1835466"><ele>453.0</ele><time>2026-04-25T08:27:36.591Z</time></trkpt><trkpt lat="40.8014302" lon="17.1836551"><ele>453.3333333333333</ele><time>2026-04-25T08:27:39.593Z</time></trkpt><trkpt lat="40.8014201" lon="17.1837596"><ele>453.66666666666663</ele><time>2026-04-25T08:27:42.595Z</time></trkpt><trkpt lat="40.801406" lon="17.1838514"><ele>454.0</ele><time>2026-04-25T08:27:49.593Z</time></trkpt><trkpt lat="40.8014283" lon="17.1839604"><ele>454.3333333333333</ele><time>2026-04-25T08:27:52.601Z</time></trkpt><trkpt lat="40.8014482" lon="17.1840485"><ele>454.66666666666663</ele><time>2026-04-25T08:27:55.599Z</time></trkpt><trkpt lat="40.8014615" lon="17.1841624"><ele>455.0</ele><time>2026-04-25T08:27:58.606Z</time></trkpt><trkpt lat="40.8014731" lon="17.1842781"><ele>454.99999999999994</ele><time>2026-04-25T08:28:01.597Z</time></trkpt><trkpt lat="40.8014778" lon="17.1843637"><ele>455.0</ele><time>2026-04-25T08:28:03.588Z</time></trkpt><trkpt lat="40.8014729" lon="17.1844805"><ele>455.0</ele><time>2026-04-25T08:28:06.597Z</time></trkpt><trkpt lat="40.8014819" lon="17.1846002"><ele>455.0</ele><time>2026-04-25T08:28:09.591Z</time></trkpt><trkpt lat="40.8014959" lon="17.1847179"><ele>454.99999999999994</ele><time>2026-04-25T08:28:12.602Z</time></trkpt><trkpt lat="40.8015129" lon="17.1847992"><ele>455.0</ele><time>2026-04-25T08:28:14.596Z</time></trkpt><trkpt lat="40.8015332" lon="17.1848905"><ele>455.0</ele><time>2026-04-25T08:28:16.594Z</time></trkpt><trkpt lat="40.8015623" lon="17.1849735"><ele>455.0</ele><time>2026-04-25T08:28:18.581Z</time></trkpt><trkpt lat="40.8015952" lon="17.1850515"><ele>455.0</ele><time>2026-04-25T08:28:20.602Z</time></trkpt><trkpt lat="40.8016323" lon="17.1851278"><ele>455.0</ele><time>2026-04-25T08:28:22.595Z</time></trkpt><trkpt lat="40.8016773" lon="17.1851888"><ele>455.0</ele><time>2026-04-25T08:28:24.597Z</time></trkpt><trkpt lat="40.8017228" lon="17.1852553"><ele>455.0</ele><time>2026-04-25T08:28:26.608Z</time></trkpt><trkpt lat="40.8017916" lon="17.1853286"><ele>455.0</ele><time>2026-04-25T08:28:29.591Z</time></trkpt><trkpt lat="40.8018463" lon="17.1853724"><ele>454.66666666666663</ele><time>2026-04-25T08:28:31.599Z</time></trkpt><trkpt lat="40.8019163" lon="17.1854308"><ele>454.3333333333333</ele><time>2026-04-25T08:28:33.61Z</time></trkpt><trkpt lat="40.8019745" lon="17.1854861"><ele>454.0</ele><time>2026-04-25T08:28:35.601Z</time></trkpt><trkpt lat="40.8020397" lon="17.1855758"><ele>453.66666666666663</ele><time>2026-04-25T08:28:38.595Z</time></trkpt><trkpt lat="40.8020783" lon="17.1856487"><ele>453.3333333333333</ele><time>2026-04-25T08:28:40.61Z</time></trkpt><trkpt lat="40.802115" lon="17.1857313"><ele>453.0</ele><time>2026-04-25T08:28:42.596Z</time></trkpt><trkpt lat="40.8021534" lon="17.1858373"><ele>452.5</ele><time>2026-04-25T08:28:44.594Z</time></trkpt><trkpt lat="40.8021988" lon="17.1859213"><ele>452.0</ele><time>2026-04-25T08:28:46.604Z</time></trkpt><trkpt lat="40.8022519" lon="17.1860098"><ele>451.5</ele><time>2026-04-25T08:28:48.596Z</time></trkpt><trkpt lat="40.8023173" lon="17.1860656"><ele>451.0</ele><time>2026-04-25T08:28:50.598Z</time></trkpt><trkpt lat="40.8023802" lon="17.1861332"><ele>450.5</ele><time>2026-04-25T08:28:52.602Z</time></trkpt><trkpt lat="40.8024339" lon="17.186197"><ele>450.0</ele><time>2026-04-25T08:28:54.597Z</time></trkpt><trkpt lat="40.8024879" lon="17.1862817"><ele>450.0</ele><time>2026-04-25T08:28:57.594Z</time></trkpt><trkpt lat="40.8025443" lon="17.1863719"><ele>450.0</ele><time>2026-04-25T08:29:00.592Z</time></trkpt><trkpt lat="40.80258" lon="17.186446"><ele>450.0</ele><time>2026-04-25T08:29:02.593Z</time></trkpt><trkpt lat="40.8026284" lon="17.1865396"><ele>450.0</ele><time>2026-04-25T08:29:05.598Z</time></trkpt><trkpt lat="40.8026792" lon="17.1866251"><ele>450.0</ele><time>2026-04-25T08:29:08.589Z</time></trkpt><trkpt lat="40.8027305" lon="17.186695"><ele>450.0</ele><time>2026-04-25T08:29:11.617Z</time></trkpt><trkpt lat="40.8027851" lon="17.1867654"><ele>449.1666666666667</ele><time>2026-04-25T08:29:14.6Z</time></trkpt><trkpt lat="40.8028256" lon="17.1868521"><ele>448.33333333333337</ele><time>2026-04-25T08:29:17.591Z</time></trkpt><trkpt lat="40.8028517" lon="17.1869454"><ele>447.5</ele><time>2026-04-25T08:29:20.604Z</time></trkpt><trkpt lat="40.8028751" lon="17.1870242"><ele>446.6666666666667</ele><time>2026-04-25T08:29:23.586Z</time></trkpt><trkpt lat="40.8029023" lon="17.1871119"><ele>445.83333333333337</ele><time>2026-04-25T08:29:26.586Z</time></trkpt><trkpt lat="40.8029381" lon="17.1872138"><ele>445.0</ele><time>2026-04-25T08:29:29.589Z</time></trkpt><trkpt lat="40.8029738" lon="17.1873155"><ele>444.1666666666667</ele><time>2026-04-25T08:29:32.594Z</time></trkpt><trkpt lat="40.8029924" lon="17.1873976"><ele>443.33333333333337</ele><time>2026-04-25T08:29:34.596Z</time></trkpt><trkpt lat="40.8030187" lon="17.1874934"><ele>442.5</ele><time>2026-04-25T08:29:37.576Z</time></trkpt><trkpt lat="40.8030416" lon="17.1875973"><ele>441.66666666666663</ele><time>2026-04-25T08:29:40.589Z</time></trkpt><trkpt lat="40.8030664" lon="17.1877219"><ele>440.8333333333333</ele><time>2026-04-25T08:29:43.599Z</time></trkpt><trkpt lat="40.8030606" lon="17.1878402"><ele>440.0</ele><time>2026-04-25T08:29:45.596Z</time></trkpt><trkpt lat="40.8030738" lon="17.1879671"><ele>439.99999999999994</ele><time>2026-04-25T08:29:47.598Z</time></trkpt><trkpt lat="40.8030955" lon="17.1880643"><ele>440.0</ele><time>2026-04-25T08:29:49.592Z</time></trkpt><trkpt lat="40.8031167" lon="17.1881584"><ele>440.0</ele><time>2026-04-25T08:29:51.601Z</time></trkpt><trkpt lat="40.8031371" lon="17.18825"><ele>440.0</ele><time>2026-04-25T08:29:53.608Z</time></trkpt><trkpt lat="40.8031556" lon="17.1883398"><ele>439.99999999999994</ele><time>2026-04-25T08:29:56.606Z</time></trkpt><trkpt lat="40.8032028" lon="17.1883991"><ele>440.0</ele><time>2026-04-25T08:31:06.596Z</time></trkpt><trkpt lat="40.8034647" lon="17.1893557"><ele>439.99999999999994</ele><time>2026-04-25T08:33:27.565Z</time></trkpt><trkpt lat="40.803486" lon="17.1894344"><ele>440.0</ele><time>2026-04-25T08:33:37.594Z</time></trkpt><trkpt lat="40.8034857" lon="17.1895416"><ele>440.0</ele><time>2026-04-25T08:34:00.585Z</time></trkpt><trkpt lat="40.8035092" lon="17.1896266"><ele>440.0</ele><time>2026-04-25T08:35:59.589Z</time></trkpt><trkpt lat="40.803541" lon="17.1897012"><ele>440.0</ele><time>2026-04-25T08:36:08.586Z</time></trkpt><trkpt lat="40.8035499" lon="17.1897903"><ele>439.99999999999994</ele><time>2026-04-25T08:36:20.594Z</time></trkpt><trkpt lat="40.8035711" lon="17.1898699"><ele>440.0</ele><time>2026-04-25T08:36:31.587Z</time></trkpt><trkpt lat="40.8036071" lon="17.1899495"><ele>439.99999999999994</ele><time>2026-04-25T08:36:43.606Z</time></trkpt><trkpt lat="40.8036328" lon="17.1900265"><ele>440.0</ele><time>2026-04-25T08:36:51.587Z</time></trkpt><trkpt lat="40.8036546" lon="17.1901102"><ele>440.0</ele><time>2026-04-25T08:37:07.586Z</time></trkpt><trkpt lat="40.8036737" lon="17.1901949"><ele>440.0</ele><time>2026-04-25T08:37:15.589Z</time></trkpt><trkpt lat="40.8036986" lon="17.1902719"><ele>440.0</ele><time>2026-04-25T08:37:46.599Z</time></trkpt><trkpt lat="40.8036889" lon="17.1903612"><ele>439.99999999999994</ele><time>2026-04-25T08:38:08.6Z</time></trkpt><trkpt lat="40.8036625" lon="17.1904386"><ele>440.0</ele><time>2026-04-25T08:38:17.589Z</time></trkpt><trkpt lat="40.8036232" lon="17.1905074"><ele>440.0</ele><time>2026-04-25T08:38:25.596Z</time></trkpt><trkpt lat="40.8035918" lon="17.1905903"><ele>440.0</ele><time>2026-04-25T08:38:51.594Z</time></trkpt><trkpt lat="40.8035537" lon="17.1906618"><ele>440.0</ele><time>2026-04-25T08:39:04.587Z</time></trkpt><trkpt lat="40.8035411" lon="17.1909734"><ele>440.0</ele><time>2026-04-25T08:41:15.599Z</time></trkpt><trkpt lat="40.8036298" lon="17.1910319"><ele>439.1428571428571</ele><time>2026-04-25T08:41:24.594Z</time></trkpt><trkpt lat="40.8036899" lon="17.1910731"><ele>438.2857142857143</ele><time>2026-04-25T08:41:29.597Z</time></trkpt><trkpt lat="40.8037244" lon="17.1911647"><ele>437.42857142857144</ele><time>2026-04-25T08:41:34.586Z</time></trkpt><trkpt lat="40.8037138" lon="17.1912627"><ele>436.57142857142856</ele><time>2026-04-25T08:41:38.609Z</time></trkpt><trkpt lat="40.8037067" lon="17.1913623"><ele>435.7142857142857</ele><time>2026-04-25T08:41:44.591Z</time></trkpt><trkpt lat="40.8037087" lon="17.1914566"><ele>434.85714285714283</ele><time>2026-04-25T08:41:50.592Z</time></trkpt><trkpt lat="40.8037096" lon="17.1915506"><ele>434.0</ele><time>2026-04-25T08:41:54.597Z</time></trkpt><trkpt lat="40.8037157" lon="17.1916401"><ele>433.2857142857143</ele><time>2026-04-25T08:42:01.592Z</time></trkpt><trkpt lat="40.8037158" lon="17.1917288"><ele>432.57142857142856</ele><time>2026-04-25T08:42:06.603Z</time></trkpt><trkpt lat="40.8037047" lon="17.1918389"><ele>431.8571428571429</ele><time>2026-04-25T08:42:09.59Z</time></trkpt><trkpt lat="40.8036998" lon="17.1919228"><ele>431.1428571428571</ele><time>2026-04-25T08:42:12.593Z</time></trkpt><trkpt lat="40.8036851" lon="17.1920068"><ele>430.42857142857144</ele><time>2026-04-25T08:42:14.591Z</time></trkpt><trkpt lat="40.8037047" lon="17.1920885"><ele>429.7142857142857</ele><time>2026-04-25T08:42:18.591Z</time></trkpt><trkpt lat="40.8037431" lon="17.1921674"><ele>429.0</ele><time>2026-04-25T08:42:23.579Z</time></trkpt><trkpt lat="40.803779" lon="17.1922453"><ele>429.0</ele><time>2026-04-25T08:42:25.584Z</time></trkpt><trkpt lat="40.8038184" lon="17.1923334"><ele>429.0</ele><time>2026-04-25T08:42:30.588Z</time></trkpt><trkpt lat="40.803876" lon="17.1924007"><ele>429.0</ele><time>2026-04-25T08:42:33.584Z</time></trkpt><trkpt lat="40.803925" lon="17.1924793"><ele>429.0</ele><time>2026-04-25T08:42:38.588Z</time></trkpt><trkpt lat="40.8039664" lon="17.1925522"><ele>429.0</ele><time>2026-04-25T08:42:43.596Z</time></trkpt><trkpt lat="40.8040094" lon="17.1926202"><ele>429.0</ele><time>2026-04-25T08:42:46.594Z</time></trkpt><trkpt lat="40.8040565" lon="17.1926899"><ele>429.0</ele><time>2026-04-25T08:42:52.6Z</time></trkpt><trkpt lat="40.8040597" lon="17.1927754"><ele>428.7142857142857</ele><time>2026-04-25T08:42:57.583Z</time></trkpt><trkpt lat="40.8040729" lon="17.1928571"><ele>428.42857142857144</ele><time>2026-04-25T08:43:02.591Z</time></trkpt><trkpt lat="40.804073" lon="17.1929418"><ele>428.1428571428571</ele><time>2026-04-25T08:43:13.579Z</time></trkpt><trkpt lat="40.8040601" lon="17.1930258"><ele>427.8571428571429</ele><time>2026-04-25T08:43:21.581Z</time></trkpt><trkpt lat="40.8040888" lon="17.1931067"><ele>427.57142857142856</ele><time>2026-04-25T08:43:26.594Z</time></trkpt><trkpt lat="40.8041087" lon="17.1931948"><ele>427.2857142857143</ele><time>2026-04-25T08:43:33.572Z</time></trkpt><trkpt lat="40.8041111" lon="17.1932859"><ele>427.0</ele><time>2026-04-25T08:43:43.585Z</time></trkpt><trkpt lat="40.8041014" lon="17.1933755"><ele>426.85714285714283</ele><time>2026-04-25T08:43:52.589Z</time></trkpt><trkpt lat="40.804124" lon="17.1934551"><ele>426.7142857142857</ele><time>2026-04-25T08:44:03.598Z</time></trkpt><trkpt lat="40.8042028" lon="17.1934433"><ele>426.57142857142856</ele><time>2026-04-25T08:46:24.575Z</time></trkpt><trkpt lat="40.8042751" lon="17.1934673"><ele>426.42857142857144</ele><time>2026-04-25T08:46:29.592Z</time></trkpt><trkpt lat="40.8043381" lon="17.1934909"><ele>426.2857142857143</ele><time>2026-04-25T08:46:34.59Z</time></trkpt><trkpt lat="40.8044036" lon="17.1935211"><ele>426.1428571428571</ele><time>2026-04-25T08:46:37.601Z</time></trkpt><trkpt lat="40.8044856" lon="17.1935455"><ele>426.0</ele><time>2026-04-25T08:46:40.602Z</time></trkpt><trkpt lat="40.804555" lon="17.1935563"><ele>425.99999999999994</ele><time>2026-04-25T08:46:43.623Z</time></trkpt><trkpt lat="40.8046211" lon="17.193565"><ele>426.0</ele><time>2026-04-25T08:46:46.584Z</time></trkpt><trkpt lat="40.8046861" lon="17.1935885"><ele>426.0</ele><time>2026-04-25T08:46:52.604Z</time></trkpt><trkpt lat="40.8047484" lon="17.1936163"><ele>426.0</ele><time>2026-04-25T08:47:13.591Z</time></trkpt><trkpt lat="40.8048114" lon="17.1936164"><ele>426.0</ele><time>2026-04-25T08:47:16.596Z</time></trkpt><trkpt lat="40.8048693" lon="17.1935829"><ele>425.99999999999994</ele><time>2026-04-25T08:47:19.595Z</time></trkpt><trkpt lat="40.804929" lon="17.1935319"><ele>426.0</ele><time>2026-04-25T08:47:23.611Z</time></trkpt><trkpt lat="40.8049768" lon="17.1934655"><ele>426.0</ele><time>2026-04-25T08:47:27.599Z</time></trkpt><trkpt lat="40.8049874" lon="17.1933678"><ele>426.0</ele><time>2026-04-25T08:47:32.603Z</time></trkpt><trkpt lat="40.805029" lon="17.1932955"><ele>426.0</ele><time>2026-04-25T08:47:35.615Z</time></trkpt><trkpt lat="40.8050787" lon="17.1932197"><ele>426.0</ele><time>2026-04-25T08:47:38.638Z</time></trkpt><trkpt lat="40.805049" lon="17.1933671"><ele>426.0</ele><time>2026-04-25T08:48:04.62Z</time></trkpt><trkpt lat="40.8051645" lon="17.1934034"><ele>425.8</ele><time>2026-04-25T08:48:08.626Z</time></trkpt><trkpt lat="40.8052304" lon="17.193435"><ele>425.6</ele><time>2026-04-25T08:48:10.607Z</time></trkpt><trkpt lat="40.8053235" lon="17.1934619"><ele>425.4</ele><time>2026-04-25T08:48:12.614Z</time></trkpt><trkpt lat="40.8054519" lon="17.1935097"><ele>425.2</ele><time>2026-04-25T08:48:15.605Z</time></trkpt><trkpt lat="40.8055266" lon="17.1935448"><ele>425.0</ele><time>2026-04-25T08:48:17.744Z</time></trkpt><trkpt lat="40.8055925" lon="17.1935924"><ele>424.99999999999994</ele><time>2026-04-25T08:48:20.616Z</time></trkpt><trkpt lat="40.8056652" lon="17.1936263"><ele>425.0</ele><time>2026-04-25T08:48:30.792Z</time></trkpt><trkpt lat="40.8057503" lon="17.193652"><ele>425.0</ele><time>2026-04-25T08:48:33.758Z</time></trkpt><trkpt lat="40.8058234" lon="17.1936836"><ele>425.0</ele><time>2026-04-25T08:48:36.623Z</time></trkpt><trkpt lat="40.8059041" lon="17.1937308"><ele>424.99999999999994</ele><time>2026-04-25T08:48:39.601Z</time></trkpt><trkpt lat="40.8059537" lon="17.1937855"><ele>425.0</ele><time>2026-04-25T08:48:41.602Z</time></trkpt><trkpt lat="40.8059916" lon="17.1938873"><ele>424.99999999999994</ele><time>2026-04-25T08:48:44.599Z</time></trkpt><trkpt lat="40.8060282" lon="17.1939846"><ele>425.0</ele><time>2026-04-25T08:48:48.613Z</time></trkpt><trkpt lat="40.8059969" lon="17.1940783"><ele>425.0</ele><time>2026-04-25T08:48:51.573Z</time></trkpt><trkpt lat="40.8059091" lon="17.1941625"><ele>425.0</ele><time>2026-04-25T08:48:53.589Z</time></trkpt><trkpt lat="40.8058457" lon="17.1942053"><ele>424.99999999999994</ele><time>2026-04-25T08:48:54.592Z</time></trkpt><trkpt lat="40.8057858" lon="17.1942607"><ele>425.0</ele><time>2026-04-25T08:48:55.61Z</time></trkpt><trkpt lat="40.8057306" lon="17.1943161"><ele>423.49999999999994</ele><time>2026-04-25T08:48:56.599Z</time></trkpt><trkpt lat="40.8056722" lon="17.1943783"><ele>422.0</ele><time>2026-04-25T08:48:57.593Z</time></trkpt><trkpt lat="40.8056084" lon="17.1944421"><ele>420.5</ele><time>2026-04-25T08:48:58.622Z</time></trkpt><trkpt lat="40.8055403" lon="17.1945109"><ele>419.0</ele><time>2026-04-25T08:48:59.61Z</time></trkpt><trkpt lat="40.8054733" lon="17.1945891"><ele>417.49999999999994</ele><time>2026-04-25T08:49:00.601Z</time></trkpt><trkpt lat="40.8054084" lon="17.1946766"><ele>416.0</ele><time>2026-04-25T08:49:01.599Z</time></trkpt><trkpt lat="40.8053475" lon="17.1947731"><ele>415.6</ele><time>2026-04-25T08:49:02.604Z</time></trkpt><trkpt lat="40.8052863" lon="17.1948774"><ele>415.20000000000005</ele><time>2026-04-25T08:49:03.627Z</time></trkpt><trkpt lat="40.8052293" lon="17.1949863"><ele>414.79999999999995</ele><time>2026-04-25T08:49:04.665Z</time></trkpt><trkpt lat="40.8051785" lon="17.195092"><ele>414.4</ele><time>2026-04-25T08:49:05.631Z</time></trkpt><trkpt lat="40.8051248" lon="17.1952018"><ele>414.0</ele><time>2026-04-25T08:49:06.65Z</time></trkpt><trkpt lat="40.805075" lon="17.195308"><ele>413.1666666666667</ele><time>2026-04-25T08:49:07.599Z</time></trkpt><trkpt lat="40.8050292" lon="17.1954137"><ele>412.33333333333337</ele><time>2026-04-25T08:49:08.644Z</time></trkpt><trkpt lat="40.8049874" lon="17.195522"><ele>411.5</ele><time>2026-04-25T08:49:09.625Z</time></trkpt><trkpt lat="40.80495" lon="17.1956259"><ele>410.6666666666667</ele><time>2026-04-25T08:49:10.639Z</time></trkpt><trkpt lat="40.8049176" lon="17.1957294"><ele>409.83333333333337</ele><time>2026-04-25T08:49:11.639Z</time></trkpt><trkpt lat="40.8048975" lon="17.1958367"><ele>409.0</ele><time>2026-04-25T08:49:12.645Z</time></trkpt><trkpt lat="40.8048934" lon="17.1959556"><ele>407.4</ele><time>2026-04-25T08:49:13.615Z</time></trkpt><trkpt lat="40.8048868" lon="17.1960877"><ele>405.79999999999995</ele><time>2026-04-25T08:49:14.591Z</time></trkpt><trkpt lat="40.8048775" lon="17.1962169"><ele>404.20000000000005</ele><time>2026-04-25T08:49:15.596Z</time></trkpt><trkpt lat="40.804867" lon="17.1963524"><ele>402.6</ele><time>2026-04-25T08:49:16.613Z</time></trkpt><trkpt lat="40.8048656" lon="17.196486"><ele>401.0</ele><time>2026-04-25T08:49:17.588Z</time></trkpt><trkpt lat="40.8048624" lon="17.1966123"><ele>399.20000000000005</ele><time>2026-04-25T08:49:18.621Z</time></trkpt><trkpt lat="40.8048586" lon="17.1967352"><ele>397.40000000000003</ele><time>2026-04-25T08:49:19.626Z</time></trkpt><trkpt lat="40.8048625" lon="17.1968526"><ele>395.6</ele><time>2026-04-25T08:49:20.647Z</time></trkpt><trkpt lat="40.8048767" lon="17.1969632"><ele>393.8</ele><time>2026-04-25T08:49:21.639Z</time></trkpt><trkpt lat="40.8049" lon="17.1970777"><ele>392.0</ele><time>2026-04-25T08:49:22.624Z</time></trkpt><trkpt lat="40.804929" lon="17.1971948"><ele>391.99999999999994</ele><time>2026-04-25T08:49:23.614Z</time></trkpt><trkpt lat="40.8049581" lon="17.1973009"><ele>392.0</ele><time>2026-04-25T08:49:24.604Z</time></trkpt><trkpt lat="40.8049852" lon="17.1974102"><ele>392.0</ele><time>2026-04-25T08:49:25.585Z</time></trkpt><trkpt lat="40.8050136" lon="17.1975275"><ele>392.0</ele><time>2026-04-25T08:49:26.602Z</time></trkpt><trkpt lat="40.8050427" lon="17.1976386"><ele>391.99999999999994</ele><time>2026-04-25T08:49:27.584Z</time></trkpt><trkpt lat="40.8050769" lon="17.1977496"><ele>392.0</ele><time>2026-04-25T08:49:28.593Z</time></trkpt><trkpt lat="40.8051145" lon="17.1978588"><ele>391.40000000000003</ele><time>2026-04-25T08:49:29.601Z</time></trkpt><trkpt lat="40.8051566" lon="17.1979691"><ele>390.8</ele><time>2026-04-25T08:49:30.578Z</time></trkpt><trkpt lat="40.8051991" lon="17.1980826"><ele>390.2</ele><time>2026-04-25T08:49:31.617Z</time></trkpt><trkpt lat="40.8052453" lon="17.1982019"><ele>389.6</ele><time>2026-04-25T08:49:32.618Z</time></trkpt><trkpt lat="40.8052912" lon="17.1983223"><ele>389.0</ele><time>2026-04-25T08:49:33.62Z</time></trkpt><trkpt lat="40.8053357" lon="17.1984403"><ele>387.2</ele><time>2026-04-25T08:49:34.622Z</time></trkpt><trkpt lat="40.8053826" lon="17.19856"><ele>385.4</ele><time>2026-04-25T08:49:35.613Z</time></trkpt><trkpt lat="40.8054326" lon="17.1986814"><ele>383.6</ele><time>2026-04-25T08:49:36.611Z</time></trkpt><trkpt lat="40.8054843" lon="17.1988036"><ele>381.8</ele><time>2026-04-25T08:49:37.634Z</time></trkpt><trkpt lat="40.8055337" lon="17.198926"><ele>380.0</ele><time>2026-04-25T08:49:38.634Z</time></trkpt><trkpt lat="40.8055819" lon="17.1990456"><ele>380.0</ele><time>2026-04-25T08:49:39.638Z</time></trkpt><trkpt lat="40.8056233" lon="17.1991444"><ele>380.0</ele><time>2026-04-25T08:49:40.634Z</time></trkpt><trkpt lat="40.8056584" lon="17.1992363"><ele>380.0</ele><time>2026-04-25T08:49:41.64Z</time></trkpt><trkpt lat="40.8056921" lon="17.1993234"><ele>380.0</ele><time>2026-04-25T08:49:42.636Z</time></trkpt><trkpt lat="40.8057296" lon="17.1994111"><ele>380.0</ele><time>2026-04-25T08:49:43.636Z</time></trkpt><trkpt lat="40.8057754" lon="17.199528"><ele>380.0</ele><time>2026-04-25T08:49:45.609Z</time></trkpt><trkpt lat="40.805753" lon="17.1996298"><ele>380.0</ele><time>2026-04-25T08:49:47.627Z</time></trkpt><trkpt lat="40.8056889" lon="17.1997042"><ele>380.0</ele><time>2026-04-25T08:49:49.623Z</time></trkpt><trkpt lat="40.8056135" lon="17.1997444"><ele>380.0</ele><time>2026-04-25T08:49:51.58Z</time></trkpt><trkpt lat="40.8055349" lon="17.199763"><ele>380.0</ele><time>2026-04-25T08:49:53.622Z</time></trkpt><trkpt lat="40.8054616" lon="17.1997518"><ele>380.0</ele><time>2026-04-25T08:49:55.614Z</time></trkpt><trkpt lat="40.8053955" lon="17.1997203"><ele>380.0</ele><time>2026-04-25T08:49:57.617Z</time></trkpt><trkpt lat="40.8053357" lon="17.1996862"><ele>380.0</ele><time>2026-04-25T08:49:59.629Z</time></trkpt><trkpt lat="40.8052642" lon="17.1996449"><ele>380.0</ele><time>2026-04-25T08:50:02.63Z</time></trkpt><trkpt lat="40.8051996" lon="17.1996527"><ele>380.0</ele><time>2026-04-25T08:50:05.612Z</time></trkpt><trkpt lat="40.8051461" lon="17.1997041"><ele>380.0</ele><time>2026-04-25T08:50:52.629Z</time></trkpt><trkpt lat="40.8051165" lon="17.1997965"><ele>380.0</ele><time>2026-04-25T08:50:55.608Z</time></trkpt><trkpt lat="40.8051172" lon="17.19988"><ele>380.0</ele><time>2026-04-25T08:50:57.581Z</time></trkpt><trkpt lat="40.805116" lon="17.1999904"><ele>380.0</ele><time>2026-04-25T08:51:00.626Z</time></trkpt><trkpt lat="40.8051091" lon="17.2000743"><ele>380.83333333333337</ele><time>2026-04-25T08:51:02.592Z</time></trkpt><trkpt lat="40.8050834" lon="17.2001913"><ele>381.6666666666667</ele><time>2026-04-25T08:51:05.617Z</time></trkpt><trkpt lat="40.8050473" lon="17.2003047"><ele>382.5</ele><time>2026-04-25T08:51:08.612Z</time></trkpt><trkpt lat="40.8050074" lon="17.2004141"><ele>383.33333333333337</ele><time>2026-04-25T08:51:11.602Z</time></trkpt><trkpt lat="40.8049579" lon="17.2005113"><ele>384.1666666666667</ele><time>2026-04-25T08:51:14.633Z</time></trkpt><trkpt lat="40.8049075" lon="17.2005945"><ele>385.0</ele><time>2026-04-25T08:51:17.615Z</time></trkpt><trkpt lat="40.8049063" lon="17.2006839"><ele>385.6666666666667</ele><time>2026-04-25T08:52:13.575Z</time></trkpt><trkpt lat="40.8048741" lon="17.2007861"><ele>386.33333333333337</ele><time>2026-04-25T08:52:17.585Z</time></trkpt><trkpt lat="40.8048538" lon="17.2008726"><ele>387.0</ele><time>2026-04-25T08:52:20.572Z</time></trkpt><trkpt lat="40.804851" lon="17.200956"><ele>387.66666666666663</ele><time>2026-04-25T08:52:23.576Z</time></trkpt><trkpt lat="40.8048805" lon="17.2010411"><ele>388.3333333333333</ele><time>2026-04-25T08:52:26.609Z</time></trkpt><trkpt lat="40.8049135" lon="17.201144"><ele>389.0</ele><time>2026-04-25T08:52:29.602Z</time></trkpt><trkpt lat="40.8049531" lon="17.2012494"><ele>388.99999999999994</ele><time>2026-04-25T08:52:32.604Z</time></trkpt><trkpt lat="40.8049772" lon="17.2013571"><ele>389.0</ele><time>2026-04-25T08:52:35.618Z</time></trkpt><trkpt lat="40.8049317" lon="17.201446"><ele>389.0</ele><time>2026-04-25T08:52:38.572Z</time></trkpt><trkpt lat="40.8048538" lon="17.2014553"><ele>389.0</ele><time>2026-04-25T08:52:41.588Z</time></trkpt><trkpt lat="40.8047769" lon="17.2014521"><ele>388.99999999999994</ele><time>2026-04-25T08:52:44.615Z</time></trkpt><trkpt lat="40.8047035" lon="17.2014555"><ele>389.0</ele><time>2026-04-25T08:52:47.62Z</time></trkpt><trkpt lat="40.8046343" lon="17.201467"><ele>389.0</ele><time>2026-04-25T08:52:50.609Z</time></trkpt><trkpt lat="40.8045718" lon="17.2014884"><ele>389.0</ele><time>2026-04-25T08:52:53.618Z</time></trkpt><trkpt lat="40.8045142" lon="17.2015229"><ele>389.0</ele><time>2026-04-25T08:52:56.609Z</time></trkpt><trkpt lat="40.8044445" lon="17.2015679"><ele>389.0</ele><time>2026-04-25T08:53:00.594Z</time></trkpt><trkpt lat="40.8043766" lon="17.2015529"><ele>389.0</ele><time>2026-04-25T08:54:15.616Z</time></trkpt><trkpt lat="40.8043402" lon="17.2018216"><ele>389.5714285714286</ele><time>2026-04-25T09:02:45.584Z</time></trkpt><trkpt lat="40.8043215" lon="17.2019159"><ele>390.1428571428571</ele><time>2026-04-25T09:02:48.585Z</time></trkpt><trkpt lat="40.8043095" lon="17.2020162"><ele>390.7142857142857</ele><time>2026-04-25T09:02:51.593Z</time></trkpt><trkpt lat="40.804301" lon="17.2021101"><ele>391.28571428571433</ele><time>2026-04-25T09:02:54.593Z</time></trkpt><trkpt lat="40.8043024" lon="17.2022197"><ele>391.8571428571429</ele><time>2026-04-25T09:02:57.571Z</time></trkpt><trkpt lat="40.8042906" lon="17.2023066"><ele>392.42857142857144</ele><time>2026-04-25T09:03:00.601Z</time></trkpt><trkpt lat="40.8042822" lon="17.2023966"><ele>393.0</ele><time>2026-04-25T09:03:03.58Z</time></trkpt><trkpt lat="40.8042797" lon="17.2024976"><ele>392.8571428571429</ele><time>2026-04-25T09:03:06.594Z</time></trkpt><trkpt lat="40.8042804" lon="17.2025878"><ele>392.7142857142857</ele><time>2026-04-25T09:03:09.588Z</time></trkpt><trkpt lat="40.8042878" lon="17.2026807"><ele>392.57142857142856</ele><time>2026-04-25T09:03:12.587Z</time></trkpt><trkpt lat="40.8042909" lon="17.2027761"><ele>392.42857142857144</ele><time>2026-04-25T09:03:15.592Z</time></trkpt><trkpt lat="40.8043015" lon="17.2028661"><ele>392.2857142857143</ele><time>2026-04-25T09:03:18.584Z</time></trkpt><trkpt lat="40.8043218" lon="17.2029565"><ele>392.14285714285717</ele><time>2026-04-25T09:03:21.602Z</time></trkpt><trkpt lat="40.8043364" lon="17.2030396"><ele>392.0</ele><time>2026-04-25T09:03:24.599Z</time></trkpt><trkpt lat="40.804365" lon="17.2031408"><ele>392.14285714285717</ele><time>2026-04-25T09:03:28.608Z</time></trkpt><trkpt lat="40.8043865" lon="17.2032223"><ele>392.2857142857143</ele><time>2026-04-25T09:03:31.583Z</time></trkpt><trkpt lat="40.8044148" lon="17.2033101"><ele>392.42857142857144</ele><time>2026-04-25T09:03:34.587Z</time></trkpt><trkpt lat="40.8044367" lon="17.2034066"><ele>392.57142857142856</ele><time>2026-04-25T09:03:37.59Z</time></trkpt><trkpt lat="40.8044486" lon="17.2034916"><ele>392.7142857142857</ele><time>2026-04-25T09:03:39.594Z</time></trkpt><trkpt lat="40.8044771" lon="17.203584"><ele>392.8571428571429</ele><time>2026-04-25T09:03:41.59Z</time></trkpt><trkpt lat="40.8045228" lon="17.2036798"><ele>393.0</ele><time>2026-04-25T09:03:43.602Z</time></trkpt><trkpt lat="40.8045423" lon="17.2037829"><ele>393.00000000000006</ele><time>2026-04-25T09:03:45.577Z</time></trkpt><trkpt lat="40.8045449" lon="17.2038821"><ele>393.0</ele><time>2026-04-25T09:03:47.594Z</time></trkpt><trkpt lat="40.8045382" lon="17.2039787"><ele>393.0</ele><time>2026-04-25T09:03:49.589Z</time></trkpt><trkpt lat="40.8045317" lon="17.2040742"><ele>393.0</ele><time>2026-04-25T09:03:51.57Z</time></trkpt><trkpt lat="40.8045206" lon="17.2041779"><ele>393.0</ele><time>2026-04-25T09:03:53.592Z</time></trkpt><trkpt lat="40.8045122" lon="17.2042673"><ele>393.00000000000006</ele><time>2026-04-25T09:03:55.593Z</time></trkpt><trkpt lat="40.8045092" lon="17.2043614"><ele>393.0</ele><time>2026-04-25T09:03:57.591Z</time></trkpt><trkpt lat="40.8045152" lon="17.2044816"><ele>392.59999999999997</ele><time>2026-04-25T09:03:59.593Z</time></trkpt><trkpt lat="40.8045169" lon="17.2046236"><ele>392.2</ele><time>2026-04-25T09:04:01.579Z</time></trkpt><trkpt lat="40.8045186" lon="17.2047561"><ele>391.8</ele><time>2026-04-25T09:04:03.581Z</time></trkpt><trkpt lat="40.8045107" lon="17.2048924"><ele>391.4</ele><time>2026-04-25T09:04:05.584Z</time></trkpt><trkpt lat="40.8044964" lon="17.205016"><ele>391.0</ele><time>2026-04-25T09:04:07.591Z</time></trkpt><trkpt lat="40.8044892" lon="17.2051391"><ele>390.33333333333337</ele><time>2026-04-25T09:04:09.598Z</time></trkpt><trkpt lat="40.8044814" lon="17.2052522"><ele>389.6666666666667</ele><time>2026-04-25T09:04:11.595Z</time></trkpt><trkpt lat="40.8044777" lon="17.2053557"><ele>389.0</ele><time>2026-04-25T09:04:13.568Z</time></trkpt><trkpt lat="40.8044708" lon="17.2054458"><ele>388.33333333333337</ele><time>2026-04-25T09:04:15.579Z</time></trkpt><trkpt lat="40.8044539" lon="17.2055349"><ele>387.6666666666667</ele><time>2026-04-25T09:04:17.581Z</time></trkpt><trkpt lat="40.8044327" lon="17.2056611"><ele>387.0</ele><time>2026-04-25T09:04:20.586Z</time></trkpt><trkpt lat="40.8043981" lon="17.205764"><ele>386.40000000000003</ele><time>2026-04-25T09:04:22.587Z</time></trkpt><trkpt lat="40.8043659" lon="17.2058772"><ele>385.8</ele><time>2026-04-25T09:04:24.589Z</time></trkpt><trkpt lat="40.8043368" lon="17.2060004"><ele>385.2</ele><time>2026-04-25T09:04:26.583Z</time></trkpt><trkpt lat="40.8043198" lon="17.2061275"><ele>384.6</ele><time>2026-04-25T09:04:28.58Z</time></trkpt><trkpt lat="40.8042823" lon="17.2062474"><ele>384.0</ele><time>2026-04-25T09:04:30.599Z</time></trkpt><trkpt lat="40.8042214" lon="17.2063472"><ele>385.4</ele><time>2026-04-25T09:04:32.592Z</time></trkpt><trkpt lat="40.804166" lon="17.206463"><ele>386.79999999999995</ele><time>2026-04-25T09:04:34.587Z</time></trkpt><trkpt lat="40.8041289" lon="17.2065908"><ele>388.20000000000005</ele><time>2026-04-25T09:04:36.583Z</time></trkpt><trkpt lat="40.8041214" lon="17.2067053"><ele>389.6</ele><time>2026-04-25T09:04:38.591Z</time></trkpt><trkpt lat="40.8041422" lon="17.2068182"><ele>391.0</ele><time>2026-04-25T09:04:40.586Z</time></trkpt><trkpt lat="40.8041598" lon="17.2069565"><ele>391.0</ele><time>2026-04-25T09:04:42.582Z</time></trkpt><trkpt lat="40.8041646" lon="17.2070973"><ele>391.0</ele><time>2026-04-25T09:04:44.601Z</time></trkpt><trkpt lat="40.8041496" lon="17.2072264"><ele>391.0</ele><time>2026-04-25T09:04:46.587Z</time></trkpt><trkpt lat="40.8041218" lon="17.2073524"><ele>391.0</ele><time>2026-04-25T09:04:48.595Z</time></trkpt><trkpt lat="40.8040868" lon="17.207453"><ele>391.0</ele><time>2026-04-25T09:04:50.59Z</time></trkpt><trkpt lat="40.8040433" lon="17.2075242"><ele>390.50000000000006</ele><time>2026-04-25T09:04:52.584Z</time></trkpt><trkpt lat="40.8040028" lon="17.2076016"><ele>390.0</ele><time>2026-04-25T09:04:54.58Z</time></trkpt><trkpt lat="40.8039604" lon="17.2076846"><ele>389.5</ele><time>2026-04-25T09:04:56.589Z</time></trkpt><trkpt lat="40.8039202" lon="17.2077656"><ele>389.0</ele><time>2026-04-25T09:04:58.608Z</time></trkpt><trkpt lat="40.8038839" lon="17.2078553"><ele>388.50000000000006</ele><time>2026-04-25T09:05:00.595Z</time></trkpt><trkpt lat="40.8038488" lon="17.2079487"><ele>388.0</ele><time>2026-04-25T09:05:02.601Z</time></trkpt><trkpt lat="40.8038025" lon="17.2080361"><ele>388.0</ele><time>2026-04-25T09:05:04.577Z</time></trkpt><trkpt lat="40.8037608" lon="17.2081185"><ele>388.0</ele><time>2026-04-25T09:05:06.579Z</time></trkpt><trkpt lat="40.8037226" lon="17.2082024"><ele>388.0</ele><time>2026-04-25T09:05:08.591Z</time></trkpt><trkpt lat="40.803675" lon="17.2082707"><ele>388.0</ele><time>2026-04-25T09:05:10.595Z</time></trkpt><trkpt lat="40.8036261" lon="17.2083367"><ele>388.0</ele><time>2026-04-25T09:05:12.583Z</time></trkpt><trkpt lat="40.8035897" lon="17.2084142"><ele>388.0</ele><time>2026-04-25T09:05:14.604Z</time></trkpt><trkpt lat="40.8035524" lon="17.2084827"><ele>388.0</ele><time>2026-04-25T09:05:16.591Z</time></trkpt><trkpt lat="40.8034986" lon="17.2085812"><ele>388.4285714285714</ele><time>2026-04-25T09:05:19.589Z</time></trkpt><trkpt lat="40.8034583" lon="17.2086484"><ele>388.8571428571429</ele><time>2026-04-25T09:05:21.586Z</time></trkpt><trkpt lat="40.8034139" lon="17.2087194"><ele>389.2857142857143</ele><time>2026-04-25T09:05:23.569Z</time></trkpt><trkpt lat="40.8033669" lon="17.2087891"><ele>389.71428571428567</ele><time>2026-04-25T09:05:25.578Z</time></trkpt><trkpt lat="40.8033232" lon="17.2088582"><ele>390.1428571428571</ele><time>2026-04-25T09:05:27.588Z</time></trkpt><trkpt lat="40.8032792" lon="17.2089202"><ele>390.57142857142856</ele><time>2026-04-25T09:05:29.588Z</time></trkpt><trkpt lat="40.8032312" lon="17.2089892"><ele>391.0</ele><time>2026-04-25T09:05:31.578Z</time></trkpt><trkpt lat="40.8031799" lon="17.2090638"><ele>390.99999999999994</ele><time>2026-04-25T09:05:33.595Z</time></trkpt><trkpt lat="40.8031273" lon="17.2091447"><ele>391.0</ele><time>2026-04-25T09:05:35.583Z</time></trkpt><trkpt lat="40.8030779" lon="17.209221"><ele>391.0</ele><time>2026-04-25T09:05:37.599Z</time></trkpt><trkpt lat="40.8030253" lon="17.2092908"><ele>391.0</ele><time>2026-04-25T09:05:39.589Z</time></trkpt><trkpt lat="40.8029729" lon="17.2093567"><ele>391.0</ele><time>2026-04-25T09:05:41.593Z</time></trkpt><trkpt lat="40.8029257" lon="17.2094234"><ele>390.99999999999994</ele><time>2026-04-25T09:05:43.586Z</time></trkpt><trkpt lat="40.8028782" lon="17.2094887"><ele>391.0</ele><time>2026-04-25T09:05:45.577Z</time></trkpt><trkpt lat="40.8028302" lon="17.2095456"><ele>391.00000000000006</ele><time>2026-04-25T09:05:47.594Z</time></trkpt><trkpt lat="40.8027807" lon="17.2096062"><ele>391.0</ele><time>2026-04-25T09:05:49.578Z</time></trkpt><trkpt lat="40.8027301" lon="17.2096713"><ele>391.0</ele><time>2026-04-25T09:05:51.565Z</time></trkpt><trkpt lat="40.8026776" lon="17.2097294"><ele>391.0</ele><time>2026-04-25T09:05:53.593Z</time></trkpt><trkpt lat="40.8026151" lon="17.2098168"><ele>391.00000000000006</ele><time>2026-04-25T09:05:56.586Z</time></trkpt><trkpt lat="40.8025573" lon="17.2098916"><ele>391.0</ele><time>2026-04-25T09:05:59.593Z</time></trkpt><trkpt lat="40.8025017" lon="17.2099578"><ele>391.99999999999994</ele><time>2026-04-25T09:06:02.588Z</time></trkpt><trkpt lat="40.8024514" lon="17.2100278"><ele>393.0</ele><time>2026-04-25T09:06:05.583Z</time></trkpt><trkpt lat="40.8023973" lon="17.2101041"><ele>394.0</ele><time>2026-04-25T09:06:08.588Z</time></trkpt><trkpt lat="40.8023454" lon="17.2101738"><ele>395.0</ele><time>2026-04-25T09:06:11.59Z</time></trkpt><trkpt lat="40.802293" lon="17.2102348"><ele>396.0</ele><time>2026-04-25T09:06:20.584Z</time></trkpt><trkpt lat="40.8022411" lon="17.2102886"><ele>396.99999999999994</ele><time>2026-04-25T09:06:25.591Z</time></trkpt><trkpt lat="40.8021871" lon="17.2103477"><ele>398.0</ele><time>2026-04-25T09:06:30.593Z</time></trkpt><trkpt lat="40.8021316" lon="17.210407"><ele>397.99999999999994</ele><time>2026-04-25T09:06:36.591Z</time></trkpt><trkpt lat="40.8020789" lon="17.2104703"><ele>398.0</ele><time>2026-04-25T09:06:42.596Z</time></trkpt><trkpt lat="40.8020313" lon="17.2105275"><ele>398.0</ele><time>2026-04-25T09:06:47.585Z</time></trkpt><trkpt lat="40.8019795" lon="17.2105861"><ele>398.0</ele><time>2026-04-25T09:06:53.578Z</time></trkpt><trkpt lat="40.8019236" lon="17.2106275"><ele>398.0</ele><time>2026-04-25T09:06:59.59Z</time></trkpt><trkpt lat="40.8018738" lon="17.2107022"><ele>397.99999999999994</ele><time>2026-04-25T09:07:05.578Z</time></trkpt><trkpt lat="40.8018209" lon="17.2107599"><ele>398.0</ele><time>2026-04-25T09:07:11.591Z</time></trkpt><trkpt lat="40.8017715" lon="17.2108178"><ele>398.8333333333333</ele><time>2026-04-25T09:07:17.588Z</time></trkpt><trkpt lat="40.801713" lon="17.2108681"><ele>399.66666666666663</ele><time>2026-04-25T09:07:23.579Z</time></trkpt><trkpt lat="40.801654" lon="17.2109085"><ele>400.5</ele><time>2026-04-25T09:07:31.591Z</time></trkpt><trkpt lat="40.8015959" lon="17.2110265"><ele>401.33333333333337</ele><time>2026-04-25T09:12:13.603Z</time></trkpt><trkpt lat="40.8015419" lon="17.2110946"><ele>402.1666666666667</ele><time>2026-04-25T09:12:16.561Z</time></trkpt><trkpt lat="40.801476" lon="17.2111578"><ele>403.0</ele><time>2026-04-25T09:12:20.603Z</time></trkpt><trkpt lat="40.8014224" lon="17.2112287"><ele>403.0</ele><time>2026-04-25T09:12:23.585Z</time></trkpt><trkpt lat="40.80137" lon="17.2112996"><ele>403.0</ele><time>2026-04-25T09:12:26.596Z</time></trkpt><trkpt lat="40.8013084" lon="17.2113671"><ele>403.0</ele><time>2026-04-25T09:12:29.576Z</time></trkpt><trkpt lat="40.8012535" lon="17.2114292"><ele>403.0</ele><time>2026-04-25T09:12:32.589Z</time></trkpt><trkpt lat="40.8011987" lon="17.2114933"><ele>403.0</ele><time>2026-04-25T09:12:35.607Z</time></trkpt><trkpt lat="40.8011475" lon="17.2115488"><ele>403.0</ele><time>2026-04-25T09:12:38.589Z</time></trkpt><trkpt lat="40.8010928" lon="17.2116041"><ele>403.0</ele><time>2026-04-25T09:12:41.585Z</time></trkpt><trkpt lat="40.8010394" lon="17.2116634"><ele>403.42857142857144</ele><time>2026-04-25T09:12:44.586Z</time></trkpt><trkpt lat="40.8009842" lon="17.2117215"><ele>403.85714285714283</ele><time>2026-04-25T09:12:47.585Z</time></trkpt><trkpt lat="40.8009162" lon="17.2118032"><ele>404.2857142857143</ele><time>2026-04-25T09:12:50.589Z</time></trkpt><trkpt lat="40.8008634" lon="17.2118656"><ele>404.7142857142857</ele><time>2026-04-25T09:12:52.598Z</time></trkpt><trkpt lat="40.8008126" lon="17.2119329"><ele>405.1428571428571</ele><time>2026-04-25T09:12:54.582Z</time></trkpt><trkpt lat="40.8007638" lon="17.211992"><ele>405.57142857142856</ele><time>2026-04-25T09:12:56.583Z</time></trkpt><trkpt lat="40.8007194" lon="17.212058"><ele>406.0</ele><time>2026-04-25T09:12:58.587Z</time></trkpt><trkpt lat="40.8006604" lon="17.2121455"><ele>406.00000000000006</ele><time>2026-04-25T09:13:01.578Z</time></trkpt><trkpt lat="40.8005987" lon="17.2122253"><ele>406.0</ele><time>2026-04-25T09:13:04.591Z</time></trkpt><trkpt lat="40.8005377" lon="17.2123076"><ele>406.0</ele><time>2026-04-25T09:13:07.584Z</time></trkpt><trkpt lat="40.800478" lon="17.2123884"><ele>406.0</ele><time>2026-04-25T09:13:10.595Z</time></trkpt><trkpt lat="40.8004117" lon="17.212468"><ele>406.00000000000006</ele><time>2026-04-25T09:13:13.591Z</time></trkpt><trkpt lat="40.8003434" lon="17.2125542"><ele>406.0</ele><time>2026-04-25T09:13:16.601Z</time></trkpt><trkpt lat="40.8002691" lon="17.2126262"><ele>406.1666666666667</ele><time>2026-04-25T09:13:19.588Z</time></trkpt><trkpt lat="40.800204" lon="17.2126983"><ele>406.33333333333337</ele><time>2026-04-25T09:13:22.612Z</time></trkpt><trkpt lat="40.8001359" lon="17.2127637"><ele>406.5</ele><time>2026-04-25T09:13:25.593Z</time></trkpt><trkpt lat="40.8000714" lon="17.212842"><ele>406.66666666666663</ele><time>2026-04-25T09:13:28.588Z</time></trkpt><trkpt lat="40.8000188" lon="17.2128927"><ele>406.8333333333333</ele><time>2026-04-25T09:13:30.587Z</time></trkpt><trkpt lat="40.799951" lon="17.2129734"><ele>407.0</ele><time>2026-04-25T09:13:33.587Z</time></trkpt><trkpt lat="40.7998788" lon="17.2130505"><ele>406.99999999999994</ele><time>2026-04-25T09:13:36.582Z</time></trkpt><trkpt lat="40.7998095" lon="17.2131268"><ele>407.0</ele><time>2026-04-25T09:13:39.604Z</time></trkpt><trkpt lat="40.7997499" lon="17.2131902"><ele>407.0</ele><time>2026-04-25T09:13:42.582Z</time></trkpt><trkpt lat="40.7996909" lon="17.2132553"><ele>407.0</ele><time>2026-04-25T09:13:45.606Z</time></trkpt><trkpt lat="40.7996323" lon="17.213323"><ele>406.99999999999994</ele><time>2026-04-25T09:13:48.584Z</time></trkpt><trkpt lat="40.7995731" lon="17.2133934"><ele>407.0</ele><time>2026-04-25T09:13:51.582Z</time></trkpt><trkpt lat="40.7995155" lon="17.2134669"><ele>406.8333333333333</ele><time>2026-04-25T09:13:54.605Z</time></trkpt><trkpt lat="40.799458" lon="17.2135581"><ele>406.66666666666663</ele><time>2026-04-25T09:13:57.596Z</time></trkpt><trkpt lat="40.7994039" lon="17.2136594"><ele>406.5</ele><time>2026-04-25T09:14:00.596Z</time></trkpt><trkpt lat="40.7993694" lon="17.2137317"><ele>406.33333333333337</ele><time>2026-04-25T09:14:02.599Z</time></trkpt><trkpt lat="40.7993257" lon="17.213839"><ele>406.1666666666667</ele><time>2026-04-25T09:14:05.582Z</time></trkpt><trkpt lat="40.7992773" lon="17.2139503"><ele>406.0</ele><time>2026-04-25T09:14:08.604Z</time></trkpt><trkpt lat="40.7992269" lon="17.2140521"><ele>406.57142857142856</ele><time>2026-04-25T09:14:11.59Z</time></trkpt><trkpt lat="40.7991907" lon="17.2141264"><ele>407.1428571428571</ele><time>2026-04-25T09:14:13.579Z</time></trkpt><trkpt lat="40.7991532" lon="17.2142053"><ele>407.7142857142857</ele><time>2026-04-25T09:14:15.586Z</time></trkpt><trkpt lat="40.7991191" lon="17.2142806"><ele>408.2857142857143</ele><time>2026-04-25T09:14:17.589Z</time></trkpt><trkpt lat="40.7990874" lon="17.2143528"><ele>408.85714285714283</ele><time>2026-04-25T09:14:19.584Z</time></trkpt><trkpt lat="40.7990544" lon="17.2144275"><ele>409.42857142857144</ele><time>2026-04-25T09:14:21.588Z</time></trkpt><trkpt lat="40.7990173" lon="17.2145149"><ele>410.0</ele><time>2026-04-25T09:14:23.595Z</time></trkpt><trkpt lat="40.7989831" lon="17.2145921"><ele>410.0</ele><time>2026-04-25T09:14:25.588Z</time></trkpt><trkpt lat="40.7989519" lon="17.2146729"><ele>410.0</ele><time>2026-04-25T09:14:27.608Z</time></trkpt><trkpt lat="40.7989161" lon="17.2147525"><ele>410.0</ele><time>2026-04-25T09:14:29.584Z</time></trkpt><trkpt lat="40.7988834" lon="17.2148327"><ele>410.0</ele><time>2026-04-25T09:14:31.583Z</time></trkpt><trkpt lat="40.798848" lon="17.2149065"><ele>410.0</ele><time>2026-04-25T09:14:33.586Z</time></trkpt><trkpt lat="40.7988013" lon="17.2150153"><ele>410.0</ele><time>2026-04-25T09:14:36.582Z</time></trkpt><trkpt lat="40.7987658" lon="17.2150879"><ele>410.0</ele><time>2026-04-25T09:14:38.602Z</time></trkpt><trkpt lat="40.798727" lon="17.2151585"><ele>410.0</ele><time>2026-04-25T09:14:40.585Z</time></trkpt><trkpt lat="40.7986821" lon="17.2152177"><ele>410.0</ele><time>2026-04-25T09:14:42.589Z</time></trkpt><trkpt lat="40.7986351" lon="17.2152742"><ele>410.0</ele><time>2026-04-25T09:14:44.581Z</time></trkpt><trkpt lat="40.7985837" lon="17.2153252"><ele>410.0</ele><time>2026-04-25T09:14:46.588Z</time></trkpt><trkpt lat="40.7985092" lon="17.2153993"><ele>410.0</ele><time>2026-04-25T09:14:49.589Z</time></trkpt><trkpt lat="40.798457" lon="17.2154514"><ele>410.0</ele><time>2026-04-25T09:14:51.589Z</time></trkpt><trkpt lat="40.7983805" lon="17.2155253"><ele>410.0</ele><time>2026-04-25T09:14:54.587Z</time></trkpt><trkpt lat="40.7983239" lon="17.215574"><ele>410.14285714285717</ele><time>2026-04-25T09:14:56.593Z</time></trkpt><trkpt lat="40.7982698" lon="17.2156283"><ele>410.2857142857143</ele><time>2026-04-25T09:14:58.587Z</time></trkpt><trkpt lat="40.7982203" lon="17.2156817"><ele>410.42857142857144</ele><time>2026-04-25T09:15:00.596Z</time></trkpt><trkpt lat="40.7981699" lon="17.2157362"><ele>410.57142857142856</ele><time>2026-04-25T09:15:02.593Z</time></trkpt><trkpt lat="40.7980995" lon="17.2158188"><ele>410.71428571428567</ele><time>2026-04-25T09:15:05.589Z</time></trkpt><trkpt lat="40.798052" lon="17.2158866"><ele>410.85714285714283</ele><time>2026-04-25T09:15:07.59Z</time></trkpt><trkpt lat="40.7979911" lon="17.2159455"><ele>411.0</ele><time>2026-04-25T09:15:09.59Z</time></trkpt><trkpt lat="40.7979491" lon="17.2160254"><ele>411.0</ele><time>2026-04-25T09:15:11.59Z</time></trkpt><trkpt lat="40.7978996" lon="17.2160959"><ele>411.0</ele><time>2026-04-25T09:15:13.574Z</time></trkpt><trkpt lat="40.7978542" lon="17.2161731"><ele>411.0</ele><time>2026-04-25T09:15:15.587Z</time></trkpt><trkpt lat="40.7978025" lon="17.2162477"><ele>411.0</ele><time>2026-04-25T09:15:17.586Z</time></trkpt><trkpt lat="40.7977542" lon="17.2163247"><ele>411.0</ele><time>2026-04-25T09:15:19.587Z</time></trkpt><trkpt lat="40.7977126" lon="17.2164057"><ele>411.0</ele><time>2026-04-25T09:15:21.588Z</time></trkpt><trkpt lat="40.7976696" lon="17.2164926"><ele>411.1666666666667</ele><time>2026-04-25T09:15:23.586Z</time></trkpt><trkpt lat="40.7976272" lon="17.2165754"><ele>411.33333333333337</ele><time>2026-04-25T09:15:25.6Z</time></trkpt><trkpt lat="40.7975757" lon="17.2166615"><ele>411.5</ele><time>2026-04-25T09:15:27.589Z</time></trkpt><trkpt lat="40.7975267" lon="17.2167541"><ele>411.6666666666667</ele><time>2026-04-25T09:15:29.584Z</time></trkpt><trkpt lat="40.7974767" lon="17.2168409"><ele>411.83333333333337</ele><time>2026-04-25T09:15:31.577Z</time></trkpt><trkpt lat="40.7974289" lon="17.2169248"><ele>412.0</ele><time>2026-04-25T09:15:33.589Z</time></trkpt><trkpt lat="40.7973891" lon="17.2170164"><ele>412.00000000000006</ele><time>2026-04-25T09:15:35.59Z</time></trkpt><trkpt lat="40.7973422" lon="17.2171066"><ele>412.0</ele><time>2026-04-25T09:15:37.58Z</time></trkpt><trkpt lat="40.7973019" lon="17.2171878"><ele>412.0</ele><time>2026-04-25T09:15:39.596Z</time></trkpt><trkpt lat="40.7972595" lon="17.2172722"><ele>412.0</ele><time>2026-04-25T09:15:41.587Z</time></trkpt><trkpt lat="40.7972161" lon="17.2173636"><ele>412.00000000000006</ele><time>2026-04-25T09:15:43.578Z</time></trkpt><trkpt lat="40.797184" lon="17.2174621"><ele>412.0</ele><time>2026-04-25T09:15:45.584Z</time></trkpt><trkpt lat="40.7971459" lon="17.2175572"><ele>411.6666666666667</ele><time>2026-04-25T09:15:47.577Z</time></trkpt><trkpt lat="40.7971177" lon="17.217648"><ele>411.33333333333337</ele><time>2026-04-25T09:15:49.586Z</time></trkpt><trkpt lat="40.7970895" lon="17.2177474"><ele>411.0</ele><time>2026-04-25T09:15:51.567Z</time></trkpt><trkpt lat="40.7970563" lon="17.2178419"><ele>410.66666666666663</ele><time>2026-04-25T09:15:53.58Z</time></trkpt><trkpt lat="40.7970174" lon="17.2179274"><ele>410.3333333333333</ele><time>2026-04-25T09:15:55.58Z</time></trkpt><trkpt lat="40.7969893" lon="17.2180285"><ele>410.0</ele><time>2026-04-25T09:15:57.587Z</time></trkpt><trkpt lat="40.796963" lon="17.2181331"><ele>410.16666666666663</ele><time>2026-04-25T09:15:59.593Z</time></trkpt><trkpt lat="40.7969303" lon="17.2182301"><ele>410.3333333333333</ele><time>2026-04-25T09:16:01.58Z</time></trkpt><trkpt lat="40.7969038" lon="17.2183334"><ele>410.5</ele><time>2026-04-25T09:16:03.594Z</time></trkpt><trkpt lat="40.7968727" lon="17.2184383"><ele>410.66666666666663</ele><time>2026-04-25T09:16:05.609Z</time></trkpt><trkpt lat="40.7968405" lon="17.2185435"><ele>410.8333333333333</ele><time>2026-04-25T09:16:07.58Z</time></trkpt><trkpt lat="40.7967949" lon="17.2186458"><ele>411.0</ele><time>2026-04-25T09:16:09.576Z</time></trkpt><trkpt lat="40.7967586" lon="17.2187387"><ele>411.0</ele><time>2026-04-25T09:16:11.587Z</time></trkpt><trkpt lat="40.7967097" lon="17.2188188"><ele>411.0</ele><time>2026-04-25T09:16:13.585Z</time></trkpt><trkpt lat="40.7966677" lon="17.2188936"><ele>411.0</ele><time>2026-04-25T09:16:15.585Z</time></trkpt><trkpt lat="40.7966326" lon="17.2189696"><ele>411.0</ele><time>2026-04-25T09:16:17.587Z</time></trkpt><trkpt lat="40.7965981" lon="17.2190564"><ele>411.0</ele><time>2026-04-25T09:16:19.595Z</time></trkpt><trkpt lat="40.7965596" lon="17.2191366"><ele>411.0</ele><time>2026-04-25T09:16:21.584Z</time></trkpt><trkpt lat="40.796523" lon="17.2192096"><ele>411.0</ele><time>2026-04-25T09:16:23.581Z</time></trkpt><trkpt lat="40.79649" lon="17.2192857"><ele>410.85714285714283</ele><time>2026-04-25T09:16:25.596Z</time></trkpt><trkpt lat="40.7964488" lon="17.2193597"><ele>410.71428571428567</ele><time>2026-04-25T09:16:27.601Z</time></trkpt><trkpt lat="40.7964145" lon="17.2194396"><ele>410.57142857142856</ele><time>2026-04-25T09:16:29.593Z</time></trkpt><trkpt lat="40.7963793" lon="17.2195154"><ele>410.42857142857144</ele><time>2026-04-25T09:16:31.585Z</time></trkpt><trkpt lat="40.796338" lon="17.2195883"><ele>410.2857142857143</ele><time>2026-04-25T09:16:33.583Z</time></trkpt><trkpt lat="40.7963041" lon="17.2196598"><ele>410.14285714285717</ele><time>2026-04-25T09:16:35.578Z</time></trkpt><trkpt lat="40.7962659" lon="17.2197339"><ele>410.0</ele><time>2026-04-25T09:16:37.578Z</time></trkpt><trkpt lat="40.7962244" lon="17.2198083"><ele>409.8333333333333</ele><time>2026-04-25T09:16:39.577Z</time></trkpt><trkpt lat="40.7961827" lon="17.2198795"><ele>409.66666666666663</ele><time>2026-04-25T09:16:41.596Z</time></trkpt><trkpt lat="40.7961289" lon="17.2199764"><ele>409.5</ele><time>2026-04-25T09:16:44.594Z</time></trkpt><trkpt lat="40.7960896" lon="17.2200425"><ele>409.33333333333337</ele><time>2026-04-25T09:16:46.587Z</time></trkpt><trkpt lat="40.7960254" lon="17.2201289"><ele>409.1666666666667</ele><time>2026-04-25T09:16:49.585Z</time></trkpt><trkpt lat="40.7959583" lon="17.2201762"><ele>409.0</ele><time>2026-04-25T09:16:52.591Z</time></trkpt><trkpt lat="40.7958879" lon="17.2202158"><ele>409.6666666666667</ele><time>2026-04-25T09:16:55.583Z</time></trkpt><trkpt lat="40.7958093" lon="17.2202493"><ele>410.33333333333337</ele><time>2026-04-25T09:16:58.589Z</time></trkpt><trkpt lat="40.7957355" lon="17.2202816"><ele>411.0</ele><time>2026-04-25T09:17:01.591Z</time></trkpt><trkpt lat="40.7956569" lon="17.220313"><ele>411.66666666666663</ele><time>2026-04-25T09:17:04.596Z</time></trkpt><trkpt lat="40.7955735" lon="17.2203492"><ele>412.3333333333333</ele><time>2026-04-25T09:17:07.572Z</time></trkpt><trkpt lat="40.7954913" lon="17.2203866"><ele>413.0</ele><time>2026-04-25T09:17:10.596Z</time></trkpt><trkpt lat="40.7954045" lon="17.2204258"><ele>412.99999999999994</ele><time>2026-04-25T09:17:13.585Z</time></trkpt><trkpt lat="40.7953177" lon="17.2204595"><ele>413.0</ele><time>2026-04-25T09:17:16.584Z</time></trkpt><trkpt lat="40.7952391" lon="17.2204948"><ele>413.0</ele><time>2026-04-25T09:17:19.585Z</time></trkpt><trkpt lat="40.7951615" lon="17.220531"><ele>413.0</ele><time>2026-04-25T09:17:22.597Z</time></trkpt><trkpt lat="40.7950865" lon="17.2205658"><ele>412.99999999999994</ele><time>2026-04-25T09:17:25.582Z</time></trkpt><trkpt lat="40.7950009" lon="17.2206047"><ele>413.0</ele><time>2026-04-25T09:17:28.583Z</time></trkpt><trkpt lat="40.7949154" lon="17.220649"><ele>413.42857142857144</ele><time>2026-04-25T09:17:31.59Z</time></trkpt><trkpt lat="40.794856" lon="17.220677"><ele>413.8571428571429</ele><time>2026-04-25T09:17:33.584Z</time></trkpt><trkpt lat="40.7947734" lon="17.2207168"><ele>414.2857142857143</ele><time>2026-04-25T09:17:36.592Z</time></trkpt><trkpt lat="40.7947056" lon="17.2207545"><ele>414.7142857142857</ele><time>2026-04-25T09:17:39.584Z</time></trkpt><trkpt lat="40.7946342" lon="17.2207855"><ele>415.14285714285717</ele><time>2026-04-25T09:17:42.582Z</time></trkpt><trkpt lat="40.7945598" lon="17.2208263"><ele>415.57142857142856</ele><time>2026-04-25T09:17:45.601Z</time></trkpt><trkpt lat="40.7944954" lon="17.220847"><ele>416.0</ele><time>2026-04-25T09:17:48.588Z</time></trkpt><trkpt lat="40.7944252" lon="17.2208668"><ele>415.99999999999994</ele><time>2026-04-25T09:17:51.587Z</time></trkpt><trkpt lat="40.7943483" lon="17.2208952"><ele>416.0</ele><time>2026-04-25T09:17:54.589Z</time></trkpt><trkpt lat="40.7942724" lon="17.2209215"><ele>416.0</ele><time>2026-04-25T09:17:57.598Z</time></trkpt><trkpt lat="40.7941956" lon="17.2209443"><ele>416.0</ele><time>2026-04-25T09:18:00.593Z</time></trkpt><trkpt lat="40.7941178" lon="17.2209454"><ele>415.99999999999994</ele><time>2026-04-25T09:18:03.574Z</time></trkpt><trkpt lat="40.7940312" lon="17.220955"><ele>416.0</ele><time>2026-04-25T09:18:06.584Z</time></trkpt><trkpt lat="40.7939613" lon="17.2209741"><ele>416.66666666666663</ele><time>2026-04-25T09:18:08.582Z</time></trkpt><trkpt lat="40.7938874" lon="17.2210172"><ele>417.3333333333333</ele><time>2026-04-25T09:18:10.589Z</time></trkpt><trkpt lat="40.7938069" lon="17.2210584"><ele>418.0</ele><time>2026-04-25T09:18:12.618Z</time></trkpt><trkpt lat="40.7937284" lon="17.2211098"><ele>418.66666666666663</ele><time>2026-04-25T09:18:14.589Z</time></trkpt><trkpt lat="40.7936549" lon="17.2211752"><ele>419.3333333333333</ele><time>2026-04-25T09:18:16.591Z</time></trkpt><trkpt lat="40.793579" lon="17.2212307"><ele>420.0</ele><time>2026-04-25T09:18:18.593Z</time></trkpt><trkpt lat="40.7935079" lon="17.2213016"><ele>420.3333333333333</ele><time>2026-04-25T09:18:20.588Z</time></trkpt><trkpt lat="40.793445" lon="17.2213622"><ele>420.66666666666663</ele><time>2026-04-25T09:18:22.586Z</time></trkpt><trkpt lat="40.7933868" lon="17.2214215"><ele>421.0</ele><time>2026-04-25T09:18:24.582Z</time></trkpt><trkpt lat="40.7933228" lon="17.2214886"><ele>421.3333333333333</ele><time>2026-04-25T09:18:26.594Z</time></trkpt><trkpt lat="40.7932629" lon="17.221564"><ele>421.66666666666663</ele><time>2026-04-25T09:18:28.585Z</time></trkpt><trkpt lat="40.7932109" lon="17.2216294"><ele>422.0</ele><time>2026-04-25T09:18:30.609Z</time></trkpt><trkpt lat="40.7931584" lon="17.221695"><ele>421.3333333333333</ele><time>2026-04-25T09:18:32.594Z</time></trkpt><trkpt lat="40.7931108" lon="17.2217525"><ele>420.66666666666663</ele><time>2026-04-25T09:18:34.589Z</time></trkpt><trkpt lat="40.7930443" lon="17.2218496"><ele>420.0</ele><time>2026-04-25T09:18:37.586Z</time></trkpt><trkpt lat="40.7930003" lon="17.2219141"><ele>419.33333333333337</ele><time>2026-04-25T09:18:39.586Z</time></trkpt><trkpt lat="40.7929571" lon="17.2219802"><ele>418.6666666666667</ele><time>2026-04-25T09:18:41.591Z</time></trkpt><trkpt lat="40.7929042" lon="17.222063"><ele>418.0</ele><time>2026-04-25T09:18:43.597Z</time></trkpt><trkpt lat="40.7928418" lon="17.2221555"><ele>418.0</ele><time>2026-04-25T09:18:45.585Z</time></trkpt><trkpt lat="40.7927794" lon="17.2222561"><ele>418.0</ele><time>2026-04-25T09:18:47.581Z</time></trkpt><trkpt lat="40.7927113" lon="17.2223578"><ele>418.0</ele><time>2026-04-25T09:18:49.571Z</time></trkpt><trkpt lat="40.7926481" lon="17.2224621"><ele>418.0</ele><time>2026-04-25T09:18:51.588Z</time></trkpt><trkpt lat="40.7925774" lon="17.2225604"><ele>418.0</ele><time>2026-04-25T09:18:53.582Z</time></trkpt><trkpt lat="40.7925118" lon="17.2226668"><ele>417.83333333333337</ele><time>2026-04-25T09:18:55.575Z</time></trkpt><trkpt lat="40.7924439" lon="17.2227615"><ele>417.6666666666667</ele><time>2026-04-25T09:18:57.581Z</time></trkpt><trkpt lat="40.7923826" lon="17.2228522"><ele>417.5</ele><time>2026-04-25T09:18:59.591Z</time></trkpt><trkpt lat="40.7923279" lon="17.2229377"><ele>417.33333333333337</ele><time>2026-04-25T09:19:01.586Z</time></trkpt><trkpt lat="40.7922712" lon="17.2230212"><ele>417.1666666666667</ele><time>2026-04-25T09:19:03.578Z</time></trkpt><trkpt lat="40.7922116" lon="17.2230972"><ele>417.0</ele><time>2026-04-25T09:19:05.605Z</time></trkpt><trkpt lat="40.7921497" lon="17.2231649"><ele>417.0</ele><time>2026-04-25T09:19:07.599Z</time></trkpt><trkpt lat="40.7920932" lon="17.2232375"><ele>417.0</ele><time>2026-04-25T09:19:09.599Z</time></trkpt><trkpt lat="40.7920303" lon="17.2233072"><ele>417.0</ele><time>2026-04-25T09:19:11.575Z</time></trkpt><trkpt lat="40.7919647" lon="17.2233786"><ele>417.0</ele><time>2026-04-25T09:19:13.594Z</time></trkpt><trkpt lat="40.7919039" lon="17.2234427"><ele>417.0</ele><time>2026-04-25T09:19:15.6Z</time></trkpt><trkpt lat="40.7918507" lon="17.2235118"><ele>417.0</ele><time>2026-04-25T09:19:17.594Z</time></trkpt><trkpt lat="40.7917956" lon="17.2235849"><ele>417.3333333333333</ele><time>2026-04-25T09:19:19.6Z</time></trkpt><trkpt lat="40.7917317" lon="17.2236505"><ele>417.66666666666663</ele><time>2026-04-25T09:19:21.585Z</time></trkpt><trkpt lat="40.7916707" lon="17.2237168"><ele>418.0</ele><time>2026-04-25T09:19:23.594Z</time></trkpt><trkpt lat="40.791617" lon="17.2237821"><ele>418.3333333333333</ele><time>2026-04-25T09:19:25.581Z</time></trkpt><trkpt lat="40.7915517" lon="17.2238427"><ele>418.66666666666663</ele><time>2026-04-25T09:19:27.58Z</time></trkpt><trkpt lat="40.7915014" lon="17.223914"><ele>419.0</ele><time>2026-04-25T09:19:29.592Z</time></trkpt><trkpt lat="40.7914499" lon="17.2239828"><ele>419.2857142857143</ele><time>2026-04-25T09:19:31.584Z</time></trkpt><trkpt lat="40.7913933" lon="17.2240509"><ele>419.57142857142856</ele><time>2026-04-25T09:19:33.583Z</time></trkpt><trkpt lat="40.7913375" lon="17.224117"><ele>419.8571428571429</ele><time>2026-04-25T09:19:35.589Z</time></trkpt><trkpt lat="40.7912887" lon="17.2241765"><ele>420.1428571428571</ele><time>2026-04-25T09:19:37.576Z</time></trkpt><trkpt lat="40.7912379" lon="17.2242298"><ele>420.42857142857144</ele><time>2026-04-25T09:19:39.59Z</time></trkpt><trkpt lat="40.7911918" lon="17.2242871"><ele>420.7142857142857</ele><time>2026-04-25T09:19:41.58Z</time></trkpt><trkpt lat="40.7911417" lon="17.2243393"><ele>421.0</ele><time>2026-04-25T09:19:43.584Z</time></trkpt><trkpt lat="40.7910853" lon="17.2244115"><ele>421.00000000000006</ele><time>2026-04-25T09:19:46.582Z</time></trkpt><trkpt lat="40.7910253" lon="17.2244941"><ele>421.0</ele><time>2026-04-25T09:19:49.597Z</time></trkpt><trkpt lat="40.7909645" lon="17.2245667"><ele>421.0</ele><time>2026-04-25T09:19:52.581Z</time></trkpt><trkpt lat="40.790903" lon="17.2246374"><ele>421.0</ele><time>2026-04-25T09:19:55.585Z</time></trkpt><trkpt lat="40.790851" lon="17.2246897"><ele>421.00000000000006</ele><time>2026-04-25T09:20:13.588Z</time></trkpt><trkpt lat="40.7908007" lon="17.224753"><ele>421.0</ele><time>2026-04-25T09:20:18.604Z</time></trkpt><trkpt lat="40.7907389" lon="17.2248197"><ele>421.14285714285717</ele><time>2026-04-25T09:20:21.581Z</time></trkpt><trkpt lat="40.7906765" lon="17.2249005"><ele>421.2857142857143</ele><time>2026-04-25T09:20:24.584Z</time></trkpt><trkpt lat="40.790627" lon="17.2249588"><ele>421.42857142857144</ele><time>2026-04-25T09:20:26.578Z</time></trkpt><trkpt lat="40.790573" lon="17.225014"><ele>421.57142857142856</ele><time>2026-04-25T09:20:28.592Z</time></trkpt><trkpt lat="40.7905238" lon="17.2250693"><ele>421.7142857142857</ele><time>2026-04-25T09:20:30.588Z</time></trkpt><trkpt lat="40.7904786" lon="17.2251284"><ele>421.8571428571429</ele><time>2026-04-25T09:20:32.598Z</time></trkpt><trkpt lat="40.7904058" lon="17.2252045"><ele>422.0</ele><time>2026-04-25T09:20:35.578Z</time></trkpt><trkpt lat="40.7903565" lon="17.2252638"><ele>422.0</ele><time>2026-04-25T09:20:37.595Z</time></trkpt><trkpt lat="40.7903034" lon="17.225315"><ele>422.0</ele><time>2026-04-25T09:20:39.582Z</time></trkpt><trkpt lat="40.7902465" lon="17.2253758"><ele>422.0</ele><time>2026-04-25T09:20:41.59Z</time></trkpt><trkpt lat="40.7901879" lon="17.2254402"><ele>422.0</ele><time>2026-04-25T09:20:43.599Z</time></trkpt><trkpt lat="40.7901318" lon="17.2254962"><ele>422.0</ele><time>2026-04-25T09:20:45.582Z</time></trkpt><trkpt lat="40.7900807" lon="17.2255477"><ele>422.0</ele><time>2026-04-25T09:20:47.589Z</time></trkpt><trkpt lat="40.7900159" lon="17.2256228"><ele>422.0</ele><time>2026-04-25T09:20:50.611Z</time></trkpt><trkpt lat="40.7899651" lon="17.2256993"><ele>422.2857142857143</ele><time>2026-04-25T09:20:53.58Z</time></trkpt><trkpt lat="40.7899008" lon="17.2257747"><ele>422.57142857142856</ele><time>2026-04-25T09:20:56.586Z</time></trkpt><trkpt lat="40.7898563" lon="17.225838"><ele>422.8571428571429</ele><time>2026-04-25T09:20:58.588Z</time></trkpt><trkpt lat="40.7898067" lon="17.2258979"><ele>423.1428571428571</ele><time>2026-04-25T09:21:00.58Z</time></trkpt><trkpt lat="40.7897372" lon="17.2259884"><ele>423.4285714285714</ele><time>2026-04-25T09:21:03.586Z</time></trkpt><trkpt lat="40.7896919" lon="17.2260479"><ele>423.7142857142857</ele><time>2026-04-25T09:21:05.579Z</time></trkpt><trkpt lat="40.7896435" lon="17.2261029"><ele>424.0</ele><time>2026-04-25T09:21:07.585Z</time></trkpt><trkpt lat="40.7895676" lon="17.2261767"><ele>424.0</ele><time>2026-04-25T09:21:10.583Z</time></trkpt><trkpt lat="40.7894963" lon="17.2262667"><ele>424.0</ele><time>2026-04-25T09:21:13.584Z</time></trkpt><trkpt lat="40.7894457" lon="17.2263181"><ele>424.0</ele><time>2026-04-25T09:21:15.575Z</time></trkpt><trkpt lat="40.7893962" lon="17.2263695"><ele>424.0</ele><time>2026-04-25T09:21:17.589Z</time></trkpt><trkpt lat="40.7893442" lon="17.2264215"><ele>424.0</ele><time>2026-04-25T09:21:19.581Z</time></trkpt><trkpt lat="40.7892987" lon="17.2264846"><ele>424.0</ele><time>2026-04-25T09:21:21.583Z</time></trkpt><trkpt lat="40.7892258" lon="17.2265555"><ele>424.0</ele><time>2026-04-25T09:21:24.586Z</time></trkpt><trkpt lat="40.7891579" lon="17.2266222"><ele>424.0</ele><time>2026-04-25T09:21:27.579Z</time></trkpt><trkpt lat="40.7890942" lon="17.2266878"><ele>424.0</ele><time>2026-04-25T09:21:30.591Z</time></trkpt><trkpt lat="40.7890214" lon="17.2267534"><ele>424.0</ele><time>2026-04-25T09:21:33.574Z</time></trkpt><trkpt lat="40.7889678" lon="17.2268023"><ele>424.0</ele><time>2026-04-25T09:21:35.587Z</time></trkpt><trkpt lat="40.7889118" lon="17.2268519"><ele>424.0</ele><time>2026-04-25T09:21:37.591Z</time></trkpt><trkpt lat="40.7888535" lon="17.2269041"><ele>424.0</ele><time>2026-04-25T09:21:39.577Z</time></trkpt><trkpt lat="40.788792" lon="17.2269637"><ele>424.0</ele><time>2026-04-25T09:21:41.589Z</time></trkpt><trkpt lat="40.788726" lon="17.2270216"><ele>424.0</ele><time>2026-04-25T09:21:43.588Z</time></trkpt><trkpt lat="40.7886692" lon="17.2270761"><ele>424.0</ele><time>2026-04-25T09:21:45.577Z</time></trkpt><trkpt lat="40.7886115" lon="17.2271256"><ele>424.0</ele><time>2026-04-25T09:21:47.584Z</time></trkpt><trkpt lat="40.7885537" lon="17.2271804"><ele>424.0</ele><time>2026-04-25T09:21:49.584Z</time></trkpt><trkpt lat="40.7884941" lon="17.2272465"><ele>424.0</ele><time>2026-04-25T09:21:51.608Z</time></trkpt><trkpt lat="40.7884303" lon="17.2273067"><ele>424.0</ele><time>2026-04-25T09:21:53.581Z</time></trkpt><trkpt lat="40.7883755" lon="17.2273703"><ele>424.0</ele><time>2026-04-25T09:21:55.579Z</time></trkpt><trkpt lat="40.788317" lon="17.2274349"><ele>424.00000000000006</ele><time>2026-04-25T09:21:57.582Z</time></trkpt><trkpt lat="40.7882553" lon="17.2275123"><ele>424.0</ele><time>2026-04-25T09:21:59.584Z</time></trkpt><trkpt lat="40.7882029" lon="17.2275799"><ele>424.0</ele><time>2026-04-25T09:22:01.591Z</time></trkpt><trkpt lat="40.7881401" lon="17.2276528"><ele>424.0</ele><time>2026-04-25T09:22:03.589Z</time></trkpt><trkpt lat="40.7880784" lon="17.2277178"><ele>424.00000000000006</ele><time>2026-04-25T09:22:05.586Z</time></trkpt><trkpt lat="40.788014" lon="17.2277801"><ele>424.0</ele><time>2026-04-25T09:22:07.587Z</time></trkpt><trkpt lat="40.7879554" lon="17.2278455"><ele>424.0</ele><time>2026-04-25T09:22:09.581Z</time></trkpt><trkpt lat="40.7879024" lon="17.2278974"><ele>424.0</ele><time>2026-04-25T09:22:11.577Z</time></trkpt><trkpt lat="40.7878369" lon="17.2279589"><ele>424.0</ele><time>2026-04-25T09:22:13.595Z</time></trkpt><trkpt lat="40.7877791" lon="17.2280111"><ele>424.0</ele><time>2026-04-25T09:22:15.59Z</time></trkpt><trkpt lat="40.7877227" lon="17.2280627"><ele>424.0</ele><time>2026-04-25T09:22:17.599Z</time></trkpt><trkpt lat="40.787652" lon="17.2281222"><ele>424.0</ele><time>2026-04-25T09:22:19.574Z</time></trkpt><trkpt lat="40.7875893" lon="17.2281837"><ele>424.0</ele><time>2026-04-25T09:22:21.589Z</time></trkpt><trkpt lat="40.7875307" lon="17.2282406"><ele>423.6666666666667</ele><time>2026-04-25T09:22:23.593Z</time></trkpt><trkpt lat="40.7874742" lon="17.2283186"><ele>423.33333333333337</ele><time>2026-04-25T09:22:25.585Z</time></trkpt><trkpt lat="40.787411" lon="17.2284017"><ele>423.0</ele><time>2026-04-25T09:22:27.577Z</time></trkpt><trkpt lat="40.787355" lon="17.228478"><ele>422.66666666666663</ele><time>2026-04-25T09:22:29.591Z</time></trkpt><trkpt lat="40.7872988" lon="17.2285439"><ele>422.3333333333333</ele><time>2026-04-25T09:22:31.589Z</time></trkpt><trkpt lat="40.7872293" lon="17.2286116"><ele>422.0</ele><time>2026-04-25T09:22:33.584Z</time></trkpt><trkpt lat="40.787161" lon="17.2286744"><ele>422.0</ele><time>2026-04-25T09:22:35.586Z</time></trkpt><trkpt lat="40.7870968" lon="17.2287404"><ele>422.0</ele><time>2026-04-25T09:22:37.59Z</time></trkpt><trkpt lat="40.7870286" lon="17.2288078"><ele>422.0</ele><time>2026-04-25T09:22:39.59Z</time></trkpt><trkpt lat="40.7869652" lon="17.2288697"><ele>422.0</ele><time>2026-04-25T09:22:41.589Z</time></trkpt><trkpt lat="40.7869062" lon="17.2289223"><ele>422.0</ele><time>2026-04-25T09:22:43.601Z</time></trkpt><trkpt lat="40.7868559" lon="17.228975"><ele>422.0</ele><time>2026-04-25T09:22:45.59Z</time></trkpt><trkpt lat="40.7868028" lon="17.229022"><ele>422.0</ele><time>2026-04-25T09:22:47.575Z</time></trkpt><trkpt lat="40.7867269" lon="17.2290922"><ele>421.66666666666663</ele><time>2026-04-25T09:22:50.593Z</time></trkpt><trkpt lat="40.7866772" lon="17.2291579"><ele>421.3333333333333</ele><time>2026-04-25T09:22:52.591Z</time></trkpt><trkpt lat="40.7866171" lon="17.2292046"><ele>421.0</ele><time>2026-04-25T09:22:54.592Z</time></trkpt><trkpt lat="40.786563" lon="17.2292611"><ele>420.66666666666663</ele><time>2026-04-25T09:22:56.59Z</time></trkpt><trkpt lat="40.7865068" lon="17.2293526"><ele>420.3333333333333</ele><time>2026-04-25T09:22:59.591Z</time></trkpt><trkpt lat="40.7864537" lon="17.2294378"><ele>420.0</ele><time>2026-04-25T09:23:02.613Z</time></trkpt><trkpt lat="40.7863889" lon="17.2295201"><ele>420.0</ele><time>2026-04-25T09:23:05.587Z</time></trkpt><trkpt lat="40.7863488" lon="17.2295856"><ele>420.0</ele><time>2026-04-25T09:23:07.585Z</time></trkpt><trkpt lat="40.7862842" lon="17.2296753"><ele>420.0</ele><time>2026-04-25T09:23:10.592Z</time></trkpt><trkpt lat="40.7862433" lon="17.2297439"><ele>420.0</ele><time>2026-04-25T09:23:12.592Z</time></trkpt><trkpt lat="40.7862008" lon="17.2298182"><ele>420.0</ele><time>2026-04-25T09:23:15.588Z</time></trkpt><trkpt lat="40.7861623" lon="17.229912"><ele>420.0</ele><time>2026-04-25T09:23:18.586Z</time></trkpt><trkpt lat="40.7861218" lon="17.2299997"><ele>420.0</ele><time>2026-04-25T09:23:20.574Z</time></trkpt><trkpt lat="40.7860668" lon="17.2301022"><ele>420.0</ele><time>2026-04-25T09:23:22.581Z</time></trkpt><trkpt lat="40.7860033" lon="17.2301957"><ele>420.0</ele><time>2026-04-25T09:23:24.573Z</time></trkpt><trkpt lat="40.7859384" lon="17.2302777"><ele>420.0</ele><time>2026-04-25T09:23:26.595Z</time></trkpt><trkpt lat="40.7858802" lon="17.2303701"><ele>420.0</ele><time>2026-04-25T09:23:28.597Z</time></trkpt><trkpt lat="40.7858157" lon="17.2304603"><ele>419.6</ele><time>2026-04-25T09:23:30.58Z</time></trkpt><trkpt lat="40.7857519" lon="17.2305559"><ele>419.2</ele><time>2026-04-25T09:23:32.584Z</time></trkpt><trkpt lat="40.7856863" lon="17.2306578"><ele>418.79999999999995</ele><time>2026-04-25T09:23:34.57Z</time></trkpt><trkpt lat="40.7856203" lon="17.2307623"><ele>418.4</ele><time>2026-04-25T09:23:36.583Z</time></trkpt><trkpt lat="40.7855503" lon="17.230866"><ele>418.0</ele><time>2026-04-25T09:23:38.579Z</time></trkpt><trkpt lat="40.7854828" lon="17.2309783"><ele>417.75</ele><time>2026-04-25T09:23:40.592Z</time></trkpt><trkpt lat="40.7854183" lon="17.2310971"><ele>417.5</ele><time>2026-04-25T09:23:42.589Z</time></trkpt><trkpt lat="40.7853484" lon="17.2312135"><ele>417.25</ele><time>2026-04-25T09:23:44.584Z</time></trkpt><trkpt lat="40.7852755" lon="17.231328"><ele>417.0</ele><time>2026-04-25T09:23:46.57Z</time></trkpt><trkpt lat="40.7851989" lon="17.2314425"><ele>416.6666666666667</ele><time>2026-04-25T09:23:48.581Z</time></trkpt><trkpt lat="40.7851249" lon="17.2315599"><ele>416.33333333333337</ele><time>2026-04-25T09:23:50.604Z</time></trkpt><trkpt lat="40.7850646" lon="17.2316836"><ele>416.0</ele><time>2026-04-25T09:23:52.588Z</time></trkpt><trkpt lat="40.7850117" lon="17.2317505"><ele>415.6666666666667</ele><time>2026-04-25T09:23:54.596Z</time></trkpt><trkpt lat="40.7849527" lon="17.2317957"><ele>415.33333333333337</ele><time>2026-04-25T09:23:56.586Z</time></trkpt><trkpt lat="40.7848902" lon="17.2318463"><ele>415.0</ele><time>2026-04-25T09:23:58.589Z</time></trkpt><trkpt lat="40.7848642" lon="17.2319288"><ele>415.00000000000006</ele><time>2026-04-25T09:24:00.579Z</time></trkpt><trkpt lat="40.7848421" lon="17.2320298"><ele>415.0</ele><time>2026-04-25T09:24:02.591Z</time></trkpt><trkpt lat="40.7848166" lon="17.2321391"><ele>415.0</ele><time>2026-04-25T09:24:04.585Z</time></trkpt><trkpt lat="40.7847673" lon="17.2322189"><ele>415.0</ele><time>2026-04-25T09:24:06.568Z</time></trkpt><trkpt lat="40.7847179" lon="17.2322946"><ele>415.00000000000006</ele><time>2026-04-25T09:24:08.587Z</time></trkpt><trkpt lat="40.7846597" lon="17.2324074"><ele>415.0</ele><time>2026-04-25T09:24:10.582Z</time></trkpt><trkpt lat="40.7846033" lon="17.2325195"><ele>415.33333333333337</ele><time>2026-04-25T09:24:12.585Z</time></trkpt><trkpt lat="40.7845874" lon="17.2326338"><ele>415.6666666666667</ele><time>2026-04-25T09:24:14.581Z</time></trkpt><trkpt lat="40.7845561" lon="17.232737"><ele>416.0</ele><time>2026-04-25T09:24:16.588Z</time></trkpt><trkpt lat="40.7845337" lon="17.2328242"><ele>416.33333333333337</ele><time>2026-04-25T09:24:18.588Z</time></trkpt><trkpt lat="40.7845003" lon="17.2329143"><ele>416.6666666666667</ele><time>2026-04-25T09:24:20.594Z</time></trkpt><trkpt lat="40.7844395" lon="17.2329591"><ele>417.0</ele><time>2026-04-25T09:24:22.582Z</time></trkpt><trkpt lat="40.7843714" lon="17.2329635"><ele>417.0</ele><time>2026-04-25T09:24:24.591Z</time></trkpt><trkpt lat="40.784327" lon="17.2328932"><ele>417.0</ele><time>2026-04-25T09:24:27.583Z</time></trkpt><trkpt lat="40.7842659" lon="17.2329448"><ele>417.0</ele><time>2026-04-25T09:24:34.581Z</time></trkpt><trkpt lat="40.7843206" lon="17.233004"><ele>417.0</ele><time>2026-04-25T09:24:40.59Z</time></trkpt><trkpt lat="40.7843712" lon="17.2330704"><ele>417.0</ele><time>2026-04-25T09:24:45.585Z</time></trkpt><trkpt lat="40.7843135" lon="17.2330063"><ele>417.0</ele><time>2026-04-25T09:24:54.597Z</time></trkpt><trkpt lat="40.784387" lon="17.2330108"><ele>417.0</ele><time>2026-04-25T09:25:00.576Z</time></trkpt><trkpt lat="40.7844256" lon="17.2331141"><ele>417.3333333333333</ele><time>2026-04-25T09:25:03.588Z</time></trkpt><trkpt lat="40.7844784" lon="17.2332021"><ele>417.66666666666663</ele><time>2026-04-25T09:25:06.592Z</time></trkpt><trkpt lat="40.7845394" lon="17.2332907"><ele>418.0</ele><time>2026-04-25T09:25:09.587Z</time></trkpt><trkpt lat="40.78461" lon="17.2333694"><ele>418.3333333333333</ele><time>2026-04-25T09:25:12.594Z</time></trkpt><trkpt lat="40.7846699" lon="17.2334494"><ele>418.66666666666663</ele><time>2026-04-25T09:25:15.577Z</time></trkpt><trkpt lat="40.7847372" lon="17.2335366"><ele>419.0</ele><time>2026-04-25T09:25:18.586Z</time></trkpt><trkpt lat="40.7847964" lon="17.2336172"><ele>418.99999999999994</ele><time>2026-04-25T09:25:21.587Z</time></trkpt><trkpt lat="40.7848497" lon="17.2336931"><ele>419.0</ele><time>2026-04-25T09:25:24.586Z</time></trkpt><trkpt lat="40.7849006" lon="17.2337462"><ele>419.0</ele><time>2026-04-25T09:25:40.576Z</time></trkpt><trkpt lat="40.784964" lon="17.2338238"><ele>419.0</ele><time>2026-04-25T09:25:45.578Z</time></trkpt><trkpt lat="40.7850108" lon="17.2338905"><ele>419.0</ele><time>2026-04-25T09:25:48.575Z</time></trkpt><trkpt lat="40.78506" lon="17.2339491"><ele>418.99999999999994</ele><time>2026-04-25T09:25:53.603Z</time></trkpt><trkpt lat="40.7851011" lon="17.2340139"><ele>419.0</ele><time>2026-04-25T09:25:59.584Z</time></trkpt><trkpt lat="40.78513" lon="17.2341128"><ele>419.2857142857143</ele><time>2026-04-25T09:26:22.588Z</time></trkpt><trkpt lat="40.7851498" lon="17.2342105"><ele>419.57142857142856</ele><time>2026-04-25T09:26:26.583Z</time></trkpt><trkpt lat="40.785181" lon="17.2343131"><ele>419.8571428571429</ele><time>2026-04-25T09:26:29.582Z</time></trkpt><trkpt lat="40.7852231" lon="17.2343754"><ele>420.1428571428571</ele><time>2026-04-25T09:26:31.578Z</time></trkpt><trkpt lat="40.785292" lon="17.2344421"><ele>420.42857142857144</ele><time>2026-04-25T09:26:34.597Z</time></trkpt><trkpt lat="40.7853191" lon="17.2345178"><ele>420.7142857142857</ele><time>2026-04-25T09:26:37.594Z</time></trkpt><trkpt lat="40.7853259" lon="17.2346035"><ele>421.0</ele><time>2026-04-25T09:26:41.578Z</time></trkpt><trkpt lat="40.7852964" lon="17.2345911"><ele>421.20000000000005</ele><time>2026-04-25T09:32:20.577Z</time></trkpt><trkpt lat="40.7852545" lon="17.234666"><ele>421.40000000000003</ele><time>2026-04-25T09:32:24.579Z</time></trkpt><trkpt lat="40.7852201" lon="17.2347567"><ele>421.6</ele><time>2026-04-25T09:32:28.567Z</time></trkpt><trkpt lat="40.7853098" lon="17.234988"><ele>421.8</ele><time>2026-04-25T09:34:46.564Z</time></trkpt><trkpt lat="40.7853622" lon="17.2350856"><ele>422.0</ele><time>2026-04-25T09:34:49.563Z</time></trkpt><trkpt lat="40.7853673" lon="17.2352036"><ele>422.16666666666663</ele><time>2026-04-25T09:34:52.563Z</time></trkpt><trkpt lat="40.7853968" lon="17.2353194"><ele>422.3333333333333</ele><time>2026-04-25T09:34:55.568Z</time></trkpt><trkpt lat="40.7854232" lon="17.2354397"><ele>422.5</ele><time>2026-04-25T09:34:58.574Z</time></trkpt><trkpt lat="40.785431" lon="17.2355567"><ele>422.66666666666663</ele><time>2026-04-25T09:35:01.579Z</time></trkpt><trkpt lat="40.7854563" lon="17.2356633"><ele>422.8333333333333</ele><time>2026-04-25T09:35:04.58Z</time></trkpt><trkpt lat="40.785501" lon="17.2357524"><ele>423.0</ele><time>2026-04-25T09:35:07.578Z</time></trkpt><trkpt lat="40.7855684" lon="17.2358325"><ele>423.2857142857143</ele><time>2026-04-25T09:35:10.574Z</time></trkpt><trkpt lat="40.7856266" lon="17.2359094"><ele>423.5714285714286</ele><time>2026-04-25T09:35:13.588Z</time></trkpt><trkpt lat="40.7856662" lon="17.235983"><ele>423.8571428571429</ele><time>2026-04-25T09:35:16.586Z</time></trkpt><trkpt lat="40.7856988" lon="17.2360676"><ele>424.1428571428571</ele><time>2026-04-25T09:35:19.565Z</time></trkpt><trkpt lat="40.7857343" lon="17.2361422"><ele>424.42857142857144</ele><time>2026-04-25T09:35:22.568Z</time></trkpt><trkpt lat="40.7857769" lon="17.2362331"><ele>424.7142857142857</ele><time>2026-04-25T09:35:26.572Z</time></trkpt><trkpt lat="40.7858224" lon="17.2363001"><ele>425.0</ele><time>2026-04-25T09:35:30.572Z</time></trkpt><trkpt lat="40.785742" lon="17.2363542"><ele>425.0</ele><time>2026-04-25T09:35:34.578Z</time></trkpt><trkpt lat="40.785659" lon="17.2364059"><ele>425.0</ele><time>2026-04-25T09:35:37.586Z</time></trkpt><trkpt lat="40.7855946" lon="17.2364341"><ele>425.0</ele><time>2026-04-25T09:35:39.574Z</time></trkpt><trkpt lat="40.7855113" lon="17.2364842"><ele>425.0</ele><time>2026-04-25T09:35:42.579Z</time></trkpt><trkpt lat="40.7854536" lon="17.2365179"><ele>425.0</ele><time>2026-04-25T09:35:44.582Z</time></trkpt><trkpt lat="40.7853947" lon="17.2365599"><ele>425.0</ele><time>2026-04-25T09:35:46.575Z</time></trkpt><trkpt lat="40.7853357" lon="17.2365961"><ele>425.0</ele><time>2026-04-25T09:35:48.588Z</time></trkpt><trkpt lat="40.7852534" lon="17.2366324"><ele>424.6</ele><time>2026-04-25T09:35:51.601Z</time></trkpt><trkpt lat="40.7851713" lon="17.236681"><ele>424.2</ele><time>2026-04-25T09:35:54.581Z</time></trkpt><trkpt lat="40.7850898" lon="17.2367274"><ele>423.79999999999995</ele><time>2026-04-25T09:35:57.573Z</time></trkpt><trkpt lat="40.7850112" lon="17.2367997"><ele>423.4</ele><time>2026-04-25T09:36:00.573Z</time></trkpt><trkpt lat="40.7849288" lon="17.2368546"><ele>423.0</ele><time>2026-04-25T09:36:03.59Z</time></trkpt><trkpt lat="40.7848496" lon="17.2369016"><ele>423.0</ele><time>2026-04-25T09:36:06.582Z</time></trkpt><trkpt lat="40.7847735" lon="17.2369459"><ele>423.0</ele><time>2026-04-25T09:36:09.586Z</time></trkpt><trkpt lat="40.7846978" lon="17.2369929"><ele>423.0</ele><time>2026-04-25T09:36:12.572Z</time></trkpt><trkpt lat="40.7846292" lon="17.237073"><ele>423.0</ele><time>2026-04-25T09:36:15.583Z</time></trkpt><trkpt lat="40.7845673" lon="17.2371246"><ele>423.0</ele><time>2026-04-25T09:36:17.579Z</time></trkpt><trkpt lat="40.7845018" lon="17.237196"><ele>423.0</ele><time>2026-04-25T09:36:19.58Z</time></trkpt><trkpt lat="40.7844316" lon="17.2372591"><ele>423.0</ele><time>2026-04-25T09:36:21.583Z</time></trkpt><trkpt lat="40.7843606" lon="17.23732"><ele>423.0</ele><time>2026-04-25T09:36:23.578Z</time></trkpt><trkpt lat="40.7843003" lon="17.2373875"><ele>423.0</ele><time>2026-04-25T09:36:25.581Z</time></trkpt><trkpt lat="40.7842559" lon="17.2374617"><ele>423.0</ele><time>2026-04-25T09:36:27.577Z</time></trkpt><trkpt lat="40.7842015" lon="17.2375178"><ele>423.0</ele><time>2026-04-25T09:36:29.574Z</time></trkpt><trkpt lat="40.7841411" lon="17.2375822"><ele>423.0</ele><time>2026-04-25T09:36:31.579Z</time></trkpt><trkpt lat="40.7840827" lon="17.2376194"><ele>423.0</ele><time>2026-04-25T09:36:33.571Z</time></trkpt><trkpt lat="40.7840377" lon="17.2376902"><ele>423.1666666666667</ele><time>2026-04-25T09:36:35.579Z</time></trkpt><trkpt lat="40.7840008" lon="17.2377647"><ele>423.33333333333337</ele><time>2026-04-25T09:36:37.58Z</time></trkpt><trkpt lat="40.7839562" lon="17.2378722"><ele>423.5</ele><time>2026-04-25T09:36:40.581Z</time></trkpt><trkpt lat="40.7839049" lon="17.2379666"><ele>423.6666666666667</ele><time>2026-04-25T09:36:43.594Z</time></trkpt><trkpt lat="40.7838947" lon="17.2380613"><ele>423.83333333333337</ele><time>2026-04-25T09:36:47.605Z</time></trkpt><trkpt lat="40.7839392" lon="17.2381615"><ele>424.0</ele><time>2026-04-25T09:36:50.58Z</time></trkpt><trkpt lat="40.7839704" lon="17.2382346"><ele>424.0</ele><time>2026-04-25T09:36:52.571Z</time></trkpt><trkpt lat="40.783995" lon="17.2383114"><ele>424.0</ele><time>2026-04-25T09:36:54.57Z</time></trkpt><trkpt lat="40.7840309" lon="17.2384111"><ele>424.0</ele><time>2026-04-25T09:36:57.58Z</time></trkpt><trkpt lat="40.7840392" lon="17.2385329"><ele>424.0</ele><time>2026-04-25T09:37:00.575Z</time></trkpt><trkpt lat="40.7840338" lon="17.2386174"><ele>424.0</ele><time>2026-04-25T09:37:02.588Z</time></trkpt><trkpt lat="40.7840263" lon="17.2387028"><ele>424.0</ele><time>2026-04-25T09:37:04.579Z</time></trkpt><trkpt lat="40.7840272" lon="17.2387888"><ele>424.0</ele><time>2026-04-25T09:37:06.58Z</time></trkpt><trkpt lat="40.7840167" lon="17.2388794"><ele>423.4</ele><time>2026-04-25T09:37:08.585Z</time></trkpt><trkpt lat="40.7840108" lon="17.2390028"><ele>422.79999999999995</ele><time>2026-04-25T09:37:11.602Z</time></trkpt><trkpt lat="40.7839837" lon="17.2390805"><ele>422.20000000000005</ele><time>2026-04-25T09:37:13.59Z</time></trkpt><trkpt lat="40.7839545" lon="17.2391578"><ele>421.6</ele><time>2026-04-25T09:37:15.577Z</time></trkpt><trkpt lat="40.7838936" lon="17.239255"><ele>421.0</ele><time>2026-04-25T09:37:18.606Z</time></trkpt><trkpt lat="40.7836867" lon="17.2392075"><ele>421.75</ele><time>2026-04-25T09:39:23.569Z</time></trkpt><trkpt lat="40.7835351" lon="17.2389176"><ele>422.5</ele><time>2026-04-25T09:39:37.573Z</time></trkpt><trkpt lat="40.7835214" lon="17.2388046"><ele>423.25</ele><time>2026-04-25T09:39:40.584Z</time></trkpt><trkpt lat="40.7835163" lon="17.2387197"><ele>424.0</ele><time>2026-04-25T09:39:42.576Z</time></trkpt><trkpt lat="40.7835575" lon="17.2387975"><ele>424.0</ele><time>2026-04-25T09:40:36.578Z</time></trkpt><trkpt lat="40.783592" lon="17.2388845"><ele>424.0</ele><time>2026-04-25T09:40:41.583Z</time></trkpt><trkpt lat="40.7836263" lon="17.2389741"><ele>424.0</ele><time>2026-04-25T09:40:45.587Z</time></trkpt><trkpt lat="40.783651" lon="17.2390535"><ele>424.0</ele><time>2026-04-25T09:40:48.572Z</time></trkpt><trkpt lat="40.7836929" lon="17.2391322"><ele>424.0</ele><time>2026-04-25T09:40:56.579Z</time></trkpt><trkpt lat="40.7837506" lon="17.2391929"><ele>424.0</ele><time>2026-04-25T09:41:00.575Z</time></trkpt><trkpt lat="40.783811" lon="17.2392241"><ele>424.0</ele><time>2026-04-25T09:41:03.58Z</time></trkpt><trkpt lat="40.7838664" lon="17.239267"><ele>424.0</ele><time>2026-04-25T09:41:14.582Z</time></trkpt><trkpt lat="40.7839163" lon="17.2392087"><ele>424.0</ele><time>2026-04-25T09:41:19.571Z</time></trkpt><trkpt lat="40.7839545" lon="17.2391206"><ele>424.0</ele><time>2026-04-25T09:41:23.573Z</time></trkpt><trkpt lat="40.7839935" lon="17.2390359"><ele>424.0</ele><time>2026-04-25T09:41:26.574Z</time></trkpt><trkpt lat="40.7840164" lon="17.2389398"><ele>424.0</ele><time>2026-04-25T09:41:29.574Z</time></trkpt><trkpt lat="40.7840525" lon="17.2388676"><ele>424.0</ele><time>2026-04-25T09:41:32.568Z</time></trkpt><trkpt lat="40.7840126" lon="17.2389554"><ele>424.0</ele><time>2026-04-25T09:41:40.589Z</time></trkpt><trkpt lat="40.7840547" lon="17.2390178"><ele>421.0</ele><time>2026-04-25T09:41:44.568Z</time></trkpt><trkpt lat="40.7841039" lon="17.2389616"><ele>424.0</ele><time>2026-04-25T09:41:47.586Z</time></trkpt><trkpt lat="40.7841039" lon="17.2389616"><ele>424.0</ele><time>2026-04-25T09:41:47.586Z</time></trkpt></trkseg><trkseg><trkpt lat="40.7840131" lon="17.2390554"><ele>421.00000000000006</ele><time>2026-04-25T09:53:07.562Z</time></trkpt><trkpt lat="40.7839724" lon="17.2391349"><ele>421.0</ele><time>2026-04-25T09:53:10.568Z</time></trkpt><trkpt lat="40.7839555" lon="17.2392379"><ele>421.0</ele><time>2026-04-25T09:53:14.563Z</time></trkpt><trkpt lat="40.7839881" lon="17.2391426"><ele>421.0</ele><time>2026-04-25T09:53:19.564Z</time></trkpt><trkpt lat="40.7840266" lon="17.2390419"><ele>421.00000000000006</ele><time>2026-04-25T09:53:23.577Z</time></trkpt><trkpt lat="40.7840513" lon="17.2389603"><ele>421.0</ele><time>2026-04-25T09:53:25.575Z</time></trkpt><trkpt lat="40.7841024" lon="17.2388875"><ele>421.50000000000006</ele><time>2026-04-25T09:53:27.573Z</time></trkpt><trkpt lat="40.7841713" lon="17.238834"><ele>422.0</ele><time>2026-04-25T09:53:29.577Z</time></trkpt><trkpt lat="40.7842417" lon="17.2387664"><ele>422.5</ele><time>2026-04-25T09:53:32.58Z</time></trkpt><trkpt lat="40.7842418" lon="17.2386829"><ele>423.0</ele><time>2026-04-25T09:53:36.559Z</time></trkpt><trkpt lat="40.784195" lon="17.2386165"><ele>423.50000000000006</ele><time>2026-04-25T09:53:40.56Z</time></trkpt><trkpt lat="40.7841294" lon="17.2385605"><ele>424.0</ele><time>2026-04-25T09:53:44.582Z</time></trkpt><trkpt lat="40.7840675" lon="17.2384786"><ele>424.00000000000006</ele><time>2026-04-25T09:53:47.563Z</time></trkpt><trkpt lat="40.7840382" lon="17.2383859"><ele>424.0</ele><time>2026-04-25T09:53:50.556Z</time></trkpt><trkpt lat="40.7840162" lon="17.2382905"><ele>424.0</ele><time>2026-04-25T09:53:53.572Z</time></trkpt><trkpt lat="40.7839839" lon="17.2381879"><ele>424.0</ele><time>2026-04-25T09:53:55.564Z</time></trkpt><trkpt lat="40.7839425" lon="17.2381119"><ele>424.00000000000006</ele><time>2026-04-25T09:53:57.562Z</time></trkpt><trkpt lat="40.7839371" lon="17.2379966"><ele>424.0</ele><time>2026-04-25T09:53:59.569Z</time></trkpt><trkpt lat="40.78398" lon="17.2378684"><ele>423.5714285714286</ele><time>2026-04-25T09:54:01.563Z</time></trkpt><trkpt lat="40.784011" lon="17.2377771"><ele>423.1428571428571</ele><time>2026-04-25T09:54:03.571Z</time></trkpt><trkpt lat="40.7839873" lon="17.2376872"><ele>422.7142857142857</ele><time>2026-04-25T09:54:05.565Z</time></trkpt><trkpt lat="40.7839954" lon="17.2375921"><ele>422.28571428571433</ele><time>2026-04-25T09:54:07.561Z</time></trkpt><trkpt lat="40.7839891" lon="17.2375062"><ele>421.8571428571429</ele><time>2026-04-25T09:54:09.568Z</time></trkpt><trkpt lat="40.7839922" lon="17.2374063"><ele>421.42857142857144</ele><time>2026-04-25T09:54:12.582Z</time></trkpt><trkpt lat="40.7839601" lon="17.2373233"><ele>421.0</ele><time>2026-04-25T09:54:14.574Z</time></trkpt><trkpt lat="40.7839262" lon="17.2372117"><ele>420.7142857142857</ele><time>2026-04-25T09:54:17.564Z</time></trkpt><trkpt lat="40.7838801" lon="17.2371355"><ele>420.42857142857144</ele><time>2026-04-25T09:54:20.563Z</time></trkpt><trkpt lat="40.783815" lon="17.2370958"><ele>420.1428571428571</ele><time>2026-04-25T09:54:26.567Z</time></trkpt><trkpt lat="40.783745" lon="17.2371061"><ele>419.8571428571429</ele><time>2026-04-25T09:54:29.563Z</time></trkpt><trkpt lat="40.7836728" lon="17.2371293"><ele>419.57142857142856</ele><time>2026-04-25T09:54:32.583Z</time></trkpt><trkpt lat="40.7835842" lon="17.237142"><ele>419.2857142857143</ele><time>2026-04-25T09:54:35.57Z</time></trkpt><trkpt lat="40.7835163" lon="17.2371611"><ele>419.0</ele><time>2026-04-25T09:54:37.589Z</time></trkpt><trkpt lat="40.7834447" lon="17.2371814"><ele>417.66666666666663</ele><time>2026-04-25T09:54:39.586Z</time></trkpt><trkpt lat="40.783365" lon="17.2372087"><ele>416.3333333333333</ele><time>2026-04-25T09:54:41.567Z</time></trkpt><trkpt lat="40.7832753" lon="17.2372389"><ele>415.0</ele><time>2026-04-25T09:54:43.575Z</time></trkpt><trkpt lat="40.7831982" lon="17.2372379"><ele>413.66666666666663</ele><time>2026-04-25T09:54:45.577Z</time></trkpt><trkpt lat="40.7831429" lon="17.2371975"><ele>412.3333333333333</ele><time>2026-04-25T09:54:47.573Z</time></trkpt><trkpt lat="40.7831348" lon="17.2370709"><ele>411.0</ele><time>2026-04-25T09:54:50.578Z</time></trkpt><trkpt lat="40.7831467" lon="17.2369867"><ele>411.0</ele><time>2026-04-25T09:54:52.564Z</time></trkpt><trkpt lat="40.7831562" lon="17.236877"><ele>411.0</ele><time>2026-04-25T09:54:55.571Z</time></trkpt><trkpt lat="40.7831852" lon="17.2367705"><ele>411.0</ele><time>2026-04-25T09:54:58.573Z</time></trkpt><trkpt lat="40.7832184" lon="17.236655"><ele>411.0</ele><time>2026-04-25T09:55:01.58Z</time></trkpt><trkpt lat="40.7832619" lon="17.2365871"><ele>411.0</ele><time>2026-04-25T09:55:03.576Z</time></trkpt><trkpt lat="40.7833031" lon="17.2365118"><ele>411.0</ele><time>2026-04-25T09:55:05.57Z</time></trkpt><trkpt lat="40.7833364" lon="17.2364306"><ele>411.1666666666667</ele><time>2026-04-25T09:55:07.569Z</time></trkpt><trkpt lat="40.7833707" lon="17.236347"><ele>411.33333333333337</ele><time>2026-04-25T09:55:09.569Z</time></trkpt><trkpt lat="40.7833862" lon="17.2362664"><ele>411.5</ele><time>2026-04-25T09:55:11.572Z</time></trkpt><trkpt lat="40.7834171" lon="17.2361926"><ele>411.6666666666667</ele><time>2026-04-25T09:55:13.58Z</time></trkpt><trkpt lat="40.7834781" lon="17.2360991"><ele>411.83333333333337</ele><time>2026-04-25T09:55:16.579Z</time></trkpt><trkpt lat="40.7835418" lon="17.2360107"><ele>412.0</ele><time>2026-04-25T09:55:19.568Z</time></trkpt><trkpt lat="40.7836025" lon="17.2359336"><ele>412.00000000000006</ele><time>2026-04-25T09:55:22.583Z</time></trkpt><trkpt lat="40.7836661" lon="17.2358606"><ele>412.0</ele><time>2026-04-25T09:55:25.568Z</time></trkpt><trkpt lat="40.7835974" lon="17.2358377"><ele>412.0</ele><time>2026-04-25T09:55:36.578Z</time></trkpt><trkpt lat="40.7835409" lon="17.2359033"><ele>412.0</ele><time>2026-04-25T09:55:39.558Z</time></trkpt><trkpt lat="40.7835067" lon="17.2359838"><ele>412.00000000000006</ele><time>2026-04-25T09:55:41.564Z</time></trkpt><trkpt lat="40.783468" lon="17.236061"><ele>412.0</ele><time>2026-04-25T09:55:43.573Z</time></trkpt><trkpt lat="40.7833977" lon="17.2361332"><ele>412.00000000000006</ele><time>2026-04-25T09:55:46.579Z</time></trkpt><trkpt lat="40.7833472" lon="17.2362377"><ele>412.0</ele><time>2026-04-25T09:55:49.561Z</time></trkpt><trkpt lat="40.7833114" lon="17.236333"><ele>412.0</ele><time>2026-04-25T09:55:51.575Z</time></trkpt><trkpt lat="40.7832777" lon="17.2364219"><ele>412.0</ele><time>2026-04-25T09:55:53.576Z</time></trkpt><trkpt lat="40.7832278" lon="17.2364956"><ele>412.00000000000006</ele><time>2026-04-25T09:55:55.565Z</time></trkpt><trkpt lat="40.7831954" lon="17.2365675"><ele>412.0</ele><time>2026-04-25T09:55:57.582Z</time></trkpt><trkpt lat="40.783175" lon="17.2366486"><ele>411.83333333333337</ele><time>2026-04-25T09:56:03.567Z</time></trkpt><trkpt lat="40.7831666" lon="17.236736"><ele>411.6666666666667</ele><time>2026-04-25T09:56:05.575Z</time></trkpt><trkpt lat="40.7831705" lon="17.2368451"><ele>411.5</ele><time>2026-04-25T09:56:07.564Z</time></trkpt><trkpt lat="40.7831651" lon="17.2369404"><ele>411.33333333333337</ele><time>2026-04-25T09:56:09.577Z</time></trkpt><trkpt lat="40.7831611" lon="17.2370303"><ele>411.1666666666667</ele><time>2026-04-25T09:56:11.58Z</time></trkpt><trkpt lat="40.7831358" lon="17.2371503"><ele>411.0</ele><time>2026-04-25T09:56:14.579Z</time></trkpt><trkpt lat="40.7830947" lon="17.2372439"><ele>411.57142857142856</ele><time>2026-04-25T09:56:16.568Z</time></trkpt><trkpt lat="40.7830606" lon="17.2373227"><ele>412.1428571428571</ele><time>2026-04-25T09:56:18.576Z</time></trkpt><trkpt lat="40.7830325" lon="17.2374181"><ele>412.7142857142857</ele><time>2026-04-25T09:56:21.563Z</time></trkpt><trkpt lat="40.7830112" lon="17.2375035"><ele>413.2857142857143</ele><time>2026-04-25T09:56:24.587Z</time></trkpt><trkpt lat="40.7830007" lon="17.2376093"><ele>413.8571428571429</ele><time>2026-04-25T09:56:30.569Z</time></trkpt><trkpt lat="40.7830704" lon="17.2376544"><ele>414.42857142857144</ele><time>2026-04-25T09:56:34.573Z</time></trkpt><trkpt lat="40.7831237" lon="17.2375949"><ele>415.0</ele><time>2026-04-25T09:57:01.57Z</time></trkpt><trkpt lat="40.783074" lon="17.2375185"><ele>415.0</ele><time>2026-04-25T09:57:07.595Z</time></trkpt><trkpt lat="40.7830433" lon="17.2374415"><ele>415.0</ele><time>2026-04-25T09:57:12.583Z</time></trkpt><trkpt lat="40.7830528" lon="17.2373563"><ele>415.0</ele><time>2026-04-25T09:57:15.57Z</time></trkpt><trkpt lat="40.7830588" lon="17.2372588"><ele>415.0</ele><time>2026-04-25T09:57:18.575Z</time></trkpt><trkpt lat="40.7830825" lon="17.2371732"><ele>415.0</ele><time>2026-04-25T09:57:21.566Z</time></trkpt><trkpt lat="40.7830868" lon="17.2370808"><ele>415.0</ele><time>2026-04-25T09:57:24.566Z</time></trkpt><trkpt lat="40.7831022" lon="17.2369776"><ele>415.0</ele><time>2026-04-25T09:57:27.566Z</time></trkpt><trkpt lat="40.783141" lon="17.2369069"><ele>414.50000000000006</ele><time>2026-04-25T09:57:30.562Z</time></trkpt><trkpt lat="40.7831752" lon="17.2368038"><ele>414.0</ele><time>2026-04-25T09:57:33.58Z</time></trkpt><trkpt lat="40.7832028" lon="17.2366905"><ele>413.5</ele><time>2026-04-25T09:57:36.585Z</time></trkpt><trkpt lat="40.7832358" lon="17.2366127"><ele>413.0</ele><time>2026-04-25T09:57:38.566Z</time></trkpt><trkpt lat="40.7832661" lon="17.2365305"><ele>412.50000000000006</ele><time>2026-04-25T09:57:40.579Z</time></trkpt><trkpt lat="40.7833105" lon="17.2364589"><ele>412.0</ele><time>2026-04-25T09:57:42.57Z</time></trkpt><trkpt lat="40.7833391" lon="17.236377"><ele>411.99999999999994</ele><time>2026-04-25T09:57:44.585Z</time></trkpt><trkpt lat="40.7833696" lon="17.2362923"><ele>412.0</ele><time>2026-04-25T09:57:46.569Z</time></trkpt><trkpt lat="40.7834049" lon="17.2362098"><ele>412.0</ele><time>2026-04-25T09:57:48.571Z</time></trkpt><trkpt lat="40.7834352" lon="17.2361327"><ele>412.0</ele><time>2026-04-25T09:57:50.571Z</time></trkpt><trkpt lat="40.7834638" lon="17.2360537"><ele>412.0</ele><time>2026-04-25T09:57:52.579Z</time></trkpt><trkpt lat="40.7834907" lon="17.2359724"><ele>411.99999999999994</ele><time>2026-04-25T09:57:54.568Z</time></trkpt><trkpt lat="40.7835221" lon="17.2358526"><ele>412.0</ele><time>2026-04-25T09:57:57.574Z</time></trkpt><trkpt lat="40.7835445" lon="17.2357393"><ele>412.50000000000006</ele><time>2026-04-25T09:58:00.575Z</time></trkpt><trkpt lat="40.7835381" lon="17.2356286"><ele>413.0</ele><time>2026-04-25T09:58:03.575Z</time></trkpt><trkpt lat="40.7835257" lon="17.2355105"><ele>413.5</ele><time>2026-04-25T09:58:06.567Z</time></trkpt><trkpt lat="40.7835077" lon="17.2354057"><ele>414.0</ele><time>2026-04-25T09:58:09.571Z</time></trkpt><trkpt lat="40.7835051" lon="17.2353208"><ele>414.50000000000006</ele><time>2026-04-25T09:58:13.585Z</time></trkpt><trkpt lat="40.7835453" lon="17.2352348"><ele>415.0</ele><time>2026-04-25T09:58:17.566Z</time></trkpt><trkpt lat="40.7835755" lon="17.2351598"><ele>415.14285714285717</ele><time>2026-04-25T09:58:19.562Z</time></trkpt><trkpt lat="40.7836074" lon="17.2350694"><ele>415.28571428571433</ele><time>2026-04-25T09:58:21.575Z</time></trkpt><trkpt lat="40.7836296" lon="17.2349915"><ele>415.42857142857144</ele><time>2026-04-25T09:58:23.57Z</time></trkpt><trkpt lat="40.7836637" lon="17.2349169"><ele>415.57142857142856</ele><time>2026-04-25T09:58:25.561Z</time></trkpt><trkpt lat="40.7836875" lon="17.2348349"><ele>415.7142857142857</ele><time>2026-04-25T09:58:27.573Z</time></trkpt><trkpt lat="40.7837193" lon="17.2347252"><ele>415.85714285714283</ele><time>2026-04-25T09:58:30.57Z</time></trkpt><trkpt lat="40.783735" lon="17.2346346"><ele>416.0</ele><time>2026-04-25T09:58:32.568Z</time></trkpt><trkpt lat="40.7837533" lon="17.2345436"><ele>416.0</ele><time>2026-04-25T09:58:34.574Z</time></trkpt><trkpt lat="40.7837721" lon="17.2344422"><ele>416.0</ele><time>2026-04-25T09:58:36.564Z</time></trkpt><trkpt lat="40.7837927" lon="17.2343514"><ele>416.0</ele><time>2026-04-25T09:58:38.568Z</time></trkpt><trkpt lat="40.7838137" lon="17.2342499"><ele>416.0</ele><time>2026-04-25T09:58:40.578Z</time></trkpt><trkpt lat="40.7838284" lon="17.2341641"><ele>416.0</ele><time>2026-04-25T09:58:42.564Z</time></trkpt><trkpt lat="40.7838503" lon="17.2340744"><ele>416.0</ele><time>2026-04-25T09:58:44.577Z</time></trkpt><trkpt lat="40.7838661" lon="17.233987"><ele>416.0</ele><time>2026-04-25T09:58:46.568Z</time></trkpt><trkpt lat="40.7838865" lon="17.2338963"><ele>415.99999999999994</ele><time>2026-04-25T09:58:48.571Z</time></trkpt><trkpt lat="40.7838973" lon="17.2338041"><ele>416.0</ele><time>2026-04-25T09:58:50.578Z</time></trkpt><trkpt lat="40.7839118" lon="17.2337169"><ele>416.0</ele><time>2026-04-25T09:58:52.581Z</time></trkpt><trkpt lat="40.7839451" lon="17.2335999"><ele>416.0</ele><time>2026-04-25T09:58:55.561Z</time></trkpt><trkpt lat="40.78399" lon="17.2334913"><ele>415.99999999999994</ele><time>2026-04-25T09:58:58.573Z</time></trkpt><trkpt lat="40.7840296" lon="17.2333826"><ele>416.0</ele><time>2026-04-25T09:59:01.561Z</time></trkpt><trkpt lat="40.7840541" lon="17.2333"><ele>416.0</ele><time>2026-04-25T09:59:03.565Z</time></trkpt><trkpt lat="40.7840894" lon="17.2332244"><ele>416.0</ele><time>2026-04-25T09:59:05.57Z</time></trkpt><trkpt lat="40.7841318" lon="17.2331547"><ele>416.0</ele><time>2026-04-25T09:59:07.568Z</time></trkpt><trkpt lat="40.784169" lon="17.2330836"><ele>416.0</ele><time>2026-04-25T09:59:09.574Z</time></trkpt><trkpt lat="40.7842296" lon="17.2330005"><ele>416.0</ele><time>2026-04-25T09:59:12.569Z</time></trkpt><trkpt lat="40.7842769" lon="17.2329225"><ele>416.0</ele><time>2026-04-25T09:59:15.564Z</time></trkpt><trkpt lat="40.7842849" lon="17.2328229"><ele>416.0</ele><time>2026-04-25T09:59:18.571Z</time></trkpt><trkpt lat="40.7842305" lon="17.2327392"><ele>416.3333333333333</ele><time>2026-04-25T09:59:21.56Z</time></trkpt><trkpt lat="40.7841714" lon="17.2326577"><ele>416.66666666666663</ele><time>2026-04-25T09:59:24.575Z</time></trkpt><trkpt lat="40.7841171" lon="17.2325751"><ele>417.0</ele><time>2026-04-25T09:59:27.573Z</time></trkpt><trkpt lat="40.7840644" lon="17.232496"><ele>417.33333333333337</ele><time>2026-04-25T09:59:30.581Z</time></trkpt><trkpt lat="40.7840179" lon="17.2324206"><ele>417.6666666666667</ele><time>2026-04-25T09:59:33.563Z</time></trkpt><trkpt lat="40.7839751" lon="17.2323413"><ele>418.0</ele><time>2026-04-25T09:59:36.569Z</time></trkpt><trkpt lat="40.7839264" lon="17.2322666"><ele>418.1666666666667</ele><time>2026-04-25T09:59:39.575Z</time></trkpt><trkpt lat="40.7838658" lon="17.2322026"><ele>418.33333333333337</ele><time>2026-04-25T10:00:15.557Z</time></trkpt><trkpt lat="40.7838193" lon="17.2321448"><ele>418.5</ele><time>2026-04-25T10:00:24.565Z</time></trkpt><trkpt lat="40.7837758" lon="17.2320503"><ele>418.66666666666663</ele><time>2026-04-25T10:00:28.562Z</time></trkpt><trkpt lat="40.7837238" lon="17.2319745"><ele>418.8333333333333</ele><time>2026-04-25T10:00:31.57Z</time></trkpt><trkpt lat="40.7836725" lon="17.2318897"><ele>419.0</ele><time>2026-04-25T10:00:34.569Z</time></trkpt><trkpt lat="40.7836238" lon="17.2318175"><ele>418.99999999999994</ele><time>2026-04-25T10:00:37.57Z</time></trkpt><trkpt lat="40.7835755" lon="17.2317255"><ele>419.0</ele><time>2026-04-25T10:00:40.572Z</time></trkpt><trkpt lat="40.7835262" lon="17.2316346"><ele>419.0</ele><time>2026-04-25T10:00:43.571Z</time></trkpt><trkpt lat="40.7834821" lon="17.2315379"><ele>419.0</ele><time>2026-04-25T10:00:47.559Z</time></trkpt><trkpt lat="40.7834495" lon="17.2314479"><ele>418.99999999999994</ele><time>2026-04-25T10:00:51.56Z</time></trkpt><trkpt lat="40.7833956" lon="17.2313662"><ele>419.0</ele><time>2026-04-25T10:03:34.568Z</time></trkpt><trkpt lat="40.7833667" lon="17.2312849"><ele>419.57142857142856</ele><time>2026-04-25T10:03:40.572Z</time></trkpt><trkpt lat="40.7833031" lon="17.2312379"><ele>420.1428571428571</ele><time>2026-04-25T10:03:46.57Z</time></trkpt><trkpt lat="40.7832595" lon="17.2311622"><ele>420.71428571428567</ele><time>2026-04-25T10:03:52.586Z</time></trkpt><trkpt lat="40.7832164" lon="17.2310952"><ele>421.2857142857143</ele><time>2026-04-25T10:03:57.57Z</time></trkpt><trkpt lat="40.7831782" lon="17.2310276"><ele>421.8571428571429</ele><time>2026-04-25T10:04:02.584Z</time></trkpt><trkpt lat="40.7831413" lon="17.2309521"><ele>422.4285714285714</ele><time>2026-04-25T10:04:08.574Z</time></trkpt><trkpt lat="40.7830894" lon="17.2308784"><ele>423.0</ele><time>2026-04-25T10:04:14.583Z</time></trkpt><trkpt lat="40.7830558" lon="17.2308067"><ele>423.0</ele><time>2026-04-25T10:04:19.565Z</time></trkpt><trkpt lat="40.7830178" lon="17.2307358"><ele>423.0</ele><time>2026-04-25T10:04:24.564Z</time></trkpt><trkpt lat="40.7829676" lon="17.230662"><ele>423.0</ele><time>2026-04-25T10:04:30.594Z</time></trkpt><trkpt lat="40.7829276" lon="17.2305828"><ele>423.0</ele><time>2026-04-25T10:04:36.559Z</time></trkpt><trkpt lat="40.782897" lon="17.2305099"><ele>423.0</ele><time>2026-04-25T10:04:42.57Z</time></trkpt><trkpt lat="40.7828675" lon="17.2304334"><ele>423.0</ele><time>2026-04-25T10:04:48.58Z</time></trkpt><trkpt lat="40.7828361" lon="17.230349"><ele>423.0</ele><time>2026-04-25T10:04:56.569Z</time></trkpt><trkpt lat="40.7828054" lon="17.2302671"><ele>423.2857142857143</ele><time>2026-04-25T10:05:01.56Z</time></trkpt><trkpt lat="40.7827828" lon="17.2301764"><ele>423.5714285714286</ele><time>2026-04-25T10:05:07.565Z</time></trkpt><trkpt lat="40.7827665" lon="17.230088"><ele>423.8571428571429</ele><time>2026-04-25T10:05:14.57Z</time></trkpt><trkpt lat="40.7827349" lon="17.2300112"><ele>424.1428571428571</ele><time>2026-04-25T10:05:39.563Z</time></trkpt><trkpt lat="40.7826991" lon="17.2299337"><ele>424.42857142857144</ele><time>2026-04-25T10:05:45.562Z</time></trkpt><trkpt lat="40.7826686" lon="17.2298518"><ele>424.7142857142857</ele><time>2026-04-25T10:05:51.569Z</time></trkpt><trkpt lat="40.782629" lon="17.229762"><ele>425.0</ele><time>2026-04-25T10:05:59.556Z</time></trkpt><trkpt lat="40.7825944" lon="17.2296823"><ele>426.49999999999994</ele><time>2026-04-25T10:06:02.578Z</time></trkpt><trkpt lat="40.7825551" lon="17.2295978"><ele>428.0</ele><time>2026-04-25T10:06:05.557Z</time></trkpt><trkpt lat="40.7825182" lon="17.2295035"><ele>429.5</ele><time>2026-04-25T10:06:08.571Z</time></trkpt><trkpt lat="40.7824805" lon="17.2293997"><ele>431.0</ele><time>2026-04-25T10:06:11.559Z</time></trkpt><trkpt lat="40.7824444" lon="17.2293071"><ele>432.49999999999994</ele><time>2026-04-25T10:06:14.569Z</time></trkpt><trkpt lat="40.782411" lon="17.2292068"><ele>434.0</ele><time>2026-04-25T10:06:17.574Z</time></trkpt><trkpt lat="40.7823769" lon="17.2291129"><ele>434.0</ele><time>2026-04-25T10:06:20.582Z</time></trkpt><trkpt lat="40.7823441" lon="17.2290205"><ele>434.0</ele><time>2026-04-25T10:06:23.566Z</time></trkpt><trkpt lat="40.7823099" lon="17.228932"><ele>434.0</ele><time>2026-04-25T10:06:26.576Z</time></trkpt><trkpt lat="40.7822835" lon="17.2288446"><ele>434.0</ele><time>2026-04-25T10:06:29.568Z</time></trkpt><trkpt lat="40.7822623" lon="17.228751"><ele>434.0</ele><time>2026-04-25T10:06:32.576Z</time></trkpt><trkpt lat="40.7822333" lon="17.2286688"><ele>434.0</ele><time>2026-04-25T10:06:35.572Z</time></trkpt><trkpt lat="40.7821966" lon="17.2285817"><ele>434.0</ele><time>2026-04-25T10:06:39.575Z</time></trkpt><trkpt lat="40.7821676" lon="17.2285039"><ele>434.3333333333333</ele><time>2026-04-25T10:06:42.576Z</time></trkpt><trkpt lat="40.7821387" lon="17.2284124"><ele>434.66666666666663</ele><time>2026-04-25T10:06:46.576Z</time></trkpt><trkpt lat="40.7821153" lon="17.2283322"><ele>435.0</ele><time>2026-04-25T10:06:50.575Z</time></trkpt><trkpt lat="40.7820887" lon="17.2282315"><ele>435.33333333333337</ele><time>2026-04-25T10:06:54.577Z</time></trkpt><trkpt lat="40.7820708" lon="17.2281219"><ele>435.6666666666667</ele><time>2026-04-25T10:06:58.565Z</time></trkpt><trkpt lat="40.7820566" lon="17.2280303"><ele>436.0</ele><time>2026-04-25T10:07:01.57Z</time></trkpt><trkpt lat="40.782042" lon="17.2279261"><ele>436.00000000000006</ele><time>2026-04-25T10:07:04.568Z</time></trkpt><trkpt lat="40.7820262" lon="17.2278273"><ele>436.0</ele><time>2026-04-25T10:07:07.562Z</time></trkpt><trkpt lat="40.7820058" lon="17.2277298"><ele>436.0</ele><time>2026-04-25T10:07:10.583Z</time></trkpt><trkpt lat="40.7819685" lon="17.2276169"><ele>436.0</ele><time>2026-04-25T10:07:13.586Z</time></trkpt><trkpt lat="40.7819313" lon="17.2275439"><ele>436.00000000000006</ele><time>2026-04-25T10:07:15.559Z</time></trkpt><trkpt lat="40.7818834" lon="17.2274791"><ele>436.0</ele><time>2026-04-25T10:07:17.561Z</time></trkpt><trkpt lat="40.7818156" lon="17.2273921"><ele>436.0</ele><time>2026-04-25T10:07:19.568Z</time></trkpt><trkpt lat="40.7817524" lon="17.2272934"><ele>436.0</ele><time>2026-04-25T10:07:21.566Z</time></trkpt><trkpt lat="40.7817067" lon="17.2271958"><ele>436.0</ele><time>2026-04-25T10:07:23.561Z</time></trkpt><trkpt lat="40.7816586" lon="17.2270944"><ele>436.0</ele><time>2026-04-25T10:07:25.572Z</time></trkpt><trkpt lat="40.7815854" lon="17.2270362"><ele>436.0</ele><time>2026-04-25T10:07:27.556Z</time></trkpt><trkpt lat="40.7814989" lon="17.2269849"><ele>436.00000000000006</ele><time>2026-04-25T10:07:29.556Z</time></trkpt><trkpt lat="40.7814309" lon="17.2269227"><ele>436.0</ele><time>2026-04-25T10:07:31.568Z</time></trkpt><trkpt lat="40.7813766" lon="17.2268619"><ele>436.0</ele><time>2026-04-25T10:07:33.562Z</time></trkpt><trkpt lat="40.7813226" lon="17.2267979"><ele>436.0</ele><time>2026-04-25T10:07:35.573Z</time></trkpt><trkpt lat="40.7812689" lon="17.2267299"><ele>436.00000000000006</ele><time>2026-04-25T10:07:37.577Z</time></trkpt><trkpt lat="40.7812141" lon="17.2266658"><ele>436.0</ele><time>2026-04-25T10:07:39.568Z</time></trkpt><trkpt lat="40.7811525" lon="17.2265891"><ele>436.00000000000006</ele><time>2026-04-25T10:07:41.573Z</time></trkpt><trkpt lat="40.7810896" lon="17.2265275"><ele>436.0</ele><time>2026-04-25T10:07:43.579Z</time></trkpt><trkpt lat="40.7810333" lon="17.2264568"><ele>436.0</ele><time>2026-04-25T10:07:45.553Z</time></trkpt><trkpt lat="40.7809884" lon="17.2263814"><ele>436.0</ele><time>2026-04-25T10:07:47.569Z</time></trkpt><trkpt lat="40.7809473" lon="17.2262967"><ele>436.00000000000006</ele><time>2026-04-25T10:07:49.561Z</time></trkpt><trkpt lat="40.7809276" lon="17.2261962"><ele>436.0</ele><time>2026-04-25T10:07:51.568Z</time></trkpt><trkpt lat="40.780921" lon="17.226097"><ele>436.1666666666667</ele><time>2026-04-25T10:07:53.564Z</time></trkpt><trkpt lat="40.7809239" lon="17.2260074"><ele>436.33333333333337</ele><time>2026-04-25T10:07:55.583Z</time></trkpt><trkpt lat="40.7809268" lon="17.2259163"><ele>436.5</ele><time>2026-04-25T10:07:57.556Z</time></trkpt><trkpt lat="40.7809363" lon="17.2258168"><ele>436.66666666666663</ele><time>2026-04-25T10:07:59.566Z</time></trkpt><trkpt lat="40.7809443" lon="17.225709"><ele>436.8333333333333</ele><time>2026-04-25T10:08:01.567Z</time></trkpt><trkpt lat="40.7809571" lon="17.2255993"><ele>437.0</ele><time>2026-04-25T10:08:03.571Z</time></trkpt><trkpt lat="40.7809723" lon="17.2255003"><ele>437.0</ele><time>2026-04-25T10:08:05.566Z</time></trkpt><trkpt lat="40.7809876" lon="17.2254035"><ele>437.0</ele><time>2026-04-25T10:08:07.566Z</time></trkpt><trkpt lat="40.7809967" lon="17.2253112"><ele>437.0</ele><time>2026-04-25T10:08:10.581Z</time></trkpt><trkpt lat="40.7809904" lon="17.2252266"><ele>437.0</ele><time>2026-04-25T10:08:14.57Z</time></trkpt><trkpt lat="40.7809783" lon="17.2251257"><ele>437.0</ele><time>2026-04-25T10:08:17.577Z</time></trkpt><trkpt lat="40.7809472" lon="17.2250323"><ele>437.0</ele><time>2026-04-25T10:08:20.577Z</time></trkpt><trkpt lat="40.7809168" lon="17.2249291"><ele>437.0</ele><time>2026-04-25T10:08:23.56Z</time></trkpt><trkpt lat="40.7808742" lon="17.2248407"><ele>436.49999999999994</ele><time>2026-04-25T10:08:25.572Z</time></trkpt><trkpt lat="40.7808363" lon="17.2247538"><ele>436.0</ele><time>2026-04-25T10:08:27.569Z</time></trkpt><trkpt lat="40.7807764" lon="17.2246689"><ele>435.5</ele><time>2026-04-25T10:08:29.573Z</time></trkpt><trkpt lat="40.7807137" lon="17.2245937"><ele>435.0</ele><time>2026-04-25T10:08:31.564Z</time></trkpt><trkpt lat="40.7806261" lon="17.2245553"><ele>434.49999999999994</ele><time>2026-04-25T10:08:33.598Z</time></trkpt><trkpt lat="40.7805203" lon="17.2245647"><ele>434.0</ele><time>2026-04-25T10:08:35.566Z</time></trkpt><trkpt lat="40.7804197" lon="17.2245912"><ele>433.99999999999994</ele><time>2026-04-25T10:08:37.561Z</time></trkpt><trkpt lat="40.7803036" lon="17.2246034"><ele>434.0</ele><time>2026-04-25T10:08:39.591Z</time></trkpt><trkpt lat="40.7802373" lon="17.2245834"><ele>434.0</ele><time>2026-04-25T10:08:40.574Z</time></trkpt><trkpt lat="40.7801741" lon="17.2245472"><ele>434.0</ele><time>2026-04-25T10:08:41.561Z</time></trkpt><trkpt lat="40.7801197" lon="17.2244989"><ele>433.99999999999994</ele><time>2026-04-25T10:08:42.597Z</time></trkpt><trkpt lat="40.7800355" lon="17.2243909"><ele>434.0</ele><time>2026-04-25T10:08:44.568Z</time></trkpt><trkpt lat="40.7799698" lon="17.2242887"><ele>434.14285714285717</ele><time>2026-04-25T10:08:46.592Z</time></trkpt><trkpt lat="40.7799276" lon="17.2242"><ele>434.2857142857143</ele><time>2026-04-25T10:08:48.572Z</time></trkpt><trkpt lat="40.7798906" lon="17.2241253"><ele>434.42857142857144</ele><time>2026-04-25T10:08:50.575Z</time></trkpt><trkpt lat="40.7798476" lon="17.2240234"><ele>434.57142857142856</ele><time>2026-04-25T10:08:53.574Z</time></trkpt><trkpt lat="40.779822" lon="17.2239469"><ele>434.7142857142857</ele><time>2026-04-25T10:08:55.57Z</time></trkpt><trkpt lat="40.7797915" lon="17.2238686"><ele>434.8571428571429</ele><time>2026-04-25T10:08:57.565Z</time></trkpt><trkpt lat="40.7797614" lon="17.2237888"><ele>435.0</ele><time>2026-04-25T10:08:59.56Z</time></trkpt><trkpt lat="40.7797113" lon="17.2236854"><ele>435.1666666666667</ele><time>2026-04-25T10:09:02.566Z</time></trkpt><trkpt lat="40.7796637" lon="17.223589"><ele>435.33333333333337</ele><time>2026-04-25T10:09:05.561Z</time></trkpt><trkpt lat="40.7796093" lon="17.2235129"><ele>435.5</ele><time>2026-04-25T10:09:08.573Z</time></trkpt><trkpt lat="40.7795677" lon="17.2234462"><ele>435.6666666666667</ele><time>2026-04-25T10:09:10.589Z</time></trkpt><trkpt lat="40.7795173" lon="17.2233836"><ele>435.83333333333337</ele><time>2026-04-25T10:09:12.571Z</time></trkpt><trkpt lat="40.7794422" lon="17.2233159"><ele>436.0</ele><time>2026-04-25T10:09:15.584Z</time></trkpt><trkpt lat="40.7793947" lon="17.2232557"><ele>436.14285714285717</ele><time>2026-04-25T10:09:17.571Z</time></trkpt><trkpt lat="40.7793498" lon="17.2231959"><ele>436.28571428571433</ele><time>2026-04-25T10:09:19.566Z</time></trkpt><trkpt lat="40.7792919" lon="17.2231349"><ele>436.42857142857144</ele><time>2026-04-25T10:09:21.567Z</time></trkpt><trkpt lat="40.7792418" lon="17.2230746"><ele>436.57142857142856</ele><time>2026-04-25T10:09:23.567Z</time></trkpt><trkpt lat="40.7791818" lon="17.2229906"><ele>436.7142857142857</ele><time>2026-04-25T10:09:26.579Z</time></trkpt><trkpt lat="40.7791401" lon="17.222927"><ele>436.85714285714283</ele><time>2026-04-25T10:09:28.563Z</time></trkpt><trkpt lat="40.7790915" lon="17.2228402"><ele>437.0</ele><time>2026-04-25T10:09:31.575Z</time></trkpt><trkpt lat="40.7790583" lon="17.222769"><ele>437.7142857142857</ele><time>2026-04-25T10:09:39.569Z</time></trkpt><trkpt lat="40.7790174" lon="17.2226895"><ele>438.42857142857144</ele><time>2026-04-25T10:09:45.571Z</time></trkpt><trkpt lat="40.7789806" lon="17.2226143"><ele>439.14285714285717</ele><time>2026-04-25T10:09:50.587Z</time></trkpt><trkpt lat="40.7789438" lon="17.2225458"><ele>439.8571428571429</ele><time>2026-04-25T10:10:03.559Z</time></trkpt><trkpt lat="40.7789045" lon="17.2224651"><ele>440.57142857142856</ele><time>2026-04-25T10:10:09.577Z</time></trkpt><trkpt lat="40.77887" lon="17.2223823"><ele>441.28571428571433</ele><time>2026-04-25T10:10:15.56Z</time></trkpt><trkpt lat="40.7788299" lon="17.2223175"><ele>442.0</ele><time>2026-04-25T10:10:21.583Z</time></trkpt><trkpt lat="40.7787975" lon="17.2222349"><ele>443.0</ele><time>2026-04-25T10:10:29.587Z</time></trkpt><trkpt lat="40.7787633" lon="17.2221555"><ele>444.0</ele><time>2026-04-25T10:10:36.562Z</time></trkpt><trkpt lat="40.7786962" lon="17.2221155"><ele>445.0</ele><time>2026-04-25T10:12:38.573Z</time></trkpt><trkpt lat="40.7786592" lon="17.2220366"><ele>446.0</ele><time>2026-04-25T10:12:44.576Z</time></trkpt><trkpt lat="40.7786246" lon="17.2219671"><ele>446.99999999999994</ele><time>2026-04-25T10:12:49.562Z</time></trkpt><trkpt lat="40.7785849" lon="17.2218995"><ele>448.0</ele><time>2026-04-25T10:12:55.565Z</time></trkpt><trkpt lat="40.7785301" lon="17.221823"><ele>449.0</ele><time>2026-04-25T10:13:02.566Z</time></trkpt><trkpt lat="40.7784873" lon="17.2217513"><ele>449.4285714285714</ele><time>2026-04-25T10:13:08.562Z</time></trkpt><trkpt lat="40.7784439" lon="17.2216901"><ele>449.8571428571428</ele><time>2026-04-25T10:13:14.567Z</time></trkpt><trkpt lat="40.7783999" lon="17.2216255"><ele>450.2857142857143</ele><time>2026-04-25T10:13:20.552Z</time></trkpt><trkpt lat="40.7783494" lon="17.2215594"><ele>450.71428571428567</ele><time>2026-04-25T10:13:26.596Z</time></trkpt><trkpt lat="40.7782986" lon="17.221487"><ele>451.1428571428571</ele><time>2026-04-25T10:13:33.566Z</time></trkpt><trkpt lat="40.778252" lon="17.221427"><ele>451.57142857142856</ele><time>2026-04-25T10:13:39.562Z</time></trkpt><trkpt lat="40.7782024" lon="17.2213706"><ele>452.0</ele><time>2026-04-25T10:13:45.614Z</time></trkpt><trkpt lat="40.7781551" lon="17.2213156"><ele>452.14285714285717</ele><time>2026-04-25T10:13:51.58Z</time></trkpt><trkpt lat="40.7781046" lon="17.2212586"><ele>452.2857142857142</ele><time>2026-04-25T10:13:57.559Z</time></trkpt><trkpt lat="40.778052" lon="17.2211927"><ele>452.4285714285714</ele><time>2026-04-25T10:14:03.573Z</time></trkpt><trkpt lat="40.778005" lon="17.2211231"><ele>452.57142857142856</ele><time>2026-04-25T10:14:09.59Z</time></trkpt><trkpt lat="40.7779477" lon="17.2210704"><ele>452.71428571428567</ele><time>2026-04-25T10:14:15.598Z</time></trkpt><trkpt lat="40.7778854" lon="17.2210276"><ele>452.8571428571428</ele><time>2026-04-25T10:14:21.588Z</time></trkpt><trkpt lat="40.7778273" lon="17.2209833"><ele>452.99999999999994</ele><time>2026-04-25T10:14:27.665Z</time></trkpt><trkpt lat="40.7777596" lon="17.2209552"><ele>452.99999999999994</ele><time>2026-04-25T10:14:33.589Z</time></trkpt><trkpt lat="40.777691" lon="17.2209299"><ele>453.0</ele><time>2026-04-25T10:14:39.596Z</time></trkpt><trkpt lat="40.7776244" lon="17.2209125"><ele>452.99999999999994</ele><time>2026-04-25T10:14:45.607Z</time></trkpt><trkpt lat="40.7775556" lon="17.2209424"><ele>452.99999999999994</ele><time>2026-04-25T10:14:51.591Z</time></trkpt><trkpt lat="40.7774867" lon="17.2209393"><ele>453.0</ele><time>2026-04-25T10:14:57.593Z</time></trkpt><trkpt lat="40.7774214" lon="17.220905"><ele>452.99999999999994</ele><time>2026-04-25T10:15:03.604Z</time></trkpt><trkpt lat="40.7773572" lon="17.2208826"><ele>452.99999999999994</ele><time>2026-04-25T10:15:09.609Z</time></trkpt><trkpt lat="40.7772904" lon="17.2208466"><ele>453.6666666666667</ele><time>2026-04-25T10:15:17.563Z</time></trkpt><trkpt lat="40.7772291" lon="17.2207971"><ele>454.33333333333337</ele><time>2026-04-25T10:19:24.559Z</time></trkpt><trkpt lat="40.7772203" lon="17.2207109"><ele>455.0</ele><time>2026-04-25T10:19:27.592Z</time></trkpt><trkpt lat="40.7771686" lon="17.2206121"><ele>455.6666666666667</ele><time>2026-04-25T10:19:31.565Z</time></trkpt><trkpt lat="40.7771198" lon="17.2205262"><ele>456.33333333333337</ele><time>2026-04-25T10:19:34.57Z</time></trkpt><trkpt lat="40.777072" lon="17.2204328"><ele>457.0</ele><time>2026-04-25T10:19:37.561Z</time></trkpt><trkpt lat="40.7770214" lon="17.2203518"><ele>457.1666666666667</ele><time>2026-04-25T10:19:40.599Z</time></trkpt><trkpt lat="40.7769841" lon="17.2202809"><ele>457.33333333333337</ele><time>2026-04-25T10:19:45.563Z</time></trkpt><trkpt lat="40.7769472" lon="17.220195"><ele>457.5</ele><time>2026-04-25T10:19:48.566Z</time></trkpt><trkpt lat="40.7769002" lon="17.2201003"><ele>457.66666666666663</ele><time>2026-04-25T10:19:51.561Z</time></trkpt><trkpt lat="40.7768463" lon="17.2200056"><ele>457.8333333333333</ele><time>2026-04-25T10:19:54.566Z</time></trkpt><trkpt lat="40.7768013" lon="17.2199137"><ele>458.0</ele><time>2026-04-25T10:19:57.57Z</time></trkpt><trkpt lat="40.7767538" lon="17.219828"><ele>458.49999999999994</ele><time>2026-04-25T10:20:00.584Z</time></trkpt><trkpt lat="40.7766995" lon="17.2197399"><ele>459.0</ele><time>2026-04-25T10:20:03.564Z</time></trkpt><trkpt lat="40.7766415" lon="17.219659"><ele>459.5</ele><time>2026-04-25T10:20:06.576Z</time></trkpt><trkpt lat="40.7765817" lon="17.2195862"><ele>460.0</ele><time>2026-04-25T10:20:09.578Z</time></trkpt><trkpt lat="40.7765211" lon="17.219521"><ele>460.49999999999994</ele><time>2026-04-25T10:20:12.571Z</time></trkpt><trkpt lat="40.7764659" lon="17.2194573"><ele>461.0</ele><time>2026-04-25T10:20:15.568Z</time></trkpt><trkpt lat="40.7764157" lon="17.2193858"><ele>460.99999999999994</ele><time>2026-04-25T10:20:18.591Z</time></trkpt><trkpt lat="40.7763574" lon="17.2193199"><ele>461.0</ele><time>2026-04-25T10:20:21.568Z</time></trkpt><trkpt lat="40.7762867" lon="17.2192557"><ele>461.0</ele><time>2026-04-25T10:20:24.563Z</time></trkpt><trkpt lat="40.7762263" lon="17.2191884"><ele>461.0</ele><time>2026-04-25T10:20:27.579Z</time></trkpt><trkpt lat="40.7761663" lon="17.2191251"><ele>460.99999999999994</ele><time>2026-04-25T10:20:30.573Z</time></trkpt><trkpt lat="40.7761002" lon="17.2190609"><ele>461.0</ele><time>2026-04-25T10:20:33.574Z</time></trkpt><trkpt lat="40.7760353" lon="17.2190054"><ele>461.16666666666663</ele><time>2026-04-25T10:20:36.575Z</time></trkpt><trkpt lat="40.7759636" lon="17.218937"><ele>461.3333333333333</ele><time>2026-04-25T10:20:39.565Z</time></trkpt><trkpt lat="40.7758992" lon="17.2188779"><ele>461.5</ele><time>2026-04-25T10:20:42.57Z</time></trkpt><trkpt lat="40.7758375" lon="17.2188176"><ele>461.66666666666663</ele><time>2026-04-25T10:20:45.569Z</time></trkpt><trkpt lat="40.7757745" lon="17.2187612"><ele>461.8333333333333</ele><time>2026-04-25T10:20:48.567Z</time></trkpt><trkpt lat="40.7757175" lon="17.2187058"><ele>462.0</ele><time>2026-04-25T10:20:51.572Z</time></trkpt><trkpt lat="40.7756627" lon="17.2186495"><ele>462.0</ele><time>2026-04-25T10:20:54.568Z</time></trkpt><trkpt lat="40.7756096" lon="17.2185925"><ele>462.0</ele><time>2026-04-25T10:20:57.565Z</time></trkpt><trkpt lat="40.7755541" lon="17.2185284"><ele>462.0</ele><time>2026-04-25T10:21:00.581Z</time></trkpt><trkpt lat="40.7755079" lon="17.2184471"><ele>462.0</ele><time>2026-04-25T10:21:03.575Z</time></trkpt><trkpt lat="40.7754626" lon="17.2183735"><ele>462.0</ele><time>2026-04-25T10:21:06.573Z</time></trkpt><trkpt lat="40.7754165" lon="17.2182817"><ele>462.0</ele><time>2026-04-25T10:21:09.557Z</time></trkpt><trkpt lat="40.775361" lon="17.2181889"><ele>462.0</ele><time>2026-04-25T10:21:12.575Z</time></trkpt><trkpt lat="40.7753053" lon="17.2180989"><ele>462.0</ele><time>2026-04-25T10:21:15.571Z</time></trkpt><trkpt lat="40.7752464" lon="17.2180089"><ele>462.0</ele><time>2026-04-25T10:21:18.576Z</time></trkpt><trkpt lat="40.7752061" lon="17.2179439"><ele>462.0</ele><time>2026-04-25T10:21:20.568Z</time></trkpt><trkpt lat="40.7751645" lon="17.2178765"><ele>462.0</ele><time>2026-04-25T10:21:22.562Z</time></trkpt><trkpt lat="40.7751095" lon="17.2177778"><ele>462.0</ele><time>2026-04-25T10:21:25.57Z</time></trkpt><trkpt lat="40.7750705" lon="17.2177083"><ele>462.3333333333333</ele><time>2026-04-25T10:21:27.562Z</time></trkpt><trkpt lat="40.7750129" lon="17.2176088"><ele>462.66666666666663</ele><time>2026-04-25T10:21:30.584Z</time></trkpt><trkpt lat="40.7749707" lon="17.2175423"><ele>463.0</ele><time>2026-04-25T10:21:32.572Z</time></trkpt><trkpt lat="40.7749152" lon="17.2174496"><ele>463.3333333333333</ele><time>2026-04-25T10:21:35.583Z</time></trkpt><trkpt lat="40.7748638" lon="17.2173621"><ele>463.66666666666663</ele><time>2026-04-25T10:21:38.564Z</time></trkpt><trkpt lat="40.7748049" lon="17.2172716"><ele>464.0</ele><time>2026-04-25T10:21:41.568Z</time></trkpt><trkpt lat="40.7747483" lon="17.2171828"><ele>464.16666666666663</ele><time>2026-04-25T10:21:44.58Z</time></trkpt><trkpt lat="40.7746943" lon="17.2170888"><ele>464.3333333333333</ele><time>2026-04-25T10:21:47.56Z</time></trkpt><trkpt lat="40.7746468" lon="17.2170007"><ele>464.5</ele><time>2026-04-25T10:21:50.565Z</time></trkpt><trkpt lat="40.7745962" lon="17.2169082"><ele>464.66666666666663</ele><time>2026-04-25T10:21:53.57Z</time></trkpt><trkpt lat="40.7745485" lon="17.2168214"><ele>464.8333333333333</ele><time>2026-04-25T10:21:57.564Z</time></trkpt><trkpt lat="40.7745138" lon="17.2167465"><ele>465.0</ele><time>2026-04-25T10:22:00.567Z</time></trkpt><trkpt lat="40.7744427" lon="17.2167431"><ele>465.0</ele><time>2026-04-25T10:22:59.565Z</time></trkpt><trkpt lat="40.7744055" lon="17.2166608"><ele>465.0</ele><time>2026-04-25T10:23:05.579Z</time></trkpt><trkpt lat="40.7743665" lon="17.2165932"><ele>465.0</ele><time>2026-04-25T10:23:11.554Z</time></trkpt><trkpt lat="40.7743329" lon="17.2165101"><ele>465.0</ele><time>2026-04-25T10:23:16.561Z</time></trkpt><trkpt lat="40.7743009" lon="17.2164357"><ele>465.0</ele><time>2026-04-25T10:23:21.575Z</time></trkpt><trkpt lat="40.7742587" lon="17.2163725"><ele>465.0</ele><time>2026-04-25T10:23:26.565Z</time></trkpt><trkpt lat="40.7742088" lon="17.2162987"><ele>465.0</ele><time>2026-04-25T10:23:32.584Z</time></trkpt><trkpt lat="40.7741701" lon="17.2162234"><ele>465.3333333333333</ele><time>2026-04-25T10:23:38.574Z</time></trkpt><trkpt lat="40.7741357" lon="17.2161281"><ele>465.66666666666663</ele><time>2026-04-25T10:23:46.563Z</time></trkpt><trkpt lat="40.7740888" lon="17.2160517"><ele>466.0</ele><time>2026-04-25T10:23:49.561Z</time></trkpt><trkpt lat="40.7740281" lon="17.2159686"><ele>466.3333333333333</ele><time>2026-04-25T10:23:52.577Z</time></trkpt><trkpt lat="40.7739803" lon="17.215902"><ele>466.66666666666663</ele><time>2026-04-25T10:23:54.564Z</time></trkpt><trkpt lat="40.7739101" lon="17.2158311"><ele>467.0</ele><time>2026-04-25T10:23:56.557Z</time></trkpt><trkpt lat="40.7738638" lon="17.2157563"><ele>466.99999999999994</ele><time>2026-04-25T10:23:58.571Z</time></trkpt><trkpt lat="40.7738171" lon="17.2156846"><ele>467.0</ele><time>2026-04-25T10:24:00.561Z</time></trkpt><trkpt lat="40.7737677" lon="17.2156131"><ele>466.99999999999994</ele><time>2026-04-25T10:24:02.566Z</time></trkpt><trkpt lat="40.7737201" lon="17.2155442"><ele>466.99999999999994</ele><time>2026-04-25T10:24:04.562Z</time></trkpt><trkpt lat="40.773677" lon="17.2154731"><ele>467.0</ele><time>2026-04-25T10:24:06.584Z</time></trkpt><trkpt lat="40.773624" lon="17.2153936"><ele>466.99999999999994</ele><time>2026-04-25T10:24:08.565Z</time></trkpt><trkpt lat="40.7735715" lon="17.2153167"><ele>466.99999999999994</ele><time>2026-04-25T10:24:10.565Z</time></trkpt><trkpt lat="40.7735237" lon="17.2152486"><ele>466.8571428571428</ele><time>2026-04-25T10:24:12.582Z</time></trkpt><trkpt lat="40.7734754" lon="17.2151789"><ele>466.71428571428567</ele><time>2026-04-25T10:24:14.566Z</time></trkpt><trkpt lat="40.773428" lon="17.2151021"><ele>466.57142857142856</ele><time>2026-04-25T10:24:16.584Z</time></trkpt><trkpt lat="40.7733868" lon="17.2150292"><ele>466.4285714285714</ele><time>2026-04-25T10:24:18.562Z</time></trkpt><trkpt lat="40.7733426" lon="17.2149637"><ele>466.2857142857142</ele><time>2026-04-25T10:24:20.584Z</time></trkpt><trkpt lat="40.7732989" lon="17.2148992"><ele>466.14285714285717</ele><time>2026-04-25T10:24:22.562Z</time></trkpt><trkpt lat="40.7732545" lon="17.2148309"><ele>466.0</ele><time>2026-04-25T10:24:24.581Z</time></trkpt><trkpt lat="40.773209" lon="17.2147552"><ele>466.42857142857144</ele><time>2026-04-25T10:24:26.568Z</time></trkpt><trkpt lat="40.7731467" lon="17.2146651"><ele>466.85714285714283</ele><time>2026-04-25T10:24:29.562Z</time></trkpt><trkpt lat="40.7731085" lon="17.2145967"><ele>467.2857142857143</ele><time>2026-04-25T10:24:31.555Z</time></trkpt><trkpt lat="40.7730675" lon="17.2145189"><ele>467.7142857142857</ele><time>2026-04-25T10:24:33.561Z</time></trkpt><trkpt lat="40.7730245" lon="17.2144466"><ele>468.1428571428571</ele><time>2026-04-25T10:24:35.568Z</time></trkpt><trkpt lat="40.7729809" lon="17.2143721"><ele>468.57142857142856</ele><time>2026-04-25T10:24:37.556Z</time></trkpt><trkpt lat="40.7729333" lon="17.2142987"><ele>469.0</ele><time>2026-04-25T10:24:39.559Z</time></trkpt><trkpt lat="40.7728859" lon="17.2142302"><ele>469.00000000000006</ele><time>2026-04-25T10:24:41.574Z</time></trkpt><trkpt lat="40.7728396" lon="17.2141549"><ele>469.0</ele><time>2026-04-25T10:24:43.558Z</time></trkpt><trkpt lat="40.7727869" lon="17.2140807"><ele>469.0</ele><time>2026-04-25T10:24:45.568Z</time></trkpt><trkpt lat="40.7727307" lon="17.2140004"><ele>469.0</ele><time>2026-04-25T10:24:47.553Z</time></trkpt><trkpt lat="40.7726841" lon="17.2139249"><ele>469.00000000000006</ele><time>2026-04-25T10:24:49.565Z</time></trkpt><trkpt lat="40.7726369" lon="17.2138495"><ele>469.0</ele><time>2026-04-25T10:24:51.562Z</time></trkpt><trkpt lat="40.7725894" lon="17.2137812"><ele>468.79999999999995</ele><time>2026-04-25T10:24:53.568Z</time></trkpt><trkpt lat="40.7725362" lon="17.213696"><ele>468.59999999999997</ele><time>2026-04-25T10:24:55.562Z</time></trkpt><trkpt lat="40.7724741" lon="17.213606"><ele>468.4</ele><time>2026-04-25T10:24:57.558Z</time></trkpt><trkpt lat="40.7724083" lon="17.2135028"><ele>468.2</ele><time>2026-04-25T10:24:59.56Z</time></trkpt><trkpt lat="40.7723434" lon="17.2134011"><ele>468.0</ele><time>2026-04-25T10:25:01.563Z</time></trkpt><trkpt lat="40.7722786" lon="17.2132945"><ele>468.0</ele><time>2026-04-25T10:25:03.561Z</time></trkpt><trkpt lat="40.7722141" lon="17.2131842"><ele>467.99999999999994</ele><time>2026-04-25T10:25:05.569Z</time></trkpt><trkpt lat="40.772148" lon="17.2130858"><ele>467.99999999999994</ele><time>2026-04-25T10:25:07.558Z</time></trkpt><trkpt lat="40.7720953" lon="17.2129964"><ele>468.0</ele><time>2026-04-25T10:25:09.565Z</time></trkpt><trkpt lat="40.7720463" lon="17.2129119"><ele>468.0</ele><time>2026-04-25T10:25:11.574Z</time></trkpt><trkpt lat="40.7719929" lon="17.2128262"><ele>468.0</ele><time>2026-04-25T10:25:14.576Z</time></trkpt><trkpt lat="40.7719441" lon="17.2127483"><ele>468.0</ele><time>2026-04-25T10:25:17.563Z</time></trkpt><trkpt lat="40.7718854" lon="17.2126671"><ele>468.0</ele><time>2026-04-25T10:25:20.566Z</time></trkpt><trkpt lat="40.7718323" lon="17.2125798"><ele>468.0</ele><time>2026-04-25T10:25:23.57Z</time></trkpt><trkpt lat="40.771774" lon="17.2124835"><ele>468.0</ele><time>2026-04-25T10:25:26.574Z</time></trkpt><trkpt lat="40.7717345" lon="17.2124151"><ele>468.0</ele><time>2026-04-25T10:25:28.547Z</time></trkpt><trkpt lat="40.7716908" lon="17.2123439"><ele>468.3333333333333</ele><time>2026-04-25T10:25:30.577Z</time></trkpt><trkpt lat="40.7716485" lon="17.2122683"><ele>468.66666666666663</ele><time>2026-04-25T10:25:32.563Z</time></trkpt><trkpt lat="40.7715992" lon="17.2121983"><ele>469.0</ele><time>2026-04-25T10:25:34.563Z</time></trkpt><trkpt lat="40.7715587" lon="17.2121269"><ele>469.3333333333333</ele><time>2026-04-25T10:25:36.561Z</time></trkpt><trkpt lat="40.771517" lon="17.2120632"><ele>469.66666666666663</ele><time>2026-04-25T10:25:38.579Z</time></trkpt><trkpt lat="40.7714604" lon="17.2119689"><ele>470.0</ele><time>2026-04-25T10:25:41.557Z</time></trkpt><trkpt lat="40.771403" lon="17.2118753"><ele>469.99999999999994</ele><time>2026-04-25T10:25:44.565Z</time></trkpt><trkpt lat="40.7713648" lon="17.2118031"><ele>470.0</ele><time>2026-04-25T10:25:46.568Z</time></trkpt><trkpt lat="40.7713223" lon="17.2117382"><ele>470.0</ele><time>2026-04-25T10:25:48.564Z</time></trkpt><trkpt lat="40.7712799" lon="17.2116717"><ele>470.0</ele><time>2026-04-25T10:25:50.572Z</time></trkpt><trkpt lat="40.7712236" lon="17.2115757"><ele>469.99999999999994</ele><time>2026-04-25T10:25:53.575Z</time></trkpt><trkpt lat="40.7711656" lon="17.2114771"><ele>470.0</ele><time>2026-04-25T10:25:56.57Z</time></trkpt><trkpt lat="40.7711178" lon="17.2114109"><ele>469.85714285714283</ele><time>2026-04-25T10:25:58.564Z</time></trkpt><trkpt lat="40.7710711" lon="17.2113497"><ele>469.71428571428567</ele><time>2026-04-25T10:26:00.558Z</time></trkpt><trkpt lat="40.7710204" lon="17.2112827"><ele>469.57142857142856</ele><time>2026-04-25T10:26:02.573Z</time></trkpt><trkpt lat="40.7709778" lon="17.2112181"><ele>469.42857142857144</ele><time>2026-04-25T10:26:04.584Z</time></trkpt><trkpt lat="40.7709344" lon="17.2111478"><ele>469.2857142857143</ele><time>2026-04-25T10:26:06.561Z</time></trkpt><trkpt lat="40.7708912" lon="17.2110643"><ele>469.1428571428571</ele><time>2026-04-25T10:26:08.579Z</time></trkpt><trkpt lat="40.7708398" lon="17.2109834"><ele>469.0</ele><time>2026-04-25T10:26:10.564Z</time></trkpt><trkpt lat="40.7707944" lon="17.2108976"><ele>469.0</ele><time>2026-04-25T10:26:12.564Z</time></trkpt><trkpt lat="40.7707365" lon="17.2108086"><ele>469.0</ele><time>2026-04-25T10:26:14.556Z</time></trkpt><trkpt lat="40.7706769" lon="17.2107174"><ele>469.0</ele><time>2026-04-25T10:26:16.561Z</time></trkpt><trkpt lat="40.7706246" lon="17.2106196"><ele>469.0</ele><time>2026-04-25T10:26:18.565Z</time></trkpt><trkpt lat="40.7705647" lon="17.2105245"><ele>469.0</ele><time>2026-04-25T10:26:20.566Z</time></trkpt><trkpt lat="40.7704964" lon="17.2104146"><ele>468.50000000000006</ele><time>2026-04-25T10:26:22.585Z</time></trkpt><trkpt lat="40.770417" lon="17.2102967"><ele>468.0</ele><time>2026-04-25T10:26:24.575Z</time></trkpt><trkpt lat="40.7703707" lon="17.2102287"><ele>467.5</ele><time>2026-04-25T10:26:25.56Z</time></trkpt><trkpt lat="40.7703296" lon="17.2101615"><ele>467.0</ele><time>2026-04-25T10:26:26.554Z</time></trkpt><trkpt lat="40.7702837" lon="17.210088"><ele>466.50000000000006</ele><time>2026-04-25T10:26:27.576Z</time></trkpt><trkpt lat="40.7702386" lon="17.2100239"><ele>466.0</ele><time>2026-04-25T10:26:28.561Z</time></trkpt><trkpt lat="40.7701975" lon="17.2099546"><ele>465.83333333333337</ele><time>2026-04-25T10:26:29.563Z</time></trkpt><trkpt lat="40.7701571" lon="17.2098856"><ele>465.6666666666667</ele><time>2026-04-25T10:26:30.567Z</time></trkpt><trkpt lat="40.7701162" lon="17.2098198"><ele>465.5</ele><time>2026-04-25T10:26:31.558Z</time></trkpt><trkpt lat="40.770078" lon="17.2097536"><ele>465.33333333333337</ele><time>2026-04-25T10:26:32.579Z</time></trkpt><trkpt lat="40.7699991" lon="17.2096175"><ele>465.1666666666667</ele><time>2026-04-25T10:26:34.56Z</time></trkpt><trkpt lat="40.7699548" lon="17.2095522"><ele>465.0</ele><time>2026-04-25T10:26:35.563Z</time></trkpt><trkpt lat="40.7699067" lon="17.2094793"><ele>464.71428571428567</ele><time>2026-04-25T10:26:36.567Z</time></trkpt><trkpt lat="40.7698572" lon="17.2094092"><ele>464.42857142857144</ele><time>2026-04-25T10:26:37.558Z</time></trkpt><trkpt lat="40.7698076" lon="17.2093364"><ele>464.1428571428571</ele><time>2026-04-25T10:26:38.575Z</time></trkpt><trkpt lat="40.7697589" lon="17.2092622"><ele>463.85714285714283</ele><time>2026-04-25T10:26:39.555Z</time></trkpt><trkpt lat="40.7697137" lon="17.2091837"><ele>463.57142857142856</ele><time>2026-04-25T10:26:40.568Z</time></trkpt><trkpt lat="40.7696719" lon="17.2091115"><ele>463.2857142857143</ele><time>2026-04-25T10:26:41.561Z</time></trkpt><trkpt lat="40.7696295" lon="17.2090373"><ele>463.0</ele><time>2026-04-25T10:26:42.558Z</time></trkpt><trkpt lat="40.7695828" lon="17.2089635"><ele>462.57142857142856</ele><time>2026-04-25T10:26:43.571Z</time></trkpt><trkpt lat="40.7695407" lon="17.2088944"><ele>462.1428571428571</ele><time>2026-04-25T10:26:44.569Z</time></trkpt><trkpt lat="40.7694962" lon="17.208821"><ele>461.71428571428567</ele><time>2026-04-25T10:26:45.565Z</time></trkpt><trkpt lat="40.7694544" lon="17.2087518"><ele>461.2857142857142</ele><time>2026-04-25T10:26:46.565Z</time></trkpt><trkpt lat="40.7694146" lon="17.208677"><ele>460.85714285714283</ele><time>2026-04-25T10:26:47.569Z</time></trkpt><trkpt lat="40.7693733" lon="17.2085951"><ele>460.42857142857133</ele><time>2026-04-25T10:26:48.577Z</time></trkpt><trkpt lat="40.7693404" lon="17.2085064"><ele>459.99999999999994</ele><time>2026-04-25T10:26:49.554Z</time></trkpt><trkpt lat="40.7693126" lon="17.2084126"><ele>459.6666666666667</ele><time>2026-04-25T10:26:50.566Z</time></trkpt><trkpt lat="40.7692927" lon="17.2083155"><ele>459.33333333333337</ele><time>2026-04-25T10:26:51.559Z</time></trkpt><trkpt lat="40.7692859" lon="17.2082211"><ele>459.0</ele><time>2026-04-25T10:26:52.572Z</time></trkpt><trkpt lat="40.7692799" lon="17.2081207"><ele>458.66666666666663</ele><time>2026-04-25T10:26:53.567Z</time></trkpt><trkpt lat="40.7692757" lon="17.2080215"><ele>458.3333333333333</ele><time>2026-04-25T10:26:54.568Z</time></trkpt><trkpt lat="40.7692712" lon="17.2079211"><ele>458.0</ele><time>2026-04-25T10:26:55.559Z</time></trkpt><trkpt lat="40.7692653" lon="17.2078221"><ele>457.49999999999994</ele><time>2026-04-25T10:26:56.56Z</time></trkpt><trkpt lat="40.7692616" lon="17.2077213"><ele>457.0</ele><time>2026-04-25T10:26:57.555Z</time></trkpt><trkpt lat="40.7692578" lon="17.2076155"><ele>456.5</ele><time>2026-04-25T10:26:58.566Z</time></trkpt><trkpt lat="40.7692541" lon="17.2075117"><ele>456.0</ele><time>2026-04-25T10:26:59.547Z</time></trkpt><trkpt lat="40.7692487" lon="17.2074035"><ele>455.49999999999994</ele><time>2026-04-25T10:27:00.566Z</time></trkpt><trkpt lat="40.7692324" lon="17.2072983"><ele>455.0</ele><time>2026-04-25T10:27:01.568Z</time></trkpt><trkpt lat="40.7691949" lon="17.207204"><ele>454.3333333333333</ele><time>2026-04-25T10:27:02.565Z</time></trkpt><trkpt lat="40.7691413" lon="17.2071236"><ele>453.66666666666663</ele><time>2026-04-25T10:27:03.579Z</time></trkpt><trkpt lat="40.7690695" lon="17.2070575"><ele>453.0</ele><time>2026-04-25T10:27:04.565Z</time></trkpt><trkpt lat="40.7689893" lon="17.2070253"><ele>452.33333333333337</ele><time>2026-04-25T10:27:05.556Z</time></trkpt><trkpt lat="40.7688977" lon="17.207026"><ele>451.6666666666667</ele><time>2026-04-25T10:27:06.558Z</time></trkpt><trkpt lat="40.7688118" lon="17.2070259"><ele>451.0</ele><time>2026-04-25T10:27:07.562Z</time></trkpt><trkpt lat="40.7687288" lon="17.2070178"><ele>451.0</ele><time>2026-04-25T10:27:08.572Z</time></trkpt><trkpt lat="40.7686421" lon="17.2070115"><ele>451.0</ele><time>2026-04-25T10:27:09.562Z</time></trkpt><trkpt lat="40.7685497" lon="17.207"><ele>451.0</ele><time>2026-04-25T10:27:10.569Z</time></trkpt><trkpt lat="40.7684551" lon="17.2069789"><ele>451.0</ele><time>2026-04-25T10:27:11.583Z</time></trkpt><trkpt lat="40.7683571" lon="17.2069483"><ele>451.0</ele><time>2026-04-25T10:27:12.566Z</time></trkpt><trkpt lat="40.7682624" lon="17.2069154"><ele>450.6</ele><time>2026-04-25T10:27:13.563Z</time></trkpt><trkpt lat="40.7681671" lon="17.2068748"><ele>450.20000000000005</ele><time>2026-04-25T10:27:14.557Z</time></trkpt><trkpt lat="40.7680695" lon="17.2068261"><ele>449.79999999999995</ele><time>2026-04-25T10:27:15.583Z</time></trkpt><trkpt lat="40.7679707" lon="17.2067784"><ele>449.4</ele><time>2026-04-25T10:27:16.557Z</time></trkpt><trkpt lat="40.7678707" lon="17.2067294"><ele>449.0</ele><time>2026-04-25T10:27:17.567Z</time></trkpt><trkpt lat="40.7677741" lon="17.2066817"><ele>448.6</ele><time>2026-04-25T10:27:18.591Z</time></trkpt><trkpt lat="40.7676819" lon="17.2066402"><ele>448.2</ele><time>2026-04-25T10:27:19.561Z</time></trkpt><trkpt lat="40.7675885" lon="17.2065955"><ele>447.80000000000007</ele><time>2026-04-25T10:27:20.572Z</time></trkpt><trkpt lat="40.7675012" lon="17.2065508"><ele>447.40000000000003</ele><time>2026-04-25T10:27:21.56Z</time></trkpt><trkpt lat="40.7674168" lon="17.2065106"><ele>447.0</ele><time>2026-04-25T10:27:22.582Z</time></trkpt><trkpt lat="40.7673397" lon="17.2064775"><ele>446.6666666666667</ele><time>2026-04-25T10:27:23.566Z</time></trkpt><trkpt lat="40.7672685" lon="17.2064467"><ele>446.33333333333337</ele><time>2026-04-25T10:27:24.557Z</time></trkpt><trkpt lat="40.7671967" lon="17.2064142"><ele>446.0</ele><time>2026-04-25T10:27:25.557Z</time></trkpt><trkpt lat="40.7671221" lon="17.2063733"><ele>445.6666666666667</ele><time>2026-04-25T10:27:26.582Z</time></trkpt><trkpt lat="40.7670497" lon="17.2063378"><ele>445.33333333333337</ele><time>2026-04-25T10:27:27.564Z</time></trkpt><trkpt lat="40.7669759" lon="17.2063008"><ele>445.0</ele><time>2026-04-25T10:27:28.563Z</time></trkpt><trkpt lat="40.7669047" lon="17.2062681"><ele>444.83333333333337</ele><time>2026-04-25T10:27:29.575Z</time></trkpt><trkpt lat="40.7668408" lon="17.2062414"><ele>444.6666666666667</ele><time>2026-04-25T10:27:30.577Z</time></trkpt><trkpt lat="40.7667778" lon="17.2062117"><ele>444.5</ele><time>2026-04-25T10:27:31.557Z</time></trkpt><trkpt lat="40.7666823" lon="17.2061563"><ele>444.33333333333337</ele><time>2026-04-25T10:27:33.578Z</time></trkpt><trkpt lat="40.7665943" lon="17.20612"><ele>444.1666666666667</ele><time>2026-04-25T10:27:35.557Z</time></trkpt><trkpt lat="40.766512" lon="17.2060828"><ele>444.0</ele><time>2026-04-25T10:27:37.566Z</time></trkpt><trkpt lat="40.7664397" lon="17.2060485"><ele>444.0</ele><time>2026-04-25T10:27:39.572Z</time></trkpt><trkpt lat="40.7663631" lon="17.2060113"><ele>444.0</ele><time>2026-04-25T10:27:41.566Z</time></trkpt><trkpt lat="40.7662824" lon="17.2059754"><ele>444.0</ele><time>2026-04-25T10:27:43.559Z</time></trkpt><trkpt lat="40.7661979" lon="17.205933"><ele>444.0</ele><time>2026-04-25T10:27:45.554Z</time></trkpt><trkpt lat="40.7661153" lon="17.2058913"><ele>444.0</ele><time>2026-04-25T10:27:47.564Z</time></trkpt><trkpt lat="40.7660365" lon="17.2058617"><ele>444.0</ele><time>2026-04-25T10:27:49.567Z</time></trkpt><trkpt lat="40.76596" lon="17.2058251"><ele>444.0</ele><time>2026-04-25T10:27:51.56Z</time></trkpt><trkpt lat="40.7658739" lon="17.2057828"><ele>444.0</ele><time>2026-04-25T10:27:53.573Z</time></trkpt><trkpt lat="40.7657833" lon="17.2057356"><ele>444.0</ele><time>2026-04-25T10:27:55.585Z</time></trkpt><trkpt lat="40.7656906" lon="17.2056877"><ele>444.0</ele><time>2026-04-25T10:27:57.567Z</time></trkpt><trkpt lat="40.7656004" lon="17.2056391"><ele>444.0</ele><time>2026-04-25T10:27:59.564Z</time></trkpt><trkpt lat="40.7655148" lon="17.2055821"><ele>444.0</ele><time>2026-04-25T10:28:01.556Z</time></trkpt><trkpt lat="40.76543" lon="17.2055055"><ele>444.0</ele><time>2026-04-25T10:28:03.556Z</time></trkpt><trkpt lat="40.7653586" lon="17.2054223"><ele>444.0</ele><time>2026-04-25T10:28:05.56Z</time></trkpt><trkpt lat="40.7652931" lon="17.2053391"><ele>444.0</ele><time>2026-04-25T10:28:07.558Z</time></trkpt><trkpt lat="40.7652483" lon="17.2052637"><ele>444.0</ele><time>2026-04-25T10:28:09.569Z</time></trkpt><trkpt lat="40.7652124" lon="17.2051808"><ele>444.0</ele><time>2026-04-25T10:28:11.571Z</time></trkpt><trkpt lat="40.7651775" lon="17.2050953"><ele>444.1666666666667</ele><time>2026-04-25T10:28:13.567Z</time></trkpt><trkpt lat="40.7651339" lon="17.2050045"><ele>444.33333333333337</ele><time>2026-04-25T10:28:15.577Z</time></trkpt><trkpt lat="40.7650942" lon="17.2049022"><ele>444.5</ele><time>2026-04-25T10:28:17.555Z</time></trkpt><trkpt lat="40.765063" lon="17.2048085"><ele>444.6666666666667</ele><time>2026-04-25T10:28:19.556Z</time></trkpt><trkpt lat="40.7650252" lon="17.2047136"><ele>444.83333333333337</ele><time>2026-04-25T10:28:21.564Z</time></trkpt><trkpt lat="40.7649889" lon="17.2046308"><ele>445.0</ele><time>2026-04-25T10:28:23.581Z</time></trkpt><trkpt lat="40.7649486" lon="17.204544"><ele>445.00000000000006</ele><time>2026-04-25T10:28:25.568Z</time></trkpt><trkpt lat="40.7649057" lon="17.2044582"><ele>445.0</ele><time>2026-04-25T10:28:27.567Z</time></trkpt><trkpt lat="40.7648674" lon="17.2043681"><ele>445.0</ele><time>2026-04-25T10:28:29.557Z</time></trkpt><trkpt lat="40.7648292" lon="17.2042717"><ele>445.0</ele><time>2026-04-25T10:28:31.56Z</time></trkpt><trkpt lat="40.7647909" lon="17.2041837"><ele>445.00000000000006</ele><time>2026-04-25T10:28:33.559Z</time></trkpt><trkpt lat="40.7647558" lon="17.2040966"><ele>445.0</ele><time>2026-04-25T10:28:35.572Z</time></trkpt><trkpt lat="40.764713" lon="17.203991"><ele>444.0</ele><time>2026-04-25T10:28:37.558Z</time></trkpt><trkpt lat="40.7646592" lon="17.2038878"><ele>443.0</ele><time>2026-04-25T10:28:39.56Z</time></trkpt><trkpt lat="40.7646163" lon="17.2037732"><ele>442.0</ele><time>2026-04-25T10:28:41.559Z</time></trkpt><trkpt lat="40.7645701" lon="17.2036594"><ele>441.0</ele><time>2026-04-25T10:28:43.569Z</time></trkpt><trkpt lat="40.76452" lon="17.2035505"><ele>440.0</ele><time>2026-04-25T10:28:45.567Z</time></trkpt><trkpt lat="40.7644703" lon="17.2034354"><ele>440.0</ele><time>2026-04-25T10:28:47.562Z</time></trkpt><trkpt lat="40.764417" lon="17.203326"><ele>440.0</ele><time>2026-04-25T10:28:49.566Z</time></trkpt><trkpt lat="40.7643721" lon="17.2032199"><ele>440.0</ele><time>2026-04-25T10:28:51.553Z</time></trkpt><trkpt lat="40.7643462" lon="17.203116"><ele>440.0</ele><time>2026-04-25T10:28:53.576Z</time></trkpt><trkpt lat="40.7643797" lon="17.2030106"><ele>440.0</ele><time>2026-04-25T10:28:55.553Z</time></trkpt><trkpt lat="40.7644644" lon="17.2029352"><ele>439.66666666666663</ele><time>2026-04-25T10:28:57.578Z</time></trkpt><trkpt lat="40.7645831" lon="17.2028988"><ele>439.3333333333333</ele><time>2026-04-25T10:28:59.554Z</time></trkpt><trkpt lat="40.7646508" lon="17.2028882"><ele>439.0</ele><time>2026-04-25T10:29:00.566Z</time></trkpt><trkpt lat="40.7647224" lon="17.2028801"><ele>438.66666666666663</ele><time>2026-04-25T10:29:01.578Z</time></trkpt><trkpt lat="40.7648046" lon="17.2028692"><ele>438.3333333333333</ele><time>2026-04-25T10:29:02.561Z</time></trkpt><trkpt lat="40.7648864" lon="17.2028529"><ele>438.0</ele><time>2026-04-25T10:29:03.556Z</time></trkpt><trkpt lat="40.7649622" lon="17.2028289"><ele>438.0</ele><time>2026-04-25T10:29:04.579Z</time></trkpt><trkpt lat="40.7650402" lon="17.2027929"><ele>438.0</ele><time>2026-04-25T10:29:05.566Z</time></trkpt><trkpt lat="40.7651221" lon="17.2027475"><ele>438.0</ele><time>2026-04-25T10:29:06.558Z</time></trkpt><trkpt lat="40.7652064" lon="17.202696"><ele>438.0</ele><time>2026-04-25T10:29:07.563Z</time></trkpt><trkpt lat="40.7652899" lon="17.2026482"><ele>438.0</ele><time>2026-04-25T10:29:08.567Z</time></trkpt><trkpt lat="40.7653673" lon="17.2025963"><ele>438.0</ele><time>2026-04-25T10:29:09.553Z</time></trkpt><trkpt lat="40.7654393" lon="17.202547"><ele>438.0</ele><time>2026-04-25T10:29:10.573Z</time></trkpt><trkpt lat="40.7655129" lon="17.2025028"><ele>438.0</ele><time>2026-04-25T10:29:11.554Z</time></trkpt><trkpt lat="40.7655836" lon="17.2024592"><ele>438.0</ele><time>2026-04-25T10:29:12.561Z</time></trkpt><trkpt lat="40.7656532" lon="17.2024141"><ele>438.0</ele><time>2026-04-25T10:29:13.555Z</time></trkpt><trkpt lat="40.7657182" lon="17.2023784"><ele>438.0</ele><time>2026-04-25T10:29:14.578Z</time></trkpt><trkpt lat="40.7657784" lon="17.2023448"><ele>438.0</ele><time>2026-04-25T10:29:15.56Z</time></trkpt><trkpt lat="40.7658975" lon="17.2023173"><ele>438.0</ele><time>2026-04-25T10:29:17.569Z</time></trkpt><trkpt lat="40.7660105" lon="17.2023048"><ele>437.99999999999994</ele><time>2026-04-25T10:29:19.567Z</time></trkpt><trkpt lat="40.7661102" lon="17.2023011"><ele>437.99999999999994</ele><time>2026-04-25T10:29:21.566Z</time></trkpt><trkpt lat="40.7662035" lon="17.2023012"><ele>438.0</ele><time>2026-04-25T10:29:23.575Z</time></trkpt><trkpt lat="40.7662971" lon="17.2023008"><ele>438.0</ele><time>2026-04-25T10:29:25.565Z</time></trkpt><trkpt lat="40.7663743" lon="17.2022332"><ele>438.59999999999997</ele><time>2026-04-25T10:29:27.559Z</time></trkpt><trkpt lat="40.7664235" lon="17.2021218"><ele>439.19999999999993</ele><time>2026-04-25T10:29:29.565Z</time></trkpt><trkpt lat="40.7664498" lon="17.2020041"><ele>439.8</ele><time>2026-04-25T10:29:31.575Z</time></trkpt><trkpt lat="40.7664686" lon="17.2018827"><ele>440.4</ele><time>2026-04-25T10:29:33.554Z</time></trkpt><trkpt lat="40.7664881" lon="17.2017583"><ele>441.0</ele><time>2026-04-25T10:29:35.57Z</time></trkpt><trkpt lat="40.766521" lon="17.2016462"><ele>441.0</ele><time>2026-04-25T10:29:37.559Z</time></trkpt><trkpt lat="40.7665486" lon="17.2015299"><ele>441.0</ele><time>2026-04-25T10:29:39.559Z</time></trkpt><trkpt lat="40.7665784" lon="17.2014253"><ele>441.0</ele><time>2026-04-25T10:29:41.558Z</time></trkpt><trkpt lat="40.7666118" lon="17.2013191"><ele>441.0</ele><time>2026-04-25T10:29:43.554Z</time></trkpt><trkpt lat="40.7666335" lon="17.2012111"><ele>441.0</ele><time>2026-04-25T10:29:45.566Z</time></trkpt><trkpt lat="40.7666442" lon="17.2011138"><ele>441.0</ele><time>2026-04-25T10:29:47.563Z</time></trkpt><trkpt lat="40.7666512" lon="17.2010081"><ele>441.1666666666667</ele><time>2026-04-25T10:29:49.562Z</time></trkpt><trkpt lat="40.7666569" lon="17.2009067"><ele>441.33333333333337</ele><time>2026-04-25T10:29:51.566Z</time></trkpt><trkpt lat="40.7666639" lon="17.2008132"><ele>441.5</ele><time>2026-04-25T10:29:53.562Z</time></trkpt><trkpt lat="40.7666665" lon="17.2007299"><ele>441.6666666666667</ele><time>2026-04-25T10:29:55.563Z</time></trkpt><trkpt lat="40.7666606" lon="17.200613"><ele>441.83333333333337</ele><time>2026-04-25T10:29:58.57Z</time></trkpt><trkpt lat="40.7666575" lon="17.2005059"><ele>442.0</ele><time>2026-04-25T10:30:01.561Z</time></trkpt><trkpt lat="40.7666567" lon="17.2003995"><ele>442.33333333333337</ele><time>2026-04-25T10:30:53.57Z</time></trkpt><trkpt lat="40.7666744" lon="17.2003074"><ele>442.6666666666667</ele><time>2026-04-25T10:30:56.562Z</time></trkpt><trkpt lat="40.7666822" lon="17.2002242"><ele>443.0</ele><time>2026-04-25T10:30:58.562Z</time></trkpt><trkpt lat="40.766687" lon="17.2001352"><ele>443.33333333333337</ele><time>2026-04-25T10:31:00.564Z</time></trkpt><trkpt lat="40.7666873" lon="17.2000189"><ele>443.6666666666667</ele><time>2026-04-25T10:31:03.555Z</time></trkpt><trkpt lat="40.7666799" lon="17.1999034"><ele>444.0</ele><time>2026-04-25T10:31:06.561Z</time></trkpt><trkpt lat="40.7666557" lon="17.1997905"><ele>444.0</ele><time>2026-04-25T10:31:09.572Z</time></trkpt><trkpt lat="40.7666162" lon="17.199678"><ele>444.0</ele><time>2026-04-25T10:31:12.565Z</time></trkpt><trkpt lat="40.7665813" lon="17.1995698"><ele>444.0</ele><time>2026-04-25T10:31:15.566Z</time></trkpt><trkpt lat="40.7665483" lon="17.1994546"><ele>444.0</ele><time>2026-04-25T10:31:18.56Z</time></trkpt><trkpt lat="40.7665252" lon="17.1993719"><ele>444.0</ele><time>2026-04-25T10:31:21.555Z</time></trkpt><trkpt lat="40.766502" lon="17.1992835"><ele>444.0</ele><time>2026-04-25T10:31:31.558Z</time></trkpt><trkpt lat="40.7664782" lon="17.199189"><ele>444.0</ele><time>2026-04-25T10:31:36.559Z</time></trkpt><trkpt lat="40.766459" lon="17.1990912"><ele>444.0</ele><time>2026-04-25T10:31:42.558Z</time></trkpt><trkpt lat="40.7664288" lon="17.1990081"><ele>444.0</ele><time>2026-04-25T10:31:48.556Z</time></trkpt><trkpt lat="40.7664103" lon="17.1989122"><ele>444.0</ele><time>2026-04-25T10:31:54.554Z</time></trkpt><trkpt lat="40.76639" lon="17.1988296"><ele>444.0</ele><time>2026-04-25T10:31:59.561Z</time></trkpt><trkpt lat="40.7663719" lon="17.1987483"><ele>444.0</ele><time>2026-04-25T10:32:04.562Z</time></trkpt><trkpt lat="40.766352" lon="17.1986637"><ele>444.0</ele><time>2026-04-25T10:32:09.561Z</time></trkpt><trkpt lat="40.7663284" lon="17.1985842"><ele>444.4</ele><time>2026-04-25T10:32:14.567Z</time></trkpt><trkpt lat="40.7663052" lon="17.1984886"><ele>444.79999999999995</ele><time>2026-04-25T10:32:19.547Z</time></trkpt><trkpt lat="40.7662951" lon="17.1983966"><ele>445.20000000000005</ele><time>2026-04-25T10:32:24.56Z</time></trkpt><trkpt lat="40.7662801" lon="17.1982981"><ele>445.6</ele><time>2026-04-25T10:32:30.574Z</time></trkpt><trkpt lat="40.7662629" lon="17.1982032"><ele>446.0</ele><time>2026-04-25T10:32:37.582Z</time></trkpt><trkpt lat="40.7660503" lon="17.197362"><ele>446.3333333333333</ele><time>2026-04-25T10:39:07.544Z</time></trkpt><trkpt lat="40.7660603" lon="17.1972567"><ele>446.66666666666663</ele><time>2026-04-25T10:39:16.559Z</time></trkpt><trkpt lat="40.766052" lon="17.1971496"><ele>447.0</ele><time>2026-04-25T10:39:19.548Z</time></trkpt><trkpt lat="40.7660214" lon="17.1970457"><ele>447.33333333333337</ele><time>2026-04-25T10:39:22.554Z</time></trkpt><trkpt lat="40.7660084" lon="17.1969463"><ele>447.6666666666667</ele><time>2026-04-25T10:39:25.553Z</time></trkpt><trkpt lat="40.7659872" lon="17.1968242"><ele>448.0</ele><time>2026-04-25T10:39:28.569Z</time></trkpt><trkpt lat="40.7659703" lon="17.1967393"><ele>448.00000000000006</ele><time>2026-04-25T10:39:30.556Z</time></trkpt><trkpt lat="40.7659481" lon="17.1966255"><ele>448.0</ele><time>2026-04-25T10:39:33.556Z</time></trkpt><trkpt lat="40.7659321" lon="17.196543"><ele>448.0</ele><time>2026-04-25T10:39:35.55Z</time></trkpt><trkpt lat="40.7659131" lon="17.1964249"><ele>448.0</ele><time>2026-04-25T10:39:38.562Z</time></trkpt><trkpt lat="40.7658849" lon="17.1963184"><ele>448.00000000000006</ele><time>2026-04-25T10:39:41.556Z</time></trkpt><trkpt lat="40.7658718" lon="17.1962065"><ele>448.0</ele><time>2026-04-25T10:39:44.56Z</time></trkpt><trkpt lat="40.765885" lon="17.1960874"><ele>448.4</ele><time>2026-04-25T10:39:47.567Z</time></trkpt><trkpt lat="40.7659091" lon="17.1959676"><ele>448.79999999999995</ele><time>2026-04-25T10:39:50.563Z</time></trkpt><trkpt lat="40.7659416" lon="17.1958496"><ele>449.2</ele><time>2026-04-25T10:39:53.57Z</time></trkpt><trkpt lat="40.7659727" lon="17.1957411"><ele>449.6</ele><time>2026-04-25T10:39:56.567Z</time></trkpt><trkpt lat="40.7659928" lon="17.1956317"><ele>450.0</ele><time>2026-04-25T10:39:59.563Z</time></trkpt><trkpt lat="40.7660218" lon="17.1955212"><ele>450.0</ele><time>2026-04-25T10:40:02.505Z</time></trkpt><trkpt lat="40.7660462" lon="17.1954202"><ele>450.0</ele><time>2026-04-25T10:40:05.522Z</time></trkpt><trkpt lat="40.7660578" lon="17.1953006"><ele>450.0</ele><time>2026-04-25T10:40:08.567Z</time></trkpt><trkpt lat="40.7660714" lon="17.1951873"><ele>450.0</ele><time>2026-04-25T10:40:11.565Z</time></trkpt><trkpt lat="40.7660602" lon="17.1950648"><ele>450.0</ele><time>2026-04-25T10:40:14.571Z</time></trkpt><trkpt lat="40.7660589" lon="17.1949785"><ele>450.0</ele><time>2026-04-25T10:40:16.55Z</time></trkpt><trkpt lat="40.7660588" lon="17.1948935"><ele>449.8571428571429</ele><time>2026-04-25T10:40:18.574Z</time></trkpt><trkpt lat="40.7660469" lon="17.1948092"><ele>449.7142857142857</ele><time>2026-04-25T10:40:20.577Z</time></trkpt><trkpt lat="40.7660353" lon="17.1946886"><ele>449.57142857142856</ele><time>2026-04-25T10:40:23.562Z</time></trkpt><trkpt lat="40.7660255" lon="17.1946048"><ele>449.42857142857144</ele><time>2026-04-25T10:40:25.566Z</time></trkpt><trkpt lat="40.7660209" lon="17.1945172"><ele>449.2857142857142</ele><time>2026-04-25T10:40:27.558Z</time></trkpt><trkpt lat="40.7660153" lon="17.1944311"><ele>449.1428571428571</ele><time>2026-04-25T10:40:29.56Z</time></trkpt><trkpt lat="40.7660098" lon="17.1943427"><ele>449.0</ele><time>2026-04-25T10:40:31.561Z</time></trkpt><trkpt lat="40.7659972" lon="17.1942578"><ele>448.99999999999994</ele><time>2026-04-25T10:40:33.549Z</time></trkpt><trkpt lat="40.7659871" lon="17.1941736"><ele>449.0</ele><time>2026-04-25T10:40:35.389Z</time></trkpt><trkpt lat="40.7659847" lon="17.1940792"><ele>449.0</ele><time>2026-04-25T10:40:37.549Z</time></trkpt><trkpt lat="40.7659872" lon="17.1939916"><ele>449.0</ele><time>2026-04-25T10:40:39.56Z</time></trkpt><trkpt lat="40.7660042" lon="17.1938706"><ele>448.99999999999994</ele><time>2026-04-25T10:40:42.571Z</time></trkpt><trkpt lat="40.7660128" lon="17.1937867"><ele>449.0</ele><time>2026-04-25T10:40:44.586Z</time></trkpt><trkpt lat="40.7660335" lon="17.1936656"><ele>448.71428571428567</ele><time>2026-04-25T10:40:47.555Z</time></trkpt><trkpt lat="40.7660492" lon="17.1935849"><ele>448.4285714285714</ele><time>2026-04-25T10:40:49.537Z</time></trkpt><trkpt lat="40.7660666" lon="17.1935034"><ele>448.1428571428571</ele><time>2026-04-25T10:40:51.55Z</time></trkpt><trkpt lat="40.7660811" lon="17.1934155"><ele>447.85714285714283</ele><time>2026-04-25T10:40:53.554Z</time></trkpt><trkpt lat="40.7661037" lon="17.1933002"><ele>447.57142857142856</ele><time>2026-04-25T10:40:56.544Z</time></trkpt><trkpt lat="40.7661237" lon="17.1931955"><ele>447.2857142857142</ele><time>2026-04-25T10:40:59.551Z</time></trkpt><trkpt lat="40.7661354" lon="17.1931125"><ele>447.0</ele><time>2026-04-25T10:41:01.572Z</time></trkpt><trkpt lat="40.7661499" lon="17.1930238"><ele>446.6666666666667</ele><time>2026-04-25T10:41:03.555Z</time></trkpt><trkpt lat="40.7661641" lon="17.1929309"><ele>446.33333333333337</ele><time>2026-04-25T10:41:05.555Z</time></trkpt><trkpt lat="40.7661866" lon="17.1928326"><ele>446.0</ele><time>2026-04-25T10:41:07.556Z</time></trkpt><trkpt lat="40.7661989" lon="17.1927289"><ele>445.6666666666667</ele><time>2026-04-25T10:41:09.558Z</time></trkpt><trkpt lat="40.7662124" lon="17.192614"><ele>445.33333333333337</ele><time>2026-04-25T10:41:11.563Z</time></trkpt><trkpt lat="40.7662331" lon="17.1924999"><ele>445.0</ele><time>2026-04-25T10:41:13.578Z</time></trkpt><trkpt lat="40.7662588" lon="17.1923788"><ele>444.5</ele><time>2026-04-25T10:41:15.55Z</time></trkpt><trkpt lat="40.7662893" lon="17.1922467"><ele>444.0</ele><time>2026-04-25T10:41:17.564Z</time></trkpt><trkpt lat="40.7663078" lon="17.1920993"><ele>443.5</ele><time>2026-04-25T10:41:19.553Z</time></trkpt><trkpt lat="40.7663297" lon="17.1919488"><ele>443.0</ele><time>2026-04-25T10:41:21.553Z</time></trkpt><trkpt lat="40.766359" lon="17.1917955"><ele>443.0</ele><time>2026-04-25T10:41:23.554Z</time></trkpt><trkpt lat="40.7663825" lon="17.1916413"><ele>443.0</ele><time>2026-04-25T10:41:25.562Z</time></trkpt><trkpt lat="40.7664095" lon="17.1914934"><ele>443.0</ele><time>2026-04-25T10:41:27.557Z</time></trkpt><trkpt lat="40.7664387" lon="17.1913392"><ele>443.0</ele><time>2026-04-25T10:41:29.559Z</time></trkpt><trkpt lat="40.7664633" lon="17.1911892"><ele>442.3333333333333</ele><time>2026-04-25T10:41:31.561Z</time></trkpt><trkpt lat="40.7664875" lon="17.1910388"><ele>441.66666666666663</ele><time>2026-04-25T10:41:33.55Z</time></trkpt><trkpt lat="40.7665016" lon="17.190957"><ele>441.0</ele><time>2026-04-25T10:41:34.552Z</time></trkpt><trkpt lat="40.7665327" lon="17.1907967"><ele>440.33333333333337</ele><time>2026-04-25T10:41:36.568Z</time></trkpt><trkpt lat="40.7665457" lon="17.1907141"><ele>439.6666666666667</ele><time>2026-04-25T10:41:37.553Z</time></trkpt><trkpt lat="40.7665567" lon="17.1906285"><ele>439.0</ele><time>2026-04-25T10:41:38.541Z</time></trkpt><trkpt lat="40.7665682" lon="17.1905403"><ele>438.50000000000006</ele><time>2026-04-25T10:41:39.553Z</time></trkpt><trkpt lat="40.7665813" lon="17.1904486"><ele>438.0</ele><time>2026-04-25T10:41:40.572Z</time></trkpt><trkpt lat="40.766602" lon="17.1903523"><ele>437.5</ele><time>2026-04-25T10:41:41.557Z</time></trkpt><trkpt lat="40.766621" lon="17.1902587"><ele>437.0</ele><time>2026-04-25T10:41:42.541Z</time></trkpt><trkpt lat="40.7666415" lon="17.1901586"><ele>436.50000000000006</ele><time>2026-04-25T10:41:43.552Z</time></trkpt><trkpt lat="40.76666" lon="17.190053"><ele>436.0</ele><time>2026-04-25T10:41:44.557Z</time></trkpt><trkpt lat="40.7666776" lon="17.1899513"><ele>436.0</ele><time>2026-04-25T10:41:45.563Z</time></trkpt><trkpt lat="40.7666956" lon="17.1898462"><ele>436.0</ele><time>2026-04-25T10:41:46.563Z</time></trkpt><trkpt lat="40.766714" lon="17.1897275"><ele>436.0</ele><time>2026-04-25T10:41:47.559Z</time></trkpt><trkpt lat="40.7667319" lon="17.1896012"><ele>436.0</ele><time>2026-04-25T10:41:48.555Z</time></trkpt><trkpt lat="40.7667495" lon="17.1894713"><ele>436.0</ele><time>2026-04-25T10:41:49.566Z</time></trkpt><trkpt lat="40.7667697" lon="17.1893369"><ele>435.8</ele><time>2026-04-25T10:41:50.56Z</time></trkpt><trkpt lat="40.7667885" lon="17.1892003"><ele>435.6</ele><time>2026-04-25T10:41:51.556Z</time></trkpt><trkpt lat="40.7668126" lon="17.1890616"><ele>435.4</ele><time>2026-04-25T10:41:52.561Z</time></trkpt><trkpt lat="40.7668432" lon="17.1889207"><ele>435.2</ele><time>2026-04-25T10:41:53.561Z</time></trkpt><trkpt lat="40.7668702" lon="17.1887785"><ele>435.0</ele><time>2026-04-25T10:41:54.591Z</time></trkpt><trkpt lat="40.7668943" lon="17.1886417"><ele>435.0</ele><time>2026-04-25T10:41:55.562Z</time></trkpt><trkpt lat="40.7669193" lon="17.1885093"><ele>435.0</ele><time>2026-04-25T10:41:56.552Z</time></trkpt><trkpt lat="40.7669418" lon="17.188387"><ele>435.0</ele><time>2026-04-25T10:41:57.567Z</time></trkpt><trkpt lat="40.7669612" lon="17.1882696"><ele>435.0</ele><time>2026-04-25T10:41:58.554Z</time></trkpt><trkpt lat="40.7669781" lon="17.1881582"><ele>435.0</ele><time>2026-04-25T10:41:59.552Z</time></trkpt><trkpt lat="40.7669958" lon="17.1880551"><ele>435.1666666666667</ele><time>2026-04-25T10:42:00.562Z</time></trkpt><trkpt lat="40.7670139" lon="17.1879638"><ele>435.33333333333337</ele><time>2026-04-25T10:42:01.546Z</time></trkpt><trkpt lat="40.7670293" lon="17.1878792"><ele>435.5</ele><time>2026-04-25T10:42:02.554Z</time></trkpt><trkpt lat="40.7670534" lon="17.1877402"><ele>435.6666666666667</ele><time>2026-04-25T10:42:04.562Z</time></trkpt><trkpt lat="40.7670723" lon="17.1876378"><ele>435.83333333333337</ele><time>2026-04-25T10:42:06.582Z</time></trkpt><trkpt lat="40.7670857" lon="17.1875314"><ele>436.0</ele><time>2026-04-25T10:42:09.553Z</time></trkpt><trkpt lat="40.7670844" lon="17.1874442"><ele>436.00000000000006</ele><time>2026-04-25T10:42:12.554Z</time></trkpt><trkpt lat="40.767092" lon="17.1873508"><ele>436.0</ele><time>2026-04-25T10:42:15.57Z</time></trkpt><trkpt lat="40.7671224" lon="17.187268"><ele>436.0</ele><time>2026-04-25T10:42:18.557Z</time></trkpt><trkpt lat="40.7671475" lon="17.1871642"><ele>436.0</ele><time>2026-04-25T10:42:21.554Z</time></trkpt><trkpt lat="40.7671733" lon="17.1870483"><ele>436.00000000000006</ele><time>2026-04-25T10:42:24.571Z</time></trkpt><trkpt lat="40.767203" lon="17.1869298"><ele>436.0</ele><time>2026-04-25T10:42:27.571Z</time></trkpt><trkpt lat="40.7672209" lon="17.1868456"><ele>436.00000000000006</ele><time>2026-04-25T10:42:29.553Z</time></trkpt><trkpt lat="40.7672361" lon="17.1867591"><ele>436.0</ele><time>2026-04-25T10:42:31.546Z</time></trkpt><trkpt lat="40.7672617" lon="17.1866397"><ele>436.0</ele><time>2026-04-25T10:42:34.551Z</time></trkpt><trkpt lat="40.7672765" lon="17.1865564"><ele>436.0</ele><time>2026-04-25T10:42:36.555Z</time></trkpt><trkpt lat="40.7672959" lon="17.1864367"><ele>436.00000000000006</ele><time>2026-04-25T10:42:39.568Z</time></trkpt><trkpt lat="40.7673133" lon="17.1863557"><ele>436.0</ele><time>2026-04-25T10:42:41.556Z</time></trkpt><trkpt lat="40.7673274" lon="17.1862409"><ele>435.83333333333337</ele><time>2026-04-25T10:42:44.575Z</time></trkpt><trkpt lat="40.767347" lon="17.1861183"><ele>435.6666666666667</ele><time>2026-04-25T10:42:47.552Z</time></trkpt><trkpt lat="40.7673579" lon="17.186031"><ele>435.5</ele><time>2026-04-25T10:42:49.559Z</time></trkpt><trkpt lat="40.7673838" lon="17.1859059"><ele>435.33333333333337</ele><time>2026-04-25T10:42:52.559Z</time></trkpt><trkpt lat="40.7673974" lon="17.1858109"><ele>435.1666666666667</ele><time>2026-04-25T10:42:54.553Z</time></trkpt><trkpt lat="40.7674179" lon="17.1857012"><ele>435.0</ele><time>2026-04-25T10:42:56.559Z</time></trkpt><trkpt lat="40.767433" lon="17.1855802"><ele>435.0</ele><time>2026-04-25T10:42:58.559Z</time></trkpt><trkpt lat="40.7674499" lon="17.1854701"><ele>435.0</ele><time>2026-04-25T10:43:00.555Z</time></trkpt><trkpt lat="40.7674594" lon="17.1853592"><ele>435.0</ele><time>2026-04-25T10:43:02.564Z</time></trkpt><trkpt lat="40.7674796" lon="17.1852528"><ele>435.0</ele><time>2026-04-25T10:43:04.566Z</time></trkpt><trkpt lat="40.7675011" lon="17.1851428"><ele>435.0</ele><time>2026-04-25T10:43:06.561Z</time></trkpt><trkpt lat="40.7675165" lon="17.1850427"><ele>435.0</ele><time>2026-04-25T10:43:08.563Z</time></trkpt><trkpt lat="40.7675307" lon="17.184951"><ele>435.0</ele><time>2026-04-25T10:43:10.579Z</time></trkpt><trkpt lat="40.7675382" lon="17.1848677"><ele>435.0</ele><time>2026-04-25T10:43:12.558Z</time></trkpt><trkpt lat="40.7675522" lon="17.1847575"><ele>435.0</ele><time>2026-04-25T10:43:15.557Z</time></trkpt><trkpt lat="40.7675682" lon="17.1846682"><ele>435.0</ele><time>2026-04-25T10:43:17.562Z</time></trkpt><trkpt lat="40.76758" lon="17.1845554"><ele>435.0</ele><time>2026-04-25T10:43:19.562Z</time></trkpt><trkpt lat="40.7676052" lon="17.1844243"><ele>435.0</ele><time>2026-04-25T10:43:21.556Z</time></trkpt><trkpt lat="40.7676414" lon="17.1842789"><ele>434.8333333333333</ele><time>2026-04-25T10:43:23.558Z</time></trkpt><trkpt lat="40.7676793" lon="17.1841123"><ele>434.66666666666663</ele><time>2026-04-25T10:43:25.571Z</time></trkpt><trkpt lat="40.7676984" lon="17.1840262"><ele>434.5</ele><time>2026-04-25T10:43:26.565Z</time></trkpt><trkpt lat="40.7677229" lon="17.1839389"><ele>434.3333333333333</ele><time>2026-04-25T10:43:27.553Z</time></trkpt><trkpt lat="40.7677448" lon="17.1838512"><ele>434.16666666666663</ele><time>2026-04-25T10:43:28.578Z</time></trkpt><trkpt lat="40.7677677" lon="17.1837612"><ele>434.0</ele><time>2026-04-25T10:43:29.552Z</time></trkpt><trkpt lat="40.7677891" lon="17.1836754"><ele>433.99999999999994</ele><time>2026-04-25T10:43:30.555Z</time></trkpt><trkpt lat="40.7678128" lon="17.183598"><ele>434.0</ele><time>2026-04-25T10:43:31.569Z</time></trkpt><trkpt lat="40.7678559" lon="17.183453"><ele>434.0</ele><time>2026-04-25T10:43:33.546Z</time></trkpt><trkpt lat="40.7678792" lon="17.1833544"><ele>434.0</ele><time>2026-04-25T10:43:35.552Z</time></trkpt><trkpt lat="40.7679066" lon="17.183257"><ele>433.99999999999994</ele><time>2026-04-25T10:43:38.557Z</time></trkpt><trkpt lat="40.7679237" lon="17.1831646"><ele>434.0</ele><time>2026-04-25T10:43:49.564Z</time></trkpt><trkpt lat="40.7679488" lon="17.1830826"><ele>434.7142857142857</ele><time>2026-04-25T10:43:57.554Z</time></trkpt><trkpt lat="40.7679698" lon="17.1829913"><ele>435.42857142857144</ele><time>2026-04-25T10:44:04.567Z</time></trkpt><trkpt lat="40.7679906" lon="17.1829091"><ele>436.1428571428571</ele><time>2026-04-25T10:44:11.541Z</time></trkpt><trkpt lat="40.7680115" lon="17.1828269"><ele>436.8571428571429</ele><time>2026-04-25T10:44:18.56Z</time></trkpt><trkpt lat="40.7680262" lon="17.1827312"><ele>437.57142857142856</ele><time>2026-04-25T10:44:25.566Z</time></trkpt><trkpt lat="40.7680484" lon="17.1826508"><ele>438.2857142857143</ele><time>2026-04-25T10:44:30.572Z</time></trkpt><trkpt lat="40.7680735" lon="17.1825724"><ele>439.0</ele><time>2026-04-25T10:44:36.567Z</time></trkpt><trkpt lat="40.7680909" lon="17.1824824"><ele>439.00000000000006</ele><time>2026-04-25T10:45:01.555Z</time></trkpt><trkpt lat="40.7680864" lon="17.182386"><ele>439.0</ele><time>2026-04-25T10:45:07.546Z</time></trkpt><trkpt lat="40.7680796" lon="17.1823033"><ele>439.0</ele><time>2026-04-25T10:45:27.558Z</time></trkpt><trkpt lat="40.7680171" lon="17.1822433"><ele>439.0</ele><time>2026-04-25T10:45:32.561Z</time></trkpt><trkpt lat="40.7679419" lon="17.1821966"><ele>439.00000000000006</ele><time>2026-04-25T10:45:35.553Z</time></trkpt><trkpt lat="40.767863" lon="17.1821505"><ele>439.0</ele><time>2026-04-25T10:45:46.568Z</time></trkpt><trkpt lat="40.7677774" lon="17.1821014"><ele>437.6</ele><time>2026-04-25T10:45:49.57Z</time></trkpt><trkpt lat="40.7676729" lon="17.1820653"><ele>436.2</ele><time>2026-04-25T10:45:51.559Z</time></trkpt><trkpt lat="40.7675791" lon="17.1820149"><ele>434.80000000000007</ele><time>2026-04-25T10:45:53.568Z</time></trkpt><trkpt lat="40.7674795" lon="17.1819652"><ele>433.40000000000003</ele><time>2026-04-25T10:45:55.559Z</time></trkpt><trkpt lat="40.7673876" lon="17.18192"><ele>432.0</ele><time>2026-04-25T10:45:57.551Z</time></trkpt><trkpt lat="40.7672883" lon="17.1818741"><ele>432.0</ele><time>2026-04-25T10:45:59.549Z</time></trkpt><trkpt lat="40.7671796" lon="17.1818258"><ele>432.0</ele><time>2026-04-25T10:46:01.549Z</time></trkpt><trkpt lat="40.767062" lon="17.1817678"><ele>432.0</ele><time>2026-04-25T10:46:03.553Z</time></trkpt><trkpt lat="40.7670006" lon="17.1817374"><ele>432.0</ele><time>2026-04-25T10:46:04.574Z</time></trkpt><trkpt lat="40.7669379" lon="17.1817088"><ele>432.0</ele><time>2026-04-25T10:46:05.559Z</time></trkpt><trkpt lat="40.7668728" lon="17.1816735"><ele>432.0</ele><time>2026-04-25T10:46:06.552Z</time></trkpt><trkpt lat="40.7668063" lon="17.1816441"><ele>431.6666666666667</ele><time>2026-04-25T10:46:07.536Z</time></trkpt><trkpt lat="40.7667341" lon="17.1816133"><ele>431.33333333333337</ele><time>2026-04-25T10:46:08.559Z</time></trkpt><trkpt lat="40.7666546" lon="17.1815755"><ele>431.0</ele><time>2026-04-25T10:46:09.545Z</time></trkpt><trkpt lat="40.766574" lon="17.1815372"><ele>430.6666666666667</ele><time>2026-04-25T10:46:10.581Z</time></trkpt><trkpt lat="40.76649" lon="17.1814999"><ele>430.33333333333337</ele><time>2026-04-25T10:46:11.552Z</time></trkpt><trkpt lat="40.766405" lon="17.1814632"><ele>430.0</ele><time>2026-04-25T10:46:12.561Z</time></trkpt><trkpt lat="40.7663244" lon="17.1814278"><ele>429.6666666666667</ele><time>2026-04-25T10:46:13.557Z</time></trkpt><trkpt lat="40.7662393" lon="17.1813918"><ele>429.33333333333337</ele><time>2026-04-25T10:46:14.559Z</time></trkpt><trkpt lat="40.7661564" lon="17.1813579"><ele>429.0</ele><time>2026-04-25T10:46:15.576Z</time></trkpt><trkpt lat="40.7660718" lon="17.1813174"><ele>428.66666666666663</ele><time>2026-04-25T10:46:16.557Z</time></trkpt><trkpt lat="40.7659924" lon="17.1812849"><ele>428.3333333333333</ele><time>2026-04-25T10:46:17.559Z</time></trkpt><trkpt lat="40.7659114" lon="17.1812485"><ele>428.0</ele><time>2026-04-25T10:46:18.557Z</time></trkpt><trkpt lat="40.7658293" lon="17.1812115"><ele>427.49999999999994</ele><time>2026-04-25T10:46:19.557Z</time></trkpt><trkpt lat="40.7657489" lon="17.1811773"><ele>427.0</ele><time>2026-04-25T10:46:20.59Z</time></trkpt><trkpt lat="40.7656682" lon="17.181147"><ele>426.5</ele><time>2026-04-25T10:46:21.552Z</time></trkpt><trkpt lat="40.7655858" lon="17.1811118"><ele>426.0</ele><time>2026-04-25T10:46:22.583Z</time></trkpt><trkpt lat="40.7655076" lon="17.1810803"><ele>425.49999999999994</ele><time>2026-04-25T10:46:23.552Z</time></trkpt><trkpt lat="40.7654335" lon="17.1810568"><ele>425.0</ele><time>2026-04-25T10:46:24.552Z</time></trkpt><trkpt lat="40.7653601" lon="17.1810258"><ele>424.99999999999994</ele><time>2026-04-25T10:46:25.572Z</time></trkpt><trkpt lat="40.7652871" lon="17.1809932"><ele>425.0</ele><time>2026-04-25T10:46:26.56Z</time></trkpt><trkpt lat="40.7652151" lon="17.1809643"><ele>425.0</ele><time>2026-04-25T10:46:27.55Z</time></trkpt><trkpt lat="40.7651481" lon="17.1809375"><ele>425.0</ele><time>2026-04-25T10:46:28.557Z</time></trkpt><trkpt lat="40.765089" lon="17.1809033"><ele>424.99999999999994</ele><time>2026-04-25T10:46:29.542Z</time></trkpt><trkpt lat="40.7650081" lon="17.1807807"><ele>425.0</ele><time>2026-04-25T10:46:31.55Z</time></trkpt><trkpt lat="40.764993" lon="17.1806942"><ele>424.66666666666663</ele><time>2026-04-25T10:46:32.558Z</time></trkpt><trkpt lat="40.7650219" lon="17.1805652"><ele>424.3333333333333</ele><time>2026-04-25T10:46:34.557Z</time></trkpt><trkpt lat="40.76506" lon="17.1804578"><ele>424.0</ele><time>2026-04-25T10:46:36.553Z</time></trkpt><trkpt lat="40.7650881" lon="17.1803633"><ele>423.66666666666663</ele><time>2026-04-25T10:46:38.562Z</time></trkpt><trkpt lat="40.7651119" lon="17.180274"><ele>423.3333333333333</ele><time>2026-04-25T10:46:40.553Z</time></trkpt><trkpt lat="40.7651413" lon="17.1801927"><ele>423.0</ele><time>2026-04-25T10:46:42.561Z</time></trkpt><trkpt lat="40.7651681" lon="17.1800985"><ele>423.1666666666667</ele><time>2026-04-25T10:46:44.56Z</time></trkpt><trkpt lat="40.7651962" lon="17.1800082"><ele>423.33333333333337</ele><time>2026-04-25T10:46:46.567Z</time></trkpt><trkpt lat="40.7652252" lon="17.1799141"><ele>423.5</ele><time>2026-04-25T10:46:48.553Z</time></trkpt><trkpt lat="40.7652506" lon="17.1798222"><ele>423.6666666666667</ele><time>2026-04-25T10:46:50.583Z</time></trkpt><trkpt lat="40.765282" lon="17.1797322"><ele>423.83333333333337</ele><time>2026-04-25T10:46:52.554Z</time></trkpt><trkpt lat="40.7653028" lon="17.1796346"><ele>424.0</ele><time>2026-04-25T10:46:54.564Z</time></trkpt><trkpt lat="40.7653305" lon="17.1795308"><ele>424.00000000000006</ele><time>2026-04-25T10:46:56.567Z</time></trkpt><trkpt lat="40.7653549" lon="17.1794254"><ele>424.0</ele><time>2026-04-25T10:46:58.557Z</time></trkpt><trkpt lat="40.7653753" lon="17.1793193"><ele>424.0</ele><time>2026-04-25T10:47:00.569Z</time></trkpt><trkpt lat="40.7654045" lon="17.1792239"><ele>424.0</ele><time>2026-04-25T10:47:02.587Z</time></trkpt><trkpt lat="40.7654306" lon="17.1791231"><ele>424.00000000000006</ele><time>2026-04-25T10:47:04.554Z</time></trkpt><trkpt lat="40.7654595" lon="17.1790229"><ele>424.0</ele><time>2026-04-25T10:47:06.563Z</time></trkpt><trkpt lat="40.7654836" lon="17.1789312"><ele>424.2857142857143</ele><time>2026-04-25T10:47:08.555Z</time></trkpt><trkpt lat="40.7655012" lon="17.1788364"><ele>424.57142857142856</ele><time>2026-04-25T10:47:10.566Z</time></trkpt><trkpt lat="40.7655183" lon="17.1787493"><ele>424.85714285714283</ele><time>2026-04-25T10:47:12.567Z</time></trkpt><trkpt lat="40.7655414" lon="17.1786697"><ele>425.1428571428571</ele><time>2026-04-25T10:47:14.56Z</time></trkpt><trkpt lat="40.7655846" lon="17.1785767"><ele>425.42857142857144</ele><time>2026-04-25T10:47:17.559Z</time></trkpt><trkpt lat="40.7656217" lon="17.178509"><ele>425.71428571428567</ele><time>2026-04-25T10:47:19.556Z</time></trkpt><trkpt lat="40.7656531" lon="17.1784317"><ele>426.0</ele><time>2026-04-25T10:47:21.556Z</time></trkpt><trkpt lat="40.7657114" lon="17.1783369"><ele>426.0</ele><time>2026-04-25T10:47:24.56Z</time></trkpt><trkpt lat="40.7657714" lon="17.1782481"><ele>426.0</ele><time>2026-04-25T10:47:27.568Z</time></trkpt><trkpt lat="40.7658134" lon="17.1781834"><ele>426.0</ele><time>2026-04-25T10:47:29.56Z</time></trkpt><trkpt lat="40.7658725" lon="17.1780931"><ele>426.0</ele><time>2026-04-25T10:47:32.555Z</time></trkpt><trkpt lat="40.7659124" lon="17.1779865"><ele>426.0</ele><time>2026-04-25T10:47:35.573Z</time></trkpt><trkpt lat="40.7659404" lon="17.1778759"><ele>426.0</ele><time>2026-04-25T10:47:38.563Z</time></trkpt><trkpt lat="40.7659759" lon="17.1777676"><ele>425.99999999999994</ele><time>2026-04-25T10:47:41.582Z</time></trkpt><trkpt lat="40.7660126" lon="17.1776582"><ele>426.0</ele><time>2026-04-25T10:47:44.556Z</time></trkpt><trkpt lat="40.7660355" lon="17.177566"><ele>426.0</ele><time>2026-04-25T10:47:47.563Z</time></trkpt><trkpt lat="40.7660329" lon="17.1774738"><ele>426.0</ele><time>2026-04-25T10:47:51.554Z</time></trkpt><trkpt lat="40.765983" lon="17.1775322"><ele>426.0</ele><time>2026-04-25T10:50:24.561Z</time></trkpt><trkpt lat="40.7659673" lon="17.1776236"><ele>425.99999999999994</ele><time>2026-04-25T10:50:27.56Z</time></trkpt><trkpt lat="40.7659438" lon="17.1777151"><ele>426.0</ele><time>2026-04-25T10:50:30.557Z</time></trkpt><trkpt lat="40.7659092" lon="17.1778116"><ele>426.0</ele><time>2026-04-25T10:50:33.553Z</time></trkpt><trkpt lat="40.7658737" lon="17.1779115"><ele>426.0</ele><time>2026-04-25T10:50:36.571Z</time></trkpt><trkpt lat="40.7658229" lon="17.1780076"><ele>426.0</ele><time>2026-04-25T10:50:39.561Z</time></trkpt><trkpt lat="40.7657852" lon="17.1781002"><ele>426.0</ele><time>2026-04-25T10:50:42.559Z</time></trkpt><trkpt lat="40.7657412" lon="17.1781834"><ele>426.0</ele><time>2026-04-25T10:50:45.555Z</time></trkpt><trkpt lat="40.7657137" lon="17.1782606"><ele>426.0</ele><time>2026-04-25T10:50:48.577Z</time></trkpt><trkpt lat="40.7656624" lon="17.1783478"><ele>426.0</ele><time>2026-04-25T10:50:51.559Z</time></trkpt><trkpt lat="40.7656032" lon="17.1784395"><ele>426.0</ele><time>2026-04-25T10:50:54.554Z</time></trkpt><trkpt lat="40.7655553" lon="17.17854"><ele>426.0</ele><time>2026-04-25T10:50:57.552Z</time></trkpt><trkpt lat="40.7655258" lon="17.1786555"><ele>426.0</ele><time>2026-04-25T10:51:00.559Z</time></trkpt><trkpt lat="40.7655359" lon="17.1786112"><ele>426.0</ele><time>2026-04-25T11:00:06.539Z</time></trkpt><trkpt lat="40.7655808" lon="17.1785346"><ele>426.0</ele><time>2026-04-25T11:00:09.534Z</time></trkpt><trkpt lat="40.7656337" lon="17.178439"><ele>426.0</ele><time>2026-04-25T11:00:12.53Z</time></trkpt><trkpt lat="40.765676" lon="17.1783555"><ele>426.0</ele><time>2026-04-25T11:00:15.557Z</time></trkpt><trkpt lat="40.765731" lon="17.1782745"><ele>426.0</ele><time>2026-04-25T11:00:18.547Z</time></trkpt><trkpt lat="40.7657833" lon="17.1781858"><ele>426.0</ele><time>2026-04-25T11:00:21.557Z</time></trkpt><trkpt lat="40.7658326" lon="17.1780906"><ele>426.0</ele><time>2026-04-25T11:00:24.669Z</time></trkpt><trkpt lat="40.7658749" lon="17.1779919"><ele>426.0</ele><time>2026-04-25T11:00:27.558Z</time></trkpt><trkpt lat="40.7659063" lon="17.1779182"><ele>426.0</ele><time>2026-04-25T11:00:29.569Z</time></trkpt><trkpt lat="40.7659481" lon="17.1778194"><ele>426.0</ele><time>2026-04-25T11:00:32.61Z</time></trkpt><trkpt lat="40.7659866" lon="17.1777293"><ele>426.0</ele><time>2026-04-25T11:00:35.572Z</time></trkpt><trkpt lat="40.7660148" lon="17.1776141"><ele>426.0</ele><time>2026-04-25T11:00:38.574Z</time></trkpt><trkpt lat="40.7660415" lon="17.1775072"><ele>426.0</ele><time>2026-04-25T11:00:41.556Z</time></trkpt><trkpt lat="40.7660656" lon="17.1774273"><ele>426.0</ele><time>2026-04-25T11:00:43.571Z</time></trkpt><trkpt lat="40.7660906" lon="17.1773464"><ele>425.8333333333333</ele><time>2026-04-25T11:00:45.579Z</time></trkpt><trkpt lat="40.7661256" lon="17.1772316"><ele>425.66666666666663</ele><time>2026-04-25T11:00:48.589Z</time></trkpt><trkpt lat="40.7661466" lon="17.1771515"><ele>425.5</ele><time>2026-04-25T11:00:50.58Z</time></trkpt><trkpt lat="40.7661768" lon="17.1770331"><ele>425.3333333333333</ele><time>2026-04-25T11:00:53.565Z</time></trkpt><trkpt lat="40.7662004" lon="17.1769471"><ele>425.16666666666663</ele><time>2026-04-25T11:00:55.556Z</time></trkpt><trkpt lat="40.7662385" lon="17.1768365"><ele>425.0</ele><time>2026-04-25T11:00:58.573Z</time></trkpt><trkpt lat="40.7662534" lon="17.1767515"><ele>425.0</ele><time>2026-04-25T11:01:00.57Z</time></trkpt><trkpt lat="40.7662732" lon="17.1766677"><ele>425.0</ele><time>2026-04-25T11:01:02.552Z</time></trkpt><trkpt lat="40.7662911" lon="17.1765846"><ele>425.0</ele><time>2026-04-25T11:01:04.567Z</time></trkpt><trkpt lat="40.7663098" lon="17.1765014"><ele>425.0</ele><time>2026-04-25T11:01:06.583Z</time></trkpt><trkpt lat="40.7663272" lon="17.1764199"><ele>425.0</ele><time>2026-04-25T11:01:08.552Z</time></trkpt><trkpt lat="40.7663442" lon="17.1762983"><ele>425.0</ele><time>2026-04-25T11:01:11.573Z</time></trkpt><trkpt lat="40.7663655" lon="17.1761775"><ele>425.0</ele><time>2026-04-25T11:01:14.521Z</time></trkpt><trkpt lat="40.7663755" lon="17.1760928"><ele>425.16666666666663</ele><time>2026-04-25T11:01:16.517Z</time></trkpt><trkpt lat="40.7663939" lon="17.176013"><ele>425.3333333333333</ele><time>2026-04-25T11:01:18.526Z</time></trkpt><trkpt lat="40.7664154" lon="17.1758982"><ele>425.5</ele><time>2026-04-25T11:01:21.53Z</time></trkpt><trkpt lat="40.7664396" lon="17.1757867"><ele>425.66666666666663</ele><time>2026-04-25T11:01:24.54Z</time></trkpt><trkpt lat="40.7664507" lon="17.1756784"><ele>425.8333333333333</ele><time>2026-04-25T11:01:27.553Z</time></trkpt><trkpt lat="40.7664645" lon="17.1755665"><ele>426.0</ele><time>2026-04-25T11:01:30.537Z</time></trkpt><trkpt lat="40.7664808" lon="17.1754583"><ele>425.71428571428567</ele><time>2026-04-25T11:01:33.534Z</time></trkpt><trkpt lat="40.7664861" lon="17.1753714"><ele>425.42857142857144</ele><time>2026-04-25T11:01:35.533Z</time></trkpt><trkpt lat="40.7665" lon="17.175285"><ele>425.1428571428571</ele><time>2026-04-25T11:01:37.536Z</time></trkpt><trkpt lat="40.7665162" lon="17.1751682"><ele>424.85714285714283</ele><time>2026-04-25T11:01:40.543Z</time></trkpt><trkpt lat="40.7665284" lon="17.1750866"><ele>424.57142857142856</ele><time>2026-04-25T11:01:42.543Z</time></trkpt><trkpt lat="40.766542" lon="17.1750027"><ele>424.2857142857143</ele><time>2026-04-25T11:01:44.548Z</time></trkpt><trkpt lat="40.7665539" lon="17.1749143"><ele>424.0</ele><time>2026-04-25T11:01:46.57Z</time></trkpt><trkpt lat="40.7665629" lon="17.1748178"><ele>424.00000000000006</ele><time>2026-04-25T11:01:48.553Z</time></trkpt><trkpt lat="40.7665831" lon="17.174711"><ele>424.0</ele><time>2026-04-25T11:01:50.538Z</time></trkpt><trkpt lat="40.7666011" lon="17.1746085"><ele>424.0</ele><time>2026-04-25T11:01:52.545Z</time></trkpt><trkpt lat="40.7666159" lon="17.1745073"><ele>424.0</ele><time>2026-04-25T11:01:54.56Z</time></trkpt><trkpt lat="40.7666325" lon="17.1744124"><ele>424.00000000000006</ele><time>2026-04-25T11:01:56.533Z</time></trkpt><trkpt lat="40.7666413" lon="17.1743146"><ele>424.0</ele><time>2026-04-25T11:01:58.546Z</time></trkpt><trkpt lat="40.7666535" lon="17.1742144"><ele>424.00000000000006</ele><time>2026-04-25T11:02:00.553Z</time></trkpt><trkpt lat="40.7666642" lon="17.1741104"><ele>424.0</ele><time>2026-04-25T11:02:02.539Z</time></trkpt><trkpt lat="40.7666766" lon="17.1740128"><ele>424.0</ele><time>2026-04-25T11:02:04.536Z</time></trkpt><trkpt lat="40.7666846" lon="17.1739092"><ele>424.0</ele><time>2026-04-25T11:02:06.576Z</time></trkpt><trkpt lat="40.7666973" lon="17.1738056"><ele>424.00000000000006</ele><time>2026-04-25T11:02:08.573Z</time></trkpt><trkpt lat="40.7667159" lon="17.1736994"><ele>424.0</ele><time>2026-04-25T11:02:10.551Z</time></trkpt><trkpt lat="40.7667297" lon="17.1736014"><ele>424.1666666666667</ele><time>2026-04-25T11:02:12.575Z</time></trkpt><trkpt lat="40.7667454" lon="17.1734969"><ele>424.33333333333337</ele><time>2026-04-25T11:02:14.56Z</time></trkpt><trkpt lat="40.7667558" lon="17.173402"><ele>424.5</ele><time>2026-04-25T11:02:16.56Z</time></trkpt><trkpt lat="40.7667765" lon="17.1733021"><ele>424.66666666666663</ele><time>2026-04-25T11:02:18.566Z</time></trkpt><trkpt lat="40.7667933" lon="17.1732082"><ele>424.8333333333333</ele><time>2026-04-25T11:02:20.557Z</time></trkpt><trkpt lat="40.7668092" lon="17.1731131"><ele>425.0</ele><time>2026-04-25T11:02:22.545Z</time></trkpt><trkpt lat="40.7668329" lon="17.1730233"><ele>425.1428571428571</ele><time>2026-04-25T11:02:24.575Z</time></trkpt><trkpt lat="40.7668573" lon="17.1729378"><ele>425.2857142857143</ele><time>2026-04-25T11:02:26.578Z</time></trkpt><trkpt lat="40.7668832" lon="17.1728595"><ele>425.42857142857144</ele><time>2026-04-25T11:02:28.549Z</time></trkpt><trkpt lat="40.7669116" lon="17.1727757"><ele>425.57142857142856</ele><time>2026-04-25T11:02:30.559Z</time></trkpt><trkpt lat="40.7669501" lon="17.1726871"><ele>425.7142857142857</ele><time>2026-04-25T11:02:32.576Z</time></trkpt><trkpt lat="40.7669851" lon="17.1725984"><ele>425.85714285714283</ele><time>2026-04-25T11:02:34.567Z</time></trkpt><trkpt lat="40.7670319" lon="17.172526"><ele>426.0</ele><time>2026-04-25T11:02:36.577Z</time></trkpt><trkpt lat="40.7670738" lon="17.1724501"><ele>425.99999999999994</ele><time>2026-04-25T11:02:38.56Z</time></trkpt><trkpt lat="40.7671164" lon="17.1723727"><ele>426.0</ele><time>2026-04-25T11:02:40.536Z</time></trkpt><trkpt lat="40.7671589" lon="17.1723"><ele>426.0</ele><time>2026-04-25T11:02:42.554Z</time></trkpt><trkpt lat="40.7672031" lon="17.1722304"><ele>426.0</ele><time>2026-04-25T11:02:44.535Z</time></trkpt><trkpt lat="40.767256" lon="17.1721681"><ele>426.0</ele><time>2026-04-25T11:02:46.555Z</time></trkpt><trkpt lat="40.767316" lon="17.1721037"><ele>425.99999999999994</ele><time>2026-04-25T11:02:48.549Z</time></trkpt><trkpt lat="40.7673691" lon="17.1720434"><ele>426.0</ele><time>2026-04-25T11:02:50.565Z</time></trkpt><trkpt lat="40.7674241" lon="17.1719723"><ele>425.99999999999994</ele><time>2026-04-25T11:02:52.536Z</time></trkpt><trkpt lat="40.7674723" lon="17.171906"><ele>426.0</ele><time>2026-04-25T11:02:54.555Z</time></trkpt><trkpt lat="40.7675184" lon="17.1718401"><ele>426.0</ele><time>2026-04-25T11:02:56.574Z</time></trkpt><trkpt lat="40.7675659" lon="17.1717745"><ele>426.0</ele><time>2026-04-25T11:02:58.566Z</time></trkpt><trkpt lat="40.7676114" lon="17.1717086"><ele>426.0</ele><time>2026-04-25T11:03:00.539Z</time></trkpt><trkpt lat="40.7676613" lon="17.1716432"><ele>425.99999999999994</ele><time>2026-04-25T11:03:02.535Z</time></trkpt><trkpt lat="40.7677092" lon="17.1715861"><ele>426.0</ele><time>2026-04-25T11:03:04.555Z</time></trkpt><trkpt lat="40.7677599" lon="17.1715233"><ele>425.85714285714283</ele><time>2026-04-25T11:03:41.541Z</time></trkpt><trkpt lat="40.7678105" lon="17.1714574"><ele>425.7142857142857</ele><time>2026-04-25T11:03:44.561Z</time></trkpt><trkpt lat="40.7678542" lon="17.1713864"><ele>425.57142857142856</ele><time>2026-04-25T11:03:46.581Z</time></trkpt><trkpt lat="40.7678959" lon="17.1713185"><ele>425.42857142857144</ele><time>2026-04-25T11:03:48.58Z</time></trkpt><trkpt lat="40.7679308" lon="17.1712445"><ele>425.2857142857143</ele><time>2026-04-25T11:03:50.563Z</time></trkpt><trkpt lat="40.7679594" lon="17.1711616"><ele>425.1428571428571</ele><time>2026-04-25T11:03:52.584Z</time></trkpt><trkpt lat="40.7679817" lon="17.1710809"><ele>425.0</ele><time>2026-04-25T11:03:54.585Z</time></trkpt><trkpt lat="40.7680102" lon="17.1709725"><ele>424.99999999999994</ele><time>2026-04-25T11:03:57.582Z</time></trkpt><trkpt lat="40.7680395" lon="17.1708559"><ele>425.0</ele><time>2026-04-25T11:04:00.567Z</time></trkpt><trkpt lat="40.7680622" lon="17.170765"><ele>425.0</ele><time>2026-04-25T11:04:02.548Z</time></trkpt><trkpt lat="40.7680865" lon="17.1706689"><ele>425.0</ele><time>2026-04-25T11:04:04.566Z</time></trkpt><trkpt lat="40.7681047" lon="17.1705789"><ele>424.99999999999994</ele><time>2026-04-25T11:04:06.567Z</time></trkpt><trkpt lat="40.7681269" lon="17.1704902"><ele>425.0</ele><time>2026-04-25T11:04:08.542Z</time></trkpt><trkpt lat="40.7681506" lon="17.1703997"><ele>425.16666666666663</ele><time>2026-04-25T11:04:10.575Z</time></trkpt><trkpt lat="40.7681757" lon="17.1703129"><ele>425.3333333333333</ele><time>2026-04-25T11:04:12.582Z</time></trkpt><trkpt lat="40.7681988" lon="17.1702306"><ele>425.5</ele><time>2026-04-25T11:04:14.598Z</time></trkpt><trkpt lat="40.7682208" lon="17.1701451"><ele>425.66666666666663</ele><time>2026-04-25T11:04:16.601Z</time></trkpt><trkpt lat="40.7682397" lon="17.1700614"><ele>425.8333333333333</ele><time>2026-04-25T11:04:18.545Z</time></trkpt><trkpt lat="40.7682651" lon="17.1699453"><ele>426.0</ele><time>2026-04-25T11:04:21.532Z</time></trkpt><trkpt lat="40.7682917" lon="17.1698334"><ele>426.1666666666667</ele><time>2026-04-25T11:04:24.557Z</time></trkpt><trkpt lat="40.7683211" lon="17.1697163"><ele>426.33333333333337</ele><time>2026-04-25T11:04:27.568Z</time></trkpt><trkpt lat="40.7683418" lon="17.1696364"><ele>426.5</ele><time>2026-04-25T11:04:29.568Z</time></trkpt><trkpt lat="40.7683724" lon="17.1695179"><ele>426.6666666666667</ele><time>2026-04-25T11:04:32.566Z</time></trkpt><trkpt lat="40.7684018" lon="17.1694051"><ele>426.83333333333337</ele><time>2026-04-25T11:04:35.548Z</time></trkpt><trkpt lat="40.7684283" lon="17.1693025"><ele>427.0</ele><time>2026-04-25T11:04:38.534Z</time></trkpt><trkpt lat="40.7684544" lon="17.1691921"><ele>427.0</ele><time>2026-04-25T11:04:41.533Z</time></trkpt><trkpt lat="40.7684733" lon="17.1691049"><ele>427.0</ele><time>2026-04-25T11:04:43.567Z</time></trkpt><trkpt lat="40.7684943" lon="17.1690258"><ele>427.0</ele><time>2026-04-25T11:04:45.558Z</time></trkpt><trkpt lat="40.7685287" lon="17.1689204"><ele>427.0</ele><time>2026-04-25T11:04:48.54Z</time></trkpt><trkpt lat="40.7685549" lon="17.1688068"><ele>427.0</ele><time>2026-04-25T11:04:51.584Z</time></trkpt><trkpt lat="40.7685523" lon="17.1687192"><ele>427.0</ele><time>2026-04-25T11:04:58.581Z</time></trkpt><trkpt lat="40.768558" lon="17.1686229"><ele>427.0</ele><time>2026-04-25T11:05:05.552Z</time></trkpt><trkpt lat="40.7685642" lon="17.1685314"><ele>427.14285714285717</ele><time>2026-04-25T11:05:10.55Z</time></trkpt><trkpt lat="40.7685536" lon="17.1684492"><ele>427.2857142857143</ele><time>2026-04-25T11:05:15.542Z</time></trkpt><trkpt lat="40.7685575" lon="17.1683569"><ele>427.42857142857144</ele><time>2026-04-25T11:05:20.55Z</time></trkpt><trkpt lat="40.7685619" lon="17.1682616"><ele>427.57142857142856</ele><time>2026-04-25T11:05:24.544Z</time></trkpt><trkpt lat="40.7685722" lon="17.1681781"><ele>427.7142857142857</ele><time>2026-04-25T11:05:30.579Z</time></trkpt><trkpt lat="40.7685633" lon="17.1680824"><ele>427.8571428571429</ele><time>2026-04-25T11:05:36.571Z</time></trkpt><trkpt lat="40.7685677" lon="17.1679881"><ele>428.0</ele><time>2026-04-25T11:05:42.561Z</time></trkpt><trkpt lat="40.7685772" lon="17.1678944"><ele>428.00000000000006</ele><time>2026-04-25T11:05:46.545Z</time></trkpt><trkpt lat="40.768586" lon="17.1678043"><ele>428.0</ele><time>2026-04-25T11:05:50.488Z</time></trkpt><trkpt lat="40.7686029" lon="17.1677127"><ele>428.0</ele><time>2026-04-25T11:05:57.605Z</time></trkpt><trkpt lat="40.7686055" lon="17.1676242"><ele>428.0</ele><time>2026-04-25T11:06:02.542Z</time></trkpt><trkpt lat="40.7686002" lon="17.1675406"><ele>428.0</ele><time>2026-04-25T11:06:06.49Z</time></trkpt><trkpt lat="40.7686083" lon="17.1674469"><ele>428.00000000000006</ele><time>2026-04-25T11:06:10.558Z</time></trkpt><trkpt lat="40.7686212" lon="17.1673516"><ele>428.0</ele><time>2026-04-25T11:06:14.562Z</time></trkpt><trkpt lat="40.7686264" lon="17.1672521"><ele>428.14285714285717</ele><time>2026-04-25T11:06:19.57Z</time></trkpt><trkpt lat="40.7686362" lon="17.1671526"><ele>428.2857142857143</ele><time>2026-04-25T11:06:24.526Z</time></trkpt><trkpt lat="40.7686364" lon="17.1670694"><ele>428.42857142857144</ele><time>2026-04-25T11:06:28.548Z</time></trkpt><trkpt lat="40.7686382" lon="17.1669725"><ele>428.57142857142856</ele><time>2026-04-25T11:06:33.533Z</time></trkpt><trkpt lat="40.768643" lon="17.166884"><ele>428.7142857142857</ele><time>2026-04-25T11:06:38.576Z</time></trkpt><trkpt lat="40.7686391" lon="17.1667976"><ele>428.8571428571429</ele><time>2026-04-25T11:06:44.565Z</time></trkpt><trkpt lat="40.7686477" lon="17.1667151"><ele>429.0</ele><time>2026-04-25T11:06:49.511Z</time></trkpt><trkpt lat="40.7686499" lon="17.1666166"><ele>429.0</ele><time>2026-04-25T11:06:54.579Z</time></trkpt><trkpt lat="40.7686549" lon="17.1665177"><ele>429.0</ele><time>2026-04-25T11:06:59.583Z</time></trkpt><trkpt lat="40.7686695" lon="17.1664247"><ele>429.0</ele><time>2026-04-25T11:07:04.553Z</time></trkpt><trkpt lat="40.7686753" lon="17.1663378"><ele>429.0</ele><time>2026-04-25T11:07:09.549Z</time></trkpt><trkpt lat="40.7686835" lon="17.1662541"><ele>429.0</ele><time>2026-04-25T11:07:16.593Z</time></trkpt><trkpt lat="40.7686966" lon="17.166157"><ele>429.0</ele><time>2026-04-25T11:07:20.559Z</time></trkpt><trkpt lat="40.7687021" lon="17.1660516"><ele>429.0</ele><time>2026-04-25T11:07:23.56Z</time></trkpt><trkpt lat="40.768698" lon="17.1659465"><ele>429.0</ele><time>2026-04-25T11:07:26.545Z</time></trkpt><trkpt lat="40.7687096" lon="17.1658321"><ele>429.0</ele><time>2026-04-25T11:07:29.59Z</time></trkpt><trkpt lat="40.7687161" lon="17.1657387"><ele>429.0</ele><time>2026-04-25T11:07:31.556Z</time></trkpt><trkpt lat="40.7687306" lon="17.1656299"><ele>429.0</ele><time>2026-04-25T11:07:33.572Z</time></trkpt><trkpt lat="40.7687284" lon="17.1655093"><ele>429.0</ele><time>2026-04-25T11:07:35.568Z</time></trkpt><trkpt lat="40.7687322" lon="17.165362"><ele>429.0</ele><time>2026-04-25T11:07:37.593Z</time></trkpt><trkpt lat="40.7687432" lon="17.1652211"><ele>429.0</ele><time>2026-04-25T11:07:39.583Z</time></trkpt><trkpt lat="40.76875" lon="17.1650944"><ele>429.0</ele><time>2026-04-25T11:07:41.56Z</time></trkpt><trkpt lat="40.7687592" lon="17.1649817"><ele>429.0</ele><time>2026-04-25T11:07:43.562Z</time></trkpt><trkpt lat="40.7687639" lon="17.1648776"><ele>429.0</ele><time>2026-04-25T11:07:45.559Z</time></trkpt><trkpt lat="40.7687714" lon="17.1647768"><ele>429.0</ele><time>2026-04-25T11:07:47.591Z</time></trkpt><trkpt lat="40.7687898" lon="17.164677"><ele>429.0</ele><time>2026-04-25T11:07:49.55Z</time></trkpt><trkpt lat="40.7688064" lon="17.1645696"><ele>429.0</ele><time>2026-04-25T11:07:51.548Z</time></trkpt><trkpt lat="40.7688313" lon="17.1644707"><ele>429.0</ele><time>2026-04-25T11:07:53.571Z</time></trkpt><trkpt lat="40.7688684" lon="17.1643775"><ele>429.0</ele><time>2026-04-25T11:07:55.58Z</time></trkpt><trkpt lat="40.7689069" lon="17.1642902"><ele>429.0</ele><time>2026-04-25T11:07:57.571Z</time></trkpt><trkpt lat="40.7689427" lon="17.164208"><ele>429.0</ele><time>2026-04-25T11:07:59.564Z</time></trkpt><trkpt lat="40.7689834" lon="17.1641262"><ele>429.0</ele><time>2026-04-25T11:08:01.533Z</time></trkpt><trkpt lat="40.7690258" lon="17.1640445"><ele>429.0</ele><time>2026-04-25T11:08:03.583Z</time></trkpt><trkpt lat="40.7690728" lon="17.163959"><ele>429.0</ele><time>2026-04-25T11:08:05.553Z</time></trkpt><trkpt lat="40.7691203" lon="17.16388"><ele>429.0</ele><time>2026-04-25T11:08:07.567Z</time></trkpt><trkpt lat="40.7691743" lon="17.1637968"><ele>429.0</ele><time>2026-04-25T11:08:09.541Z</time></trkpt><trkpt lat="40.7692105" lon="17.1637067"><ele>429.0</ele><time>2026-04-25T11:08:11.568Z</time></trkpt><trkpt lat="40.7692468" lon="17.163611"><ele>429.0</ele><time>2026-04-25T11:08:13.579Z</time></trkpt><trkpt lat="40.7692842" lon="17.1635207"><ele>429.0</ele><time>2026-04-25T11:08:15.566Z</time></trkpt><trkpt lat="40.7693115" lon="17.1634277"><ele>429.0</ele><time>2026-04-25T11:08:17.555Z</time></trkpt><trkpt lat="40.7693394" lon="17.1633251"><ele>429.0</ele><time>2026-04-25T11:08:19.553Z</time></trkpt><trkpt lat="40.7693627" lon="17.1632346"><ele>429.0</ele><time>2026-04-25T11:08:21.572Z</time></trkpt><trkpt lat="40.7693817" lon="17.1631363"><ele>429.0</ele><time>2026-04-25T11:08:23.553Z</time></trkpt><trkpt lat="40.7694084" lon="17.1630399"><ele>429.0</ele><time>2026-04-25T11:08:25.573Z</time></trkpt><trkpt lat="40.7694303" lon="17.1629414"><ele>428.8333333333333</ele><time>2026-04-25T11:08:27.55Z</time></trkpt><trkpt lat="40.7694524" lon="17.1628485"><ele>428.66666666666663</ele><time>2026-04-25T11:08:29.573Z</time></trkpt><trkpt lat="40.769482" lon="17.1627548"><ele>428.5</ele><time>2026-04-25T11:08:31.557Z</time></trkpt><trkpt lat="40.7695096" lon="17.1626594"><ele>428.3333333333333</ele><time>2026-04-25T11:08:33.573Z</time></trkpt><trkpt lat="40.769527" lon="17.1625667"><ele>428.16666666666663</ele><time>2026-04-25T11:08:35.565Z</time></trkpt><trkpt lat="40.7695477" lon="17.1624692"><ele>428.0</ele><time>2026-04-25T11:08:37.551Z</time></trkpt><trkpt lat="40.7695776" lon="17.1623782"><ele>427.99999999999994</ele><time>2026-04-25T11:08:39.566Z</time></trkpt><trkpt lat="40.7696053" lon="17.1622837"><ele>428.0</ele><time>2026-04-25T11:08:41.552Z</time></trkpt><trkpt lat="40.769632" lon="17.1621803"><ele>428.0</ele><time>2026-04-25T11:08:43.56Z</time></trkpt><trkpt lat="40.7696592" lon="17.162084"><ele>428.0</ele><time>2026-04-25T11:08:45.568Z</time></trkpt><trkpt lat="40.7696787" lon="17.1619866"><ele>427.99999999999994</ele><time>2026-04-25T11:08:47.584Z</time></trkpt><trkpt lat="40.7697074" lon="17.1618918"><ele>428.0</ele><time>2026-04-25T11:08:49.577Z</time></trkpt><trkpt lat="40.7697339" lon="17.1617965"><ele>427.99999999999994</ele><time>2026-04-25T11:08:51.555Z</time></trkpt><trkpt lat="40.7697561" lon="17.1616983"><ele>428.0</ele><time>2026-04-25T11:08:53.563Z</time></trkpt><trkpt lat="40.7697864" lon="17.1615832"><ele>428.0</ele><time>2026-04-25T11:08:56.556Z</time></trkpt><trkpt lat="40.7698055" lon="17.1614701"><ele>428.0</ele><time>2026-04-25T11:08:59.561Z</time></trkpt><trkpt lat="40.769819" lon="17.1613682"><ele>427.99999999999994</ele><time>2026-04-25T11:09:02.561Z</time></trkpt><trkpt lat="40.7698484" lon="17.161264"><ele>428.0</ele><time>2026-04-25T11:09:05.582Z</time></trkpt><trkpt lat="40.7698667" lon="17.1611815"><ele>427.99999999999994</ele><time>2026-04-25T11:09:07.569Z</time></trkpt><trkpt lat="40.7698877" lon="17.1610909"><ele>428.0</ele><time>2026-04-25T11:09:09.558Z</time></trkpt><trkpt lat="40.7699068" lon="17.1609868"><ele>428.0</ele><time>2026-04-25T11:09:11.587Z</time></trkpt><trkpt lat="40.7699427" lon="17.1608856"><ele>428.0</ele><time>2026-04-25T11:09:13.581Z</time></trkpt><trkpt lat="40.7699833" lon="17.1607848"><ele>427.99999999999994</ele><time>2026-04-25T11:09:15.567Z</time></trkpt><trkpt lat="40.7700295" lon="17.1606688"><ele>428.0</ele><time>2026-04-25T11:09:17.578Z</time></trkpt><trkpt lat="40.7700808" lon="17.1605517"><ele>428.0</ele><time>2026-04-25T11:09:19.558Z</time></trkpt><trkpt lat="40.7701425" lon="17.1604425"><ele>427.99999999999994</ele><time>2026-04-25T11:09:21.562Z</time></trkpt><trkpt lat="40.7702108" lon="17.1603404"><ele>427.99999999999994</ele><time>2026-04-25T11:09:23.579Z</time></trkpt><trkpt lat="40.7702734" lon="17.1602572"><ele>428.0</ele><time>2026-04-25T11:09:25.562Z</time></trkpt><trkpt lat="40.7703309" lon="17.1601786"><ele>428.0</ele><time>2026-04-25T11:09:27.536Z</time></trkpt><trkpt lat="40.7703951" lon="17.1601114"><ele>427.8333333333333</ele><time>2026-04-25T11:09:29.535Z</time></trkpt><trkpt lat="40.7704564" lon="17.1600418"><ele>427.66666666666663</ele><time>2026-04-25T11:09:31.572Z</time></trkpt><trkpt lat="40.7705159" lon="17.1599708"><ele>427.5</ele><time>2026-04-25T11:09:33.58Z</time></trkpt><trkpt lat="40.7705751" lon="17.1598961"><ele>427.33333333333337</ele><time>2026-04-25T11:09:35.575Z</time></trkpt><trkpt lat="40.7706329" lon="17.1598312"><ele>427.1666666666667</ele><time>2026-04-25T11:09:37.578Z</time></trkpt><trkpt lat="40.7706926" lon="17.1597738"><ele>427.0</ele><time>2026-04-25T11:09:39.576Z</time></trkpt><trkpt lat="40.7707501" lon="17.1597099"><ele>427.00000000000006</ele><time>2026-04-25T11:09:41.553Z</time></trkpt><trkpt lat="40.7708027" lon="17.1596453"><ele>427.0</ele><time>2026-04-25T11:09:43.556Z</time></trkpt><trkpt lat="40.7708643" lon="17.1595754"><ele>427.0</ele><time>2026-04-25T11:09:45.566Z</time></trkpt><trkpt lat="40.7709318" lon="17.1595084"><ele>427.0</ele><time>2026-04-25T11:09:47.572Z</time></trkpt><trkpt lat="40.770995" lon="17.159439"><ele>427.00000000000006</ele><time>2026-04-25T11:09:49.587Z</time></trkpt><trkpt lat="40.771065" lon="17.1593676"><ele>427.0</ele><time>2026-04-25T11:09:51.576Z</time></trkpt><trkpt lat="40.7711289" lon="17.1592938"><ele>427.00000000000006</ele><time>2026-04-25T11:09:53.577Z</time></trkpt><trkpt lat="40.7711835" lon="17.1592084"><ele>427.0</ele><time>2026-04-25T11:09:55.547Z</time></trkpt><trkpt lat="40.7712317" lon="17.1591116"><ele>427.0</ele><time>2026-04-25T11:09:57.6Z</time></trkpt><trkpt lat="40.7712731" lon="17.1590141"><ele>427.0</ele><time>2026-04-25T11:09:59.568Z</time></trkpt><trkpt lat="40.7713052" lon="17.1589138"><ele>427.00000000000006</ele><time>2026-04-25T11:10:01.586Z</time></trkpt><trkpt lat="40.7713389" lon="17.1588138"><ele>427.0</ele><time>2026-04-25T11:10:03.579Z</time></trkpt><trkpt lat="40.7713727" lon="17.1587206"><ele>427.00000000000006</ele><time>2026-04-25T11:10:05.577Z</time></trkpt><trkpt lat="40.7714222" lon="17.1586512"><ele>427.0</ele><time>2026-04-25T11:10:07.578Z</time></trkpt><trkpt lat="40.7714889" lon="17.1585714"><ele>427.0</ele><time>2026-04-25T11:10:10.575Z</time></trkpt><trkpt lat="40.771566" lon="17.1585216"><ele>427.0</ele><time>2026-04-25T11:10:13.592Z</time></trkpt><trkpt lat="40.7716518" lon="17.1584783"><ele>427.00000000000006</ele><time>2026-04-25T11:10:16.589Z</time></trkpt><trkpt lat="40.7717116" lon="17.1584471"><ele>427.0</ele><time>2026-04-25T11:10:18.585Z</time></trkpt><trkpt lat="40.7717734" lon="17.1584123"><ele>427.0</ele><time>2026-04-25T11:10:20.567Z</time></trkpt><trkpt lat="40.7718365" lon="17.1583817"><ele>427.0</ele><time>2026-04-25T11:10:22.544Z</time></trkpt><trkpt lat="40.7718995" lon="17.1583481"><ele>427.0</ele><time>2026-04-25T11:10:24.571Z</time></trkpt><trkpt lat="40.7719565" lon="17.1583088"><ele>427.0</ele><time>2026-04-25T11:10:26.634Z</time></trkpt><trkpt lat="40.7720073" lon="17.1582506"><ele>427.0</ele><time>2026-04-25T11:10:28.575Z</time></trkpt><trkpt lat="40.7720486" lon="17.1581791"><ele>427.0</ele><time>2026-04-25T11:10:30.572Z</time></trkpt><trkpt lat="40.7720927" lon="17.1580744"><ele>427.0</ele><time>2026-04-25T11:10:33.597Z</time></trkpt><trkpt lat="40.7720931" lon="17.157966"><ele>427.00000000000006</ele><time>2026-04-25T11:10:36.601Z</time></trkpt><trkpt lat="40.7720644" lon="17.1578648"><ele>427.0</ele><time>2026-04-25T11:10:39.557Z</time></trkpt><trkpt lat="40.7720379" lon="17.1577704"><ele>427.0</ele><time>2026-04-25T11:10:42.571Z</time></trkpt><trkpt lat="40.772" lon="17.1576819"><ele>427.0</ele><time>2026-04-25T11:10:45.557Z</time></trkpt><trkpt lat="40.7719621" lon="17.1576016"><ele>427.00000000000006</ele><time>2026-04-25T11:10:48.554Z</time></trkpt><trkpt lat="40.7719176" lon="17.1575108"><ele>427.0</ele><time>2026-04-25T11:10:51.573Z</time></trkpt><trkpt lat="40.7718805" lon="17.1574182"><ele>427.50000000000006</ele><time>2026-04-25T11:10:54.591Z</time></trkpt><trkpt lat="40.771845" lon="17.1573216"><ele>428.0</ele><time>2026-04-25T11:10:57.56Z</time></trkpt><trkpt lat="40.771815" lon="17.1572352"><ele>428.5</ele><time>2026-04-25T11:11:01.575Z</time></trkpt><trkpt lat="40.7717932" lon="17.1571446"><ele>429.0</ele><time>2026-04-25T11:11:31.584Z</time></trkpt><trkpt lat="40.771766" lon="17.1570514"><ele>429.50000000000006</ele><time>2026-04-25T11:11:34.59Z</time></trkpt><trkpt lat="40.7717374" lon="17.1569357"><ele>430.0</ele><time>2026-04-25T11:11:37.57Z</time></trkpt><trkpt lat="40.7717156" lon="17.1568214"><ele>430.00000000000006</ele><time>2026-04-25T11:11:40.546Z</time></trkpt><trkpt lat="40.7716928" lon="17.1567002"><ele>430.0</ele><time>2026-04-25T11:11:43.581Z</time></trkpt><trkpt lat="40.7716798" lon="17.156566"><ele>430.0</ele><time>2026-04-25T11:11:46.699Z</time></trkpt><trkpt lat="40.7716777" lon="17.1564816"><ele>430.0</ele><time>2026-04-25T11:11:48.566Z</time></trkpt><trkpt lat="40.7716721" lon="17.1563935"><ele>430.00000000000006</ele><time>2026-04-25T11:11:50.579Z</time></trkpt><trkpt lat="40.7716697" lon="17.1563102"><ele>430.0</ele><time>2026-04-25T11:11:52.549Z</time></trkpt><trkpt lat="40.7716616" lon="17.1562248"><ele>430.00000000000006</ele><time>2026-04-25T11:11:54.567Z</time></trkpt><trkpt lat="40.7716545" lon="17.1561419"><ele>430.0</ele><time>2026-04-25T11:11:56.57Z</time></trkpt><trkpt lat="40.7716334" lon="17.1560223"><ele>430.0</ele><time>2026-04-25T11:11:59.581Z</time></trkpt><trkpt lat="40.7715922" lon="17.1559103"><ele>430.0</ele><time>2026-04-25T11:12:02.571Z</time></trkpt><trkpt lat="40.7715546" lon="17.1558409"><ele>430.00000000000006</ele><time>2026-04-25T11:12:04.566Z</time></trkpt><trkpt lat="40.7715067" lon="17.1557332"><ele>430.0</ele><time>2026-04-25T11:12:07.535Z</time></trkpt><trkpt lat="40.7714702" lon="17.1556586"><ele>429.83333333333337</ele><time>2026-04-25T11:12:09.57Z</time></trkpt><trkpt lat="40.7714134" lon="17.1555663"><ele>429.6666666666667</ele><time>2026-04-25T11:12:12.554Z</time></trkpt><trkpt lat="40.7713568" lon="17.1554794"><ele>429.5</ele><time>2026-04-25T11:12:15.564Z</time></trkpt><trkpt lat="40.7713127" lon="17.1553804"><ele>429.33333333333337</ele><time>2026-04-25T11:12:18.574Z</time></trkpt><trkpt lat="40.7712776" lon="17.1553058"><ele>429.1666666666667</ele><time>2026-04-25T11:12:20.587Z</time></trkpt><trkpt lat="40.771247" lon="17.1552308"><ele>429.0</ele><time>2026-04-25T11:12:22.579Z</time></trkpt><trkpt lat="40.7711965" lon="17.1551302"><ele>429.0</ele><time>2026-04-25T11:12:25.558Z</time></trkpt><trkpt lat="40.7711613" lon="17.155012"><ele>429.0</ele><time>2026-04-25T11:12:28.567Z</time></trkpt><trkpt lat="40.7711405" lon="17.1549194"><ele>429.0</ele><time>2026-04-25T11:12:30.57Z</time></trkpt><trkpt lat="40.7711488" lon="17.1548197"><ele>429.0</ele><time>2026-04-25T11:12:32.547Z</time></trkpt><trkpt lat="40.7711423" lon="17.1547189"><ele>429.0</ele><time>2026-04-25T11:12:34.557Z</time></trkpt><trkpt lat="40.771134" lon="17.1546123"><ele>429.0</ele><time>2026-04-25T11:12:36.546Z</time></trkpt><trkpt lat="40.7711373" lon="17.1544859"><ele>428.6</ele><time>2026-04-25T11:12:38.575Z</time></trkpt><trkpt lat="40.7711296" lon="17.1543728"><ele>428.2</ele><time>2026-04-25T11:12:40.566Z</time></trkpt><trkpt lat="40.771118" lon="17.1542616"><ele>427.80000000000007</ele><time>2026-04-25T11:12:42.561Z</time></trkpt><trkpt lat="40.7711052" lon="17.1541395"><ele>427.40000000000003</ele><time>2026-04-25T11:12:44.566Z</time></trkpt><trkpt lat="40.7710976" lon="17.1540154"><ele>427.0</ele><time>2026-04-25T11:12:46.599Z</time></trkpt><trkpt lat="40.7711037" lon="17.1538739"><ele>426.40000000000003</ele><time>2026-04-25T11:12:48.594Z</time></trkpt><trkpt lat="40.7711241" lon="17.1537333"><ele>425.80000000000007</ele><time>2026-04-25T11:12:50.591Z</time></trkpt><trkpt lat="40.7711473" lon="17.153588"><ele>425.2</ele><time>2026-04-25T11:12:52.564Z</time></trkpt><trkpt lat="40.7711796" lon="17.1534376"><ele>424.6</ele><time>2026-04-25T11:12:54.594Z</time></trkpt><trkpt lat="40.7712009" lon="17.1533581"><ele>424.0</ele><time>2026-04-25T11:12:55.586Z</time></trkpt><trkpt lat="40.7712362" lon="17.1532011"><ele>423.6</ele><time>2026-04-25T11:12:57.563Z</time></trkpt><trkpt lat="40.7712683" lon="17.153041"><ele>423.2</ele><time>2026-04-25T11:12:59.573Z</time></trkpt><trkpt lat="40.7712892" lon="17.1529586"><ele>422.8</ele><time>2026-04-25T11:13:00.567Z</time></trkpt><trkpt lat="40.7713134" lon="17.152881"><ele>422.40000000000003</ele><time>2026-04-25T11:13:01.579Z</time></trkpt><trkpt lat="40.7713524" lon="17.1527235"><ele>422.0</ele><time>2026-04-25T11:13:03.64Z</time></trkpt><trkpt lat="40.7713866" lon="17.1525731"><ele>421.99999999999994</ele><time>2026-04-25T11:13:05.596Z</time></trkpt><trkpt lat="40.7714207" lon="17.1524101"><ele>422.0</ele><time>2026-04-25T11:13:07.582Z</time></trkpt><trkpt lat="40.771441" lon="17.1523219"><ele>422.0</ele><time>2026-04-25T11:13:08.6Z</time></trkpt><trkpt lat="40.7714591" lon="17.152239"><ele>422.0</ele><time>2026-04-25T11:13:09.544Z</time></trkpt><trkpt lat="40.7714742" lon="17.1521576"><ele>421.99999999999994</ele><time>2026-04-25T11:13:10.57Z</time></trkpt><trkpt lat="40.7714948" lon="17.1520752"><ele>422.0</ele><time>2026-04-25T11:13:11.598Z</time></trkpt><trkpt lat="40.7715326" lon="17.1520017"><ele>421.49999999999994</ele><time>2026-04-25T11:13:12.59Z</time></trkpt><trkpt lat="40.7715832" lon="17.1519381"><ele>421.0</ele><time>2026-04-25T11:13:13.712Z</time></trkpt><trkpt lat="40.771686" lon="17.1518319"><ele>420.5</ele><time>2026-04-25T11:13:15.594Z</time></trkpt><trkpt lat="40.7717431" lon="17.1517866"><ele>420.0</ele><time>2026-04-25T11:13:16.583Z</time></trkpt><trkpt lat="40.7717954" lon="17.1517362"><ele>419.49999999999994</ele><time>2026-04-25T11:13:17.564Z</time></trkpt><trkpt lat="40.7718435" lon="17.1516786"><ele>419.0</ele><time>2026-04-25T11:13:18.572Z</time></trkpt><trkpt lat="40.7718887" lon="17.1516207"><ele>418.4</ele><time>2026-04-25T11:13:19.529Z</time></trkpt><trkpt lat="40.7719663" lon="17.1514896"><ele>417.79999999999995</ele><time>2026-04-25T11:13:21.556Z</time></trkpt><trkpt lat="40.7720392" lon="17.1513512"><ele>417.20000000000005</ele><time>2026-04-25T11:13:23.539Z</time></trkpt><trkpt lat="40.7721062" lon="17.1512163"><ele>416.6</ele><time>2026-04-25T11:13:25.593Z</time></trkpt><trkpt lat="40.7721417" lon="17.1511468"><ele>416.0</ele><time>2026-04-25T11:13:26.568Z</time></trkpt><trkpt lat="40.7722135" lon="17.1510178"><ele>416.0</ele><time>2026-04-25T11:13:28.58Z</time></trkpt><trkpt lat="40.7722814" lon="17.1508942"><ele>416.0</ele><time>2026-04-25T11:13:30.561Z</time></trkpt><trkpt lat="40.7723411" lon="17.1507841"><ele>416.0</ele><time>2026-04-25T11:13:32.525Z</time></trkpt><trkpt lat="40.7723952" lon="17.1506836"><ele>416.0</ele><time>2026-04-25T11:13:34.523Z</time></trkpt><trkpt lat="40.7724304" lon="17.1505923"><ele>416.0</ele><time>2026-04-25T11:13:36.528Z</time></trkpt><trkpt lat="40.7724832" lon="17.1505159"><ele>416.16666666666663</ele><time>2026-04-25T11:13:38.524Z</time></trkpt><trkpt lat="40.7725367" lon="17.1504143"><ele>416.3333333333333</ele><time>2026-04-25T11:13:40.532Z</time></trkpt><trkpt lat="40.7725726" lon="17.1503382"><ele>416.5</ele><time>2026-04-25T11:13:42.533Z</time></trkpt><trkpt lat="40.772622" lon="17.1502516"><ele>416.66666666666663</ele><time>2026-04-25T11:13:44.555Z</time></trkpt><trkpt lat="40.7726632" lon="17.1501687"><ele>416.8333333333333</ele><time>2026-04-25T11:13:46.543Z</time></trkpt><trkpt lat="40.7727038" lon="17.1500952"><ele>417.0</ele><time>2026-04-25T11:13:48.539Z</time></trkpt><trkpt lat="40.7727442" lon="17.1500128"><ele>416.8571428571429</ele><time>2026-04-25T11:13:50.527Z</time></trkpt><trkpt lat="40.7727892" lon="17.1499312"><ele>416.71428571428567</ele><time>2026-04-25T11:13:52.536Z</time></trkpt><trkpt lat="40.7728274" lon="17.1498575"><ele>416.57142857142856</ele><time>2026-04-25T11:13:54.534Z</time></trkpt><trkpt lat="40.7728673" lon="17.1497811"><ele>416.42857142857144</ele><time>2026-04-25T11:13:56.536Z</time></trkpt><trkpt lat="40.7729106" lon="17.1497084"><ele>416.28571428571433</ele><time>2026-04-25T11:13:58.544Z</time></trkpt><trkpt lat="40.7729504" lon="17.1496365"><ele>416.1428571428571</ele><time>2026-04-25T11:14:00.526Z</time></trkpt><trkpt lat="40.7729984" lon="17.1495724"><ele>416.0</ele><time>2026-04-25T11:14:02.553Z</time></trkpt><trkpt lat="40.7730456" lon="17.1495054"><ele>415.99999999999994</ele><time>2026-04-25T11:14:04.533Z</time></trkpt><trkpt lat="40.7730953" lon="17.1494258"><ele>416.0</ele><time>2026-04-25T11:14:06.541Z</time></trkpt><trkpt lat="40.773145" lon="17.1493449"><ele>416.0</ele><time>2026-04-25T11:14:08.536Z</time></trkpt><trkpt lat="40.7731991" lon="17.1492664"><ele>416.0</ele><time>2026-04-25T11:14:10.54Z</time></trkpt><trkpt lat="40.7732439" lon="17.1491873"><ele>415.99999999999994</ele><time>2026-04-25T11:14:12.541Z</time></trkpt><trkpt lat="40.7732958" lon="17.1491114"><ele>416.0</ele><time>2026-04-25T11:14:14.539Z</time></trkpt><trkpt lat="40.7733464" lon="17.1490286"><ele>415.99999999999994</ele><time>2026-04-25T11:14:16.528Z</time></trkpt><trkpt lat="40.7733977" lon="17.1489488"><ele>416.0</ele><time>2026-04-25T11:14:18.53Z</time></trkpt><trkpt lat="40.7734514" lon="17.1488722"><ele>416.0</ele><time>2026-04-25T11:14:20.53Z</time></trkpt><trkpt lat="40.7735096" lon="17.1487975"><ele>416.0</ele><time>2026-04-25T11:14:22.54Z</time></trkpt><trkpt lat="40.7735718" lon="17.1487227"><ele>415.99999999999994</ele><time>2026-04-25T11:14:24.536Z</time></trkpt><trkpt lat="40.7736378" lon="17.1486503"><ele>416.0</ele><time>2026-04-25T11:14:26.522Z</time></trkpt><trkpt lat="40.7737012" lon="17.148573"><ele>416.16666666666663</ele><time>2026-04-25T11:14:28.527Z</time></trkpt><trkpt lat="40.7737672" lon="17.1484975"><ele>416.3333333333333</ele><time>2026-04-25T11:14:30.529Z</time></trkpt><trkpt lat="40.7738279" lon="17.1484302"><ele>416.5</ele><time>2026-04-25T11:14:32.552Z</time></trkpt><trkpt lat="40.7738847" lon="17.1483735"><ele>416.66666666666663</ele><time>2026-04-25T11:14:34.572Z</time></trkpt><trkpt lat="40.7739429" lon="17.1483054"><ele>416.8333333333333</ele><time>2026-04-25T11:14:36.528Z</time></trkpt><trkpt lat="40.7739987" lon="17.148233"><ele>417.0</ele><time>2026-04-25T11:14:38.537Z</time></trkpt><trkpt lat="40.7740556" lon="17.1481716"><ele>416.7142857142857</ele><time>2026-04-25T11:14:40.537Z</time></trkpt><trkpt lat="40.7741033" lon="17.1481102"><ele>416.4285714285714</ele><time>2026-04-25T11:14:42.52Z</time></trkpt><trkpt lat="40.7741518" lon="17.1480331"><ele>416.1428571428571</ele><time>2026-04-25T11:14:44.518Z</time></trkpt><trkpt lat="40.7741999" lon="17.1479692"><ele>415.8571428571429</ele><time>2026-04-25T11:14:46.523Z</time></trkpt><trkpt lat="40.7742442" lon="17.1479005"><ele>415.57142857142856</ele><time>2026-04-25T11:14:48.523Z</time></trkpt><trkpt lat="40.7742951" lon="17.1478173"><ele>415.2857142857143</ele><time>2026-04-25T11:14:50.572Z</time></trkpt><trkpt lat="40.7743467" lon="17.1477356"><ele>415.0</ele><time>2026-04-25T11:14:52.557Z</time></trkpt><trkpt lat="40.7743978" lon="17.1476521"><ele>414.4</ele><time>2026-04-25T11:14:54.54Z</time></trkpt><trkpt lat="40.7744349" lon="17.1475706"><ele>413.8</ele><time>2026-04-25T11:14:56.534Z</time></trkpt><trkpt lat="40.7744975" lon="17.1474727"><ele>413.20000000000005</ele><time>2026-04-25T11:14:58.538Z</time></trkpt><trkpt lat="40.7745389" lon="17.1473637"><ele>412.6</ele><time>2026-04-25T11:15:00.535Z</time></trkpt><trkpt lat="40.7745892" lon="17.1472487"><ele>412.0</ele><time>2026-04-25T11:15:02.537Z</time></trkpt><trkpt lat="40.7746473" lon="17.1471209"><ele>411.83333333333337</ele><time>2026-04-25T11:15:04.532Z</time></trkpt><trkpt lat="40.7747055" lon="17.1469787"><ele>411.6666666666667</ele><time>2026-04-25T11:15:06.524Z</time></trkpt><trkpt lat="40.7747401" lon="17.1469085"><ele>411.5</ele><time>2026-04-25T11:15:07.54Z</time></trkpt><trkpt lat="40.7747719" lon="17.1468316"><ele>411.33333333333337</ele><time>2026-04-25T11:15:08.531Z</time></trkpt><trkpt lat="40.7748" lon="17.1467429"><ele>411.1666666666667</ele><time>2026-04-25T11:15:09.535Z</time></trkpt><trkpt lat="40.7748248" lon="17.1466573"><ele>411.0</ele><time>2026-04-25T11:15:10.538Z</time></trkpt><trkpt lat="40.7748472" lon="17.146577"><ele>411.6666666666667</ele><time>2026-04-25T11:15:11.543Z</time></trkpt><trkpt lat="40.7748808" lon="17.1464347"><ele>412.33333333333337</ele><time>2026-04-25T11:15:13.523Z</time></trkpt><trkpt lat="40.774913" lon="17.1463178"><ele>413.0</ele><time>2026-04-25T11:15:15.54Z</time></trkpt><trkpt lat="40.7749374" lon="17.1462184"><ele>413.6666666666667</ele><time>2026-04-25T11:15:17.539Z</time></trkpt><trkpt lat="40.774953" lon="17.1461167"><ele>414.33333333333337</ele><time>2026-04-25T11:15:20.539Z</time></trkpt><trkpt lat="40.7749748" lon="17.1460223"><ele>415.0</ele><time>2026-04-25T11:15:29.541Z</time></trkpt><trkpt lat="40.7749827" lon="17.1459332"><ele>415.0</ele><time>2026-04-25T11:15:34.564Z</time></trkpt><trkpt lat="40.7749637" lon="17.1458473"><ele>415.0</ele><time>2026-04-25T11:15:40.566Z</time></trkpt><trkpt lat="40.7749607" lon="17.145755"><ele>415.0</ele><time>2026-04-25T11:15:47.132Z</time></trkpt><trkpt lat="40.7749771" lon="17.1456636"><ele>415.0</ele><time>2026-04-25T11:15:53.431Z</time></trkpt><trkpt lat="40.7749928" lon="17.1455744"><ele>415.0</ele><time>2026-04-25T11:15:59.585Z</time></trkpt><trkpt lat="40.7750071" lon="17.1454848"><ele>415.0</ele><time>2026-04-25T11:16:05.535Z</time></trkpt><trkpt lat="40.7750217" lon="17.1453966"><ele>415.0</ele><time>2026-04-25T11:16:10.596Z</time></trkpt><trkpt lat="40.775053" lon="17.1453055"><ele>415.2857142857143</ele><time>2026-04-25T11:16:15.515Z</time></trkpt><trkpt lat="40.7750772" lon="17.1452209"><ele>415.57142857142856</ele><time>2026-04-25T11:16:19.544Z</time></trkpt><trkpt lat="40.775095" lon="17.1451387"><ele>415.8571428571429</ele><time>2026-04-25T11:16:23.559Z</time></trkpt><trkpt lat="40.7751164" lon="17.1450574"><ele>416.1428571428571</ele><time>2026-04-25T11:16:28.546Z</time></trkpt><trkpt lat="40.7751467" lon="17.1449813"><ele>416.4285714285714</ele><time>2026-04-25T11:16:33.539Z</time></trkpt><trkpt lat="40.7751795" lon="17.1448925"><ele>416.7142857142857</ele><time>2026-04-25T11:16:39.536Z</time></trkpt><trkpt lat="40.7752149" lon="17.1448217"><ele>417.0</ele><time>2026-04-25T11:16:45.552Z</time></trkpt><trkpt lat="40.7752687" lon="17.144763"><ele>417.14285714285717</ele><time>2026-04-25T11:16:52.554Z</time></trkpt><trkpt lat="40.7753236" lon="17.1447107"><ele>417.2857142857143</ele><time>2026-04-25T11:17:00.384Z</time></trkpt><trkpt lat="40.775387" lon="17.144692"><ele>417.42857142857144</ele><time>2026-04-25T11:17:10.569Z</time></trkpt><trkpt lat="40.7754516" lon="17.1446824"><ele>417.57142857142856</ele><time>2026-04-25T11:19:27.652Z</time></trkpt><trkpt lat="40.775522" lon="17.1446326"><ele>417.71428571428567</ele><time>2026-04-25T11:19:30.567Z</time></trkpt><trkpt lat="40.7755937" lon="17.1446079"><ele>417.85714285714283</ele><time>2026-04-25T11:19:33.539Z</time></trkpt><trkpt lat="40.7756692" lon="17.1445776"><ele>418.0</ele><time>2026-04-25T11:19:36.556Z</time></trkpt><trkpt lat="40.7757538" lon="17.1445277"><ele>418.00000000000006</ele><time>2026-04-25T11:19:39.544Z</time></trkpt><trkpt lat="40.7758333" lon="17.1444889"><ele>418.0</ele><time>2026-04-25T11:19:42.623Z</time></trkpt><trkpt lat="40.7759111" lon="17.1444486"><ele>418.0</ele><time>2026-04-25T11:19:45.579Z</time></trkpt><trkpt lat="40.7759774" lon="17.1444072"><ele>418.0</ele><time>2026-04-25T11:19:48.612Z</time></trkpt><trkpt lat="40.7760494" lon="17.144374"><ele>418.00000000000006</ele><time>2026-04-25T11:19:51.567Z</time></trkpt><trkpt lat="40.7761291" lon="17.1443283"><ele>418.0</ele><time>2026-04-25T11:19:54.573Z</time></trkpt><trkpt lat="40.7762056" lon="17.1442898"><ele>418.00000000000006</ele><time>2026-04-25T11:19:57.572Z</time></trkpt><trkpt lat="40.7762743" lon="17.1442455"><ele>418.0</ele><time>2026-04-25T11:20:00.545Z</time></trkpt><trkpt lat="40.7763421" lon="17.1442043"><ele>418.0</ele><time>2026-04-25T11:20:04.592Z</time></trkpt><trkpt lat="40.7764022" lon="17.1441716"><ele>418.0</ele><time>2026-04-25T11:20:07.597Z</time></trkpt><trkpt lat="40.7764801" lon="17.1441263"><ele>418.00000000000006</ele><time>2026-04-25T11:20:10.566Z</time></trkpt><trkpt lat="40.7765413" lon="17.1440773"><ele>418.0</ele><time>2026-04-25T11:20:12.538Z</time></trkpt><trkpt lat="40.7766225" lon="17.1440117"><ele>417.6666666666667</ele><time>2026-04-25T11:20:14.566Z</time></trkpt><trkpt lat="40.7766963" lon="17.14394"><ele>417.33333333333337</ele><time>2026-04-25T11:20:16.587Z</time></trkpt><trkpt lat="40.7767714" lon="17.143857"><ele>417.0</ele><time>2026-04-25T11:20:18.578Z</time></trkpt><trkpt lat="40.7768659" lon="17.1437651"><ele>416.66666666666663</ele><time>2026-04-25T11:20:20.573Z</time></trkpt><trkpt lat="40.776916" lon="17.1437109"><ele>416.3333333333333</ele><time>2026-04-25T11:20:21.588Z</time></trkpt><trkpt lat="40.776969" lon="17.143649"><ele>416.0</ele><time>2026-04-25T11:20:22.534Z</time></trkpt><trkpt lat="40.777023" lon="17.1435821"><ele>415.3333333333333</ele><time>2026-04-25T11:20:23.55Z</time></trkpt><trkpt lat="40.777081" lon="17.14351"><ele>414.66666666666663</ele><time>2026-04-25T11:20:24.521Z</time></trkpt><trkpt lat="40.7771409" lon="17.1434403"><ele>414.0</ele><time>2026-04-25T11:20:25.517Z</time></trkpt><trkpt lat="40.7772036" lon="17.1433689"><ele>413.33333333333337</ele><time>2026-04-25T11:20:26.518Z</time></trkpt><trkpt lat="40.777267" lon="17.1432941"><ele>412.6666666666667</ele><time>2026-04-25T11:20:27.516Z</time></trkpt><trkpt lat="40.7773334" lon="17.1432146"><ele>412.0</ele><time>2026-04-25T11:20:28.556Z</time></trkpt><trkpt lat="40.7774031" lon="17.1431445"><ele>411.40000000000003</ele><time>2026-04-25T11:20:29.569Z</time></trkpt><trkpt lat="40.7774701" lon="17.1430712"><ele>410.8</ele><time>2026-04-25T11:20:30.526Z</time></trkpt><trkpt lat="40.7775348" lon="17.1429828"><ele>410.2</ele><time>2026-04-25T11:20:31.579Z</time></trkpt><trkpt lat="40.7776016" lon="17.1428912"><ele>409.6</ele><time>2026-04-25T11:20:32.579Z</time></trkpt><trkpt lat="40.7776664" lon="17.1427992"><ele>409.0</ele><time>2026-04-25T11:20:33.569Z</time></trkpt><trkpt lat="40.7777297" lon="17.1426999"><ele>406.25</ele><time>2026-04-25T11:20:34.589Z</time></trkpt><trkpt lat="40.7777825" lon="17.1425915"><ele>403.5</ele><time>2026-04-25T11:20:35.583Z</time></trkpt><trkpt lat="40.77783" lon="17.1424803"><ele>400.75</ele><time>2026-04-25T11:20:36.563Z</time></trkpt><trkpt lat="40.7778673" lon="17.1423564"><ele>398.0</ele><time>2026-04-25T11:20:37.695Z</time></trkpt><trkpt lat="40.7779258" lon="17.1420965"><ele>397.4</ele><time>2026-04-25T11:20:39.602Z</time></trkpt><trkpt lat="40.7779356" lon="17.1419548"><ele>396.79999999999995</ele><time>2026-04-25T11:20:40.562Z</time></trkpt><trkpt lat="40.7779376" lon="17.1418101"><ele>396.2</ele><time>2026-04-25T11:20:41.57Z</time></trkpt><trkpt lat="40.7779306" lon="17.1416597"><ele>395.6</ele><time>2026-04-25T11:20:42.565Z</time></trkpt><trkpt lat="40.7779179" lon="17.141513"><ele>395.0</ele><time>2026-04-25T11:20:43.556Z</time></trkpt><trkpt lat="40.777905" lon="17.1413586"><ele>394.3333333333333</ele><time>2026-04-25T11:20:44.636Z</time></trkpt><trkpt lat="40.7778946" lon="17.1410416"><ele>393.66666666666663</ele><time>2026-04-25T11:20:46.582Z</time></trkpt><trkpt lat="40.7778904" lon="17.1408758"><ele>393.0</ele><time>2026-04-25T11:20:47.563Z</time></trkpt><trkpt lat="40.7778949" lon="17.140714"><ele>392.75</ele><time>2026-04-25T11:20:48.576Z</time></trkpt><trkpt lat="40.7779171" lon="17.1405548"><ele>392.5</ele><time>2026-04-25T11:20:49.583Z</time></trkpt><trkpt lat="40.7779582" lon="17.1404114"><ele>392.25</ele><time>2026-04-25T11:20:50.559Z</time></trkpt><trkpt lat="40.7780126" lon="17.1402804"><ele>392.0</ele><time>2026-04-25T11:20:51.585Z</time></trkpt><trkpt lat="40.7780678" lon="17.1401576"><ele>392.0</ele><time>2026-04-25T11:20:52.589Z</time></trkpt><trkpt lat="40.7781314" lon="17.1400557"><ele>392.0</ele><time>2026-04-25T11:20:53.608Z</time></trkpt><trkpt lat="40.7781964" lon="17.1399642"><ele>392.0</ele><time>2026-04-25T11:20:54.568Z</time></trkpt><trkpt lat="40.7782718" lon="17.1398773"><ele>392.0</ele><time>2026-04-25T11:20:55.567Z</time></trkpt><trkpt lat="40.7783336" lon="17.139776"><ele>392.0</ele><time>2026-04-25T11:20:56.72Z</time></trkpt><trkpt lat="40.7784064" lon="17.1395422"><ele>392.40000000000003</ele><time>2026-04-25T11:20:58.586Z</time></trkpt><trkpt lat="40.7784345" lon="17.1394205"><ele>392.8</ele><time>2026-04-25T11:20:59.561Z</time></trkpt><trkpt lat="40.7784628" lon="17.1392975"><ele>393.2</ele><time>2026-04-25T11:21:00.559Z</time></trkpt><trkpt lat="40.7784976" lon="17.13918"><ele>393.6</ele><time>2026-04-25T11:21:01.602Z</time></trkpt><trkpt lat="40.7785301" lon="17.1390635"><ele>394.0</ele><time>2026-04-25T11:21:02.562Z</time></trkpt><trkpt lat="40.7785668" lon="17.1389569"><ele>393.00000000000006</ele><time>2026-04-25T11:21:03.622Z</time></trkpt><trkpt lat="40.7786051" lon="17.1388523"><ele>392.0</ele><time>2026-04-25T11:21:04.575Z</time></trkpt><trkpt lat="40.7786459" lon="17.138757"><ele>391.0</ele><time>2026-04-25T11:21:05.578Z</time></trkpt><trkpt lat="40.7786902" lon="17.1386709"><ele>390.0</ele><time>2026-04-25T11:21:06.589Z</time></trkpt><trkpt lat="40.7787452" lon="17.1385931"><ele>389.00000000000006</ele><time>2026-04-25T11:21:07.569Z</time></trkpt><trkpt lat="40.7787979" lon="17.1385209"><ele>388.0</ele><time>2026-04-25T11:21:08.574Z</time></trkpt><trkpt lat="40.7788499" lon="17.1384525"><ele>388.0</ele><time>2026-04-25T11:21:09.567Z</time></trkpt><trkpt lat="40.7789002" lon="17.1383852"><ele>388.0</ele><time>2026-04-25T11:21:10.574Z</time></trkpt><trkpt lat="40.778948" lon="17.1383188"><ele>388.0</ele><time>2026-04-25T11:21:11.579Z</time></trkpt><trkpt lat="40.7790003" lon="17.1382557"><ele>388.0</ele><time>2026-04-25T11:21:12.584Z</time></trkpt><trkpt lat="40.7790547" lon="17.1381976"><ele>388.0</ele><time>2026-04-25T11:21:13.568Z</time></trkpt><trkpt lat="40.7791058" lon="17.1381384"><ele>388.0</ele><time>2026-04-25T11:21:14.557Z</time></trkpt><trkpt lat="40.7791559" lon="17.1380804"><ele>388.0</ele><time>2026-04-25T11:21:15.576Z</time></trkpt><trkpt lat="40.7792022" lon="17.1380202"><ele>388.5</ele><time>2026-04-25T11:21:16.559Z</time></trkpt><trkpt lat="40.7792849" lon="17.1378965"><ele>389.0</ele><time>2026-04-25T11:21:18.585Z</time></trkpt><trkpt lat="40.7793565" lon="17.1377789"><ele>389.5</ele><time>2026-04-25T11:21:20.567Z</time></trkpt><trkpt lat="40.7794272" lon="17.1376696"><ele>390.0</ele><time>2026-04-25T11:21:22.707Z</time></trkpt><trkpt lat="40.7794994" lon="17.1375696"><ele>390.0</ele><time>2026-04-25T11:21:24.577Z</time></trkpt><trkpt lat="40.7795657" lon="17.1374812"><ele>390.0</ele><time>2026-04-25T11:21:26.559Z</time></trkpt><trkpt lat="40.7796241" lon="17.1373929"><ele>390.0</ele><time>2026-04-25T11:21:28.554Z</time></trkpt><trkpt lat="40.779716" lon="17.1372644"><ele>390.0</ele><time>2026-04-25T11:21:31.58Z</time></trkpt><trkpt lat="40.7797625" lon="17.1371708"><ele>390.0</ele><time>2026-04-25T11:21:33.578Z</time></trkpt><trkpt lat="40.7797987" lon="17.1370822"><ele>389.1428571428571</ele><time>2026-04-25T11:21:35.588Z</time></trkpt><trkpt lat="40.779841" lon="17.1370028"><ele>388.2857142857143</ele><time>2026-04-25T11:21:37.578Z</time></trkpt><trkpt lat="40.7798858" lon="17.1369191"><ele>387.42857142857144</ele><time>2026-04-25T11:21:39.576Z</time></trkpt><trkpt lat="40.7799262" lon="17.1368247"><ele>386.57142857142856</ele><time>2026-04-25T11:21:41.57Z</time></trkpt><trkpt lat="40.7799627" lon="17.1367387"><ele>385.7142857142857</ele><time>2026-04-25T11:21:43.58Z</time></trkpt><trkpt lat="40.779984" lon="17.1366548"><ele>384.85714285714283</ele><time>2026-04-25T11:21:45.585Z</time></trkpt><trkpt lat="40.7799995" lon="17.1365711"><ele>384.0</ele><time>2026-04-25T11:21:47.57Z</time></trkpt><trkpt lat="40.7800232" lon="17.1364665"><ele>383.6666666666667</ele><time>2026-04-25T11:21:49.564Z</time></trkpt><trkpt lat="40.7800471" lon="17.1363632"><ele>383.3333333333333</ele><time>2026-04-25T11:21:51.56Z</time></trkpt><trkpt lat="40.7800643" lon="17.1362687"><ele>383.0</ele><time>2026-04-25T11:21:53.533Z</time></trkpt><trkpt lat="40.7800751" lon="17.1361718"><ele>382.66666666666663</ele><time>2026-04-25T11:21:55.555Z</time></trkpt><trkpt lat="40.7801067" lon="17.13601"><ele>382.3333333333333</ele><time>2026-04-25T11:21:58.565Z</time></trkpt><trkpt lat="40.7801255" lon="17.1359087"><ele>382.0</ele><time>2026-04-25T11:22:00.588Z</time></trkpt><trkpt lat="40.7801426" lon="17.1358079"><ele>382.14285714285717</ele><time>2026-04-25T11:22:02.554Z</time></trkpt><trkpt lat="40.7801658" lon="17.1357153"><ele>382.2857142857143</ele><time>2026-04-25T11:22:04.561Z</time></trkpt><trkpt lat="40.7801834" lon="17.1356271"><ele>382.42857142857144</ele><time>2026-04-25T11:22:06.562Z</time></trkpt><trkpt lat="40.7802018" lon="17.1355438"><ele>382.57142857142856</ele><time>2026-04-25T11:22:08.557Z</time></trkpt><trkpt lat="40.7802281" lon="17.1354283"><ele>382.71428571428567</ele><time>2026-04-25T11:22:11.544Z</time></trkpt><trkpt lat="40.7802431" lon="17.1353473"><ele>382.85714285714283</ele><time>2026-04-25T11:22:13.563Z</time></trkpt><trkpt lat="40.7802586" lon="17.1352588"><ele>383.0</ele><time>2026-04-25T11:22:15.585Z</time></trkpt><trkpt lat="40.7802805" lon="17.1351679"><ele>383.0</ele><time>2026-04-25T11:22:17.559Z</time></trkpt><trkpt lat="40.7802953" lon="17.1350776"><ele>383.0</ele><time>2026-04-25T11:22:19.552Z</time></trkpt><trkpt lat="40.780314" lon="17.1349881"><ele>383.0</ele><time>2026-04-25T11:22:21.566Z</time></trkpt><trkpt lat="40.7803427" lon="17.1349033"><ele>383.0</ele><time>2026-04-25T11:22:23.535Z</time></trkpt><trkpt lat="40.7803712" lon="17.1348135"><ele>383.0</ele><time>2026-04-25T11:22:25.578Z</time></trkpt><trkpt lat="40.7804069" lon="17.1347261"><ele>383.0</ele><time>2026-04-25T11:22:27.567Z</time></trkpt><trkpt lat="40.7804421" lon="17.1346408"><ele>383.0</ele><time>2026-04-25T11:22:29.573Z</time></trkpt><trkpt lat="40.780489" lon="17.134564"><ele>382.7142857142857</ele><time>2026-04-25T11:22:31.557Z</time></trkpt><trkpt lat="40.7805419" lon="17.1344891"><ele>382.42857142857144</ele><time>2026-04-25T11:22:33.548Z</time></trkpt><trkpt lat="40.7805887" lon="17.1344127"><ele>382.1428571428571</ele><time>2026-04-25T11:22:35.566Z</time></trkpt><trkpt lat="40.7806452" lon="17.1343383"><ele>381.8571428571429</ele><time>2026-04-25T11:22:37.55Z</time></trkpt><trkpt lat="40.7806926" lon="17.1342638"><ele>381.5714285714286</ele><time>2026-04-25T11:22:39.561Z</time></trkpt><trkpt lat="40.7807368" lon="17.1341881"><ele>381.2857142857143</ele><time>2026-04-25T11:22:41.564Z</time></trkpt><trkpt lat="40.780785" lon="17.1341192"><ele>381.0</ele><time>2026-04-25T11:22:43.592Z</time></trkpt><trkpt lat="40.780828" lon="17.1340394"><ele>381.0</ele><time>2026-04-25T11:22:45.57Z</time></trkpt><trkpt lat="40.7808729" lon="17.1339671"><ele>381.0</ele><time>2026-04-25T11:22:47.588Z</time></trkpt><trkpt lat="40.7809213" lon="17.1339008"><ele>381.0</ele><time>2026-04-25T11:22:49.56Z</time></trkpt><trkpt lat="40.7809656" lon="17.1338339"><ele>381.0</ele><time>2026-04-25T11:22:51.554Z</time></trkpt><trkpt lat="40.7810089" lon="17.1337644"><ele>381.0</ele><time>2026-04-25T11:22:53.583Z</time></trkpt><trkpt lat="40.7810552" lon="17.1337029"><ele>381.0</ele><time>2026-04-25T11:22:55.556Z</time></trkpt><trkpt lat="40.7810989" lon="17.1336347"><ele>381.0</ele><time>2026-04-25T11:22:57.583Z</time></trkpt><trkpt lat="40.7811433" lon="17.1335649"><ele>380.7142857142857</ele><time>2026-04-25T11:22:59.555Z</time></trkpt><trkpt lat="40.7811883" lon="17.133495"><ele>380.42857142857144</ele><time>2026-04-25T11:23:01.561Z</time></trkpt><trkpt lat="40.7812292" lon="17.1334228"><ele>380.14285714285717</ele><time>2026-04-25T11:23:03.555Z</time></trkpt><trkpt lat="40.7812736" lon="17.1333542"><ele>379.8571428571429</ele><time>2026-04-25T11:23:05.58Z</time></trkpt><trkpt lat="40.7813196" lon="17.133282"><ele>379.57142857142856</ele><time>2026-04-25T11:23:07.586Z</time></trkpt><trkpt lat="40.7813688" lon="17.1332098"><ele>379.28571428571433</ele><time>2026-04-25T11:23:09.547Z</time></trkpt><trkpt lat="40.781418" lon="17.1331324"><ele>379.0</ele><time>2026-04-25T11:23:11.583Z</time></trkpt><trkpt lat="40.7814642" lon="17.1330607"><ele>378.8333333333333</ele><time>2026-04-25T11:23:13.571Z</time></trkpt><trkpt lat="40.7815106" lon="17.1329934"><ele>378.66666666666663</ele><time>2026-04-25T11:23:15.551Z</time></trkpt><trkpt lat="40.7815731" lon="17.1329042"><ele>378.5</ele><time>2026-04-25T11:23:18.563Z</time></trkpt><trkpt lat="40.7816223" lon="17.1328454"><ele>378.3333333333333</ele><time>2026-04-25T11:23:20.558Z</time></trkpt><trkpt lat="40.7816903" lon="17.1327582"><ele>378.1666666666667</ele><time>2026-04-25T11:23:23.56Z</time></trkpt><trkpt lat="40.7817351" lon="17.1326942"><ele>378.0</ele><time>2026-04-25T11:23:25.584Z</time></trkpt><trkpt lat="40.7817848" lon="17.1326362"><ele>378.0</ele><time>2026-04-25T11:23:27.568Z</time></trkpt><trkpt lat="40.7818387" lon="17.1325732"><ele>378.0</ele><time>2026-04-25T11:23:29.533Z</time></trkpt><trkpt lat="40.781898" lon="17.1325201"><ele>378.0</ele><time>2026-04-25T11:23:31.564Z</time></trkpt><trkpt lat="40.7819594" lon="17.1324605"><ele>378.0</ele><time>2026-04-25T11:23:33.564Z</time></trkpt><trkpt lat="40.7820197" lon="17.1323918"><ele>378.0</ele><time>2026-04-25T11:23:35.546Z</time></trkpt><trkpt lat="40.782083" lon="17.1323305"><ele>378.0</ele><time>2026-04-25T11:23:37.58Z</time></trkpt><trkpt lat="40.7821451" lon="17.1322724"><ele>378.0</ele><time>2026-04-25T11:23:39.571Z</time></trkpt><trkpt lat="40.7822017" lon="17.1322124"><ele>378.0</ele><time>2026-04-25T11:23:41.557Z</time></trkpt><trkpt lat="40.7822612" lon="17.1321559"><ele>378.0</ele><time>2026-04-25T11:23:43.551Z</time></trkpt><trkpt lat="40.7823132" lon="17.1320836"><ele>378.0</ele><time>2026-04-25T11:23:45.576Z</time></trkpt><trkpt lat="40.7823668" lon="17.1320164"><ele>378.0</ele><time>2026-04-25T11:23:47.571Z</time></trkpt><trkpt lat="40.7824294" lon="17.1319618"><ele>378.0</ele><time>2026-04-25T11:23:49.569Z</time></trkpt><trkpt lat="40.7824873" lon="17.1319025"><ele>378.0</ele><time>2026-04-25T11:23:51.574Z</time></trkpt><trkpt lat="40.7825401" lon="17.1318439"><ele>378.0</ele><time>2026-04-25T11:23:53.536Z</time></trkpt><trkpt lat="40.7825964" lon="17.131781"><ele>378.0</ele><time>2026-04-25T11:23:55.551Z</time></trkpt><trkpt lat="40.7826539" lon="17.1317125"><ele>378.0</ele><time>2026-04-25T11:23:57.556Z</time></trkpt><trkpt lat="40.7827133" lon="17.1316557"><ele>378.0</ele><time>2026-04-25T11:24:00.556Z</time></trkpt><trkpt lat="40.7827584" lon="17.1315874"><ele>378.0</ele><time>2026-04-25T11:24:07.588Z</time></trkpt><trkpt lat="40.782823" lon="17.1315414"><ele>378.0</ele><time>2026-04-25T11:24:12.554Z</time></trkpt><trkpt lat="40.7828769" lon="17.1314768"><ele>378.0</ele><time>2026-04-25T11:24:18.553Z</time></trkpt><trkpt lat="40.7829272" lon="17.1314219"><ele>378.14285714285717</ele><time>2026-04-25T11:24:23.579Z</time></trkpt><trkpt lat="40.7829806" lon="17.1313684"><ele>378.2857142857143</ele><time>2026-04-25T11:24:28.58Z</time></trkpt><trkpt lat="40.7830291" lon="17.1313148"><ele>378.42857142857144</ele><time>2026-04-25T11:24:33.553Z</time></trkpt><trkpt lat="40.7830809" lon="17.1312588"><ele>378.57142857142856</ele><time>2026-04-25T11:24:39.56Z</time></trkpt><trkpt lat="40.7831351" lon="17.13121"><ele>378.7142857142857</ele><time>2026-04-25T11:24:44.569Z</time></trkpt><trkpt lat="40.7831827" lon="17.1311542"><ele>378.8571428571429</ele><time>2026-04-25T11:24:49.589Z</time></trkpt><trkpt lat="40.783244" lon="17.1311088"><ele>379.0</ele><time>2026-04-25T11:24:54.563Z</time></trkpt><trkpt lat="40.7832963" lon="17.131061"><ele>379.00000000000006</ele><time>2026-04-25T11:24:59.57Z</time></trkpt><trkpt lat="40.7833517" lon="17.1309983"><ele>379.0</ele><time>2026-04-25T11:25:05.558Z</time></trkpt><trkpt lat="40.7834121" lon="17.1309425"><ele>379.0</ele><time>2026-04-25T11:25:11.559Z</time></trkpt><trkpt lat="40.7834562" lon="17.1308813"><ele>379.0</ele><time>2026-04-25T11:25:16.584Z</time></trkpt><trkpt lat="40.7835107" lon="17.1308155"><ele>379.0</ele><time>2026-04-25T11:25:22.543Z</time></trkpt><trkpt lat="40.7835636" lon="17.1307582"><ele>379.00000000000006</ele><time>2026-04-25T11:25:27.595Z</time></trkpt><trkpt lat="40.7836167" lon="17.1307067"><ele>379.0</ele><time>2026-04-25T11:25:33.587Z</time></trkpt><trkpt lat="40.7836757" lon="17.130662"><ele>379.5714285714286</ele><time>2026-04-25T11:25:39.557Z</time></trkpt><trkpt lat="40.7837352" lon="17.1306235"><ele>380.14285714285717</ele><time>2026-04-25T11:25:44.584Z</time></trkpt><trkpt lat="40.7837913" lon="17.1305848"><ele>380.7142857142857</ele><time>2026-04-25T11:25:50.546Z</time></trkpt><trkpt lat="40.7838541" lon="17.1305426"><ele>381.28571428571433</ele><time>2026-04-25T11:25:57.605Z</time></trkpt><trkpt lat="40.783916" lon="17.1305117"><ele>381.85714285714283</ele><time>2026-04-25T11:26:02.563Z</time></trkpt><trkpt lat="40.7839767" lon="17.1304826"><ele>382.42857142857144</ele><time>2026-04-25T11:26:07.527Z</time></trkpt><trkpt lat="40.7840494" lon="17.1304555"><ele>383.0</ele><time>2026-04-25T11:26:13.55Z</time></trkpt><trkpt lat="40.7841217" lon="17.1304357"><ele>383.0</ele><time>2026-04-25T11:26:19.572Z</time></trkpt><trkpt lat="40.7841951" lon="17.1304147"><ele>383.0</ele><time>2026-04-25T11:26:25.559Z</time></trkpt><trkpt lat="40.78426" lon="17.1303972"><ele>383.0</ele><time>2026-04-25T11:26:30.56Z</time></trkpt><trkpt lat="40.7843329" lon="17.130373"><ele>383.0</ele><time>2026-04-25T11:26:36.581Z</time></trkpt><trkpt lat="40.7844054" lon="17.1303565"><ele>383.0</ele><time>2026-04-25T11:26:42.557Z</time></trkpt><trkpt lat="40.7844781" lon="17.1303397"><ele>383.0</ele><time>2026-04-25T11:26:48.554Z</time></trkpt><trkpt lat="40.7845416" lon="17.1303183"><ele>383.0</ele><time>2026-04-25T11:26:54.553Z</time></trkpt><trkpt lat="40.7846014" lon="17.1302884"><ele>383.85714285714283</ele><time>2026-04-25T11:27:00.518Z</time></trkpt><trkpt lat="40.7846775" lon="17.1302712"><ele>384.71428571428567</ele><time>2026-04-25T11:27:06.527Z</time></trkpt><trkpt lat="40.7847499" lon="17.1302563"><ele>385.57142857142856</ele><time>2026-04-25T11:27:12.526Z</time></trkpt><trkpt lat="40.7848149" lon="17.1302406"><ele>386.42857142857144</ele><time>2026-04-25T11:27:18.521Z</time></trkpt><trkpt lat="40.7848843" lon="17.1302147"><ele>387.2857142857143</ele><time>2026-04-25T11:27:24.523Z</time></trkpt><trkpt lat="40.7849473" lon="17.1301921"><ele>388.14285714285717</ele><time>2026-04-25T11:27:30.626Z</time></trkpt><trkpt lat="40.7850091" lon="17.1301671"><ele>389.0</ele><time>2026-04-25T11:27:36.554Z</time></trkpt><trkpt lat="40.785072" lon="17.1301248"><ele>389.0</ele><time>2026-04-25T11:27:43.558Z</time></trkpt><trkpt lat="40.7851337" lon="17.13009"><ele>389.0</ele><time>2026-04-25T11:27:50.513Z</time></trkpt><trkpt lat="40.7851998" lon="17.1300537"><ele>389.0</ele><time>2026-04-25T11:27:58.587Z</time></trkpt><trkpt lat="40.7852704" lon="17.1300229"><ele>389.0</ele><time>2026-04-25T11:28:05.546Z</time></trkpt><trkpt lat="40.7853358" lon="17.1300016"><ele>389.0</ele><time>2026-04-25T11:28:11.556Z</time></trkpt><trkpt lat="40.7854071" lon="17.1299799"><ele>389.0</ele><time>2026-04-25T11:28:18.552Z</time></trkpt><trkpt lat="40.7854772" lon="17.1299576"><ele>389.0</ele><time>2026-04-25T11:28:24.54Z</time></trkpt><trkpt lat="40.7855379" lon="17.1299238"><ele>390.14285714285717</ele><time>2026-04-25T11:28:29.572Z</time></trkpt><trkpt lat="40.7855995" lon="17.129902"><ele>391.2857142857143</ele><time>2026-04-25T11:28:35.542Z</time></trkpt><trkpt lat="40.7856635" lon="17.1298692"><ele>392.42857142857144</ele><time>2026-04-25T11:28:41.55Z</time></trkpt><trkpt lat="40.7857252" lon="17.1298445"><ele>393.57142857142856</ele><time>2026-04-25T11:28:47.578Z</time></trkpt><trkpt lat="40.7857934" lon="17.129811"><ele>394.71428571428567</ele><time>2026-04-25T11:28:54.57Z</time></trkpt><trkpt lat="40.7858519" lon="17.129768"><ele>395.85714285714283</ele><time>2026-04-25T11:29:00.557Z</time></trkpt><trkpt lat="40.785918" lon="17.1297432"><ele>397.0</ele><time>2026-04-25T11:29:09.55Z</time></trkpt><trkpt lat="40.785988" lon="17.1297185"><ele>397.1666666666667</ele><time>2026-04-25T11:29:15.575Z</time></trkpt><trkpt lat="40.7860584" lon="17.1296976"><ele>397.33333333333337</ele><time>2026-04-25T11:29:21.585Z</time></trkpt><trkpt lat="40.7861208" lon="17.129633"><ele>397.5</ele><time>2026-04-25T11:29:29.553Z</time></trkpt><trkpt lat="40.7860801" lon="17.1295105"><ele>397.66666666666663</ele><time>2026-04-25T11:29:32.566Z</time></trkpt><trkpt lat="40.7860212" lon="17.1294135"><ele>397.8333333333333</ele><time>2026-04-25T11:29:34.557Z</time></trkpt><trkpt lat="40.7859733" lon="17.1293116"><ele>398.0</ele><time>2026-04-25T11:29:36.548Z</time></trkpt><trkpt lat="40.7859444" lon="17.1291766"><ele>397.99999999999994</ele><time>2026-04-25T11:29:38.566Z</time></trkpt><trkpt lat="40.7859202" lon="17.1290763"><ele>398.0</ele><time>2026-04-25T11:29:40.57Z</time></trkpt><trkpt lat="40.7858867" lon="17.1289826"><ele>398.0</ele><time>2026-04-25T11:29:42.571Z</time></trkpt><trkpt lat="40.7858571" lon="17.1288885"><ele>398.0</ele><time>2026-04-25T11:29:44.557Z</time></trkpt><trkpt lat="40.7858338" lon="17.1287708"><ele>397.99999999999994</ele><time>2026-04-25T11:29:46.562Z</time></trkpt><trkpt lat="40.7858117" lon="17.1286628"><ele>398.0</ele><time>2026-04-25T11:29:48.554Z</time></trkpt><trkpt lat="40.7857986" lon="17.1285612"><ele>397.99999999999994</ele><time>2026-04-25T11:29:50.558Z</time></trkpt><trkpt lat="40.7857843" lon="17.1284626"><ele>398.0</ele><time>2026-04-25T11:29:52.562Z</time></trkpt><trkpt lat="40.7857735" lon="17.1283618"><ele>398.0</ele><time>2026-04-25T11:29:54.547Z</time></trkpt><trkpt lat="40.7857613" lon="17.1282619"><ele>398.0</ele><time>2026-04-25T11:29:56.564Z</time></trkpt><trkpt lat="40.7857542" lon="17.1281581"><ele>397.99999999999994</ele><time>2026-04-25T11:29:58.565Z</time></trkpt><trkpt lat="40.7857491" lon="17.128053"><ele>398.0</ele><time>2026-04-25T11:30:00.579Z</time></trkpt><trkpt lat="40.7857482" lon="17.1279487"><ele>396.99999999999994</ele><time>2026-04-25T11:30:02.547Z</time></trkpt><trkpt lat="40.7857474" lon="17.1278481"><ele>396.0</ele><time>2026-04-25T11:30:04.561Z</time></trkpt><trkpt lat="40.785754" lon="17.1277449"><ele>395.0</ele><time>2026-04-25T11:30:06.536Z</time></trkpt><trkpt lat="40.7857604" lon="17.1276456"><ele>394.0</ele><time>2026-04-25T11:30:08.562Z</time></trkpt><trkpt lat="40.7857681" lon="17.1275406"><ele>392.99999999999994</ele><time>2026-04-25T11:30:10.569Z</time></trkpt><trkpt lat="40.7857748" lon="17.1274366"><ele>392.0</ele><time>2026-04-25T11:30:12.571Z</time></trkpt><trkpt lat="40.7857864" lon="17.1273326"><ele>391.8333333333333</ele><time>2026-04-25T11:30:14.546Z</time></trkpt><trkpt lat="40.7858033" lon="17.1272223"><ele>391.66666666666663</ele><time>2026-04-25T11:30:16.564Z</time></trkpt><trkpt lat="40.7858188" lon="17.1271152"><ele>391.5</ele><time>2026-04-25T11:30:18.559Z</time></trkpt><trkpt lat="40.7858455" lon="17.12701"><ele>391.33333333333337</ele><time>2026-04-25T11:30:20.554Z</time></trkpt><trkpt lat="40.7858741" lon="17.126905"><ele>391.1666666666667</ele><time>2026-04-25T11:30:22.571Z</time></trkpt><trkpt lat="40.7859017" lon="17.1267966"><ele>391.0</ele><time>2026-04-25T11:30:24.573Z</time></trkpt><trkpt lat="40.7859229" lon="17.126694"><ele>391.0</ele><time>2026-04-25T11:30:26.541Z</time></trkpt><trkpt lat="40.7859563" lon="17.1265819"><ele>391.0</ele><time>2026-04-25T11:30:28.558Z</time></trkpt><trkpt lat="40.7859872" lon="17.1264642"><ele>391.0</ele><time>2026-04-25T11:30:30.545Z</time></trkpt><trkpt lat="40.786019" lon="17.1263524"><ele>391.0</ele><time>2026-04-25T11:30:32.542Z</time></trkpt><trkpt lat="40.7860525" lon="17.126235"><ele>391.0</ele><time>2026-04-25T11:30:34.583Z</time></trkpt><trkpt lat="40.7860862" lon="17.1261158"><ele>391.20000000000005</ele><time>2026-04-25T11:30:36.558Z</time></trkpt><trkpt lat="40.7861218" lon="17.1259927"><ele>391.40000000000003</ele><time>2026-04-25T11:30:38.572Z</time></trkpt><trkpt lat="40.7861491" lon="17.1258696"><ele>391.6</ele><time>2026-04-25T11:30:40.561Z</time></trkpt><trkpt lat="40.7861833" lon="17.1257539"><ele>391.8</ele><time>2026-04-25T11:30:42.58Z</time></trkpt><trkpt lat="40.7862219" lon="17.1256425"><ele>392.0</ele><time>2026-04-25T11:30:44.558Z</time></trkpt><trkpt lat="40.7862535" lon="17.1255214"><ele>391.40000000000003</ele><time>2026-04-25T11:30:46.571Z</time></trkpt><trkpt lat="40.7862862" lon="17.1254013"><ele>390.8</ele><time>2026-04-25T11:30:48.563Z</time></trkpt><trkpt lat="40.7863234" lon="17.1252831"><ele>390.2</ele><time>2026-04-25T11:30:50.583Z</time></trkpt><trkpt lat="40.7863612" lon="17.1251621"><ele>389.6</ele><time>2026-04-25T11:30:52.579Z</time></trkpt><trkpt lat="40.7864057" lon="17.125046"><ele>389.0</ele><time>2026-04-25T11:30:54.586Z</time></trkpt><trkpt lat="40.7864405" lon="17.1249281"><ele>388.6</ele><time>2026-04-25T11:30:56.565Z</time></trkpt><trkpt lat="40.7864804" lon="17.1248141"><ele>388.2</ele><time>2026-04-25T11:30:58.594Z</time></trkpt><trkpt lat="40.7865242" lon="17.1246909"><ele>387.8</ele><time>2026-04-25T11:31:00.528Z</time></trkpt><trkpt lat="40.7865589" lon="17.1245738"><ele>387.40000000000003</ele><time>2026-04-25T11:31:02.57Z</time></trkpt><trkpt lat="40.7865966" lon="17.1244517"><ele>387.0</ele><time>2026-04-25T11:31:04.585Z</time></trkpt><trkpt lat="40.7866346" lon="17.1243316"><ele>387.0</ele><time>2026-04-25T11:31:06.552Z</time></trkpt><trkpt lat="40.7866806" lon="17.12422"><ele>387.0</ele><time>2026-04-25T11:31:08.578Z</time></trkpt><trkpt lat="40.7867245" lon="17.1241103"><ele>387.0</ele><time>2026-04-25T11:31:10.571Z</time></trkpt><trkpt lat="40.7867702" lon="17.1239954"><ele>387.0</ele><time>2026-04-25T11:31:12.556Z</time></trkpt><trkpt lat="40.786806" lon="17.1238847"><ele>387.0</ele><time>2026-04-25T11:31:14.602Z</time></trkpt><trkpt lat="40.7868394" lon="17.1237764"><ele>386.40000000000003</ele><time>2026-04-25T11:31:16.549Z</time></trkpt><trkpt lat="40.7868773" lon="17.1236676"><ele>385.8</ele><time>2026-04-25T11:31:18.585Z</time></trkpt><trkpt lat="40.786911" lon="17.1235585"><ele>385.2</ele><time>2026-04-25T11:31:20.582Z</time></trkpt><trkpt lat="40.786957" lon="17.1234428"><ele>384.6</ele><time>2026-04-25T11:31:22.585Z</time></trkpt><trkpt lat="40.7869994" lon="17.1233253"><ele>384.0</ele><time>2026-04-25T11:31:24.613Z</time></trkpt><trkpt lat="40.7870443" lon="17.1232072"><ele>383.2</ele><time>2026-04-25T11:31:26.565Z</time></trkpt><trkpt lat="40.7870959" lon="17.1230926"><ele>382.4</ele><time>2026-04-25T11:31:28.578Z</time></trkpt><trkpt lat="40.7871424" lon="17.1229674"><ele>381.6</ele><time>2026-04-25T11:31:30.59Z</time></trkpt><trkpt lat="40.7871974" lon="17.1228473"><ele>380.8</ele><time>2026-04-25T11:31:32.58Z</time></trkpt><trkpt lat="40.7872477" lon="17.1227182"><ele>380.0</ele><time>2026-04-25T11:31:34.561Z</time></trkpt><trkpt lat="40.787305" lon="17.1225884"><ele>380.0</ele><time>2026-04-25T11:31:36.546Z</time></trkpt><trkpt lat="40.7873667" lon="17.1224585"><ele>380.0</ele><time>2026-04-25T11:31:38.547Z</time></trkpt><trkpt lat="40.7874257" lon="17.1223273"><ele>380.0</ele><time>2026-04-25T11:31:40.574Z</time></trkpt><trkpt lat="40.7874837" lon="17.1221934"><ele>380.0</ele><time>2026-04-25T11:31:42.576Z</time></trkpt><trkpt lat="40.7875474" lon="17.1220581"><ele>379.0</ele><time>2026-04-25T11:31:44.567Z</time></trkpt><trkpt lat="40.7876139" lon="17.1219295"><ele>378.0</ele><time>2026-04-25T11:31:46.577Z</time></trkpt><trkpt lat="40.7876798" lon="17.1217989"><ele>377.0</ele><time>2026-04-25T11:31:48.534Z</time></trkpt><trkpt lat="40.7877478" lon="17.1216636"><ele>376.0</ele><time>2026-04-25T11:31:50.562Z</time></trkpt><trkpt lat="40.787819" lon="17.1215303"><ele>375.5</ele><time>2026-04-25T11:31:52.548Z</time></trkpt><trkpt lat="40.7878972" lon="17.1214067"><ele>375.0</ele><time>2026-04-25T11:31:54.56Z</time></trkpt><trkpt lat="40.7879481" lon="17.1213529"><ele>374.5</ele><time>2026-04-25T11:31:55.557Z</time></trkpt><trkpt lat="40.788007" lon="17.1213134"><ele>374.0</ele><time>2026-04-25T11:31:56.574Z</time></trkpt><trkpt lat="40.7880667" lon="17.1212817"><ele>373.5</ele><time>2026-04-25T11:31:57.568Z</time></trkpt><trkpt lat="40.7881264" lon="17.1212518"><ele>373.0</ele><time>2026-04-25T11:31:58.572Z</time></trkpt><trkpt lat="40.7882384" lon="17.121241"><ele>373.0</ele><time>2026-04-25T11:32:00.565Z</time></trkpt><trkpt lat="40.78834" lon="17.121234"><ele>373.0</ele><time>2026-04-25T11:32:02.57Z</time></trkpt><trkpt lat="40.7883944" lon="17.1211408"><ele>373.0</ele><time>2026-04-25T11:32:04.531Z</time></trkpt><trkpt lat="40.788392" lon="17.1210175"><ele>373.0</ele><time>2026-04-25T11:32:06.576Z</time></trkpt><trkpt lat="40.7883992" lon="17.1208916"><ele>373.0</ele><time>2026-04-25T11:32:08.572Z</time></trkpt><trkpt lat="40.788417" lon="17.1207679"><ele>372.79999999999995</ele><time>2026-04-25T11:32:10.583Z</time></trkpt><trkpt lat="40.788432" lon="17.120632"><ele>372.6</ele><time>2026-04-25T11:32:12.555Z</time></trkpt><trkpt lat="40.7884659" lon="17.1205001"><ele>372.4</ele><time>2026-04-25T11:32:14.566Z</time></trkpt><trkpt lat="40.7884857" lon="17.1203699"><ele>372.20000000000005</ele><time>2026-04-25T11:32:16.556Z</time></trkpt><trkpt lat="40.7885122" lon="17.120245"><ele>372.0</ele><time>2026-04-25T11:32:18.549Z</time></trkpt><trkpt lat="40.788542" lon="17.1201197"><ele>371.8</ele><time>2026-04-25T11:32:20.575Z</time></trkpt><trkpt lat="40.7885719" lon="17.1199916"><ele>371.6</ele><time>2026-04-25T11:32:22.551Z</time></trkpt><trkpt lat="40.7885964" lon="17.1198583"><ele>371.40000000000003</ele><time>2026-04-25T11:32:24.583Z</time></trkpt><trkpt lat="40.788625" lon="17.1197259"><ele>371.20000000000005</ele><time>2026-04-25T11:32:26.551Z</time></trkpt><trkpt lat="40.7886497" lon="17.1195935"><ele>371.0</ele><time>2026-04-25T11:32:28.566Z</time></trkpt><trkpt lat="40.7886814" lon="17.1194566"><ele>370.0</ele><time>2026-04-25T11:32:30.589Z</time></trkpt><trkpt lat="40.7887036" lon="17.1193146"><ele>369.0</ele><time>2026-04-25T11:32:32.579Z</time></trkpt><trkpt lat="40.7887329" lon="17.1191823"><ele>368.0</ele><time>2026-04-25T11:32:34.588Z</time></trkpt><trkpt lat="40.7887644" lon="17.119047"><ele>367.0</ele><time>2026-04-25T11:32:36.538Z</time></trkpt><trkpt lat="40.7887963" lon="17.1189136"><ele>366.0</ele><time>2026-04-25T11:32:38.555Z</time></trkpt><trkpt lat="40.7888215" lon="17.1187856"><ele>365.8333333333333</ele><time>2026-04-25T11:32:40.584Z</time></trkpt><trkpt lat="40.7888473" lon="17.1186658"><ele>365.6666666666667</ele><time>2026-04-25T11:32:42.567Z</time></trkpt><trkpt lat="40.7888727" lon="17.1185548"><ele>365.5</ele><time>2026-04-25T11:32:44.58Z</time></trkpt><trkpt lat="40.7889023" lon="17.1184416"><ele>365.33333333333337</ele><time>2026-04-25T11:32:46.57Z</time></trkpt><trkpt lat="40.788931" lon="17.1183344"><ele>365.1666666666667</ele><time>2026-04-25T11:32:48.543Z</time></trkpt><trkpt lat="40.7889618" lon="17.1182285"><ele>365.0</ele><time>2026-04-25T11:32:50.579Z</time></trkpt><trkpt lat="40.7889852" lon="17.118129"><ele>365.00000000000006</ele><time>2026-04-25T11:32:52.566Z</time></trkpt><trkpt lat="40.7890193" lon="17.1180343"><ele>365.0</ele><time>2026-04-25T11:32:54.557Z</time></trkpt><trkpt lat="40.7890515" lon="17.1179483"><ele>365.0</ele><time>2026-04-25T11:32:56.561Z</time></trkpt><trkpt lat="40.7891212" lon="17.1178752"><ele>365.0</ele><time>2026-04-25T11:32:59.564Z</time></trkpt><trkpt lat="40.7891871" lon="17.1178603"><ele>365.0</ele><time>2026-04-25T11:33:02.545Z</time></trkpt><trkpt lat="40.7892514" lon="17.1178533"><ele>365.00000000000006</ele><time>2026-04-25T11:33:11.56Z</time></trkpt><trkpt lat="40.7893154" lon="17.117878"><ele>365.0</ele><time>2026-04-25T11:33:16.566Z</time></trkpt><trkpt lat="40.7893828" lon="17.1179055"><ele>365.42857142857144</ele><time>2026-04-25T11:33:22.583Z</time></trkpt><trkpt lat="40.7894537" lon="17.1179243"><ele>365.8571428571429</ele><time>2026-04-25T11:33:28.567Z</time></trkpt><trkpt lat="40.789522" lon="17.1179566"><ele>366.28571428571433</ele><time>2026-04-25T11:33:34.559Z</time></trkpt><trkpt lat="40.7895889" lon="17.1179933"><ele>366.7142857142857</ele><time>2026-04-25T11:33:40.549Z</time></trkpt><trkpt lat="40.789651" lon="17.1180211"><ele>367.1428571428571</ele><time>2026-04-25T11:33:45.551Z</time></trkpt><trkpt lat="40.789712" lon="17.1180453"><ele>367.5714285714286</ele><time>2026-04-25T11:33:50.524Z</time></trkpt><trkpt lat="40.7897845" lon="17.1180836"><ele>368.0</ele><time>2026-04-25T11:33:56.549Z</time></trkpt><trkpt lat="40.7898521" lon="17.1181273"><ele>368.0</ele><time>2026-04-25T11:34:01.563Z</time></trkpt><trkpt lat="40.78991" lon="17.1181621"><ele>368.0</ele><time>2026-04-25T11:34:06.579Z</time></trkpt><trkpt lat="40.7899765" lon="17.1181522"><ele>368.0</ele><time>2026-04-25T11:34:14.582Z</time></trkpt><trkpt lat="40.7900404" lon="17.1181482"><ele>368.0</ele><time>2026-04-25T11:34:22.554Z</time></trkpt><trkpt lat="40.7900909" lon="17.1182036"><ele>368.0</ele><time>2026-04-25T11:34:26.556Z</time></trkpt><trkpt lat="40.7901535" lon="17.1182619"><ele>368.0</ele><time>2026-04-25T11:34:30.551Z</time></trkpt><trkpt lat="40.790215" lon="17.118311"><ele>368.0</ele><time>2026-04-25T11:34:35.545Z</time></trkpt><trkpt lat="40.7902836" lon="17.1183468"><ele>368.42857142857144</ele><time>2026-04-25T11:34:40.547Z</time></trkpt><trkpt lat="40.7903528" lon="17.1183784"><ele>368.85714285714283</ele><time>2026-04-25T11:34:46.543Z</time></trkpt><trkpt lat="40.7904187" lon="17.1184116"><ele>369.2857142857143</ele><time>2026-04-25T11:34:51.547Z</time></trkpt><trkpt lat="40.7904782" lon="17.1184419"><ele>369.7142857142857</ele><time>2026-04-25T11:34:56.587Z</time></trkpt><trkpt lat="40.7905395" lon="17.1184691"><ele>370.1428571428571</ele><time>2026-04-25T11:35:02.547Z</time></trkpt><trkpt lat="40.7906052" lon="17.1185029"><ele>370.57142857142856</ele><time>2026-04-25T11:35:07.564Z</time></trkpt><trkpt lat="40.790669" lon="17.1185439"><ele>371.0</ele><time>2026-04-25T11:35:12.53Z</time></trkpt><trkpt lat="40.7907361" lon="17.1185818"><ele>371.0</ele><time>2026-04-25T11:35:18.565Z</time></trkpt><trkpt lat="40.7907981" lon="17.1186127"><ele>371.0</ele><time>2026-04-25T11:35:24.566Z</time></trkpt><trkpt lat="40.7908686" lon="17.1186409"><ele>371.0</ele><time>2026-04-25T11:35:30.568Z</time></trkpt><trkpt lat="40.7909361" lon="17.118669"><ele>371.0</ele><time>2026-04-25T11:35:36.544Z</time></trkpt><trkpt lat="40.7910054" lon="17.1186978"><ele>371.0</ele><time>2026-04-25T11:35:42.535Z</time></trkpt><trkpt lat="40.7910766" lon="17.1187353"><ele>371.0</ele><time>2026-04-25T11:35:48.545Z</time></trkpt><trkpt lat="40.791144" lon="17.1187599"><ele>371.0</ele><time>2026-04-25T11:35:54.557Z</time></trkpt><trkpt lat="40.791214" lon="17.1187932"><ele>371.14285714285717</ele><time>2026-04-25T11:36:00.672Z</time></trkpt><trkpt lat="40.7912922" lon="17.11883"><ele>371.2857142857143</ele><time>2026-04-25T11:36:07.546Z</time></trkpt><trkpt lat="40.7913645" lon="17.1188653"><ele>371.42857142857144</ele><time>2026-04-25T11:36:12.557Z</time></trkpt><trkpt lat="40.7914246" lon="17.1189007"><ele>371.57142857142856</ele><time>2026-04-25T11:36:17.445Z</time></trkpt><trkpt lat="40.7914852" lon="17.1189309"><ele>371.7142857142857</ele><time>2026-04-25T11:36:22.544Z</time></trkpt><trkpt lat="40.7915459" lon="17.1189681"><ele>371.8571428571429</ele><time>2026-04-25T11:36:27.57Z</time></trkpt><trkpt lat="40.7916122" lon="17.1190066"><ele>372.0</ele><time>2026-04-25T11:36:34.545Z</time></trkpt><trkpt lat="40.791679" lon="17.1190438"><ele>372.14285714285717</ele><time>2026-04-25T11:36:40.546Z</time></trkpt><trkpt lat="40.7917425" lon="17.1190724"><ele>372.2857142857143</ele><time>2026-04-25T11:36:46.444Z</time></trkpt><trkpt lat="40.7918027" lon="17.1190998"><ele>372.42857142857144</ele><time>2026-04-25T11:36:51.588Z</time></trkpt><trkpt lat="40.791867" lon="17.1191306"><ele>372.57142857142856</ele><time>2026-04-25T11:36:57.527Z</time></trkpt><trkpt lat="40.7919342" lon="17.1191542"><ele>372.7142857142857</ele><time>2026-04-25T11:37:04.529Z</time></trkpt><trkpt lat="40.7919998" lon="17.1191915"><ele>372.8571428571429</ele><time>2026-04-25T11:37:10.57Z</time></trkpt><trkpt lat="40.7920619" lon="17.1192322"><ele>373.0</ele><time>2026-04-25T11:37:16.56Z</time></trkpt><trkpt lat="40.7921256" lon="17.1192597"><ele>373.7142857142857</ele><time>2026-04-25T11:37:22.526Z</time></trkpt><trkpt lat="40.7921956" lon="17.1192959"><ele>374.42857142857144</ele><time>2026-04-25T11:37:29.587Z</time></trkpt><trkpt lat="40.7922614" lon="17.1193245"><ele>375.1428571428571</ele><time>2026-04-25T11:37:35.534Z</time></trkpt><trkpt lat="40.792328" lon="17.1193625"><ele>375.8571428571429</ele><time>2026-04-25T11:37:41.555Z</time></trkpt><trkpt lat="40.7923971" lon="17.1194046"><ele>376.57142857142856</ele><time>2026-04-25T11:37:47.564Z</time></trkpt><trkpt lat="40.7924651" lon="17.119437"><ele>377.2857142857143</ele><time>2026-04-25T11:37:53.556Z</time></trkpt><trkpt lat="40.7925346" lon="17.1194552"><ele>378.0</ele><time>2026-04-25T11:37:59.515Z</time></trkpt><trkpt lat="40.792601" lon="17.1194425"><ele>378.0</ele><time>2026-04-25T11:38:05.536Z</time></trkpt><trkpt lat="40.7926675" lon="17.1194285"><ele>378.0</ele><time>2026-04-25T11:38:10.605Z</time></trkpt><trkpt lat="40.7927425" lon="17.1194167"><ele>378.0</ele><time>2026-04-25T11:38:16.557Z</time></trkpt><trkpt lat="40.7928045" lon="17.1193816"><ele>378.0</ele><time>2026-04-25T11:38:22.573Z</time></trkpt><trkpt lat="40.7928599" lon="17.1193272"><ele>378.0</ele><time>2026-04-25T11:38:28.554Z</time></trkpt><trkpt lat="40.7929177" lon="17.1192709"><ele>378.0</ele><time>2026-04-25T11:38:41.533Z</time></trkpt><trkpt lat="40.7929484" lon="17.1191398"><ele>378.2</ele><time>2026-04-25T11:38:44.529Z</time></trkpt><trkpt lat="40.7929284" lon="17.119051"><ele>378.4</ele><time>2026-04-25T11:38:46.544Z</time></trkpt><trkpt lat="40.7928879" lon="17.1189327"><ele>378.59999999999997</ele><time>2026-04-25T11:38:48.552Z</time></trkpt><trkpt lat="40.792859" lon="17.1188256"><ele>378.79999999999995</ele><time>2026-04-25T11:38:50.557Z</time></trkpt><trkpt lat="40.7928161" lon="17.1187146"><ele>379.0</ele><time>2026-04-25T11:38:52.573Z</time></trkpt><trkpt lat="40.7927587" lon="17.1185905"><ele>379.0</ele><time>2026-04-25T11:38:54.571Z</time></trkpt><trkpt lat="40.7927048" lon="17.118458"><ele>379.0</ele><time>2026-04-25T11:38:56.539Z</time></trkpt><trkpt lat="40.792656" lon="17.1183257"><ele>379.0</ele><time>2026-04-25T11:38:58.567Z</time></trkpt><trkpt lat="40.7926015" lon="17.1181946"><ele>379.0</ele><time>2026-04-25T11:39:00.563Z</time></trkpt><trkpt lat="40.7925728" lon="17.1181198"><ele>379.0</ele><time>2026-04-25T11:39:01.569Z</time></trkpt><trkpt lat="40.7925428" lon="17.1180441"><ele>378.3333333333333</ele><time>2026-04-25T11:39:02.571Z</time></trkpt><trkpt lat="40.7924877" lon="17.1178984"><ele>377.66666666666663</ele><time>2026-04-25T11:39:04.547Z</time></trkpt><trkpt lat="40.7924603" lon="17.1178207"><ele>377.0</ele><time>2026-04-25T11:39:05.573Z</time></trkpt><trkpt lat="40.792433" lon="17.1177423"><ele>376.3333333333333</ele><time>2026-04-25T11:39:06.533Z</time></trkpt><trkpt lat="40.7924075" lon="17.1176584"><ele>375.6666666666667</ele><time>2026-04-25T11:39:07.547Z</time></trkpt><trkpt lat="40.792385" lon="17.117568"><ele>375.0</ele><time>2026-04-25T11:39:08.551Z</time></trkpt><trkpt lat="40.7923637" lon="17.11748"><ele>374.8571428571429</ele><time>2026-04-25T11:39:09.579Z</time></trkpt><trkpt lat="40.7923443" lon="17.1173898"><ele>374.71428571428567</ele><time>2026-04-25T11:39:10.556Z</time></trkpt><trkpt lat="40.7923269" lon="17.1173014"><ele>374.57142857142856</ele><time>2026-04-25T11:39:11.581Z</time></trkpt><trkpt lat="40.792308" lon="17.1172127"><ele>374.42857142857144</ele><time>2026-04-25T11:39:12.567Z</time></trkpt><trkpt lat="40.79229" lon="17.1171223"><ele>374.28571428571433</ele><time>2026-04-25T11:39:13.591Z</time></trkpt><trkpt lat="40.7922722" lon="17.1170342"><ele>374.1428571428571</ele><time>2026-04-25T11:39:14.583Z</time></trkpt><trkpt lat="40.7922538" lon="17.1169477"><ele>374.0</ele><time>2026-04-25T11:39:15.576Z</time></trkpt><trkpt lat="40.7922219" lon="17.1167892"><ele>374.0</ele><time>2026-04-25T11:39:17.548Z</time></trkpt><trkpt lat="40.7921972" lon="17.1166414"><ele>374.0</ele><time>2026-04-25T11:39:19.566Z</time></trkpt><trkpt lat="40.7921868" lon="17.1165"><ele>374.0</ele><time>2026-04-25T11:39:21.541Z</time></trkpt><trkpt lat="40.7921722" lon="17.1163638"><ele>374.0</ele><time>2026-04-25T11:39:23.583Z</time></trkpt><trkpt lat="40.7921626" lon="17.1162403"><ele>374.0</ele><time>2026-04-25T11:39:25.565Z</time></trkpt><trkpt lat="40.7921598" lon="17.1161349"><ele>373.85714285714283</ele><time>2026-04-25T11:39:27.558Z</time></trkpt><trkpt lat="40.7921535" lon="17.1160355"><ele>373.7142857142857</ele><time>2026-04-25T11:39:29.543Z</time></trkpt><trkpt lat="40.7921503" lon="17.1159521"><ele>373.57142857142856</ele><time>2026-04-25T11:39:31.538Z</time></trkpt><trkpt lat="40.7921533" lon="17.1158616"><ele>373.42857142857144</ele><time>2026-04-25T11:39:33.54Z</time></trkpt><trkpt lat="40.7921585" lon="17.1157702"><ele>373.28571428571433</ele><time>2026-04-25T11:39:35.541Z</time></trkpt><trkpt lat="40.7921597" lon="17.1156797"><ele>373.14285714285717</ele><time>2026-04-25T11:39:37.562Z</time></trkpt><trkpt lat="40.7921666" lon="17.1155594"><ele>373.0</ele><time>2026-04-25T11:39:40.547Z</time></trkpt><trkpt lat="40.7921662" lon="17.1154444"><ele>372.8333333333333</ele><time>2026-04-25T11:39:43.52Z</time></trkpt><trkpt lat="40.7921645" lon="17.1153248"><ele>372.66666666666663</ele><time>2026-04-25T11:39:46.527Z</time></trkpt><trkpt lat="40.7921531" lon="17.1152234"><ele>372.5</ele><time>2026-04-25T11:39:49.547Z</time></trkpt><trkpt lat="40.7921671" lon="17.1151123"><ele>372.3333333333333</ele><time>2026-04-25T11:39:52.522Z</time></trkpt><trkpt lat="40.7921794" lon="17.1150103"><ele>372.1666666666667</ele><time>2026-04-25T11:39:55.544Z</time></trkpt><trkpt lat="40.7921985" lon="17.1149099"><ele>372.0</ele><time>2026-04-25T11:39:58.574Z</time></trkpt><trkpt lat="40.7922082" lon="17.1148104"><ele>371.5</ele><time>2026-04-25T11:40:01.557Z</time></trkpt><trkpt lat="40.7922186" lon="17.1146988"><ele>371.0</ele><time>2026-04-25T11:40:04.576Z</time></trkpt><trkpt lat="40.7922324" lon="17.1146125"><ele>370.5</ele><time>2026-04-25T11:40:06.558Z</time></trkpt><trkpt lat="40.7922511" lon="17.1145068"><ele>370.0</ele><time>2026-04-25T11:40:08.565Z</time></trkpt><trkpt lat="40.7922706" lon="17.1143882"><ele>369.5</ele><time>2026-04-25T11:40:10.559Z</time></trkpt><trkpt lat="40.7922843" lon="17.1142611"><ele>369.0</ele><time>2026-04-25T11:40:12.55Z</time></trkpt><trkpt lat="40.7923051" lon="17.1141272"><ele>368.75</ele><time>2026-04-25T11:40:14.584Z</time></trkpt><trkpt lat="40.7923191" lon="17.1139817"><ele>368.5</ele><time>2026-04-25T11:40:16.59Z</time></trkpt><trkpt lat="40.7923362" lon="17.1138264"><ele>368.25</ele><time>2026-04-25T11:40:18.595Z</time></trkpt><trkpt lat="40.7923471" lon="17.1136617"><ele>368.0</ele><time>2026-04-25T11:40:20.548Z</time></trkpt><trkpt lat="40.792352" lon="17.1135021"><ele>368.0</ele><time>2026-04-25T11:40:22.535Z</time></trkpt><trkpt lat="40.7923407" lon="17.1133408"><ele>368.0</ele><time>2026-04-25T11:40:24.541Z</time></trkpt><trkpt lat="40.7923263" lon="17.113195"><ele>368.0</ele><time>2026-04-25T11:40:26.577Z</time></trkpt><trkpt lat="40.7923175" lon="17.1130543"><ele>368.0</ele><time>2026-04-25T11:40:28.576Z</time></trkpt><trkpt lat="40.7923139" lon="17.1129334"><ele>368.0</ele><time>2026-04-25T11:40:30.574Z</time></trkpt><trkpt lat="40.7923052" lon="17.1128235"><ele>368.42857142857144</ele><time>2026-04-25T11:40:32.559Z</time></trkpt><trkpt lat="40.7922951" lon="17.1127058"><ele>368.85714285714283</ele><time>2026-04-25T11:40:35.57Z</time></trkpt><trkpt lat="40.7922939" lon="17.1126131"><ele>369.2857142857143</ele><time>2026-04-25T11:40:39.544Z</time></trkpt><trkpt lat="40.7922765" lon="17.1125198"><ele>369.7142857142857</ele><time>2026-04-25T11:40:49.562Z</time></trkpt><trkpt lat="40.7922629" lon="17.1124244"><ele>370.1428571428571</ele><time>2026-04-25T11:40:55.559Z</time></trkpt><trkpt lat="40.7922432" lon="17.1123297"><ele>370.57142857142856</ele><time>2026-04-25T11:41:01.578Z</time></trkpt><trkpt lat="40.792231" lon="17.1122436"><ele>371.0</ele><time>2026-04-25T11:41:07.53Z</time></trkpt><trkpt lat="40.7922086" lon="17.1121568"><ele>371.2857142857143</ele><time>2026-04-25T11:41:13.526Z</time></trkpt><trkpt lat="40.7921948" lon="17.1120728"><ele>371.57142857142856</ele><time>2026-04-25T11:41:19.548Z</time></trkpt><trkpt lat="40.7921817" lon="17.1119863"><ele>371.8571428571429</ele><time>2026-04-25T11:41:25.549Z</time></trkpt><trkpt lat="40.7921605" lon="17.1118998"><ele>372.1428571428571</ele><time>2026-04-25T11:41:33.565Z</time></trkpt><trkpt lat="40.7921286" lon="17.1118222"><ele>372.42857142857144</ele><time>2026-04-25T11:41:40.561Z</time></trkpt><trkpt lat="40.7921044" lon="17.1117366"><ele>372.7142857142857</ele><time>2026-04-25T11:41:47.541Z</time></trkpt><trkpt lat="40.7920725" lon="17.1116605"><ele>373.0</ele><time>2026-04-25T11:41:54.566Z</time></trkpt><trkpt lat="40.7920405" lon="17.1115703"><ele>373.14285714285717</ele><time>2026-04-25T11:42:01.571Z</time></trkpt><trkpt lat="40.7920111" lon="17.1114911"><ele>373.28571428571433</ele><time>2026-04-25T11:42:07.543Z</time></trkpt><trkpt lat="40.7919718" lon="17.11142"><ele>373.42857142857144</ele><time>2026-04-25T11:42:13.571Z</time></trkpt><trkpt lat="40.7919335" lon="17.111341"><ele>373.57142857142856</ele><time>2026-04-25T11:42:19.563Z</time></trkpt><trkpt lat="40.7919049" lon="17.1112537"><ele>373.7142857142857</ele><time>2026-04-25T11:42:25.562Z</time></trkpt><trkpt lat="40.7918743" lon="17.1111705"><ele>373.85714285714283</ele><time>2026-04-25T11:42:31.516Z</time></trkpt><trkpt lat="40.7918466" lon="17.1110921"><ele>374.0</ele><time>2026-04-25T11:42:36.557Z</time></trkpt><trkpt lat="40.7918164" lon="17.111013"><ele>374.0</ele><time>2026-04-25T11:42:42.478Z</time></trkpt><trkpt lat="40.7917981" lon="17.1109292"><ele>374.0</ele><time>2026-04-25T11:42:48.571Z</time></trkpt><trkpt lat="40.7917763" lon="17.1108251"><ele>374.0</ele><time>2026-04-25T11:42:54.547Z</time></trkpt><trkpt lat="40.7917357" lon="17.1107203"><ele>374.0</ele><time>2026-04-25T11:42:57.57Z</time></trkpt><trkpt lat="40.7917015" lon="17.1106385"><ele>374.0</ele><time>2026-04-25T11:42:59.575Z</time></trkpt><trkpt lat="40.7916744" lon="17.1105501"><ele>374.0</ele><time>2026-04-25T11:43:01.554Z</time></trkpt><trkpt lat="40.7916487" lon="17.1104578"><ele>374.0</ele><time>2026-04-25T11:43:04.603Z</time></trkpt><trkpt lat="40.7916175" lon="17.1103573"><ele>374.0</ele><time>2026-04-25T11:43:08.58Z</time></trkpt><trkpt lat="40.7915715" lon="17.1102625"><ele>374.0</ele><time>2026-04-25T11:43:12.574Z</time></trkpt><trkpt lat="40.7915185" lon="17.1101836"><ele>374.0</ele><time>2026-04-25T11:43:15.554Z</time></trkpt><trkpt lat="40.7914766" lon="17.1101177"><ele>374.0</ele><time>2026-04-25T11:43:17.54Z</time></trkpt><trkpt lat="40.7914272" lon="17.1100387"><ele>374.0</ele><time>2026-04-25T11:43:19.551Z</time></trkpt><trkpt lat="40.791373" lon="17.109941"><ele>373.5</ele><time>2026-04-25T11:43:21.565Z</time></trkpt><trkpt lat="40.7912995" lon="17.1098274"><ele>373.0</ele><time>2026-04-25T11:43:23.595Z</time></trkpt><trkpt lat="40.7912625" lon="17.1097517"><ele>372.5</ele><time>2026-04-25T11:43:24.568Z</time></trkpt><trkpt lat="40.7912223" lon="17.1096733"><ele>372.0</ele><time>2026-04-25T11:43:25.577Z</time></trkpt><trkpt lat="40.7911912" lon="17.1095818"><ele>371.5</ele><time>2026-04-25T11:43:26.587Z</time></trkpt><trkpt lat="40.7911608" lon="17.1094807"><ele>371.0</ele><time>2026-04-25T11:43:27.594Z</time></trkpt><trkpt lat="40.7911276" lon="17.1093766"><ele>371.0</ele><time>2026-04-25T11:43:28.589Z</time></trkpt><trkpt lat="40.7910962" lon="17.1092631"><ele>371.0</ele><time>2026-04-25T11:43:29.537Z</time></trkpt><trkpt lat="40.7910672" lon="17.1091451"><ele>371.0</ele><time>2026-04-25T11:43:30.58Z</time></trkpt><trkpt lat="40.7910427" lon="17.1090148"><ele>371.0</ele><time>2026-04-25T11:43:31.581Z</time></trkpt><trkpt lat="40.7910264" lon="17.1088919"><ele>371.0</ele><time>2026-04-25T11:43:32.543Z</time></trkpt><trkpt lat="40.7910082" lon="17.1087781"><ele>370.6666666666667</ele><time>2026-04-25T11:43:33.564Z</time></trkpt><trkpt lat="40.7909908" lon="17.1086605"><ele>370.33333333333337</ele><time>2026-04-25T11:43:34.58Z</time></trkpt><trkpt lat="40.7909699" lon="17.1085604"><ele>370.0</ele><time>2026-04-25T11:43:35.553Z</time></trkpt><trkpt lat="40.7909436" lon="17.1084571"><ele>369.6666666666667</ele><time>2026-04-25T11:43:36.571Z</time></trkpt><trkpt lat="40.7909131" lon="17.108371"><ele>369.3333333333333</ele><time>2026-04-25T11:43:37.58Z</time></trkpt><trkpt lat="40.7908863" lon="17.1082935"><ele>369.0</ele><time>2026-04-25T11:43:38.543Z</time></trkpt><trkpt lat="40.7908463" lon="17.1081606"><ele>369.0</ele><time>2026-04-25T11:43:40.595Z</time></trkpt><trkpt lat="40.7908103" lon="17.1080615"><ele>369.0</ele><time>2026-04-25T11:43:42.565Z</time></trkpt><trkpt lat="40.7907743" lon="17.1079613"><ele>369.0</ele><time>2026-04-25T11:43:45.592Z</time></trkpt><trkpt lat="40.7907462" lon="17.1078799"><ele>369.0</ele><time>2026-04-25T11:43:54.549Z</time></trkpt><trkpt lat="40.790709" lon="17.1077929"><ele>369.0</ele><time>2026-04-25T11:44:00.549Z</time></trkpt><trkpt lat="40.790661" lon="17.107727"><ele>369.0</ele><time>2026-04-25T11:44:06.586Z</time></trkpt><trkpt lat="40.7906284" lon="17.1076537"><ele>369.0</ele><time>2026-04-25T11:44:11.566Z</time></trkpt><trkpt lat="40.7905853" lon="17.1075771"><ele>369.0</ele><time>2026-04-25T11:44:16.447Z</time></trkpt><trkpt lat="40.7905371" lon="17.1075117"><ele>369.0</ele><time>2026-04-25T11:44:22.544Z</time></trkpt><trkpt lat="40.7905033" lon="17.1074309"><ele>369.0</ele><time>2026-04-25T11:44:30.549Z</time></trkpt><trkpt lat="40.7904628" lon="17.1073535"><ele>369.0</ele><time>2026-04-25T11:44:37.553Z</time></trkpt><trkpt lat="40.7904157" lon="17.1072866"><ele>369.0</ele><time>2026-04-25T11:44:43.569Z</time></trkpt><trkpt lat="40.7904116" lon="17.1071946"><ele>369.0</ele><time>2026-04-25T11:44:50.527Z</time></trkpt><trkpt lat="40.7904629" lon="17.107131"><ele>369.0</ele><time>2026-04-25T11:46:16.492Z</time></trkpt><trkpt lat="40.790505" lon="17.1070512"><ele>369.42857142857144</ele><time>2026-04-25T11:46:21.546Z</time></trkpt><trkpt lat="40.7905442" lon="17.1069686"><ele>369.85714285714283</ele><time>2026-04-25T11:46:27.537Z</time></trkpt><trkpt lat="40.7905851" lon="17.1068956"><ele>370.28571428571433</ele><time>2026-04-25T11:46:33.537Z</time></trkpt><trkpt lat="40.7906436" lon="17.1068287"><ele>370.7142857142857</ele><time>2026-04-25T11:46:39.535Z</time></trkpt><trkpt lat="40.7906887" lon="17.1067512"><ele>371.14285714285717</ele><time>2026-04-25T11:46:45.562Z</time></trkpt><trkpt lat="40.7907365" lon="17.1066779"><ele>371.5714285714286</ele><time>2026-04-25T11:46:51.587Z</time></trkpt><trkpt lat="40.7907787" lon="17.1066076"><ele>372.0</ele><time>2026-04-25T11:46:56.538Z</time></trkpt><trkpt lat="40.7908276" lon="17.1065411"><ele>372.0</ele><time>2026-04-25T11:47:02.541Z</time></trkpt><trkpt lat="40.7908276" lon="17.1065411"><ele>372.0</ele><time>2026-04-25T11:47:02.541Z</time></trkpt></trkseg></trk></gpx>